# Wetter Temperatur Luftdruck Luftfeuchtigkeit Sichtweite Windgeschwindigkeit Windrichtung Zeit
1 Clear 12 1021 62 6000 3.1 170 21:42 28.01.2020
2 Clear 12 1021 62 6000 3.1 170 21:42 28.01.2020
3 Clear 12 1021 62 6000 2.1 180 21:22 28.01.2020
4 Clear 12 1021 62 6000 2.1 170 20:58 28.01.2020
5 Clear 12 1021 62 6000 2.1 170 20:40 28.01.2020
6 Clear 14 1021 54 6000 1.5 150 20:21 28.01.2020
7 Clear 13 1021 58 6000 2.1 180 19:39 28.01.2020
8 Clear 14 1020 54 6000 4.81 316 19:20 28.01.2020
9 Haze 14 1020 54 4000 4.81 316 18:58 28.01.2020
10 Haze 14 1020 54 4000 4.81 316 18:40 28.01.2020
11 Haze 16 1020 51 4000 1 350 18:21 28.01.2020
12 Clear 16 1020 51 6000 2.1 330 17:57 28.01.2020
13 Clear 16 1020 51 6000 2.1 330 17:37 28.01.2020
14 Clear 16 1019 51 6000 3.1 330 17:19 28.01.2020
15 Clouds 16 1019 51 10000 3.6 330 16:55 28.01.2020
16 Clouds 16 1019 51 10000 3.6 330 16:55 28.01.2020
17 Clouds 16 1019 51 10000 3.6 330 16:36 28.01.2020
18 Clouds 17 1019 48 10000 3.1 320 16:18 28.01.2020
19 Clouds 17 1019 48 10000 3.1 320 15:42 28.01.2020
20 Clouds 17 1019 48 10000 4.6 310 15:19 28.01.2020
21 Clear 17 1018 51 10000 3.6 320 14:55 28.01.2020
22 Clear 17 1018 51 10000 4.1 330 14:36 28.01.2020
23 Clouds 17 1018 51 10000 4.1 330 14:18 28.01.2020
24 Clouds 17 1018 51 10000 4.6 310 13:39 28.01.2020
25 Clouds 17 1018 51 10000 4.1 280 13:21 28.01.2020
26 Clouds 17 1018 51 10000 4.1 280 13:21 28.01.2020
27 Clouds 16 1018 59 6000 3.1 280 12:42 28.01.2020
28 Clouds 16 1019 59 6000 1.5 290 12:24 28.01.2020
29 Clouds 15 1020 62 6000 4.1 290 11:55 28.01.2020
30 Clouds 16 1018 44 0 3.94 289 11:37 28.01.2020
31 Clouds 15 1020 72 0 2.68 300 11:19 28.01.2020
32 Clouds 14 1020 82 0 1.34 320 10:41 28.01.2020
33 Mist 14 1020 82 3000 1.5 320 10:22 28.01.2020
34 Clouds 14 1020 82 0 1.34 320 09:56 28.01.2020
35 Clouds 14 1020 57 0 2.49 341 09:37 28.01.2020
36 Mist 13 1020 82 2000 2.49 341 09:19 28.01.2020
37 Mist 13 1020 82 2000 2.49 341 08:42 28.01.2020
38 Mist 13 1020 82 2000 2.48 19 08:20 28.01.2020
39 Mist 11 1020 81 2000 1.5 300 07:38 28.01.2020
40 Mist 10 1020 81 2000 2.48 19 06:52 28.01.2020
41 Mist 9 1019 81 4000 3.1 100 06:29 28.01.2020
42 Mist 10 1020 81 4000 0.5 10 05:56 28.01.2020
43 Clouds 11 1020 81 6000 1.5 330 05:34 28.01.2020
44 Clouds 11 1019 81 6000 2.1 330 04:39 28.01.2020
45 Clouds 10 1019 81 10000 1.5 30 03:41 28.01.2020
46 Clouds 11 1019 76 10000 2.1 40 02:40 28.01.2020
47 Clouds 11 1019 76 10000 3.1 80 02:21 28.01.2020
48 Clouds 11 1020 76 10000 1.5 50 01:48 28.01.2020
49 Clouds 11 1020 71 10000 2.1 80 00:51 28.01.2020
50 Clouds 10 1020 71 10000 1.5 70 00:30 28.01.2020
51 Clouds 10 1020 71 10000 2.1 70 23:59 27.01.2020
52 Clouds 10 1020 71 10000 2.1 70 23:41 27.01.2020
53 Clouds 12 1021 66 10000 3.1 30 23:18 27.01.2020
54 Clouds 11 1021 71 10000 3.6 40 22:44 27.01.2020
55 Clouds 12 1021 66 10000 3.1 40 22:20 27.01.2020
56 Clouds 12 1021 66 10000 3.1 50 21:57 27.01.2020
57 Clouds 12 1021 66 10000 3.1 50 21:38 27.01.2020
58 Clouds 12 1021 66 10000 3.6 40 21:18 27.01.2020
59 Clouds 13 1021 62 10000 4.6 40 20:56 27.01.2020
60 Clouds 13 1021 62 10000 4.6 40 20:37 27.01.2020
61 Clouds 13 1021 66 10000 4.1 40 20:18 27.01.2020
62 Clouds 14 1021 58 10000 4.1 40 19:42 27.01.2020
63 Clouds 14 1021 54 10000 4.6 40 19:23 27.01.2020
64 Clouds 14 1021 54 10000 4.6 40 18:58 27.01.2020
65 Clouds 14 1021 54 10000 4.6 40 18:39 27.01.2020
66 Clouds 15 1021 58 10000 3.6 20 18:20 27.01.2020
67 Clouds 15 1021 58 10000 3.6 20 18:20 27.01.2020
68 Clouds 15 1021 58 10000 3.6 20 18:20 27.01.2020
69 Clouds 16 1021 51 10000 4.1 350 17:57 27.01.2020
70 Clouds 17 1021 39 10000 5.7 10 17:37 27.01.2020
71 Clouds 17 1021 39 10000 5.7 10 17:37 27.01.2020
72 Clouds 17 1021 39 10000 5.7 10 17:18 27.01.2020
73 Clouds 17 1021 39 10000 5.7 10 16:42 27.01.2020
74 Clouds 18 1021 34 10000 6.7 30 16:24 27.01.2020
75 Clouds 19 1021 25 10000 5.1 50 15:56 27.01.2020
76 Clouds 19 1021 25 10000 5.1 50 15:38 27.01.2020
77 Clouds 19 1020 25 10000 5.1 60 15:19 27.01.2020
78 Clouds 19 1020 25 10000 5.1 60 15:19 27.01.2020
79 Clouds 19 1021 37 10000 5.7 50 14:55 27.01.2020
80 Clouds 19 1021 37 10000 5.7 50 14:37 27.01.2020
81 Clouds 19 1021 28 10000 4.6 40 14:18 27.01.2020
82 Clouds 18 1021 28 10000 5.7 50 13:42 27.01.2020
83 Clouds 18 1021 34 10000 6.2 40 13:21 27.01.2020
84 Clouds 18 1021 31 10000 7.7 60 12:56 27.01.2020
85 Clouds 18 1021 31 10000 7.7 60 12:38 27.01.2020
86 Clouds 17 1022 39 10000 7.2 50 12:20 27.01.2020
87 Clouds 17 1023 36 10000 6.7 60 11:42 27.01.2020
88 Clouds 16 1023 44 10000 8.2 60 11:21 27.01.2020
89 Clouds 16 1023 44 10000 8.2 60 11:21 27.01.2020
90 Clouds 16 1023 48 10000 8.7 60 10:55 27.01.2020
91 Clouds 15 1024 51 10000 8.7 60 10:36 27.01.2020
92 Clouds 15 1024 51 10000 8.7 60 10:18 27.01.2020
93 Clouds 14 1024 54 10000 9.8 60 09:39 27.01.2020
94 Clouds 13 1025 58 10000 8.7 60 09:19 27.01.2020
95 Clouds 13 1025 58 6000 8.2 60 08:48 27.01.2020
96 Clouds 12 1025 66 6000 6.2 60 08:23 27.01.2020
97 Clouds 11 1025 71 6000 4.6 70 07:55 27.01.2020
98 Clouds 11 1025 71 6000 4.6 70 07:36 27.01.2020
99 Clouds 8 1025 81 6000 3.6 60 07:18 27.01.2020
100 Clouds 8 1025 75 6000 3.1 30 06:33 27.01.2020
101 Clouds 8 1025 81 6000 2.6 20 05:38 27.01.2020
102 Clouds 8 1024 75 6000 4.6 60 04:21 27.01.2020
103 Clouds 8 1025 75 6000 4.6 60 03:27 27.01.2020
104 Clouds 8 1025 70 6000 4.1 70 01:47 27.01.2020
105 Clouds 8 1026 70 6000 4.1 70 01:22 27.01.2020
106 Clouds 8 1026 70 10000 3.6 40 00:40 27.01.2020
107 Clouds 9 1027 66 10000 3.6 40 00:21 27.01.2020
108 Clouds 9 1027 66 10000 3.1 50 23:43 26.01.2020
109 Clouds 10 1027 61 10000 3.6 70 23:22 26.01.2020
110 Clouds 10 1027 61 10000 3.1 60 22:58 26.01.2020
111 Clouds 10 1027 61 10000 3.1 60 22:38 26.01.2020
112 Clouds 11 1027 62 10000 5.1 60 22:20 26.01.2020
113 Clouds 11 1027 62 10000 5.1 70 21:57 26.01.2020
114 Clouds 11 1027 62 10000 5.1 70 21:39 26.01.2020
115 Clouds 11 1028 62 10000 5.1 50 21:20 26.01.2020
116 Clouds 11 1028 62 10000 5.1 50 20:58 26.01.2020
117 Clouds 11 1028 62 10000 5.1 50 20:38 26.01.2020
118 Clouds 12 1028 58 10000 5.1 50 20:19 26.01.2020
119 Clouds 12 1028 58 10000 6.2 30 19:58 26.01.2020
120 Clouds 12 1028 58 10000 6.2 30 19:38 26.01.2020
121 Clouds 13 1028 58 10000 6.7 20 19:19 26.01.2020
122 Clouds 14 1028 44 10000 4.6 20 18:56 26.01.2020
123 Clouds 14 1028 44 10000 4.6 20 18:38 26.01.2020
124 Clouds 14 1027 44 10000 5.1 30 18:19 26.01.2020
125 Clouds 14 1027 44 10000 6.2 30 17:55 26.01.2020
126 Clouds 15 1027 44 10000 6.2 30 17:36 26.01.2020
127 Clear 15 1027 44 10000 6.2 30 17:18 26.01.2020
128 Clear 16 1027 38 10000 6.2 40 16:55 26.01.2020
129 Clear 16 1027 38 10000 6.2 40 16:37 26.01.2020
130 Clear 16 1027 38 10000 6.2 40 16:18 26.01.2020
131 Clear 17 1027 36 10000 5.1 20 15:43 26.01.2020
132 Clear 17 1027 36 10000 5.1 20 15:21 26.01.2020
133 Clear 17 1027 33 10000 5.7 40 14:55 26.01.2020
134 Clear 17 1027 33 0 5.36 40 14:37 26.01.2020
135 Clouds 17 1027 33 0 5.36 40 14:18 26.01.2020
136 Clouds 16 1027 36 0 6.71 40 13:39 26.01.2020
137 Clouds 16 1027 38 0 5.81 30 13:18 26.01.2020
138 Clouds 16 1027 36 0 7.15 30 12:54 26.01.2020
139 Clouds 16 1027 38 0 6.71 60 12:36 26.01.2020
140 Clouds 16 1027 38 0 6.71 60 12:18 26.01.2020
141 Clouds 15 1028 41 0 7.15 50 11:56 26.01.2020
142 Clouds 15 1028 41 0 7.15 50 11:36 26.01.2020
143 Clear 15 1028 41 0 7.15 50 11:18 26.01.2020
144 Clouds 14 1030 47 6000 7.7 50 10:39 26.01.2020
145 Clouds 14 1030 47 6000 7.7 50 10:21 26.01.2020
146 Clouds 14 1030 47 6000 7.7 50 09:59 26.01.2020
147 Clouds 14 1030 47 6000 7.7 50 09:41 26.01.2020
148 Clouds 13 1030 50 6000 7.7 50 09:23 26.01.2020
149 Clouds 13 1030 50 6000 6.7 50 08:57 26.01.2020
150 Clouds 13 1030 50 6000 6.7 50 08:57 26.01.2020
151 Clouds 13 1030 50 6000 6.7 50 08:38 26.01.2020
152 Clouds 12 1030 54 6000 4.6 60 08:20 26.01.2020
153 Clouds 11 1030 57 6000 3.6 60 07:47 26.01.2020
154 Clouds 8 1029 61 6000 4.1 70 07:22 26.01.2020
155 Clouds 7 1030 70 6000 1.5 80 06:38 26.01.2020
156 Clouds 7 1030 70 6000 1.5 80 06:18 26.01.2020
157 Clouds 6 1029 70 6000 2.1 60 05:26 26.01.2020
158 Clear 8 1029 61 10000 2.6 90 03:23 26.01.2020
159 Clear 8 1029 66 10000 3.1 40 02:24 26.01.2020
160 Clear 8 1029 66 10000 3.1 40 01:40 26.01.2020
161 Clear 10 1029 53 10000 4.6 90 01:21 26.01.2020
162 Clear 10 1029 57 10000 4.6 90 00:41 26.01.2020
163 Clear 9 1030 57 10000 3.6 90 00:20 26.01.2020
164 Clear 9 1030 57 0 3.58 80 23:38 25.01.2020
165 Clear 9 1030 57 0 3.58 80 23:20 25.01.2020
166 Clear 9 1030 57 0 2.24 70 22:44 25.01.2020
167 Clear 10 1030 53 0 2.24 80 22:21 25.01.2020
168 Clear 10 1030 53 0 2.24 80 21:59 25.01.2020
169 Clear 10 1030 53 0 2.24 80 21:41 25.01.2020
170 Clear 10 1030 53 0 2.68 60 21:22 25.01.2020
171 Clear 9 1030 57 0 4.27 71 20:56 25.01.2020
172 Clear 11 1030 53 0 2.68 60 20:38 25.01.2020
173 Clear 11 1030 53 0 2.68 60 20:19 25.01.2020
174 Clear 14 1030 47 0 4.92 350 19:43 25.01.2020
175 Clear 14 1030 47 0 4.92 350 19:20 25.01.2020
176 Clear 14 1030 47 0 4.92 350 18:57 25.01.2020
177 Clear 14 1030 47 0 4.92 350 18:38 25.01.2020
178 Clear 14 1030 47 0 4.92 350 18:20 25.01.2020
179 Clear 14 1030 47 0 4.92 350 17:40 25.01.2020
180 Clear 15 1029 41 0 4.92 360 17:21 25.01.2020
181 Clear 15 1029 41 0 4.92 360 16:58 25.01.2020
182 Clear 15 1029 41 0 4.92 350 16:39 25.01.2020
183 Clear 15 1029 41 0 4.92 350 16:19 25.01.2020
184 Clear 16 1029 36 0 4.92 360 15:47 25.01.2020
185 Clear 16 1029 36 0 4.02 30 15:25 25.01.2020
186 Clear 16 1029 36 0 4.02 30 14:59 25.01.2020
187 Clear 16 1029 41 0 4.47 30 14:41 25.01.2020
188 Clear 16 1029 38 0 4.47 30 14:18 25.01.2020
189 Clear 16 1029 38 0 4.47 10 13:43 25.01.2020
190 Clear 15 1029 38 0 3.58 50 13:23 25.01.2020
191 Clear 15 1030 38 8000 4.1 20 12:46 25.01.2020
192 Clear 15 1030 38 8000 4.1 20 12:26 25.01.2020
193 Clear 15 1030 38 8000 4.1 20 11:46 25.01.2020
194 Clear 15 1030 38 8000 5.1 340 11:22 25.01.2020
195 Clear 14 1031 44 8000 3.1 10 10:59 25.01.2020
196 Clear 14 1031 44 8000 3.1 10 10:40 25.01.2020
197 Clear 13 1031 47 8000 3.1 10 10:21 25.01.2020
198 Clear 13 1031 50 6000 2.6 360 09:57 25.01.2020
199 Clear 13 1031 50 6000 2.6 360 09:37 25.01.2020
200 Clear 13 1031 50 6000 1 40 09:18 25.01.2020
201 Clear 12 1030 54 6000 1.5 290 08:42 25.01.2020
202 Clear 10 1030 61 6000 1 220 07:51 25.01.2020
203 Clear 8 1029 61 6000 1.5 170 06:57 25.01.2020
204 Clear 7 1029 63 6000 1.72 38 06:31 25.01.2020
205 Clear 7 1028 56 6000 1.72 38 05:48 25.01.2020
206 Clear 7 1028 56 6000 1.72 38 05:28 25.01.2020
207 Clouds 8 1027 52 10000 2.62 29 03:54 25.01.2020
208 Clouds 7 1027 52 10000 2.62 29 03:23 25.01.2020
209 Clouds 8 1027 52 10000 1.5 80 02:23 25.01.2020
210 Clouds 8 1027 61 10000 2.33 23 01:53 25.01.2020
211 Clouds 8 1027 61 10000 2.6 90 00:52 25.01.2020
212 Clouds 9 1027 57 10000 2.6 90 00:26 25.01.2020
213 Clouds 9 1027 57 10000 2.6 90 00:26 25.01.2020
214 Clouds 9 1027 57 10000 3.1 70 23:59 24.01.2020
215 Clouds 9 1027 57 10000 3.1 70 23:59 24.01.2020
216 Clouds 9 1027 57 10000 3.1 70 23:41 24.01.2020
217 Clouds 9 1027 57 10000 3.1 70 23:41 24.01.2020
218 Clouds 9 1027 57 10000 3.1 70 23:23 24.01.2020
219 Clouds 9 1027 54 10000 1.5 60 22:46 24.01.2020
220 Clouds 9 1027 54 10000 1.5 60 22:46 24.01.2020
221 Clouds 10 1027 53 10000 3.6 10 22:25 24.01.2020
222 Clouds 10 1027 57 10000 3.6 360 21:57 24.01.2020
223 Clouds 10 1027 57 10000 3.6 360 21:39 24.01.2020
224 Clouds 11 1027 53 10000 3.6 350 21:18 24.01.2020
225 Clouds 11 1027 53 10000 4.1 350 20:43 24.01.2020
226 Clouds 12 1027 50 10000 4.6 340 20:21 24.01.2020
227 Clouds 12 1026 46 10000 6.2 340 19:58 24.01.2020
228 Clouds 12 1026 46 10000 6.2 340 19:39 24.01.2020
229 Clouds 12 1026 46 10000 6.2 340 19:21 24.01.2020
230 Clouds 13 1026 47 10000 5.7 340 18:44 24.01.2020
231 Clouds 13 1026 47 10000 4.6 320 18:25 24.01.2020
232 Clouds 14 1025 44 10000 5.1 320 17:56 24.01.2020
233 Clouds 14 1025 44 10000 5.1 320 17:56 24.01.2020
234 Clouds 14 1025 44 10000 5.1 320 17:38 24.01.2020
235 Clouds 14 1025 44 10000 5.1 310 17:20 24.01.2020
236 Clouds 15 1024 38 10000 5.1 320 16:39 24.01.2020
237 Clouds 15 1024 38 10000 5.1 320 16:21 24.01.2020
238 Clouds 15 1024 38 10000 6.2 320 15:56 24.01.2020
239 Clouds 15 1024 38 10000 6.2 320 15:38 24.01.2020
240 Clouds 15 1024 38 10000 6.2 320 15:19 24.01.2020
241 Clouds 16 1024 36 6000 6.2 320 14:41 24.01.2020
242 Clouds 16 1024 36 6000 6.2 320 14:22 24.01.2020
243 Clouds 16 1023 38 6000 7.2 340 13:45 24.01.2020
244 Clouds 16 1023 38 6000 7.2 340 13:24 24.01.2020
245 Clouds 16 1023 44 6000 7.7 330 12:55 24.01.2020
246 Clouds 16 1023 44 6000 7.7 330 12:36 24.01.2020
247 Clouds 16 1023 44 6000 7.7 330 12:18 24.01.2020
248 Clouds 16 1023 51 6000 6.2 330 11:42 24.01.2020
249 Clouds 16 1023 51 6000 6.2 330 11:19 24.01.2020
250 Clouds 15 1023 54 6000 6.2 320 10:43 24.01.2020
251 Clouds 15 1023 54 6000 6.2 300 10:22 24.01.2020
252 Clouds 15 1023 54 6000 6.7 300 09:56 24.01.2020
253 Clouds 15 1023 54 0 6.71 300 09:38 24.01.2020
254 Clouds 15 1023 54 0 6.71 300 09:38 24.01.2020
255 Clouds 14 1022 62 0 4.47 280 09:20 24.01.2020
256 Clouds 14 1023 52 0 7.04 323 08:40 24.01.2020
257 Clouds 13 1022 66 6000 4.1 250 08:19 24.01.2020
258 Clouds 13 1022 66 6000 4.1 250 07:50 24.01.2020
259 Clouds 13 1022 66 6000 4.1 250 07:28 24.01.2020
260 Clouds 12 1021 71 6000 5.7 240 06:48 24.01.2020
261 Clouds 12 1021 71 10000 5.7 240 06:29 24.01.2020
262 Clouds 12 1021 71 10000 5.7 240 05:58 24.01.2020
263 Clouds 12 1020 71 10000 5.7 240 04:54 24.01.2020
264 Clouds 13 1021 66 10000 5.7 240 02:53 24.01.2020
265 Clouds 12 1021 66 10000 5.7 230 02:24 24.01.2020
266 Clouds 13 1021 58 10000 5.1 230 01:45 24.01.2020
267 Clouds 12 1021 62 10000 5.1 230 01:26 24.01.2020
268 Clouds 12 1022 58 10000 4.6 210 00:23 24.01.2020
269 Clouds 12 1022 58 10000 5.1 210 23:49 23.01.2020
270 Clouds 12 1023 50 10000 4.1 240 23:31 23.01.2020
271 Clouds 13 1023 50 10000 5.1 250 22:59 23.01.2020
272 Clouds 13 1023 50 10000 5.1 250 22:38 23.01.2020
273 Clouds 13 1023 50 10000 5.1 250 22:38 23.01.2020
274 Clouds 14 1023 47 10000 5.1 240 22:19 23.01.2020
275 Clouds 14 1022 47 10000 4.6 240 21:57 23.01.2020
276 Clouds 14 1022 47 10000 5.1 240 21:39 23.01.2020
277 Clouds 14 1022 47 10000 5.1 240 21:20 23.01.2020
278 Clouds 14 1023 50 10000 5.1 240 20:58 23.01.2020
279 Clouds 15 1022 47 10000 3.1 250 20:38 23.01.2020
280 Clouds 15 1022 47 10000 3.1 250 20:19 23.01.2020
281 Clouds 15 1022 47 10000 3.1 250 20:19 23.01.2020
282 Clouds 15 1022 47 10000 4.1 250 19:56 23.01.2020
283 Clouds 16 1023 44 10000 3.6 270 19:38 23.01.2020
284 Clouds 16 1023 44 10000 3.6 270 19:19 23.01.2020
285 Clouds 16 1023 44 10000 4.1 270 18:42 23.01.2020
286 Clouds 16 1023 48 10000 5.1 270 18:21 23.01.2020
287 Clouds 16 1023 48 10000 5.1 270 18:21 23.01.2020
288 Clouds 16 1023 48 10000 5.7 270 17:58 23.01.2020
289 Clouds 16 1023 48 10000 5.7 270 17:40 23.01.2020
290 Clouds 16 1022 48 10000 2.1 250 17:20 23.01.2020
291 Clouds 16 1022 48 10000 2.6 260 16:56 23.01.2020
292 Clouds 16 1022 51 10000 1 260 16:37 23.01.2020
293 Clouds 16 1022 51 10000 1 260 16:18 23.01.2020
294 Clouds 16 1022 51 10000 5.61 287 15:55 23.01.2020
295 Clouds 16 1022 51 10000 3.1 320 15:36 23.01.2020
296 Clouds 16 1022 51 10000 3.1 320 15:18 23.01.2020
297 Clouds 16 1022 48 10000 5.1 260 14:55 23.01.2020
298 Clouds 16 1022 48 10000 5.1 260 14:37 23.01.2020
299 Clouds 16 1022 48 10000 5.7 240 14:18 23.01.2020
300 Clouds 16 1022 48 10000 4.6 250 13:39 23.01.2020
301 Clouds 16 1022 51 10000 3.6 220 13:20 23.01.2020
302 Clouds 16 1022 51 10000 3.6 220 12:47 23.01.2020
303 Clouds 16 1023 51 6000 5.7 210 12:26 23.01.2020
304 Sand 15 1024 54 4000 5.7 230 11:59 23.01.2020
305 Sand 15 1024 54 4000 5.7 230 11:39 23.01.2020
306 Sand 15 1024 54 4000 5.7 220 11:20 23.01.2020
307 Sand 15 1024 54 4000 5.7 220 11:20 23.01.2020
308 Haze 14 1025 58 4000 4.6 210 10:55 23.01.2020
309 Haze 14 1025 58 4000 4.6 210 10:36 23.01.2020
310 Haze 14 1025 58 4000 4.6 210 10:18 23.01.2020
311 Haze 13 1025 58 4000 4.6 190 09:39 23.01.2020
312 Haze 13 1025 58 4000 4.6 190 09:20 23.01.2020
313 Haze 12 1024 62 4000 4.6 180 08:43 23.01.2020
314 Haze 12 1024 62 4000 4.6 180 08:25 23.01.2020
315 Haze 10 1024 66 4000 4.1 170 07:51 23.01.2020
316 Haze 10 1024 66 4000 4.1 170 07:27 23.01.2020
317 Clouds 8 1024 70 6000 4.1 170 06:54 23.01.2020
318 Clouds 8 1024 70 6000 4.1 170 06:25 23.01.2020
319 Clouds 8 1023 65 6000 3.6 160 05:59 23.01.2020
320 Clouds 8 1023 65 6000 2.1 190 04:25 23.01.2020
321 Clouds 9 1023 66 10000 2.1 190 02:48 23.01.2020
322 Clouds 10 1023 61 10000 2.1 190 01:51 23.01.2020
323 Clouds 9 1024 66 10000 1 180 00:41 23.01.2020
324 Clouds 10 1024 61 10000 1 180 00:20 23.01.2020
325 Clouds 10 1024 61 10000 1.5 280 23:45 22.01.2020
326 Clouds 11 1024 57 10000 1.5 280 23:27 22.01.2020
327 Clouds 12 1024 58 10000 1.5 280 22:43 22.01.2020
328 Clouds 12 1024 58 10000 1.5 280 22:43 22.01.2020
329 Clouds 12 1024 58 10000 1.5 280 22:24 22.01.2020
330 Clouds 12 1024 58 10000 0.86 337 21:58 22.01.2020
331 Clouds 12 1024 58 10000 0.86 337 21:36 22.01.2020
332 Clouds 12 1024 58 10000 0.86 337 21:18 22.01.2020
333 Clouds 12 1024 58 10000 2.1 340 20:42 22.01.2020
334 Clouds 13 1024 54 10000 2.1 340 20:23 22.01.2020
335 Clouds 13 1024 50 10000 2.1 340 19:59 22.01.2020
336 Clouds 14 1024 50 10000 2.1 340 19:41 22.01.2020
337 Clouds 14 1024 50 10000 2.1 340 19:20 22.01.2020
338 Clouds 14 1024 50 10000 3.6 340 18:58 22.01.2020
339 Clouds 14 1024 50 10000 3.6 340 18:40 22.01.2020
340 Clouds 14 1024 50 10000 3.6 340 18:21 22.01.2020
341 Clouds 15 1023 47 10000 4.1 360 17:57 22.01.2020
342 Clouds 14 1023 47 10000 4.1 360 17:57 22.01.2020
343 Clouds 15 1023 47 10000 4.1 360 17:39 22.01.2020
344 Clouds 15 1023 47 10000 4.1 360 17:39 22.01.2020
345 Clouds 15 1023 47 10000 4.1 360 17:19 22.01.2020
346 Clouds 16 1023 36 10000 4.6 360 16:55 22.01.2020
347 Clouds 16 1023 36 10000 4.6 360 16:55 22.01.2020
348 Clouds 16 1023 36 10000 4.6 360 16:37 22.01.2020
349 Clouds 16 1023 36 10000 4.6 360 16:18 22.01.2020
350 Clouds 16 1023 36 10000 4.6 290 15:42 22.01.2020
351 Clouds 16 1023 36 10000 4.6 290 15:23 22.01.2020
352 Clouds 16 1023 38 10000 4.1 290 14:59 22.01.2020
353 Clouds 16 1023 38 10000 4.6 310 14:38 22.01.2020
354 Clouds 16 1023 38 10000 4.6 310 14:20 22.01.2020
355 Clouds 16 1023 38 10000 5.1 320 13:56 22.01.2020
356 Clouds 16 1023 38 10000 5.1 320 13:37 22.01.2020
357 Clouds 15 1023 44 10000 6.2 330 13:19 22.01.2020
358 Clouds 16 1023 44 10000 4.1 300 12:57 22.01.2020
359 Clouds 16 1023 44 10000 4.1 300 12:38 22.01.2020
360 Clouds 16 1023 44 10000 4.1 300 12:19 22.01.2020
361 Clouds 15 1024 51 10000 5.1 290 11:56 22.01.2020
362 Clouds 15 1024 51 10000 5.1 290 11:38 22.01.2020
363 Clouds 15 1024 51 10000 5.1 290 11:19 22.01.2020
364 Clouds 15 1025 51 6000 4.6 300 10:45 22.01.2020
365 Clouds 15 1025 51 6000 4.6 300 10:21 22.01.2020
366 Clouds 14 1025 54 6000 4.1 270 09:58 22.01.2020
367 Clouds 14 1025 54 6000 4.1 270 09:40 22.01.2020
368 Clouds 14 1025 54 6000 4.1 270 09:21 22.01.2020
369 Clouds 13 1024 58 6000 2.1 290 08:55 22.01.2020
370 Clouds 12 1024 58 6000 4.1 270 08:36 22.01.2020
371 Clouds 12 1024 58 6000 4.1 270 08:18 22.01.2020
372 Clouds 11 1024 66 6000 1.5 240 07:44 22.01.2020
373 Clouds 11 1024 66 6000 1.5 240 07:26 22.01.2020
374 Clouds 10 1024 66 6000 2.6 290 06:34 22.01.2020
375 Clouds 10 1023 66 6000 2.1 280 05:54 22.01.2020
376 Clouds 10 1023 66 6000 2.29 319 04:26 22.01.2020
377 Clouds 10 1023 66 6000 1 280 03:27 22.01.2020
378 Clouds 10 1023 66 6000 1.5 300 02:48 22.01.2020
379 Clouds 10 1023 71 6000 1.5 270 00:47 22.01.2020
380 Clouds 10 1024 66 6000 1.5 290 00:28 22.01.2020
381 Clouds 11 1024 66 6000 1.5 310 23:57 21.01.2020
382 Clouds 11 1024 66 6000 1.5 310 23:37 21.01.2020
383 Clouds 11 1024 66 6000 2.6 330 23:19 21.01.2020
384 Clouds 11 1024 66 6000 2.6 310 22:41 21.01.2020
385 Clouds 11 1024 66 6000 2.6 310 22:23 21.01.2020
386 Clouds 11 1024 62 10000 3.6 330 21:58 21.01.2020
387 Clouds 11 1024 62 10000 3.6 330 21:39 21.01.2020
388 Clouds 11 1024 62 10000 3.6 320 21:20 21.01.2020
389 Clouds 12 1024 58 10000 6.2 310 20:57 21.01.2020
390 Clouds 12 1024 58 10000 6.2 310 20:39 21.01.2020
391 Clouds 12 1024 58 10000 5.1 300 20:20 21.01.2020
392 Clouds 12 1024 58 10000 5.1 300 19:58 21.01.2020
393 Clouds 12 1024 58 10000 5.1 300 19:58 21.01.2020
394 Clouds 12 1024 58 10000 5.1 300 19:39 21.01.2020
395 Clouds 12 1024 58 10000 4.6 310 19:21 21.01.2020
396 Clouds 12 1024 54 10000 4.1 310 18:56 21.01.2020
397 Clouds 13 1024 54 10000 4.1 310 18:38 21.01.2020
398 Clouds 13 1024 54 10000 3.6 310 18:20 21.01.2020
399 Clouds 13 1024 54 10000 4.6 350 17:56 21.01.2020
400 Clouds 13 1024 54 10000 4.6 350 17:37 21.01.2020
401 Clouds 13 1024 50 10000 4.1 330 17:18 21.01.2020
402 Clouds 14 1024 47 10000 6.2 320 16:37 21.01.2020
403 Clouds 14 1024 47 10000 6.2 320 16:19 21.01.2020
404 Clouds 14 1024 47 10000 5.7 330 15:57 21.01.2020
405 Clouds 14 1023 47 10000 8.7 330 15:37 21.01.2020
406 Clouds 14 1023 47 10000 8.7 330 15:19 21.01.2020
407 Clouds 16 1023 45 10000 8.2 300 14:39 21.01.2020
408 Clouds 16 1023 39 10000 8.2 300 14:20 21.01.2020
409 Clouds 16 1023 38 10000 6.7 320 13:43 21.01.2020
410 Clouds 16 1023 38 10000 6.7 320 13:43 21.01.2020
411 Clouds 16 1023 38 10000 9.3 300 13:20 21.01.2020
412 Clouds 16 1023 36 10000 8.2 330 12:58 21.01.2020
413 Clouds 16 1023 36 10000 8.2 330 12:39 21.01.2020
414 Clouds 15 1024 38 10000 8.2 310 12:21 21.01.2020
415 Clouds 15 1024 38 10000 8.7 320 11:55 21.01.2020
416 Clouds 15 1025 38 10000 6.2 340 11:36 21.01.2020
417 Clouds 15 1025 38 10000 6.2 340 11:18 21.01.2020
418 Clouds 15 1025 38 10000 7.7 330 10:42 21.01.2020
419 Clouds 15 1026 38 10000 7.7 330 10:22 21.01.2020
420 Clouds 15 1026 44 10000 6.2 320 09:55 21.01.2020
421 Clouds 14 1026 50 10000 4.6 330 09:37 21.01.2020
422 Clouds 14 1026 50 10000 4.6 330 09:18 21.01.2020
423 Clouds 13 1026 54 10000 4.1 320 08:41 21.01.2020
424 Clouds 13 1026 54 10000 5.1 310 08:21 21.01.2020
425 Clouds 13 1025 54 10000 5.7 310 07:42 21.01.2020
426 Clouds 13 1025 54 10000 5.1 300 07:23 21.01.2020
427 Clouds 12 1025 54 10000 4.6 290 06:56 21.01.2020
428 Clouds 12 1025 54 10000 4.6 280 06:37 21.01.2020
429 Clouds 12 1025 54 10000 5.1 280 05:53 21.01.2020
430 Clouds 12 1025 54 10000 5.7 280 04:41 21.01.2020
431 Clouds 12 1025 54 10000 4.1 280 04:19 21.01.2020
432 Clouds 13 1025 58 10000 6.7 290 02:26 21.01.2020
433 Clouds 13 1025 54 10000 3.6 300 01:31 21.01.2020
434 Clouds 13 1026 58 10000 3.6 300 00:41 21.01.2020
435 Clouds 13 1026 58 10000 4.6 290 00:22 21.01.2020
436 Clouds 13 1026 58 10000 4.6 300 23:41 20.01.2020
437 Clouds 13 1026 58 10000 4.6 300 23:41 20.01.2020
438 Clouds 13 1026 54 10000 4.6 310 23:19 20.01.2020
439 Clouds 13 1027 58 10000 5.1 300 22:59 20.01.2020
440 Clouds 13 1027 58 10000 5.1 300 22:39 20.01.2020
441 Clouds 13 1027 58 10000 4.1 290 22:21 20.01.2020
442 Clouds 13 1027 58 10000 4.6 300 21:58 20.01.2020
443 Clouds 13 1027 58 10000 4.6 300 21:38 20.01.2020
444 Clouds 13 1027 58 10000 4.6 290 21:20 20.01.2020
445 Clouds 13 1027 62 10000 4.6 300 20:58 20.01.2020
446 Clouds 13 1027 58 10000 5.1 310 20:39 20.01.2020
447 Clouds 14 1027 58 10000 5.1 310 20:19 20.01.2020
448 Clouds 14 1027 58 10000 5.1 310 20:19 20.01.2020
449 Clouds 14 1027 58 10000 5.1 310 19:57 20.01.2020
450 Clouds 14 1027 58 10000 5.1 310 19:38 20.01.2020
451 Clouds 14 1027 58 10000 6.2 310 19:19 20.01.2020
452 Clouds 15 1026 54 10000 6.2 310 18:45 20.01.2020
453 Clouds 15 1026 54 10000 6.2 310 18:24 20.01.2020
454 Clouds 15 1026 51 10000 5.7 310 17:59 20.01.2020
455 Clouds 15 1026 51 10000 6.2 310 17:37 20.01.2020
456 Clouds 15 1026 51 10000 6.2 310 17:18 20.01.2020
457 Clouds 16 1026 38 10000 6.2 300 16:45 20.01.2020
458 Clouds 16 1025 41 10000 7.7 310 16:25 20.01.2020
459 Clouds 16 1025 44 10000 8.7 300 15:58 20.01.2020
460 Clouds 16 1025 44 10000 8.7 300 15:40 20.01.2020
461 Clouds 17 1025 45 10000 8.2 300 15:21 20.01.2020
462 Clouds 17 1025 48 10000 6.2 290 14:56 20.01.2020
463 Clouds 17 1025 48 10000 6.2 290 14:37 20.01.2020
464 Clouds 17 1025 48 10000 6.2 290 14:19 20.01.2020
465 Clouds 17 1025 48 10000 7.2 290 13:42 20.01.2020
466 Clouds 17 1025 51 10000 6.2 280 13:23 20.01.2020
467 Clouds 16 1025 51 10000 6.2 290 12:58 20.01.2020
468 Clouds 16 1025 51 10000 6.2 290 12:40 20.01.2020
469 Clouds 16 1025 51 10000 6.2 290 12:21 20.01.2020
470 Clouds 17 1025 51 10000 5.7 290 11:43 20.01.2020
471 Clouds 17 1026 55 10000 5.7 280 11:24 20.01.2020
472 Clouds 16 1026 59 10000 4.1 270 10:58 20.01.2020
473 Clouds 16 1026 59 10000 4.1 270 10:40 20.01.2020
474 Clouds 16 1026 59 10000 4.1 250 10:20 20.01.2020
475 Clouds 15 1026 62 10000 4.6 250 09:41 20.01.2020
476 Clouds 15 1027 58 10000 4.1 220 09:23 20.01.2020
477 Clouds 14 1026 62 10000 4.6 220 08:55 20.01.2020
478 Clouds 14 1026 62 10000 4.6 220 08:31 20.01.2020
479 Clouds 13 1026 66 10000 4.1 200 07:55 20.01.2020
480 Clouds 13 1026 66 10000 4.1 200 07:37 20.01.2020
481 Clouds 13 1026 66 10000 4.1 200 07:19 20.01.2020
482 Clouds 13 1025 66 10000 2.6 210 06:36 20.01.2020
483 Clouds 13 1025 66 10000 2.6 210 05:56 20.01.2020
484 Clouds 13 1025 66 10000 2.6 210 05:37 20.01.2020
485 Clouds 13 1024 66 10000 2.6 210 05:18 20.01.2020
486 Clouds 13 1024 66 10000 3.1 210 03:55 20.01.2020
487 Clouds 13 1024 71 10000 4.1 230 01:58 20.01.2020
488 Clouds 13 1024 71 10000 4.1 230 01:39 20.01.2020
489 Clouds 13 1024 66 6000 4.1 230 00:56 20.01.2020
490 Clouds 13 1024 66 6000 4.1 230 00:37 20.01.2020
491 Clouds 13 1024 71 6000 3.1 230 00:19 20.01.2020
492 Clouds 14 1024 67 6000 3.1 220 23:37 19.01.2020
493 Clouds 14 1024 67 6000 3.1 220 23:18 19.01.2020
494 Clouds 14 1024 62 6000 3.1 230 22:55 19.01.2020
495 Clouds 14 1024 62 6000 2.6 210 22:37 19.01.2020
496 Clouds 14 1024 62 6000 2.6 210 22:18 19.01.2020
497 Clouds 13 1024 62 6000 2.1 180 21:55 19.01.2020
498 Clouds 14 1023 62 6000 3.63 270 21:37 19.01.2020
499 Clouds 14 1023 62 6000 3.63 270 21:19 19.01.2020
500 Clouds 13 1023 62 6000 3.63 270 20:56 19.01.2020
501 Clouds 13 1023 62 6000 3.63 270 20:37 19.01.2020
502 Clouds 14 1023 58 6000 1 230 20:19 19.01.2020
503 Clouds 14 1023 58 6000 1 190 19:55 19.01.2020
504 Clouds 14 1023 58 6000 2.1 190 19:37 19.01.2020
505 Clouds 14 1023 58 6000 2.1 190 19:19 19.01.2020
506 Clouds 14 1022 58 10000 2.6 190 18:55 19.01.2020
507 Clouds 15 1022 54 10000 3.1 180 18:37 19.01.2020
508 Clouds 15 1022 54 10000 3.1 180 18:18 19.01.2020
509 Clouds 15 1022 54 10000 3.1 180 18:18 19.01.2020
510 Clouds 15 1022 54 10000 4.6 190 17:57 19.01.2020
511 Clouds 15 1022 54 10000 4.6 190 17:38 19.01.2020
512 Clouds 15 1021 54 10000 4.6 180 17:19 19.01.2020
513 Clouds 15 1021 54 10000 5.1 180 16:57 19.01.2020
514 Clouds 16 1020 51 10000 5.7 180 16:37 19.01.2020
515 Clouds 16 1020 51 10000 5.7 180 16:19 19.01.2020
516 Clouds 16 1020 51 10000 5.7 180 15:55 19.01.2020
517 Clouds 16 1020 51 10000 5.7 180 15:36 19.01.2020
518 Clouds 16 1020 51 10000 5.7 180 15:18 19.01.2020
519 Clouds 16 1020 51 10000 5.7 180 15:18 19.01.2020
520 Clouds 15 1020 54 6000 6.2 190 14:41 19.01.2020
521 Clouds 15 1020 54 6000 6.2 190 14:21 19.01.2020
522 Clouds 15 1020 58 6000 5.7 200 13:59 19.01.2020
523 Clouds 15 1020 58 6000 5.7 200 13:40 19.01.2020
524 Clouds 15 1020 58 6000 6.7 200 13:22 19.01.2020
525 Clouds 15 1020 58 6000 6.7 200 13:22 19.01.2020
526 Clouds 15 1020 58 6000 6.7 210 12:59 19.01.2020
527 Clouds 15 1020 58 6000 6.7 210 12:41 19.01.2020
528 Clouds 15 1020 58 6000 6.7 200 12:21 19.01.2020
529 Sand 15 1020 58 3000 6.7 210 11:57 19.01.2020
530 Sand 15 1020 58 3000 6.7 210 11:38 19.01.2020
531 Sand 15 1020 58 3000 6.7 210 11:18 19.01.2020
532 Sand 13 1021 66 3000 5.7 190 10:41 19.01.2020
533 Sand 13 1021 66 3000 5.7 190 10:21 19.01.2020
534 Sand 12 1021 71 3000 6.7 200 09:58 19.01.2020
535 Sand 12 1021 71 3000 6.7 200 09:39 19.01.2020
536 Sand 12 1021 71 3000 6.7 200 09:21 19.01.2020
537 Sand 11 1020 76 3000 6.2 180 08:56 19.01.2020
538 Sand 11 1020 76 3000 6.2 180 08:38 19.01.2020
539 Sand 11 1020 76 3000 6.2 180 08:19 19.01.2020
540 Clouds 10 1020 76 10000 4.1 190 07:30 19.01.2020
541 Clouds 10 1020 76 10000 4.1 190 06:56 19.01.2020
542 Clouds 10 1019 76 10000 4.1 190 06:25 19.01.2020
543 Clear 12 1019 66 0 3.58 240 04:39 19.01.2020
544 Clear 13 1019 66 0 4.92 250 02:36 19.01.2020
545 Clouds 13 1019 66 10000 5.1 250 01:58 19.01.2020
546 Clouds 13 1019 66 10000 5.1 250 01:24 19.01.2020
547 Clouds 13 1019 66 10000 6.2 240 00:45 19.01.2020
548 Clouds 14 1019 62 10000 5.7 240 00:26 19.01.2020
549 Clouds 14 1019 62 10000 3.6 250 23:55 18.01.2020
550 Clouds 14 1019 62 10000 3.6 250 23:36 18.01.2020
551 Clouds 14 1019 62 10000 3.6 250 23:18 18.01.2020
552 Clouds 14 1019 62 10000 3.6 250 22:54 18.01.2020
553 Clouds 14 1019 62 10000 3.6 250 22:36 18.01.2020
554 Clouds 14 1019 62 10000 3.6 250 22:18 18.01.2020
555 Clouds 14 1019 58 10000 4.1 250 21:56 18.01.2020
556 Clouds 14 1019 58 10000 4.1 250 21:36 18.01.2020
557 Clouds 14 1019 58 10000 4.1 250 21:18 18.01.2020
558 Clouds 15 1019 51 10000 4.1 250 20:41 18.01.2020
559 Clouds 15 1019 51 10000 4.1 250 20:19 18.01.2020
560 Clouds 15 1018 51 10000 6.2 220 19:54 18.01.2020
561 Clouds 15 1018 51 10000 6.2 220 19:36 18.01.2020
562 Clouds 15 1018 51 10000 6.2 220 19:18 18.01.2020
563 Clouds 15 1018 51 10000 5.1 270 18:40 18.01.2020
564 Clouds 16 1018 48 10000 5.1 270 18:21 18.01.2020
565 Clouds 16 1018 48 10000 5.1 270 17:41 18.01.2020
566 Clouds 16 1018 48 10000 5.1 270 17:21 18.01.2020
567 Clouds 16 1017 44 6000 5.7 250 16:57 18.01.2020
568 Clouds 16 1017 44 6000 5.7 250 16:39 18.01.2020
569 Clouds 16 1017 44 6000 5.7 250 16:21 18.01.2020
570 Clouds 16 1017 44 6000 5.7 250 15:57 18.01.2020
571 Clouds 16 1017 44 6000 5.7 250 15:39 18.01.2020
572 Clouds 16 1017 59 6000 3.1 210 15:20 18.01.2020
573 Haze 16 1017 59 3000 4.6 180 14:42 18.01.2020
574 Haze 15 1017 67 3000 4.6 190 14:20 18.01.2020
575 Haze 15 1018 67 3000 4.6 200 13:58 18.01.2020
576 Haze 15 1018 67 3000 4.6 200 13:39 18.01.2020
577 Haze 15 1018 67 3000 4.6 200 13:20 18.01.2020
578 Haze 15 1018 67 3000 4.6 200 12:54 18.01.2020
579 Haze 15 1018 67 3000 4.6 200 12:54 18.01.2020
580 Haze 15 1018 67 3000 4.6 210 12:36 18.01.2020
581 Haze 15 1018 67 3000 4.6 210 12:18 18.01.2020
582 Haze 15 1018 67 3000 4.6 190 11:43 18.01.2020
583 Haze 15 1019 72 3000 4.6 210 11:21 18.01.2020
584 Mist 15 1019 72 3000 4.6 200 10:43 18.01.2020
585 Mist 15 1019 72 3000 4.6 200 10:22 18.01.2020
586 Mist 14 1020 76 2000 5.7 200 09:57 18.01.2020
587 Mist 14 1020 76 2000 5.7 200 09:39 18.01.2020
588 Mist 13 1020 82 2000 5.7 200 09:19 18.01.2020
589 Mist 13 1020 82 2000 4.6 210 08:42 18.01.2020
590 Mist 13 1019 82 2000 4.6 210 08:20 18.01.2020
591 Mist 13 1019 82 2000 4.6 210 07:59 18.01.2020
592 Mist 12 1019 87 2000 4.6 200 07:39 18.01.2020
593 Mist 12 1019 87 4000 4.6 190 06:52 18.01.2020
594 Mist 12 1018 87 4000 4.6 190 06:33 18.01.2020
595 Rain 12 1018 87 6000 4.6 200 05:49 18.01.2020
596 Clouds 12 1018 81 10000 4.1 200 04:25 18.01.2020
597 Clouds 12 1018 81 10000 4.6 200 02:34 18.01.2020
598 Clear 12 1018 81 10000 4.1 200 01:40 18.01.2020
599 Clear 12 1018 81 10000 3.6 220 00:39 18.01.2020
600 Clear 13 1018 76 10000 5.1 220 00:20 18.01.2020
601 Clear 13 1018 76 10000 4.6 230 23:58 17.01.2020
602 Clear 13 1018 76 10000 4.6 230 23:39 17.01.2020
603 Clear 13 1018 76 10000 4.6 230 23:18 17.01.2020
604 Clouds 14 1018 71 10000 4.1 240 22:41 17.01.2020
605 Clouds 14 1018 71 10000 4.1 250 22:20 17.01.2020
606 Clouds 14 1018 71 10000 4.1 250 22:20 17.01.2020
607 Clouds 14 1018 71 10000 5.1 260 21:56 17.01.2020
608 Clouds 14 1018 67 10000 3.6 250 21:38 17.01.2020
609 Clouds 15 1018 67 10000 3.6 250 21:19 17.01.2020
610 Clouds 15 1018 72 10000 3.6 260 20:43 17.01.2020
611 Clouds 15 1018 72 10000 3.6 250 20:21 17.01.2020
612 Clouds 15 1018 72 10000 3.6 250 20:21 17.01.2020
613 Clouds 15 1018 72 10000 4.6 240 19:58 17.01.2020
614 Clouds 15 1018 72 10000 4.6 240 19:39 17.01.2020
615 Clouds 15 1018 72 10000 3.6 240 19:20 17.01.2020
616 Clouds 15 1018 72 10000 5.7 270 18:58 17.01.2020
617 Clouds 15 1018 72 10000 5.7 270 18:40 17.01.2020
618 Clouds 15 1017 72 10000 4.6 270 18:21 17.01.2020
619 Clouds 15 1017 72 10000 4.6 280 17:40 17.01.2020
620 Clouds 16 1017 63 10000 5.1 280 17:22 17.01.2020
621 Clouds 16 1016 67 10000 6.2 290 16:57 17.01.2020
622 Clouds 16 1016 67 10000 6.2 290 16:39 17.01.2020
623 Clouds 16 1016 67 10000 6.2 290 16:19 17.01.2020
624 Clouds 17 1015 63 10000 8.2 280 15:45 17.01.2020
625 Clouds 17 1015 63 10000 8.2 280 15:26 17.01.2020
626 Clouds 16 1014 72 10000 6.7 270 14:54 17.01.2020
627 Clouds 16 1014 72 10000 6.7 270 14:36 17.01.2020
628 Clouds 16 1014 72 6000 6.7 270 14:18 17.01.2020
629 Clouds 15 1014 82 3000 7.2 230 13:38 17.01.2020
630 Mist 15 1014 82 3000 7.2 230 13:19 17.01.2020
631 Mist 15 1014 77 3000 7.7 180 12:45 17.01.2020
632 Rain 15 1014 77 3000 7.7 180 12:22 17.01.2020
633 Rain 14 1015 76 3000 7.2 180 11:41 17.01.2020
634 Rain 14 1015 76 3000 7.2 180 11:19 17.01.2020
635 Mist 14 1015 76 3000 7.2 190 10:45 17.01.2020
636 Mist 13 1016 82 3000 8.7 180 10:24 17.01.2020
637 Mist 13 1016 82 3000 9.3 190 09:59 17.01.2020
638 Mist 13 1016 82 3000 9.3 190 09:41 17.01.2020
639 Mist 13 1015 82 3000 9.3 190 09:20 17.01.2020
640 Mist 12 1015 87 2000 8.7 180 08:55 17.01.2020
641 Mist 12 1015 87 2000 8.7 180 08:36 17.01.2020
642 Mist 12 1015 87 2000 8.7 180 08:18 17.01.2020
643 Mist 12 1015 81 2000 7.2 180 07:42 17.01.2020
644 Rain 12 1015 81 2000 5.7 180 07:24 17.01.2020
645 Mist 12 1015 81 2000 6.7 190 06:43 17.01.2020
646 Sand 12 1014 81 2000 7.7 190 05:59 17.01.2020
647 Sand 12 1013 76 2000 7.2 200 04:25 17.01.2020
648 Sand 12 1013 66 4000 8.2 180 02:55 17.01.2020
649 Sand 12 1013 66 4000 8.2 180 02:29 17.01.2020
650 Clear 13 1013 62 0 7.15 180 01:32 17.01.2020
651 Clear 13 1013 62 0 7.15 180 00:58 17.01.2020
652 Clouds 13 1013 62 10000 6.2 190 00:29 17.01.2020
653 Clouds 13 1013 62 10000 6.2 190 23:56 16.01.2020
654 Clouds 13 1013 62 10000 6.2 190 23:38 16.01.2020
655 Clouds 13 1013 62 10000 6.2 190 23:19 16.01.2020
656 Clouds 12 1014 62 10000 5.7 200 22:40 16.01.2020
657 Clouds 13 1014 58 10000 5.7 210 22:21 16.01.2020
658 Clouds 13 1014 58 10000 5.7 210 21:56 16.01.2020
659 Clouds 14 1014 54 10000 7.7 210 21:37 16.01.2020
660 Clouds 14 1014 54 10000 7.7 210 21:18 16.01.2020
661 Clouds 14 1014 54 10000 6.7 210 20:56 16.01.2020
662 Clouds 14 1013 54 10000 6.2 210 20:37 16.01.2020
663 Clouds 14 1013 54 10000 6.2 210 20:18 16.01.2020
664 Clouds 14 1013 50 10000 6.7 220 19:55 16.01.2020
665 Clouds 14 1013 50 10000 6.7 220 19:37 16.01.2020
666 Clouds 15 1013 47 10000 5.7 220 19:18 16.01.2020
667 Clouds 15 1013 47 10000 6.7 220 18:55 16.01.2020
668 Clouds 15 1013 47 10000 7.7 220 18:36 16.01.2020
669 Clouds 15 1013 47 10000 7.7 220 18:36 16.01.2020
670 Clouds 15 1013 47 10000 7.7 220 18:18 16.01.2020
671 Clouds 15 1013 47 10000 7.2 230 17:41 16.01.2020
672 Clouds 15 1013 47 10000 7.2 230 17:41 16.01.2020
673 Clouds 16 1012 44 10000 9.3 210 17:22 16.01.2020
674 Clouds 16 1012 48 10000 10.8 210 16:57 16.01.2020
675 Clouds 16 1012 48 10000 10.8 210 16:38 16.01.2020
676 Clouds 16 1012 48 10000 10.8 210 16:19 16.01.2020
677 Clouds 16 1012 44 10000 10.8 210 15:44 16.01.2020
678 Clouds 17 1012 45 10000 10.8 210 15:22 16.01.2020
679 Clouds 17 1012 45 10000 11.3 210 14:57 16.01.2020
680 Clouds 17 1012 45 10000 10.3 210 14:38 16.01.2020
681 Clouds 17 1012 45 10000 10.3 210 14:20 16.01.2020
682 Clouds 17 1012 45 10000 10.8 210 13:44 16.01.2020
683 Clouds 17 1012 45 10000 10.3 210 13:25 16.01.2020
684 Clouds 17 1012 45 10000 8.7 200 12:47 16.01.2020
685 Clouds 17 1012 45 10000 8.7 200 12:47 16.01.2020
686 Clouds 17 1012 45 10000 8.7 200 12:28 16.01.2020
687 Clouds 17 1013 45 6000 7.7 210 11:59 16.01.2020
688 Clouds 17 1013 45 6000 7.7 210 11:40 16.01.2020
689 Clouds 16 1013 51 6000 8.7 200 11:22 16.01.2020
690 Clouds 15 1014 58 6000 6.7 210 10:40 16.01.2020
691 Clouds 15 1014 58 6000 6.7 210 10:22 16.01.2020
692 Clouds 15 1014 58 10000 7.7 210 09:59 16.01.2020
693 Clouds 15 1014 58 10000 7.7 210 09:41 16.01.2020
694 Clouds 15 1014 58 10000 7.7 190 09:23 16.01.2020
695 Clouds 15 1015 62 10000 6.2 190 08:55 16.01.2020
696 Clouds 15 1015 62 10000 6.2 190 08:36 16.01.2020
697 Clouds 14 1014 62 10000 4.6 200 07:59 16.01.2020
698 Clouds 14 1014 62 10000 4.6 200 07:41 16.01.2020
699 Clouds 14 1014 62 10000 4.6 200 07:23 16.01.2020
700 Clouds 15 1014 54 6000 6.7 220 06:46 16.01.2020
701 Clouds 15 1014 54 6000 6.7 220 06:28 16.01.2020
702 Clouds 15 1013 54 10000 6.7 220 05:46 16.01.2020
703 Clouds 17 1012 51 10000 2.1 220 04:46 16.01.2020
704 Clouds 17 1012 51 10000 2.1 220 04:46 16.01.2020
705 Clouds 18 1012 45 10000 5.1 140 03:29 16.01.2020
706 Clouds 18 1012 45 10000 8.2 100 02:44 16.01.2020
707 Clouds 18 1013 48 10000 8.7 100 01:28 16.01.2020
708 Clouds 18 1013 48 10000 8.7 100 00:42 16.01.2020
709 Clouds 18 1013 48 10000 8.7 100 00:22 16.01.2020
710 Clouds 18 1014 52 10000 8.2 90 23:40 15.01.2020
711 Clouds 18 1014 52 10000 9.8 90 23:21 15.01.2020
712 Clouds 18 1014 52 10000 9.8 80 22:56 15.01.2020
713 Clouds 18 1014 52 10000 9.8 80 22:38 15.01.2020
714 Clouds 18 1014 52 10000 9.8 80 22:18 15.01.2020
715 Clouds 17 1015 63 10000 9.3 80 21:56 15.01.2020
716 Clouds 17 1015 63 10000 9.3 80 21:56 15.01.2020
717 Clouds 17 1015 63 10000 9.3 80 21:37 15.01.2020
718 Clouds 17 1015 63 10000 9.3 80 21:18 15.01.2020
719 Clouds 17 1016 63 10000 9.3 80 20:55 15.01.2020
720 Clouds 17 1016 63 10000 9.3 80 20:37 15.01.2020
721 Clouds 18 1016 55 10000 9.3 80 20:18 15.01.2020
722 Clouds 18 1016 55 10000 6.2 50 19:54 15.01.2020
723 Clouds 18 1016 55 10000 6.2 50 19:36 15.01.2020
724 Clouds 18 1016 55 10000 6.2 50 19:18 15.01.2020
725 Clouds 19 1017 48 10000 6.2 60 18:55 15.01.2020
726 Clouds 19 1017 48 10000 6.2 60 18:55 15.01.2020
727 Clouds 19 1017 48 10000 6.2 60 18:37 15.01.2020
728 Clouds 19 1017 48 10000 6.2 60 18:19 15.01.2020
729 Clouds 19 1016 48 10000 7.7 50 17:41 15.01.2020
730 Clouds 20 1016 42 10000 7.7 50 17:23 15.01.2020
731 Clouds 20 1015 40 10000 8.2 60 16:59 15.01.2020
732 Clouds 20 1015 40 10000 8.2 60 16:39 15.01.2020
733 -273 0 0 0 0 0 16:39 15.01.2020
734 Clouds 20 1015 40 10000 8.7 50 16:21 15.01.2020
735 Clouds 21 1016 37 10000 7.7 50 15:43 15.01.2020
736 Clouds 21 1016 35 10000 8.7 50 15:21 15.01.2020
737 Clouds 21 1016 35 10000 8.7 50 15:21 15.01.2020
738 Clouds 21 1016 37 10000 8.7 60 14:59 15.01.2020
739 Clouds 21 1016 37 10000 8.7 60 14:41 15.01.2020
740 Clouds 21 1016 37 10000 8.2 60 14:18 15.01.2020
741 Clouds 21 1016 37 10000 8.2 60 13:46 15.01.2020
742 Clouds 21 1016 40 10000 8.7 60 13:26 15.01.2020
743 Clouds 21 1016 40 10000 8.7 50 12:59 15.01.2020
744 Clouds 21 1016 40 10000 8.7 50 12:39 15.01.2020
745 Clouds 20 1017 45 10000 7.7 50 12:19 15.01.2020
746 Clouds 20 1018 49 10000 7.2 50 11:56 15.01.2020
747 Clouds 20 1018 49 10000 7.2 50 11:37 15.01.2020
748 Clouds 19 1018 55 10000 7.7 50 11:18 15.01.2020
749 Clouds 18 1019 63 10000 8.2 60 10:42 15.01.2020
750 Clouds 18 1019 63 10000 8.2 60 10:24 15.01.2020
751 Clouds 17 1020 72 10000 9.8 60 09:42 15.01.2020
752 Clouds 17 1020 72 10000 9.8 60 09:23 15.01.2020
753 Clouds 15 1020 87 10000 9.3 70 08:56 15.01.2020
754 Clouds 15 1020 87 10000 9.3 70 08:37 15.01.2020
755 Clouds 15 1020 87 10000 9.3 70 08:19 15.01.2020
756 Clouds 13 1020 93 6000 7.2 70 07:50 15.01.2020
757 Clouds 13 1020 93 6000 7.2 70 07:30 15.01.2020
758 Clouds 12 1020 93 6000 6.2 60 06:44 15.01.2020
759 Clouds 12 1020 93 6000 6.2 60 06:19 15.01.2020
760 Clouds 12 1020 87 10000 5.7 60 04:36 15.01.2020
761 Clear 13 1021 82 10000 4.6 40 02:32 15.01.2020
762 Clouds 13 1021 82 10000 4.1 40 01:27 15.01.2020
763 Clouds 13 1021 82 10000 4.6 60 00:45 15.01.2020
764 Clouds 13 1021 82 10000 4.6 60 00:26 15.01.2020
765 Clouds 13 1022 76 10000 4.6 50 23:55 14.01.2020
766 Clouds 13 1022 76 10000 4.6 50 23:36 14.01.2020
767 Clouds 13 1022 76 10000 4.6 50 23:18 14.01.2020
768 Clouds 13 1022 71 10000 3.6 60 22:41 14.01.2020
769 Clouds 14 1022 67 10000 4.6 50 22:19 14.01.2020
770 Clouds 14 1022 67 10000 4.6 50 22:19 14.01.2020
771 Clouds 14 1022 67 10000 5.7 40 21:58 14.01.2020
772 Clouds 14 1022 67 10000 5.7 40 21:58 14.01.2020
773 Clouds 14 1022 67 10000 5.1 40 21:40 14.01.2020
774 Clouds 14 1022 67 10000 5.1 40 21:21 14.01.2020
775 Clouds 14 1022 67 10000 6.2 40 20:59 14.01.2020
776 Clouds 15 1023 67 10000 7.7 40 20:40 14.01.2020
777 Clouds 15 1023 67 10000 7.7 40 20:20 14.01.2020
778 Clouds 15 1023 67 10000 7.7 40 19:56 14.01.2020
779 Clouds 15 1023 63 10000 7.2 30 19:38 14.01.2020
780 Clouds 16 1023 63 10000 7.2 30 19:18 14.01.2020
781 Clouds 16 1022 63 10000 8.2 20 18:55 14.01.2020
782 Clouds 16 1022 63 10000 8.2 20 18:37 14.01.2020
783 Clouds 17 1023 55 10000 5.7 30 18:18 14.01.2020
784 Clouds 17 1023 55 10000 5.7 30 17:38 14.01.2020
785 Clouds 17 1022 55 10000 6.7 20 17:19 14.01.2020
786 Clouds 17 1022 55 10000 6.7 20 16:55 14.01.2020
787 Clouds 17 1022 52 10000 6.7 30 16:37 14.01.2020
788 Clouds 18 1022 52 10000 6.7 30 16:19 14.01.2020
789 Clouds 18 1022 52 10000 6.2 30 15:43 14.01.2020
790 Clouds 18 1021 48 10000 7.2 40 15:19 14.01.2020
791 Clouds 18 1022 52 10000 7.2 40 14:57 14.01.2020
792 Clouds 18 1022 52 10000 6.2 40 14:39 14.01.2020
793 Clouds 18 1022 52 10000 6.2 40 14:18 14.01.2020
794 Clouds 18 1022 52 10000 6.2 40 13:42 14.01.2020
795 Clouds 18 1022 52 10000 6.7 60 13:19 14.01.2020
796 Clouds 18 1022 52 10000 6.7 60 12:43 14.01.2020
797 Clouds 18 1023 52 10000 5.7 50 12:25 14.01.2020
798 Clouds 18 1022 55 10000 7.2 50 11:59 14.01.2020
799 Clouds 18 1022 55 10000 7.2 50 11:40 14.01.2020
800 Clouds 17 1023 59 10000 7.7 60 11:22 14.01.2020
801 Clouds 17 1023 59 10000 7.7 50 10:56 14.01.2020
802 Clouds 16 1024 63 10000 8.2 60 10:37 14.01.2020
803 Clouds 16 1024 63 10000 8.2 60 10:19 14.01.2020
804 Clouds 16 1024 67 10000 8.2 60 09:43 14.01.2020
805 Clouds 16 1024 67 10000 8.2 60 09:43 14.01.2020
806 Clouds 16 1024 72 10000 7.2 60 09:24 14.01.2020
807 Clouds 15 1024 72 6000 7.2 50 08:59 14.01.2020
808 Clouds 15 1024 72 6000 7.2 50 08:40 14.01.2020
809 Haze 13 1024 81 4000 3.1 60 08:21 14.01.2020
810 Haze 12 1024 81 4000 3.1 60 07:51 14.01.2020
811 Haze 12 1024 81 4000 3.1 60 07:24 14.01.2020
812 Haze 12 1024 76 4000 3.1 70 06:43 14.01.2020
813 Haze 11 1023 76 4000 2.6 50 05:58 14.01.2020
814 Haze 12 1024 71 4000 2.6 10 04:51 14.01.2020
815 Clouds 12 1023 66 6000 2.6 50 03:47 14.01.2020
816 Clouds 12 1023 66 6000 2.6 70 02:39 14.01.2020
817 Clouds 13 1024 66 6000 1 140 01:21 14.01.2020
818 Clouds 12 1024 66 6000 1.5 120 00:48 14.01.2020
819 Clouds 12 1024 66 6000 2.6 80 00:22 14.01.2020
820 Clouds 11 1023 66 6000 2.6 70 23:44 13.01.2020
821 Clouds 11 1024 66 6000 1.5 70 23:19 13.01.2020
822 Clouds 12 1024 66 6000 2.1 70 22:57 13.01.2020
823 Clouds 12 1024 66 6000 2.1 70 22:39 13.01.2020
824 Clouds 13 1024 62 6000 2.1 90 22:19 13.01.2020
825 Clouds 13 1024 62 6000 3.1 100 21:55 13.01.2020
826 Clouds 13 1024 62 6000 3.1 100 21:37 13.01.2020
827 Clouds 13 1024 66 6000 3.1 90 21:18 13.01.2020
828 Haze 14 1024 62 4000 3.1 80 20:56 13.01.2020
829 Haze 14 1024 62 4000 3.1 80 20:38 13.01.2020
830 Haze 14 1024 62 4000 3.1 80 20:19 13.01.2020
831 Haze 14 1024 62 4000 2.1 60 19:42 13.01.2020
832 Haze 16 1024 59 4000 2.1 360 19:21 13.01.2020
833 Haze 16 1024 59 4000 2.1 360 19:21 13.01.2020
834 Clouds 16 1024 59 6000 3.1 360 18:58 13.01.2020
835 Clouds 16 1024 59 6000 3.1 360 18:38 13.01.2020
836 Clouds 17 1024 51 6000 2.6 350 18:19 13.01.2020
837 Clouds 17 1024 51 6000 2.6 350 18:19 13.01.2020
838 Clouds 17 1024 51 6000 2.6 350 18:19 13.01.2020
839 Clouds 17 1023 51 10000 3.1 360 17:58 13.01.2020
840 Clouds 17 1023 51 10000 3.1 360 17:39 13.01.2020
841 Clouds 17 1023 48 10000 3.1 10 17:20 13.01.2020
842 Clouds 17 1023 48 10000 3.6 20 16:43 13.01.2020
843 Clouds 17 1022 45 0 4.92 20 16:24 13.01.2020
844 Clouds 17 1022 45 0 4.47 10 15:59 13.01.2020
845 Clouds 17 1022 45 0 4.47 10 15:41 13.01.2020
846 Clouds 17 1022 42 0 3.58 30 15:21 13.01.2020
847 Clouds 17 1022 42 0 3.58 30 14:56 13.01.2020
848 Clouds 18 1022 39 0 2.24 350 14:36 13.01.2020
849 Clouds 18 1022 39 0 2.24 350 14:18 13.01.2020
850 Clouds 17 1022 36 0 2.68 20 13:40 13.01.2020
851 Clouds 17 1022 36 0 2.68 20 13:22 13.01.2020
852 Clouds 17 1023 48 6000 1.5 360 12:58 13.01.2020
853 Clouds 17 1023 48 6000 1.5 360 12:40 13.01.2020
854 Clouds 17 1023 48 6000 1.5 360 12:21 13.01.2020
855 Clouds 17 1023 48 6000 1.5 360 11:54 13.01.2020
856 Clouds 16 1024 51 6000 2.6 10 11:36 13.01.2020
857 Clouds 16 1024 51 6000 2.6 10 11:18 13.01.2020
858 Clouds 16 1024 51 6000 2.1 340 10:55 13.01.2020
859 Clouds 16 1025 55 6000 0.5 360 10:36 13.01.2020
860 Clouds 16 1025 55 6000 0.5 360 10:18 13.01.2020
861 Haze 15 1025 58 4000 1.81 351 09:40 13.01.2020
862 Haze 15 1025 58 4000 1.81 351 09:22 13.01.2020
863 Haze 14 1025 67 4000 1 150 08:42 13.01.2020
864 Haze 13 1025 71 4000 1 150 08:21 13.01.2020
865 Haze 11 1024 76 4000 1 130 07:57 13.01.2020
866 Haze 11 1024 76 4000 1 130 07:38 13.01.2020
867 Haze 10 1024 76 4000 0.93 56 06:55 13.01.2020
868 Haze 10 1024 76 4000 0.93 56 06:36 13.01.2020
869 Haze 10 1024 76 4000 0.93 56 06:36 13.01.2020
870 Haze 10 1024 81 4000 0.93 56 05:36 13.01.2020
871 Haze 10 1023 76 4000 1.5 150 04:25 13.01.2020
872 Haze 11 1024 76 4000 1.5 130 03:34 13.01.2020
873 Haze 12 1024 66 4000 2.1 140 02:49 13.01.2020
874 Haze 12 1024 66 4000 2.1 140 02:29 13.01.2020
875 Haze 12 1024 71 4000 1.5 140 01:32 13.01.2020
876 Haze 13 1024 66 4000 1.94 34 00:43 13.01.2020
877 Haze 13 1024 66 4000 1.94 34 00:24 13.01.2020
878 Haze 13 1024 62 4000 1.94 34 23:56 12.01.2020
879 Haze 14 1024 62 4000 1.94 34 23:37 12.01.2020
880 Haze 14 1024 62 4000 2.04 24 23:19 12.01.2020
881 Haze 14 1024 58 4000 2.04 24 22:42 12.01.2020
882 Haze 14 1024 58 4000 2.04 24 22:24 12.01.2020
883 Clouds 14 1025 54 6000 2.04 24 21:57 12.01.2020
884 Clouds 14 1025 54 6000 2.04 24 21:39 12.01.2020
885 Clouds 15 1024 51 6000 1.5 320 21:20 12.01.2020
886 Clouds 15 1024 51 6000 1.5 320 20:57 12.01.2020
887 Clouds 15 1024 51 6000 2.6 300 20:39 12.01.2020
888 Clouds 15 1024 51 6000 2.6 300 20:20 12.01.2020
889 Clouds 15 1024 51 6000 2.6 300 19:56 12.01.2020
890 Clouds 15 1024 51 6000 2.6 300 19:38 12.01.2020
891 Clouds 15 1024 47 6000 2.43 332 19:19 12.01.2020
892 Clouds 15 1024 47 6000 2.43 332 19:19 12.01.2020
893 Clouds 15 1024 44 6000 2.43 332 18:58 12.01.2020
894 Clouds 15 1024 44 6000 2.43 332 18:58 12.01.2020
895 Clouds 15 1024 44 6000 2.43 332 18:40 12.01.2020
896 Clouds 15 1024 44 6000 2.43 332 18:40 12.01.2020
897 Clouds 15 1024 44 6000 2.43 332 18:21 12.01.2020
898 Clouds 15 1024 44 6000 2.43 332 17:58 12.01.2020
899 Clouds 15 1024 44 6000 2.43 332 17:38 12.01.2020
900 Clouds 16 1023 41 6000 1.5 300 17:19 12.01.2020
901 Clouds 17 1023 36 6000 3.6 300 16:56 12.01.2020
902 Clouds 17 1023 36 6000 3.6 300 16:37 12.01.2020
903 Clouds 17 1023 36 6000 3.6 300 16:37 12.01.2020
904 Clouds 17 1023 36 6000 3.6 300 16:19 12.01.2020
905 Clouds 18 1023 34 6000 3.6 300 15:43 12.01.2020
906 Clouds 18 1023 34 6000 3.6 300 15:24 12.01.2020
907 Clouds 18 1023 39 6000 3.6 240 14:57 12.01.2020
908 Clouds 18 1023 39 6000 3.6 240 14:38 12.01.2020
909 Clouds 18 1023 39 6000 3.6 240 14:20 12.01.2020
910 Clouds 17 1023 45 6000 4.1 270 13:54 12.01.2020
911 Clouds 17 1023 45 6000 4.1 270 13:36 12.01.2020
912 Clouds 17 1023 45 6000 4.1 270 13:18 12.01.2020
913 Haze 17 1024 48 4000 3.6 220 12:42 12.01.2020
914 Haze 17 1024 48 4000 3.6 220 12:20 12.01.2020
915 Haze 16 1024 55 4000 2.6 260 11:59 12.01.2020
916 Haze 16 1024 55 4000 2.6 260 11:59 12.01.2020
917 Haze 16 1024 55 4000 2.6 260 11:39 12.01.2020
918 Haze 16 1024 55 4000 2.6 260 11:20 12.01.2020
919 Haze 16 1026 59 4000 2.1 210 10:42 12.01.2020
920 Haze 15 1026 62 2000 2.1 210 10:22 12.01.2020
921 Haze 15 1026 67 2000 2.1 210 09:59 12.01.2020
922 Haze 15 1026 67 2000 2.1 210 09:41 12.01.2020
923 Haze 15 1026 67 2000 2.1 210 09:20 12.01.2020
924 Haze 13 1026 71 2000 2.1 210 08:45 12.01.2020
925 Haze 13 1026 71 2000 2.1 210 08:21 12.01.2020
926 Haze 12 1025 76 2000 2.1 230 07:44 12.01.2020
927 Haze 12 1025 76 2000 2.1 230 07:25 12.01.2020
928 Haze 12 1025 71 3000 0.66 228 06:50 12.01.2020
929 Haze 12 1025 71 3000 0.66 228 06:32 12.01.2020
930 Haze 13 1025 71 3000 0.66 228 05:47 12.01.2020
931 Haze 12 1024 76 3000 2.6 230 04:52 12.01.2020
932 Haze 12 1024 71 3000 1 150 03:29 12.01.2020
933 Haze 12 1024 71 3000 3.1 150 02:34 12.01.2020
934 Haze 12 1024 71 3000 3.1 150 02:34 12.01.2020
935 Haze 12 1024 71 3000 3.1 150 01:58 12.01.2020
936 Haze 12 1024 71 3000 3.1 150 01:30 12.01.2020
937 Haze 12 1025 66 3000 3.1 150 00:45 12.01.2020
938 Haze 12 1025 66 3000 3.1 150 00:21 12.01.2020
939 Haze 12 1025 62 3000 2.1 140 23:56 11.01.2020
940 Haze 12 1025 62 3000 2.1 140 23:37 11.01.2020
941 Haze 12 1025 62 3000 2.1 140 23:18 11.01.2020
942 Haze 11 1026 66 4000 1.5 180 22:56 11.01.2020
943 Haze 12 1026 58 4000 1.19 75 22:37 11.01.2020
944 Haze 13 1026 58 4000 1.19 75 22:18 11.01.2020
945 Haze 13 1026 58 4000 1 220 21:43 11.01.2020
946 Haze 13 1026 58 4000 1.5 160 21:19 11.01.2020
947 Clouds 12 1026 58 6000 1.19 75 20:56 11.01.2020
948 Clouds 12 1026 58 6000 1.19 75 20:37 11.01.2020
949 Clouds 14 1025 50 6000 1.57 309 20:19 11.01.2020
950 Clouds 14 1025 50 6000 1.57 309 19:55 11.01.2020
951 Clouds 14 1025 50 6000 1.57 309 19:37 11.01.2020
952 Clouds 14 1025 50 6000 1.57 309 19:19 11.01.2020
953 Clouds 14 1025 47 6000 1.57 309 18:55 11.01.2020
954 Clouds 14 1025 47 10000 1.57 309 18:36 11.01.2020
955 Clouds 14 1025 47 10000 1.57 309 18:18 11.01.2020
956 Clouds 14 1025 47 10000 1.57 309 18:18 11.01.2020
957 Clouds 15 1025 47 10000 1 180 17:55 11.01.2020
958 Clouds 15 1024 47 10000 1 180 17:36 11.01.2020
959 Clouds 15 1024 47 10000 1 180 17:18 11.01.2020
960 Clouds 16 1024 41 10000 1.7 313 16:43 11.01.2020
961 Clouds 16 1024 41 10000 1.7 313 16:23 11.01.2020
962 Clouds 17 1023 39 10000 1.5 190 15:56 11.01.2020
963 Clouds 17 1024 36 10000 2.1 180 15:37 11.01.2020
964 Clouds 17 1024 36 10000 2.1 180 15:19 11.01.2020
965 Clouds 17 1024 36 10000 1.5 210 14:44 11.01.2020
966 Clouds 17 1024 39 10000 2.1 180 14:24 11.01.2020
967 Clouds 17 1023 48 0 0.89 230 13:56 11.01.2020
968 Clouds 16 1024 55 0 3.58 240 13:37 11.01.2020
969 Clouds 16 1024 55 6000 3.6 240 13:19 11.01.2020
970 Haze 16 1024 55 4000 2.1 230 12:44 11.01.2020
971 Haze 16 1024 55 4000 2.1 230 12:26 11.01.2020
972 Haze 15 1024 58 2000 2.6 250 11:56 11.01.2020
973 Haze 15 1024 58 2000 2.6 250 11:37 11.01.2020
974 Haze 15 1024 58 2000 2.6 250 11:18 11.01.2020
975 Haze 15 1025 67 2000 4.1 230 10:44 11.01.2020
976 Haze 15 1026 67 2000 4.1 230 10:24 11.01.2020
977 Mist 14 1026 76 2000 4.1 240 09:42 11.01.2020
978 Mist 14 1026 76 2000 2.6 240 09:21 11.01.2020
979 Mist 13 1026 82 2000 3.1 250 08:43 11.01.2020
980 Mist 12 1025 87 2000 1.5 180 08:23 11.01.2020
981 Mist 11 1024 87 2000 0.38 50 07:45 11.01.2020
982 Mist 11 1024 87 2000 1.5 120 07:27 11.01.2020
983 Mist 9 1024 87 2000 1.5 150 06:57 11.01.2020
984 Mist 9 1024 87 2000 1.5 150 06:37 11.01.2020
985 Mist 8 1023 87 2000 3.6 150 05:18 11.01.2020
986 Mist 8 1023 87 2000 4.1 160 04:37 11.01.2020
987 Mist 9 1023 87 2000 4.1 160 04:19 11.01.2020
988 Mist 9 1023 81 2000 2.6 170 02:45 11.01.2020
989 Mist 9 1023 81 2000 1.5 180 01:45 11.01.2020
990 Mist 9 1023 81 2000 1.5 180 01:22 11.01.2020
991 Mist 9 1023 81 2000 2.1 190 00:51 11.01.2020
992 Mist 10 1023 81 2000 1.5 230 00:21 11.01.2020
993 Haze 10 1023 76 3000 1.5 240 23:56 10.01.2020
994 Haze 11 1023 76 3000 1.5 240 23:38 10.01.2020
995 Haze 11 1023 76 3000 1.5 240 23:20 10.01.2020
996 Clouds 11 1023 76 6000 2.6 230 22:41 10.01.2020
997 Clouds 11 1022 71 6000 1.59 333 22:22 10.01.2020
998 Clouds 11 1022 71 6000 1.59 333 21:58 10.01.2020
999 Clouds 11 1022 71 6000 1.59 333 21:40 10.01.2020
1000 Clouds 12 1022 66 6000 1.59 333 21:20 10.01.2020
1001 Clouds 13 1022 66 6000 1 280 20:56 10.01.2020
1002 Clouds 13 1022 66 6000 1 280 20:38 10.01.2020
1003 Clouds 13 1022 66 6000 2.1 260 20:19 10.01.2020
1004 Clouds 13 1022 66 6000 1.5 290 19:40 10.01.2020
1005 Clouds 13 1022 66 6000 1.5 290 19:40 10.01.2020
1006 Clouds 13 1021 66 6000 4.07 350 19:20 10.01.2020
1007 Clouds 13 1021 66 10000 1.5 320 18:55 10.01.2020
1008 Clouds 13 1021 66 10000 1.5 320 18:37 10.01.2020
1009 Clouds 13 1021 66 10000 2.1 340 18:18 10.01.2020
1010 Clouds 14 1021 62 10000 3.6 320 17:56 10.01.2020
1011 Clouds 14 1020 62 10000 3.1 330 17:37 10.01.2020
1012 Clouds 14 1020 62 10000 3.1 330 17:19 10.01.2020
1013 Clouds 14 1020 62 10000 3.1 330 17:19 10.01.2020
1014 Clouds 14 1019 62 10000 3.6 300 16:42 10.01.2020
1015 Clouds 14 1019 62 10000 3.6 300 16:21 10.01.2020
1016 Clouds 14 1019 62 10000 3.6 300 16:21 10.01.2020
1017 Clouds 14 1019 62 10000 5.7 300 15:57 10.01.2020
1018 Clouds 14 1019 62 10000 5.7 300 15:38 10.01.2020
1019 Clouds 14 1019 62 10000 5.7 300 15:20 10.01.2020
1020 Clouds 15 1018 55 6000 5.1 290 14:58 10.01.2020
1021 Clouds 15 1018 55 6000 5.1 290 14:58 10.01.2020
1022 Clouds 16 1018 55 6000 5.1 290 14:40 10.01.2020
1023 Clouds 16 1018 55 6000 5.1 290 14:19 10.01.2020
1024 Clouds 16 1018 55 6000 4.6 350 13:57 10.01.2020
1025 Clouds 16 1018 55 6000 4.6 350 13:37 10.01.2020
1026 Clouds 16 1018 55 6000 4.6 350 13:19 10.01.2020
1027 Clouds 16 1018 59 6000 3.6 320 12:56 10.01.2020
1028 Clouds 16 1018 59 6000 3.6 320 12:38 10.01.2020
1029 Clouds 16 1018 59 6000 3.6 320 12:18 10.01.2020
1030 Clouds 15 1018 67 6000 2.6 320 11:42 10.01.2020
1031 Clouds 15 1018 67 6000 2.6 320 11:22 10.01.2020
1032 Clouds 15 1018 67 6000 2.6 320 11:22 10.01.2020
1033 Clouds 15 1018 67 6000 3.1 300 10:59 10.01.2020
1034 Clouds 15 1018 67 6000 3.1 300 10:38 10.01.2020
1035 Clouds 14 1019 76 6000 3.1 260 10:20 10.01.2020
1036 Clouds 13 1019 76 6000 4.1 240 09:55 10.01.2020
1037 Clouds 13 1019 76 6000 4.1 240 09:36 10.01.2020
1038 Clouds 12 1019 81 6000 4.1 240 09:18 10.01.2020
1039 Clouds 11 1019 87 6000 4.1 220 08:40 10.01.2020
1040 Clouds 10 1018 87 6000 4.1 190 08:21 10.01.2020
1041 Clouds 10 1018 87 6000 3.1 190 07:44 10.01.2020
1042 Clouds 9 1018 87 6000 3.6 200 07:23 10.01.2020
1043 Clouds 9 1017 87 6000 4.1 210 06:45 10.01.2020
1044 Clouds 8 1017 87 6000 3.1 210 06:25 10.01.2020
1045 Clouds 8 1017 87 6000 3.1 210 05:44 10.01.2020
1046 Clouds 10 1015 76 6000 4.6 240 03:35 10.01.2020
1047 Clouds 10 1015 76 6000 4.6 240 02:58 10.01.2020
1048 Clouds 10 1015 76 6000 4.6 240 02:37 10.01.2020
1049 Clouds 10 1016 81 6000 5.7 240 01:38 10.01.2020
1050 Clouds 10 1016 81 6000 7.2 230 00:58 10.01.2020
1051 Clouds 11 1016 76 6000 8.7 210 00:38 10.01.2020
1052 Clouds 11 1016 76 6000 6.2 220 23:57 09.01.2020
1053 Clouds 11 1016 76 6000 6.2 220 23:38 09.01.2020
1054 Clouds 11 1016 81 6000 4.6 250 23:20 09.01.2020
1055 Clouds 11 1016 81 6000 4.6 270 22:57 09.01.2020
1056 Clouds 12 1017 76 10000 5.1 250 22:37 09.01.2020
1057 Clouds 12 1017 76 10000 5.1 250 22:19 09.01.2020
1058 Clouds 12 1017 76 10000 4.6 240 21:56 09.01.2020
1059 Clouds 12 1017 76 10000 5.1 250 21:37 09.01.2020
1060 Clouds 12 1017 76 10000 5.1 250 21:18 09.01.2020
1061 Clouds 11 1017 81 10000 5.7 250 20:56 09.01.2020
1062 Clouds 11 1017 81 10000 5.7 250 20:38 09.01.2020
1063 Clouds 12 1017 76 10000 4.6 240 20:19 09.01.2020
1064 Clouds 12 1017 76 10000 4.6 240 20:19 09.01.2020
1065 Clouds 12 1017 76 10000 4.6 240 20:19 09.01.2020
1066 Clouds 12 1017 76 10000 5.1 240 19:56 09.01.2020
1067 Clouds 12 1017 76 10000 5.1 260 19:37 09.01.2020
1068 Clouds 12 1017 76 10000 5.1 260 19:18 09.01.2020
1069 Clouds 12 1016 76 10000 6.2 260 18:54 09.01.2020
1070 Clouds 12 1016 76 10000 6.2 260 18:54 09.01.2020
1071 Clouds 12 1016 76 10000 6.7 250 18:36 09.01.2020
1072 Clouds 12 1016 76 10000 6.7 250 18:18 09.01.2020
1073 Clouds 13 1016 66 10000 5.1 250 17:41 09.01.2020
1074 Clouds 13 1016 66 10000 5.1 250 17:18 09.01.2020
1075 Rain 13 1016 66 10000 5.1 250 16:48 09.01.2020
1076 Clouds 14 1015 54 10000 6.7 260 16:23 09.01.2020
1077 Clouds 14 1015 54 10000 6.7 260 16:23 09.01.2020
1078 Clouds 15 1015 51 10000 7.7 260 15:57 09.01.2020
1079 Clouds 15 1015 51 6000 7.7 260 15:39 09.01.2020
1080 Clouds 15 1015 51 6000 7.7 260 15:18 09.01.2020
1081 Clouds 15 1015 51 6000 8.7 230 14:42 09.01.2020
1082 Clouds 15 1015 51 6000 8.7 230 14:21 09.01.2020
1083 Clouds 15 1015 47 6000 8.2 250 13:57 09.01.2020
1084 Clouds 14 1015 50 6000 8.2 230 13:39 09.01.2020
1085 Clouds 14 1015 50 6000 8.2 230 13:39 09.01.2020
1086 Clouds 14 1015 50 6000 8.2 230 13:20 09.01.2020
1087 Clouds 14 1015 50 6000 8.2 230 12:58 09.01.2020
1088 Clouds 14 1015 50 6000 8.2 220 12:38 09.01.2020
1089 Clouds 14 1015 50 6000 8.2 220 12:19 09.01.2020
1090 Clouds 14 1015 50 6000 8.2 210 11:55 09.01.2020
1091 Clouds 13 1016 58 6000 7.7 200 11:37 09.01.2020
1092 Clouds 13 1016 58 6000 7.7 200 11:19 09.01.2020
1093 Clouds 11 1017 62 6000 5.7 210 10:42 09.01.2020
1094 Clouds 11 1017 62 6000 5.7 210 10:22 09.01.2020
1095 Clouds 11 1018 62 6000 6.7 210 09:55 09.01.2020
1096 Clouds 11 1018 62 6000 6.7 210 09:37 09.01.2020
1097 Clouds 11 1018 62 6000 6.7 210 09:18 09.01.2020
1098 Clouds 10 1018 61 6000 6.7 200 08:54 09.01.2020
1099 Clouds 10 1018 66 6000 6.2 190 08:36 09.01.2020
1100 Clouds 10 1018 66 6000 6.2 190 08:18 09.01.2020
1101 Clouds 10 1018 66 6000 6.2 190 07:41 09.01.2020
1102 Clouds 9 1018 66 6000 6.2 190 07:23 09.01.2020
1103 Clouds 9 1017 66 6000 6.7 200 06:38 09.01.2020
1104 Clouds 9 1017 66 6000 6.7 200 06:18 09.01.2020
1105 Clouds 9 1017 66 6000 5.7 200 05:43 09.01.2020
1106 Clouds 9 1017 61 6000 6.2 220 04:42 09.01.2020
1107 Clouds 10 1017 62 6000 6.2 200 03:30 09.01.2020
1108 Clouds 10 1017 62 6000 6.2 200 03:30 09.01.2020
1109 Clouds 11 1017 62 6000 5.7 220 02:48 09.01.2020
1110 Clouds 11 1017 62 6000 5.7 220 02:23 09.01.2020
1111 Clouds 12 1018 58 6000 6.2 220 01:35 09.01.2020
1112 Clouds 12 1018 62 6000 7.2 240 00:42 09.01.2020
1113 Clouds 12 1018 62 6000 7.2 240 00:21 09.01.2020
1114 Clouds 13 1018 54 6000 5.7 230 23:42 08.01.2020
1115 Clouds 13 1018 54 6000 5.7 230 23:24 08.01.2020
1116 Clouds 13 1018 54 6000 5.7 230 22:58 08.01.2020
1117 Clouds 13 1018 54 6000 5.7 230 22:38 08.01.2020
1118 Clouds 13 1018 54 6000 5.7 230 22:20 08.01.2020
1119 Clouds 13 1019 54 6000 7.2 240 21:57 08.01.2020
1120 Clouds 13 1019 54 6000 7.2 240 21:38 08.01.2020
1121 Clouds 13 1019 50 6000 7.2 240 21:19 08.01.2020
1122 Clouds 14 1019 50 6000 7.2 240 20:57 08.01.2020
1123 Clouds 14 1019 50 6000 7.2 240 20:38 08.01.2020
1124 Clouds 14 1019 50 6000 7.2 240 20:20 08.01.2020
1125 Clouds 14 1018 47 6000 7.2 240 19:56 08.01.2020
1126 Clouds 14 1018 47 6000 7.2 240 19:36 08.01.2020
1127 Clouds 14 1018 47 6000 7.2 240 19:18 08.01.2020
1128 Clouds 14 1018 47 6000 7.7 240 18:55 08.01.2020
1129 Clouds 14 1018 47 6000 7.7 240 18:55 08.01.2020
1130 Clouds 14 1018 47 6000 7.7 240 18:36 08.01.2020
1131 Clouds 14 1018 47 6000 7.7 240 18:18 08.01.2020
1132 Clouds 14 1018 47 6000 7.7 240 17:45 08.01.2020
1133 Clouds 14 1018 47 6000 7.7 240 17:24 08.01.2020
1134 Clouds 15 1017 44 6000 6.2 260 16:57 08.01.2020
1135 Clouds 15 1017 44 6000 6.2 260 16:39 08.01.2020
1136 Clouds 15 1017 44 6000 6.2 260 16:19 08.01.2020
1137 Clouds 16 1017 41 6000 11.3 270 15:57 08.01.2020
1138 Clouds 16 1017 41 6000 11.3 270 15:39 08.01.2020
1139 Clouds 16 1017 41 6000 11.3 270 15:18 08.01.2020
1140 Clouds 16 1016 41 6000 9.3 250 14:55 08.01.2020
1141 Clouds 16 1016 41 6000 9.3 270 14:37 08.01.2020
1142 Clouds 16 1016 41 6000 9.3 270 14:19 08.01.2020
1143 Clouds 16 1016 38 6000 11.3 260 13:39 08.01.2020
1144 Clouds 16 1016 38 6000 11.3 260 13:18 08.01.2020
1145 Clouds 16 1016 38 6000 11.3 250 12:41 08.01.2020
1146 Clouds 16 1016 38 6000 11.3 250 12:18 08.01.2020
1147 Clouds 15 1017 47 6000 10.3 220 11:55 08.01.2020
1148 Clouds 15 1017 47 6000 10.3 220 11:37 08.01.2020
1149 Clouds 15 1017 47 6000 10.3 220 11:18 08.01.2020
1150 Clouds 12 1018 58 6000 9.8 200 10:42 08.01.2020
1151 Clouds 12 1018 58 6000 9.8 200 10:22 08.01.2020
1152 Clouds 11 1018 57 6000 9.3 200 09:59 08.01.2020
1153 Clouds 11 1018 57 6000 9.3 200 09:41 08.01.2020
1154 Clouds 11 1018 57 6000 9.3 200 09:19 08.01.2020
1155 Clouds 11 1018 57 6000 9.3 200 09:19 08.01.2020
1156 Clouds 10 1018 61 6000 8.2 200 08:55 08.01.2020
1157 Clouds 9 1018 66 6000 8.2 200 08:36 08.01.2020
1158 Clouds 9 1018 66 6000 8.2 200 08:18 08.01.2020
1159 Clouds 8 1018 65 6000 7.2 200 07:43 08.01.2020
1160 Clouds 8 1018 65 6000 7.2 200 07:23 08.01.2020
1161 Clouds 9 1017 61 6000 7.7 200 06:44 08.01.2020
1162 Clouds 9 1017 61 10000 7.7 200 05:59 08.01.2020
1163 Clouds 9 1017 61 10000 7.7 200 05:28 08.01.2020
1164 Clouds 9 1017 61 10000 7.2 210 04:54 08.01.2020
1165 Clouds 10 1017 57 10000 8.2 210 03:33 08.01.2020
1166 Clouds 10 1017 57 10000 8.7 220 02:44 08.01.2020
1167 Clouds 10 1017 57 10000 8.7 210 02:19 08.01.2020
1168 Clouds 10 1017 53 10000 8.7 210 01:42 08.01.2020
1169 Clouds 10 1017 53 10000 9.3 210 00:59 08.01.2020
1170 Clouds 10 1017 53 10000 9.3 210 00:27 08.01.2020
1171 Clouds 10 1017 53 10000 9.3 210 23:47 07.01.2020
1172 Clouds 10 1017 53 10000 7.7 210 23:22 07.01.2020
1173 Clouds 10 1017 50 10000 8.2 210 22:58 07.01.2020
1174 Clouds 11 1017 50 10000 8.7 210 22:39 07.01.2020
1175 Clouds 11 1017 50 10000 8.7 210 22:20 07.01.2020
1176 Clouds 11 1017 50 10000 10.8 210 21:55 07.01.2020
1177 Clouds 11 1017 46 10000 10.3 210 21:37 07.01.2020
1178 Clouds 12 1017 46 10000 10.3 210 21:19 07.01.2020
1179 Clouds 12 1017 46 10000 9.8 210 20:42 07.01.2020
1180 Clouds 12 1017 46 10000 9.8 210 20:24 07.01.2020
1181 Clouds 12 1017 46 10000 9.3 220 19:59 07.01.2020
1182 Clouds 12 1018 53 10000 10.3 230 19:38 07.01.2020
1183 Clouds 13 1018 53 10000 10.3 230 19:19 07.01.2020
1184 Clouds 13 1017 53 10000 9.3 230 18:58 07.01.2020
1185 Clouds 13 1017 43 6000 8.2 230 18:40 07.01.2020
1186 Clouds 13 1017 43 6000 8.2 230 18:18 07.01.2020
1187 Clouds 13 1017 43 6000 8.2 230 18:18 07.01.2020
1188 Clouds 13 1016 43 6000 7.2 230 17:58 07.01.2020
1189 Clouds 13 1016 43 6000 7.2 230 17:39 07.01.2020
1190 Clouds 13 1016 43 6000 7.2 230 17:20 07.01.2020
1191 Clouds 13 1016 43 6000 8.7 230 16:56 07.01.2020
1192 Clouds 13 1016 41 6000 10.3 240 16:37 07.01.2020
1193 Clouds 14 1016 41 6000 10.3 240 16:18 07.01.2020
1194 Clouds 15 1016 44 6000 9.8 240 15:57 07.01.2020
1195 Clouds 15 1015 41 6000 10.3 240 15:37 07.01.2020
1196 Clouds 14 1015 41 6000 10.3 240 15:18 07.01.2020
1197 Clouds 15 1015 38 6000 11.8 240 14:42 07.01.2020
1198 Clouds 15 1015 38 6000 11.8 240 14:23 07.01.2020
1199 Clouds 15 1015 38 6000 11.8 220 13:57 07.01.2020
1200 Clouds 15 1014 38 6000 11.3 220 13:38 07.01.2020
1201 Clouds 15 1014 38 6000 11.3 220 13:18 07.01.2020
1202 Clouds 15 1015 44 6000 12.9 220 12:41 07.01.2020
1203 Clouds 14 1015 44 6000 12.9 220 12:19 07.01.2020
1204 Clouds 15 1015 44 6000 12.3 220 11:45 07.01.2020
1205 Clouds 14 1015 44 6000 12.3 220 11:23 07.01.2020
1206 Clouds 14 1016 47 10000 11.3 220 10:59 07.01.2020
1207 Clouds 13 1016 62 10000 8.2 210 10:41 07.01.2020
1208 Clouds 13 1016 62 10000 8.2 210 10:41 07.01.2020
1209 Clouds 13 1016 62 10000 8.2 210 10:23 07.01.2020
1210 Clouds 12 1016 62 6000 8.7 210 09:56 07.01.2020
1211 Clouds 11 1017 66 6000 8.7 210 09:38 07.01.2020
1212 Clouds 11 1017 66 6000 8.7 210 09:20 07.01.2020
1213 Clouds 11 1016 71 6000 8.2 210 08:42 07.01.2020
1214 Clouds 11 1016 71 6000 8.2 210 08:23 07.01.2020
1215 Clouds 11 1016 71 6000 7.7 210 07:54 07.01.2020
1216 Clouds 11 1016 66 6000 7.7 200 07:28 07.01.2020
1217 Clouds 10 1016 71 6000 7.2 200 06:53 07.01.2020
1218 Clouds 11 1015 66 6000 6.2 210 06:34 07.01.2020
1219 Clouds 11 1015 66 10000 6.7 200 05:54 07.01.2020
1220 Clouds 11 1014 71 10000 5.1 180 04:33 07.01.2020
1221 Clouds 11 1014 71 10000 5.1 200 03:26 07.01.2020
1222 Clear 11 1015 71 10000 4.1 200 02:22 07.01.2020
1223 Clear 10 1015 71 10000 2.1 220 01:51 07.01.2020
1224 Clear 11 1015 66 10000 4.1 230 01:28 07.01.2020
1225 Clear 12 1015 50 10000 7.7 220 00:37 07.01.2020
1226 Clear 12 1015 50 10000 7.7 220 00:18 07.01.2020
1227 Clear 13 1014 44 10000 8.7 200 23:39 06.01.2020
1228 Clear 14 1014 44 10000 8.7 200 23:21 06.01.2020
1229 Clear 14 1014 44 10000 9.3 200 22:58 06.01.2020
1230 Clear 14 1014 44 10000 9.3 200 22:39 06.01.2020
1231 Clear 14 1014 44 10000 9.3 200 22:21 06.01.2020
1232 Clear 14 1015 47 10000 9.3 200 21:56 06.01.2020
1233 Clear 14 1015 47 10000 9.8 200 21:38 06.01.2020
1234 Clear 14 1015 47 10000 9.8 200 21:19 06.01.2020
1235 Clear 14 1015 47 10000 8.7 200 20:56 06.01.2020
1236 Clear 14 1015 44 10000 8.7 200 20:37 06.01.2020
1237 Clear 15 1015 44 10000 8.7 200 20:19 06.01.2020
1238 Clouds 15 1014 44 10000 7.7 200 19:55 06.01.2020
1239 Clear 15 1014 47 10000 7.2 190 19:37 06.01.2020
1240 Clear 15 1014 47 10000 7.2 190 19:18 06.01.2020
1241 Clouds 15 1014 44 10000 7.7 190 18:45 06.01.2020
1242 Clouds 15 1014 47 10000 7.2 180 18:21 06.01.2020
1243 Clouds 15 1014 47 10000 7.2 180 17:40 06.01.2020
1244 Clouds 15 1014 47 10000 7.2 180 17:40 06.01.2020
1245 Clouds 15 1014 47 10000 7.2 180 17:20 06.01.2020
1246 Clouds 15 1014 47 10000 7.2 180 17:20 06.01.2020
1247 Clouds 15 1014 51 10000 6.7 180 16:59 06.01.2020
1248 Clouds 15 1014 48 10000 7.2 180 16:41 06.01.2020
1249 Clouds 16 1014 48 10000 7.2 180 16:23 06.01.2020
1250 Clouds 16 1014 44 10000 8.2 180 15:59 06.01.2020
1251 Clouds 16 1014 44 10000 11.3 200 15:37 06.01.2020
1252 Clouds 16 1014 44 10000 11.3 200 15:37 06.01.2020
1253 Clouds 16 1014 42 10000 9.8 200 15:18 06.01.2020
1254 Clouds 16 1014 44 10000 11.3 200 15:18 06.01.2020
1255 Clouds 17 1014 42 10000 10.3 190 14:42 06.01.2020
1256 Clouds 17 1014 42 10000 10.3 190 14:23 06.01.2020
1257 Clouds 17 1014 42 10000 10.3 190 14:23 06.01.2020
1258 Clouds 17 1013 42 10000 11.8 210 13:59 06.01.2020
1259 Clouds 16 1014 44 10000 11.8 200 13:39 06.01.2020
1260 Clouds 16 1014 44 10000 11.8 200 13:21 06.01.2020
1261 Clouds 16 1014 48 10000 11.8 190 12:58 06.01.2020
1262 Clouds 16 1014 48 10000 10.8 200 12:39 06.01.2020
1263 Clouds 16 1014 48 10000 10.8 200 12:39 06.01.2020
1264 Clouds 16 1014 48 10000 10.8 200 12:19 06.01.2020
1265 Clouds 15 1015 51 10000 10.3 190 11:43 06.01.2020
1266 Clouds 15 1015 51 10000 10.3 190 11:24 06.01.2020
1267 Clouds 15 1016 51 10000 10.3 190 11:00 06.01.2020
1268 Clouds 15 1016 50 10000 9.8 180 10:41 06.01.2020
1269 Clouds 14 1016 50 10000 9.8 180 10:21 06.01.2020
1270 Clouds 13 1017 54 10000 8.2 180 09:42 06.01.2020
1271 Clouds 13 1017 54 10000 8.2 180 09:24 06.01.2020
1272 Clouds 13 1017 50 10000 7.2 180 08:57 06.01.2020
1273 Clouds 12 1017 54 10000 10.3 170 08:38 06.01.2020
1274 Clouds 12 1017 54 10000 10.3 170 08:38 06.01.2020
1275 Clouds 12 1017 54 10000 10.3 170 08:19 06.01.2020
1276 Clouds 11 1017 53 10000 8.7 180 07:44 06.01.2020
1277 Clouds 11 1016 53 6000 6.7 190 06:55 06.01.2020
1278 Clouds 10 1016 57 6000 7.7 180 06:35 06.01.2020
1279 Clouds 10 1016 57 6000 7.7 180 05:48 06.01.2020
1280 Clouds 10 1016 57 6000 7.7 180 05:28 06.01.2020
1281 Clouds 10 1016 57 6000 7.7 180 04:24 06.01.2020
1282 Clouds 10 1016 57 6000 5.7 180 03:51 06.01.2020
1283 Clouds 11 1016 53 6000 8.2 180 02:29 06.01.2020
1284 Clouds 11 1016 53 6000 7.2 180 01:54 06.01.2020
1285 Clouds 12 1016 50 6000 7.2 180 01:31 06.01.2020
1286 Clouds 12 1017 50 10000 6.7 190 00:48 06.01.2020
1287 Clouds 12 1017 50 10000 6.7 190 00:29 06.01.2020
1288 Clouds 12 1017 47 10000 6.2 180 23:59 05.01.2020
1289 Clouds 13 1017 47 10000 6.2 180 23:40 05.01.2020
1290 Clouds 13 1017 47 10000 6.2 180 23:21 05.01.2020
1291 Clouds 13 1017 47 10000 6.7 180 22:40 05.01.2020
1292 Clouds 13 1017 47 10000 6.7 180 22:40 05.01.2020
1293 Clouds 13 1017 47 10000 6.7 180 22:21 05.01.2020
1294 Clouds 13 1017 50 10000 6.7 170 21:59 05.01.2020
1295 Clouds 13 1017 50 10000 7.2 170 21:40 05.01.2020
1296 Clouds 13 1017 50 10000 7.2 170 21:20 05.01.2020
1297 Clouds 13 1017 50 10000 7.7 170 20:58 05.01.2020
1298 Clouds 13 1017 54 10000 6.7 170 20:39 05.01.2020
1299 Clouds 13 1017 54 10000 6.7 170 20:19 05.01.2020
1300 Clouds 13 1017 54 10000 6.7 170 19:59 05.01.2020
1301 Clouds 13 1018 54 10000 6.2 170 19:39 05.01.2020
1302 Clouds 13 1018 54 10000 6.2 170 19:20 05.01.2020
1303 Clouds 13 1018 54 10000 6.7 170 18:56 05.01.2020
1304 Clouds 13 1017 50 10000 5.7 180 18:38 05.01.2020
1305 Clouds 14 1017 50 10000 5.7 180 18:19 05.01.2020
1306 Clouds 14 1017 50 10000 5.7 180 18:19 05.01.2020
1307 Clouds 14 1018 50 10000 5.7 180 17:58 05.01.2020
1308 Clouds 14 1017 50 10000 5.7 170 17:39 05.01.2020
1309 Clouds 14 1017 50 10000 5.7 170 17:39 05.01.2020
1310 Clouds 14 1017 50 10000 5.7 170 17:20 05.01.2020
1311 Clouds 15 1017 44 10000 6.2 200 16:57 05.01.2020
1312 Clouds 15 1017 44 10000 6.2 200 16:39 05.01.2020
1313 Clouds 15 1017 44 10000 6.2 200 16:39 05.01.2020
1314 Clouds 15 1017 44 10000 6.2 200 16:20 05.01.2020
1315 Clouds 16 1017 41 10000 6.7 210 15:40 05.01.2020
1316 Clouds 16 1017 41 10000 6.7 210 15:22 05.01.2020
1317 Clouds 16 1017 41 10000 7.7 210 14:57 05.01.2020
1318 Clouds 16 1017 41 10000 7.7 210 14:39 05.01.2020
1319 Clouds 16 1017 41 10000 7.7 210 14:20 05.01.2020
1320 Clouds 15 1017 47 10000 7.7 190 13:57 05.01.2020
1321 Clouds 15 1017 47 10000 7.7 190 13:38 05.01.2020
1322 Clouds 15 1017 47 10000 7.7 190 13:20 05.01.2020
1323 Clouds 15 1017 47 10000 7.7 190 13:20 05.01.2020
1324 Clouds 14 1018 47 10000 8.2 190 12:56 05.01.2020
1325 Clouds 14 1018 47 10000 8.2 190 12:37 05.01.2020
1326 Clouds 14 1018 47 10000 8.2 190 12:19 05.01.2020
1327 Clouds 14 1018 47 10000 8.2 190 12:19 05.01.2020
1328 Clouds 14 1018 47 10000 8.2 190 12:19 05.01.2020
1329 Clouds 14 1019 47 10000 7.7 190 11:54 05.01.2020
1330 Clouds 14 1019 47 10000 7.7 190 11:36 05.01.2020
1331 Clouds 14 1019 47 10000 7.7 190 11:18 05.01.2020
1332 Clouds 13 1020 47 10000 7.7 190 10:40 05.01.2020
1333 Clouds 13 1020 47 10000 7.7 190 10:20 05.01.2020
1334 Clouds 12 1020 50 10000 6.7 190 09:55 05.01.2020
1335 Clouds 11 1020 50 10000 6.7 180 09:36 05.01.2020
1336 Clouds 11 1020 50 10000 6.7 180 09:18 05.01.2020
1337 Clouds 10 1020 53 10000 7.7 180 08:44 05.01.2020
1338 Clouds 9 1020 62 10000 5.7 180 08:21 05.01.2020
1339 Clouds 8 1020 62 6000 4.6 180 07:44 05.01.2020
1340 Clouds 8 1020 62 6000 4.6 180 07:44 05.01.2020
1341 Clouds 8 1020 62 6000 4.6 180 07:26 05.01.2020
1342 Haze 8 1020 62 4000 4.6 180 06:54 05.01.2020
1343 Haze 8 1019 62 4000 4.6 170 05:41 05.01.2020
1344 Haze 9 1019 64 4000 4.6 180 04:56 05.01.2020
1345 Haze 9 1019 64 4000 4.6 180 04:19 05.01.2020
1346 Haze 9 1019 64 4000 4.6 180 04:19 05.01.2020
1347 Haze 9 1019 64 4000 4.6 180 04:19 05.01.2020
1348 Clear 9 1019 64 0 4.92 180 03:38 05.01.2020
1349 Clouds 9 1019 64 10000 5.1 180 02:35 05.01.2020
1350 Clouds 9 1019 63 10000 4.1 180 01:52 05.01.2020
1351 Clouds 9 1020 66 10000 5.1 180 01:20 05.01.2020
1352 Clouds 9 1019 66 10000 4.6 180 00:57 05.01.2020
1353 Clouds 9 1019 66 10000 3.6 170 00:39 05.01.2020
1354 Clouds 9 1019 66 10000 3.6 170 00:20 05.01.2020
1355 Clouds 10 1019 66 10000 3.6 180 23:57 04.01.2020
1356 Clouds 10 1020 66 10000 4.6 210 23:38 04.01.2020
1357 Clouds 11 1020 59 10000 4.6 210 23:18 04.01.2020
1358 Clouds 11 1020 59 10000 5.1 220 22:39 04.01.2020
1359 Clouds 11 1020 59 10000 5.1 220 22:20 04.01.2020
1360 Clouds 12 1020 46 10000 5.7 230 21:56 04.01.2020
1361 Clouds 12 1020 46 10000 4.1 220 21:37 04.01.2020
1362 Clouds 12 1020 46 10000 4.1 220 21:19 04.01.2020
1363 Clouds 12 1020 46 10000 3.1 220 20:55 04.01.2020
1364 Clouds 12 1019 43 10000 5.1 240 20:36 04.01.2020
1365 Clouds 13 1019 43 10000 5.1 240 20:18 04.01.2020
1366 Clouds 13 1019 47 10000 5.1 240 19:41 04.01.2020
1367 Clouds 13 1019 47 10000 5.1 240 19:23 04.01.2020
1368 Clouds 13 1019 47 10000 4.6 240 18:58 04.01.2020
1369 Clouds 13 1019 47 10000 4.6 240 18:38 04.01.2020
1370 Clouds 13 1019 47 10000 4.6 240 18:20 04.01.2020
1371 Clouds 13 1019 47 10000 4.6 240 18:20 04.01.2020
1372 Clouds 14 1019 44 10000 4.6 240 17:56 04.01.2020
1373 Clouds 14 1019 41 10000 5.7 240 17:38 04.01.2020
1374 Clouds 14 1019 41 10000 5.7 240 17:20 04.01.2020
1375 Clouds 15 1018 41 10000 5.7 250 16:42 04.01.2020
1376 Clouds 15 1018 41 10000 5.7 250 16:24 04.01.2020
1377 Clouds 15 1018 51 10000 4.6 210 15:57 04.01.2020
1378 Clouds 15 1018 51 10000 5.1 200 15:38 04.01.2020
1379 Clouds 15 1018 51 10000 5.1 200 15:19 04.01.2020
1380 Clouds 15 1018 51 10000 5.7 190 14:56 04.01.2020
1381 Clouds 15 1018 54 10000 5.1 200 14:38 04.01.2020
1382 Clouds 15 1018 54 10000 5.1 200 14:19 04.01.2020
1383 Clouds 15 1018 54 10000 5.1 200 14:19 04.01.2020
1384 Clouds 15 1018 54 10000 6.2 200 13:55 04.01.2020
1385 Clouds 14 1018 58 10000 6.7 190 13:36 04.01.2020
1386 Clouds 14 1018 58 10000 6.7 190 13:18 04.01.2020
1387 Clouds 14 1018 58 6000 7.2 200 12:41 04.01.2020
1388 Clouds 13 1018 58 6000 7.2 200 12:19 04.01.2020
1389 Clouds 13 1019 62 6000 8.7 200 11:58 04.01.2020
1390 Clouds 13 1019 62 6000 8.2 200 11:39 04.01.2020
1391 Clouds 13 1019 62 6000 8.2 200 11:39 04.01.2020
1392 Clouds 13 1019 62 6000 8.2 200 11:19 04.01.2020
1393 Clouds 11 1020 71 6000 8.2 190 10:42 04.01.2020
1394 Clouds 11 1020 71 6000 8.2 190 10:23 04.01.2020
1395 Clouds 11 1020 76 6000 8.2 200 09:59 04.01.2020
1396 Clouds 11 1020 76 6000 8.2 200 09:41 04.01.2020
1397 Clouds 11 1020 76 6000 8.2 200 09:21 04.01.2020
1398 Sand 10 1019 76 3000 6.7 190 08:41 04.01.2020
1399 Sand 10 1019 76 3000 6.7 190 08:21 04.01.2020
1400 Sand 10 1019 76 3000 6.7 190 08:21 04.01.2020
1401 Clouds 10 1019 76 10000 8.2 180 07:44 04.01.2020
1402 Clouds 9 1019 76 10000 8.2 180 07:21 04.01.2020
1403 Clouds 10 1018 76 10000 7.2 200 06:33 04.01.2020
1404 Clouds 9 1018 81 10000 6.7 200 05:39 04.01.2020
1405 Clouds 9 1018 81 10000 7.7 200 04:44 04.01.2020
1406 Clouds 9 1018 81 10000 7.7 200 04:25 04.01.2020
1407 Rain 9 1018 76 6000 7.2 200 03:19 04.01.2020
1408 Clouds 9 1018 70 6000 8.7 200 02:23 04.01.2020
1409 Clouds 10 1018 57 6000 9.3 200 01:56 04.01.2020
1410 Clouds 10 1018 57 6000 9.3 200 01:32 04.01.2020
1411 Clouds 11 1018 50 6000 11.3 210 00:46 04.01.2020
1412 Clouds 11 1018 50 6000 11.3 210 00:27 04.01.2020
1413 Clouds 11 1017 60 6000 10.8 200 23:48 03.01.2020
1414 Clouds 11 1018 60 6000 10.8 200 23:26 03.01.2020
1415 Clouds 11 1018 51 6000 10.3 210 22:54 03.01.2020
1416 Clouds 12 1018 51 6000 10.3 210 22:36 03.01.2020
1417 Clouds 12 1018 51 6000 10.3 210 22:18 03.01.2020
1418 Clouds 11 1018 51 6000 9.8 210 21:54 03.01.2020
1419 Clouds 11 1018 51 6000 9.8 210 21:36 03.01.2020
1420 Clouds 12 1018 51 6000 9.8 210 21:18 03.01.2020
1421 Clouds 12 1019 51 6000 10.3 220 20:43 03.01.2020
1422 Clear 12 1019 48 6000 10.3 220 20:19 03.01.2020
1423 Clear 12 1019 49 6000 9.3 220 19:59 03.01.2020
1424 Clear 12 1018 49 6000 9.3 220 19:40 03.01.2020
1425 Clear 13 1018 49 6000 9.3 220 19:21 03.01.2020
1426 Clear 13 1018 49 6000 9.3 220 18:46 03.01.2020
1427 Clear 13 1018 49 6000 9.3 220 18:26 03.01.2020
1428 Clouds 13 1018 49 6000 9.3 220 17:57 03.01.2020
1429 Clouds 13 1018 49 6000 11.3 230 17:39 03.01.2020
1430 Clouds 14 1018 34 6000 11.3 230 17:19 03.01.2020
1431 Clouds 14 1018 33 6000 10.8 240 16:43 03.01.2020
1432 Clouds 14 1018 33 6000 10.8 240 16:24 03.01.2020
1433 Clouds 14 1018 26 6000 12.3 230 15:59 03.01.2020
1434 Clouds 15 1018 26 6000 12.3 230 15:41 03.01.2020
1435 Clouds 15 1018 26 6000 12.3 230 15:19 03.01.2020
1436 Clouds 15 1018 30 6000 11.3 220 14:39 03.01.2020
1437 Clouds 15 1018 30 6000 11.3 220 14:20 03.01.2020
1438 Clouds 15 1018 38 10000 10.8 210 13:57 03.01.2020
1439 Clouds 15 1018 38 10000 10.8 210 13:38 03.01.2020
1440 Clouds 15 1018 38 10000 10.8 210 13:20 03.01.2020
1441 Clouds 14 1018 41 10000 9.8 210 12:40 03.01.2020
1442 Clouds 14 1018 41 10000 9.8 210 12:22 03.01.2020
1443 Clouds 14 1018 41 10000 9.8 210 12:21 03.01.2020
1444 Clouds 13 1019 50 6000 9.8 200 11:49 03.01.2020
1445 Clouds 13 1019 50 6000 9.8 200 11:31 03.01.2020
1446 Clouds 13 1020 54 6000 9.3 200 10:57 03.01.2020
1447 Clouds 12 1020 58 6000 7.2 200 10:38 03.01.2020
1448 Clouds 12 1020 58 6000 7.2 200 10:20 03.01.2020
1449 Sand 12 1020 62 3000 7.2 190 09:54 03.01.2020
1450 Sand 11 1021 71 3000 9.3 190 09:36 03.01.2020
1451 Sand 10 1021 71 3000 9.3 190 09:18 03.01.2020
1452 Sand 10 1020 71 3000 7.2 180 08:44 03.01.2020
1453 Sand 10 1020 71 3000 7.2 180 08:21 03.01.2020
1454 Sand 9 1020 76 3000 6.2 180 07:43 03.01.2020
1455 Sand 9 1020 76 3000 6.2 180 07:19 03.01.2020
1456 Sand 9 1020 76 3000 6.2 180 07:19 03.01.2020
1457 Sand 8 1020 75 3000 6.2 170 06:58 03.01.2020
1458 Clear 8 1019 75 6000 6.2 180 06:39 03.01.2020
1459 Clear 8 1019 75 6000 6.2 180 06:20 03.01.2020
1460 Clear 9 1019 70 10000 5.7 180 04:45 03.01.2020
1461 Clear 9 1019 66 10000 6.2 200 03:38 03.01.2020
1462 Clear 10 1019 66 10000 7.2 200 02:53 03.01.2020
1463 Clouds 10 1019 66 10000 7.2 200 01:51 03.01.2020
1464 Clouds 11 1019 62 10000 7.2 210 01:18 03.01.2020
1465 Clouds 11 1019 62 10000 7.2 210 00:40 03.01.2020
1466 Clouds 11 1019 62 10000 7.2 210 00:20 03.01.2020
1467 Clouds 12 1019 54 10000 6.7 210 23:39 02.01.2020
1468 Clear 12 1019 54 10000 6.7 210 23:20 02.01.2020
1469 Clear 12 1019 54 10000 7.2 210 22:59 02.01.2020
1470 Clear 12 1019 50 10000 6.2 210 22:41 02.01.2020
1471 Clear 13 1019 50 10000 6.2 210 22:20 02.01.2020
1472 Clear 13 1019 50 10000 6.7 210 21:56 02.01.2020
1473 Clear 13 1019 50 10000 6.2 210 21:38 02.01.2020
1474 Clear 13 1019 50 10000 6.2 210 21:19 02.01.2020
1475 Clear 13 1019 50 10000 6.7 210 20:56 02.01.2020
1476 Clear 13 1019 50 10000 5.7 220 20:37 02.01.2020
1477 Clouds 13 1019 50 10000 5.7 220 20:18 02.01.2020
1478 Clouds 14 1018 47 10000 5.1 230 19:54 02.01.2020
1479 Clouds 14 1018 47 10000 8.2 240 19:36 02.01.2020
1480 Clouds 14 1018 47 10000 8.2 240 19:18 02.01.2020
1481 Clouds 14 1017 44 10000 6.2 240 18:43 02.01.2020
1482 Clouds 15 1017 44 10000 6.2 240 18:24 02.01.2020
1483 Clouds 15 1017 41 10000 6.7 240 17:58 02.01.2020
1484 Clouds 15 1017 38 10000 7.2 240 17:39 02.01.2020
1485 Clouds 15 1017 38 10000 7.2 240 17:20 02.01.2020
1486 Clouds 15 1016 41 10000 8.2 250 16:59 02.01.2020
1487 Clouds 15 1016 41 10000 8.2 250 16:41 02.01.2020
1488 Clouds 15 1016 41 10000 8.2 250 16:20 02.01.2020
1489 Clouds 15 1016 38 10000 8.7 240 15:58 02.01.2020
1490 Clouds 15 1016 46 10000 7.7 230 15:40 02.01.2020
1491 Clouds 16 1016 46 10000 7.7 230 15:22 02.01.2020
1492 Clouds 16 1016 31 10000 7.2 220 14:57 02.01.2020
1493 Clouds 16 1016 46 10000 7.2 230 14:36 02.01.2020
1494 Clouds 16 1016 36 10000 7.2 230 14:18 02.01.2020
1495 Clouds 16 1016 31 10000 6.2 230 13:50 02.01.2020
1496 Clouds 16 1016 38 10000 6.7 260 13:31 02.01.2020
1497 Clouds 16 1016 38 10000 6.2 240 12:46 02.01.2020
1498 Clouds 16 1016 38 10000 5.1 210 12:26 02.01.2020
1499 Clouds 15 1017 38 6000 5.7 230 11:59 02.01.2020
1500 Clouds 15 1017 38 6000 5.7 230 11:40 02.01.2020
1501 Clouds 15 1017 46 6000 5.7 230 11:20 02.01.2020
1502 Clouds 15 1017 46 6000 5.1 250 10:45 02.01.2020
1503 Clouds 15 1017 38 6000 4.6 230 10:26 02.01.2020
1504 Haze 14 1017 41 4000 3.6 220 09:52 02.01.2020
1505 Haze 14 1018 44 4000 3.1 210 09:33 02.01.2020
1506 Haze 13 1017 50 4000 3.1 210 08:48 02.01.2020
1507 Haze 12 1017 54 4000 3.1 210 08:27 02.01.2020
1508 Haze 12 1017 62 4000 3.6 170 07:54 02.01.2020
1509 Haze 11 1017 71 4000 3.6 170 07:31 02.01.2020
1510 Haze 10 1017 71 4000 2.6 240 06:57 02.01.2020
1511 Haze 10 1017 71 4000 2.6 240 06:57 02.01.2020
1512 Haze 10 1017 71 4000 2.6 240 06:39 02.01.2020
1513 Haze 9 1016 81 4000 1.5 200 05:37 02.01.2020
1514 Haze 10 1016 81 4000 1.5 200 04:34 02.01.2020
1515 Haze 11 1016 71 4000 1 230 03:19 02.01.2020
1516 Haze 12 1016 71 4000 2.6 250 02:20 02.01.2020
1517 Haze 11 1016 76 4000 2.6 250 01:47 02.01.2020
1518 Haze 12 1016 71 4000 1.5 230 01:19 02.01.2020
1519 Haze 11 1016 76 4000 2.2 0 00:36 02.01.2020
1520 Haze 11 1016 76 4000 2.2 0 00:18 02.01.2020
1521 Haze 11 1016 71 4000 2.2 0 23:40 01.01.2020
1522 Haze 12 1016 71 4000 3.07 350 23:20 01.01.2020
1523 Haze 13 1016 66 4000 3.07 350 22:38 01.01.2020
1524 Haze 13 1016 66 4000 3.07 350 22:20 01.01.2020
1525 Haze 14 1017 67 4000 1.5 350 21:57 01.01.2020
1526 Haze 14 1017 67 4000 1.5 350 21:39 01.01.2020
1527 Haze 14 1017 67 4000 1.5 350 21:20 01.01.2020
1528 Clouds 14 1017 62 6000 2.6 350 20:56 01.01.2020
1529 Clouds 15 1017 62 6000 2.6 350 20:38 01.01.2020
1530 Clouds 15 1017 62 6000 2.6 350 20:19 01.01.2020
1531 Clouds 15 1017 58 6000 3.6 340 19:55 01.01.2020
1532 Clouds 15 1017 58 6000 3.6 340 19:37 01.01.2020
1533 Clouds 15 1017 58 6000 3.6 340 19:19 01.01.2020
1534 Clouds 16 1017 55 6000 2.1 340 18:56 01.01.2020
1535 Clouds 16 1017 55 6000 2.1 340 18:36 01.01.2020
1536 Clouds 16 1017 55 6000 2.1 340 18:18 01.01.2020
1537 Clouds 16 1016 51 6000 2.1 340 17:57 01.01.2020
1538 Clouds 16 1016 51 6000 2.1 340 17:38 01.01.2020
1539 Clouds 16 1016 51 6000 2.1 340 17:19 01.01.2020
1540 Clouds 16 1016 51 6000 2.1 320 16:55 01.01.2020
1541 Clouds 16 1016 51 6000 2.1 320 16:36 01.01.2020
1542 Clouds 16 1016 51 6000 2.1 320 16:36 01.01.2020
1543 Clouds 16 1016 51 6000 2.1 320 16:18 01.01.2020
1544 Clouds 16 1017 48 6000 3.6 300 15:54 01.01.2020
1545 Clouds 16 1017 48 6000 3.6 300 15:36 01.01.2020
1546 Clouds 16 1017 48 6000 3.6 300 15:18 01.01.2020
1547 Clouds 17 1016 51 6000 3.1 290 14:40 01.01.2020
1548 Clouds 17 1016 51 6000 3.1 290 14:22 01.01.2020
1549 Clouds 16 1017 55 6000 3.1 280 13:56 01.01.2020
1550 Clouds 16 1017 55 6000 3.1 280 13:37 01.01.2020
1551 Clouds 16 1017 55 6000 3.1 280 13:19 01.01.2020
1552 Clouds 16 1017 55 6000 3.6 290 12:57 01.01.2020
1553 Clouds 17 1017 55 6000 3.6 290 12:39 01.01.2020
1554 Clouds 17 1017 55 6000 3.6 290 12:19 01.01.2020
1555 Clouds 17 1017 55 6000 3.6 290 12:19 01.01.2020
1556 Clouds 16 1018 59 6000 2.1 300 11:56 01.01.2020
1557 Clouds 16 1018 59 6000 2.1 300 11:37 01.01.2020
1558 Clouds 16 1018 59 6000 2.1 300 11:18 01.01.2020
1559 Clouds 15 1019 58 6000 1.5 270 10:41 01.01.2020
1560 Clouds 15 1019 58 6000 1.5 270 10:21 01.01.2020
1561 Haze 15 1019 62 4000 2.1 280 09:59 01.01.2020
1562 Haze 14 1020 62 4000 2.1 300 09:38 01.01.2020
1563 Haze 14 1020 62 4000 2.1 300 09:19 01.01.2020
1564 Haze 13 1020 66 4000 1.5 280 08:56 01.01.2020
1565 Mist 12 1020 71 4000 2.1 230 08:37 01.01.2020
1566 Mist 12 1020 71 4000 2.1 230 08:19 01.01.2020
1567 Mist 12 1019 71 4000 2.1 220 07:55 01.01.2020
1568 Mist 10 1019 81 4000 2.6 230 07:37 01.01.2020
1569 Mist 10 1019 76 4000 2.6 220 06:45 01.01.2020
1570 Mist 11 1019 81 4000 1.5 210 06:22 01.01.2020
1571 Mist 11 1019 81 4000 1 270 05:23 01.01.2020
1572 Haze 12 1019 76 4000 1 260 03:47 01.01.2020
1573 Haze 12 1019 76 4000 1 290 03:24 01.01.2020
1574 Haze 12 1020 71 4000 2.1 310 02:59 01.01.2020
1575 Haze 13 1020 71 4000 2.1 310 02:40 01.01.2020
1576 Haze 13 1020 71 4000 2.1 310 02:21 01.01.2020
1577 Haze 13 1020 71 4000 2.1 310 01:39 01.01.2020
1578 Haze 13 1020 71 4000 2.1 310 01:21 01.01.2020
1579 Haze 13 1020 67 4000 2.1 310 00:44 01.01.2020
1580 Haze 13 1020 67 4000 2.1 310 00:26 01.01.2020
1581 Haze 14 1020 58 4000 1 280 23:42 31.12.2019
1582 Haze 14 1020 58 4000 1 280 23:22 31.12.2019
1583 Haze 14 1020 62 4000 1.5 320 22:59 31.12.2019
1584 Haze 13 1021 58 4000 3.64 20 22:39 31.12.2019
1585 Haze 13 1021 58 4000 3.64 20 22:20 31.12.2019
1586 Haze 13 1021 58 4000 1 320 21:59 31.12.2019
1587 Haze 15 1021 54 4000 2.1 310 21:41 31.12.2019
1588 Haze 15 1021 54 4000 2.1 310 21:23 31.12.2019
1589 Clouds 15 1021 51 6000 1.5 300 20:57 31.12.2019
1590 Clouds 13 1021 43 6000 3.64 20 20:37 31.12.2019
1591 Clouds 13 1021 43 6000 3.98 334 20:19 31.12.2019
1592 Clouds 14 1021 41 6000 3.98 334 19:55 31.12.2019
1593 Clouds 15 1021 41 6000 3.98 334 19:37 31.12.2019
1594 Clouds 15 1021 41 6000 3.98 334 19:18 31.12.2019
1595 Clouds 16 1021 38 10000 1.5 330 18:55 31.12.2019
1596 Clouds 16 1021 38 10000 1.5 320 18:37 31.12.2019
1597 Clouds 16 1021 38 10000 1.5 320 18:19 31.12.2019
1598 Clouds 16 1021 36 10000 1.5 330 17:55 31.12.2019
1599 Clouds 17 1021 36 10000 2.1 330 17:36 31.12.2019
1600 Clouds 16 1021 36 10000 2.1 330 17:36 31.12.2019
1601 Clouds 17 1021 36 10000 2.1 330 17:18 31.12.2019
1602 Clouds 17 1021 39 10000 2.1 330 16:55 31.12.2019
1603 Clouds 17 1021 36 10000 2.6 330 16:36 31.12.2019
1604 Clouds 17 1021 36 10000 2.6 330 16:18 31.12.2019
1605 Clouds 17 1021 36 10000 1.5 330 15:56 31.12.2019
1606 Clouds 17 1020 34 10000 2.1 300 15:37 31.12.2019
1607 Clouds 18 1020 34 10000 2.1 300 15:19 31.12.2019
1608 Clouds 19 1020 32 10000 1.5 320 14:55 31.12.2019
1609 Clouds 18 1020 48 10000 3.1 310 14:37 31.12.2019
1610 Clouds 18 1020 45 10000 3.1 310 14:18 31.12.2019
1611 Clear 18 1020 34 10000 2.1 310 13:56 31.12.2019
1612 Clear 18 1021 34 10000 3.1 290 13:37 31.12.2019
1613 Clear 18 1021 34 10000 3.1 290 13:19 31.12.2019
1614 Clear 18 1021 34 10000 3.1 290 12:55 31.12.2019
1615 Clear 17 1021 36 10000 2.6 260 12:37 31.12.2019
1616 Clear 17 1021 36 10000 2.6 260 12:37 31.12.2019
1617 Clear 17 1021 36 10000 2.6 260 12:18 31.12.2019
1618 Clear 17 1021 36 10000 3.1 260 11:55 31.12.2019
1619 Clear 16 1022 38 10000 3.1 260 11:36 31.12.2019
1620 Clear 16 1022 38 10000 3.1 260 11:18 31.12.2019
1621 Clear 16 1022 41 10000 3.6 240 10:55 31.12.2019
1622 Clear 15 1023 47 10000 3.1 240 10:37 31.12.2019
1623 Clear 15 1023 47 10000 3.1 240 10:19 31.12.2019
1624 Clear 15 1023 47 10000 3.1 220 09:56 31.12.2019
1625 Clear 14 1023 50 10000 3.1 210 09:38 31.12.2019
1626 Clear 13 1023 50 10000 3.1 210 09:18 31.12.2019
1627 Clear 13 1023 50 10000 3.1 210 09:18 31.12.2019
1628 Clear 12 1023 54 10000 3.6 190 08:42 31.12.2019
1629 Clouds 12 1023 54 10000 3.6 190 08:22 31.12.2019
1630 Clouds 12 1023 58 10000 3.6 180 07:57 31.12.2019
1631 Clouds 11 1023 57 10000 3.6 180 07:38 31.12.2019
1632 Clouds 11 1023 57 10000 3.6 180 07:18 31.12.2019
1633 Clouds 10 1022 61 10000 3.6 180 06:40 31.12.2019
1634 Clouds 10 1022 57 10000 4.1 180 04:58 31.12.2019
1635 Clouds 10 1021 57 10000 4.1 170 04:25 31.12.2019
1636 Clouds 11 1021 57 10000 4.6 190 02:59 31.12.2019
1637 Clouds 11 1021 57 10000 4.6 190 02:34 31.12.2019
1638 Clear 11 1021 57 10000 4.1 190 01:51 31.12.2019
1639 Clear 12 1021 54 10000 4.6 200 01:32 31.12.2019
1640 Clear 12 1021 54 10000 4.6 200 01:32 31.12.2019
1641 Clear 12 1021 54 10000 4.6 200 00:54 31.12.2019
1642 Clear 12 1021 54 10000 4.1 180 00:36 31.12.2019
1643 Clear 12 1021 54 10000 4.1 180 00:18 31.12.2019
1644 Clear 12 1021 54 10000 4.6 190 23:54 30.12.2019
1645 Clear 12 1021 54 10000 4.6 190 23:36 30.12.2019
1646 Clear 12 1021 54 10000 4.6 190 23:18 30.12.2019
1647 Clear 12 1021 54 10000 4.1 190 22:54 30.12.2019
1648 Clear 12 1021 54 10000 4.1 200 22:36 30.12.2019
1649 Clear 12 1021 54 10000 4.1 200 22:18 30.12.2019
1650 Clear 13 1021 50 10000 4.1 200 21:55 30.12.2019
1651 Clear 12 1021 50 10000 4.1 220 21:36 30.12.2019
1652 Clear 12 1021 50 10000 4.1 220 21:18 30.12.2019
1653 Clear 12 1021 50 10000 5.1 240 20:41 30.12.2019
1654 Clear 13 1021 50 10000 5.1 240 20:21 30.12.2019
1655 Clear 13 1021 47 10000 6.2 240 19:59 30.12.2019
1656 Clear 13 1020 47 10000 6.7 250 19:40 30.12.2019
1657 Clear 14 1020 47 10000 6.7 250 19:20 30.12.2019
1658 Clear 14 1020 47 10000 6.7 250 19:20 30.12.2019
1659 Clear 14 1020 44 10000 6.2 250 18:59 30.12.2019
1660 Clear 14 1019 35 10000 6.2 250 18:41 30.12.2019
1661 Clear 14 1019 35 10000 6.2 250 18:21 30.12.2019
1662 Clear 15 1019 30 10000 6.7 240 17:59 30.12.2019
1663 Clear 15 1018 30 10000 7.2 240 17:40 30.12.2019
1664 Clear 15 1018 30 10000 7.2 240 17:19 30.12.2019
1665 Clear 15 1018 30 10000 7.7 240 16:59 30.12.2019
1666 Clear 15 1017 29 10000 10.3 240 16:40 30.12.2019
1667 Clear 16 1017 29 10000 10.3 240 16:20 30.12.2019
1668 Clouds 16 1017 29 10000 8.7 250 15:56 30.12.2019
1669 Clouds 16 1017 29 10000 7.7 220 15:38 30.12.2019
1670 Clouds 16 1017 29 10000 7.7 220 15:19 30.12.2019
1671 Clouds 16 1017 30 10000 8.2 210 14:55 30.12.2019
1672 Clouds 16 1017 29 10000 9.3 200 14:37 30.12.2019
1673 Clouds 17 1016 25 10000 8.7 220 14:18 30.12.2019
1674 Clouds 17 1016 25 10000 10.3 240 13:42 30.12.2019
1675 Clouds 17 1016 25 10000 10.3 240 13:23 30.12.2019
1676 Clouds 16 1016 26 10000 9.8 230 12:58 30.12.2019
1677 Clouds 16 1016 29 10000 9.68 241 12:40 30.12.2019
1678 Clouds 16 1016 29 10000 9.68 241 12:19 30.12.2019
1679 Clouds 16 1016 29 10000 9.68 241 11:56 30.12.2019
1680 Clouds 16 1016 31 10000 9.3 210 11:37 30.12.2019
1681 Clouds 16 1016 31 10000 9.3 210 11:18 30.12.2019
1682 Clouds 14 1017 47 10000 7.7 210 10:43 30.12.2019
1683 Clouds 14 1017 47 10000 7.7 210 10:20 30.12.2019
1684 Clouds 14 1017 50 10000 7.7 210 09:55 30.12.2019
1685 Clouds 13 1017 58 10000 6.7 220 09:37 30.12.2019
1686 Clouds 13 1017 58 10000 6.7 220 09:18 30.12.2019
1687 Clouds 12 1017 62 6000 6.2 220 08:46 30.12.2019
1688 Clouds 12 1017 62 6000 6.2 220 08:23 30.12.2019
1689 Sand 12 1016 58 4000 7.2 210 07:53 30.12.2019
1690 Sand 12 1015 58 4000 7.2 210 07:32 30.12.2019
1691 Clouds 12 1015 58 6000 5.7 200 06:50 30.12.2019
1692 Clouds 13 1014 50 10000 6.7 190 04:45 30.12.2019
1693 Clouds 13 1014 50 10000 6.2 190 03:52 30.12.2019
1694 Clouds 14 1013 47 10000 8.7 180 02:47 30.12.2019
1695 Clouds 14 1013 47 10000 8.7 180 02:47 30.12.2019
1696 Clouds 14 1013 47 10000 8.7 180 02:29 30.12.2019
1697 Clouds 15 1013 44 10000 8.2 180 01:47 30.12.2019
1698 Clouds 15 1013 44 10000 8.2 180 01:19 30.12.2019
1699 Clouds 15 1013 44 10000 7.2 170 00:42 30.12.2019
1700 Clouds 15 1013 44 10000 7.7 180 23:59 29.12.2019
1701 Clouds 15 1013 44 10000 6.7 180 23:38 29.12.2019
1702 Clouds 15 1013 44 10000 6.7 180 23:20 29.12.2019
1703 Clouds 16 1014 41 10000 7.7 190 22:41 29.12.2019
1704 Clouds 16 1014 41 10000 7.7 190 22:22 29.12.2019
1705 Clouds 16 1014 41 10000 7.7 190 22:22 29.12.2019
1706 Clouds 16 1014 38 10000 7.2 190 21:57 29.12.2019
1707 Clouds 16 1014 39 10000 7.2 180 21:39 29.12.2019
1708 Clouds 17 1014 39 10000 7.2 180 21:20 29.12.2019
1709 Clouds 16 1014 41 10000 5.1 190 20:57 29.12.2019
1710 Clouds 16 1014 39 10000 5.7 160 20:38 29.12.2019
1711 Clouds 17 1014 39 10000 5.7 160 20:20 29.12.2019
1712 Clouds 17 1014 39 10000 6.2 160 19:58 29.12.2019
1713 Clouds 17 1013 39 10000 6.2 170 19:39 29.12.2019
1714 Clouds 17 1013 39 10000 6.2 170 19:20 29.12.2019
1715 Clouds 16 1013 41 10000 5.1 160 18:56 29.12.2019
1716 Clouds 16 1013 44 10000 5.7 160 18:38 29.12.2019
1717 Clouds 16 1013 44 10000 5.7 160 18:19 29.12.2019
1718 Clouds 17 1013 42 10000 7.2 170 17:57 29.12.2019
1719 Clouds 17 1013 39 10000 6.2 170 17:39 29.12.2019
1720 Clouds 17 1013 39 10000 6.2 170 17:20 29.12.2019
1721 Clouds 18 1013 36 10000 6.7 180 16:56 29.12.2019
1722 Clouds 18 1013 36 10000 6.7 180 16:37 29.12.2019
1723 Clouds 18 1013 36 10000 6.7 180 16:19 29.12.2019
1724 Clouds 18 1013 39 10000 8.2 200 15:57 29.12.2019
1725 Clouds 18 1013 39 10000 8.2 200 15:38 29.12.2019
1726 Clouds 18 1013 39 10000 8.2 200 15:19 29.12.2019
1727 Clouds 18 1013 34 10000 8.7 190 14:56 29.12.2019
1728 Clouds 19 1013 34 10000 8.7 190 14:38 29.12.2019
1729 Clouds 19 1013 34 10000 8.7 190 14:18 29.12.2019
1730 Clouds 19 1013 29 10000 8.7 180 13:57 29.12.2019
1731 Clouds 19 1013 29 10000 8.7 180 13:37 29.12.2019
1732 Clouds 19 1013 29 10000 8.7 180 13:37 29.12.2019
1733 Clouds 19 1013 29 10000 8.7 180 13:19 29.12.2019
1734 Clouds 19 1014 29 10000 8.2 180 12:45 29.12.2019
1735 Clouds 19 1014 29 10000 8.2 180 12:27 29.12.2019
1736 Clouds 18 1014 31 10000 8.7 180 11:57 29.12.2019
1737 Clouds 18 1014 31 10000 8.7 180 11:38 29.12.2019
1738 Clouds 18 1014 31 10000 8.7 180 11:20 29.12.2019
1739 Clouds 17 1016 35 10000 8.7 180 10:43 29.12.2019
1740 Clouds 17 1016 35 10000 8.7 180 10:25 29.12.2019
1741 Clouds 16 1016 35 10000 8.2 180 09:58 29.12.2019
1742 Clouds 16 1016 35 10000 8.2 180 09:39 29.12.2019
1743 Clouds 16 1016 35 10000 8.2 180 09:21 29.12.2019
1744 Clouds 15 1016 38 10000 7.2 180 08:48 29.12.2019
1745 Clouds 15 1016 38 10000 7.2 180 08:28 29.12.2019
1746 Clouds 14 1016 43 10000 5.7 170 07:56 29.12.2019
1747 Clouds 13 1016 43 10000 5.7 170 07:28 29.12.2019
1748 Clouds 12 1015 50 6000 5.7 160 06:56 29.12.2019
1749 Clouds 11 1015 50 6000 5.7 160 06:26 29.12.2019
1750 Clouds 11 1015 50 6000 5.7 160 05:53 29.12.2019
1751 Clouds 11 1015 53 6000 4.6 160 04:36 29.12.2019
1752 Clouds 11 1016 50 6000 4.1 170 03:58 29.12.2019
1753 Clouds 11 1016 50 6000 4.1 170 03:21 29.12.2019
1754 Clouds 12 1016 50 6000 4.6 170 02:21 29.12.2019
1755 Clouds 13 1016 50 6000 4.1 180 01:40 29.12.2019
1756 Clouds 13 1016 50 6000 4.1 180 01:21 29.12.2019
1757 Clouds 13 1016 50 6000 4.6 180 00:42 29.12.2019
1758 Clouds 13 1016 50 6000 4.6 180 00:23 29.12.2019
1759 Clouds 14 1016 47 6000 4.1 180 23:44 28.12.2019
1760 Clouds 14 1016 47 6000 4.1 180 23:18 28.12.2019
1761 Clouds 14 1016 47 6000 4.1 180 23:18 28.12.2019
1762 Clouds 14 1016 47 10000 4.1 180 22:39 28.12.2019
1763 Clouds 14 1016 47 10000 4.1 180 22:21 28.12.2019
1764 Clouds 14 1016 44 10000 4.1 180 21:58 28.12.2019
1765 Clouds 15 1017 44 10000 4.6 180 21:40 28.12.2019
1766 Clouds 15 1017 44 10000 4.6 180 21:21 28.12.2019
1767 Clouds 15 1017 41 10000 5.1 190 20:58 28.12.2019
1768 Clouds 16 1016 41 10000 4.1 190 20:38 28.12.2019
1769 Clouds 16 1016 41 10000 4.1 190 20:20 28.12.2019
1770 Clouds 16 1016 44 10000 4.6 190 19:58 28.12.2019
1771 Clouds 16 1016 44 10000 4.6 190 19:39 28.12.2019
1772 Clouds 16 1016 44 10000 4.6 190 19:21 28.12.2019
1773 Clouds 16 1016 41 10000 5.1 180 18:58 28.12.2019
1774 Clouds 16 1016 39 10000 5.7 190 18:40 28.12.2019
1775 Clouds 17 1016 39 10000 5.7 190 18:19 28.12.2019
1776 Clouds 17 1016 39 10000 5.1 190 17:55 28.12.2019
1777 Clouds 17 1015 39 10000 4.6 190 17:36 28.12.2019
1778 Clouds 17 1015 39 10000 4.6 190 17:18 28.12.2019
1779 Clouds 17 1015 39 10000 4.6 190 16:46 28.12.2019
1780 Clouds 17 1015 39 10000 6.7 210 16:26 28.12.2019
1781 Clouds 17 1015 39 10000 6.7 210 15:47 28.12.2019
1782 Clouds 18 1015 36 10000 5.7 220 15:24 28.12.2019
1783 Clouds 18 1015 36 10000 5.7 220 14:59 28.12.2019
1784 Clouds 18 1015 36 10000 5.7 220 14:39 28.12.2019
1785 Clouds 18 1015 36 10000 5.7 220 14:20 28.12.2019
1786 Clouds 18 1015 36 10000 5.1 200 13:56 28.12.2019
1787 Clouds 17 1015 39 10000 5.1 180 13:37 28.12.2019
1788 Clouds 17 1015 39 10000 5.1 180 13:18 28.12.2019
1789 Clear 17 1016 42 10000 6.2 200 12:43 28.12.2019
1790 Clear 17 1016 42 10000 6.2 200 12:43 28.12.2019
1791 Clear 17 1016 42 10000 6.2 200 12:24 28.12.2019
1792 Clear 17 1016 42 10000 6.2 200 11:57 28.12.2019
1793 Clear 16 1018 44 10000 6.2 190 11:38 28.12.2019
1794 Clear 16 1018 44 10000 6.2 190 11:20 28.12.2019
1795 Clear 16 1018 44 10000 6.2 190 10:44 28.12.2019
1796 Clear 16 1018 44 10000 6.2 190 10:22 28.12.2019
1797 Clear 15 1018 51 10000 6.7 180 09:58 28.12.2019
1798 Clear 15 1019 51 10000 6.7 180 09:40 28.12.2019
1799 Clear 15 1019 51 10000 6.7 180 09:20 28.12.2019
1800 Clear 13 1019 58 10000 4.6 180 08:44 28.12.2019
1801 Clear 13 1019 58 10000 4.6 180 08:26 28.12.2019
1802 Clear 13 1018 58 10000 5.1 170 07:55 28.12.2019
1803 Clear 12 1018 62 10000 6.2 160 07:32 28.12.2019
1804 Clouds 10 1018 66 10000 5.1 160 06:41 28.12.2019
1805 Clouds 11 1018 62 10000 4.1 160 04:59 28.12.2019
1806 Clouds 10 1018 61 10000 2.6 170 03:47 28.12.2019
1807 Clouds 10 1018 61 10000 2.6 170 02:49 28.12.2019
1808 Clouds 10 1018 62 10000 2.6 170 01:59 28.12.2019
1809 Clouds 11 1018 62 10000 2.6 170 01:31 28.12.2019
1810 Clouds 12 1018 58 10000 2.1 190 00:58 28.12.2019
1811 Clouds 12 1018 58 10000 3.1 220 00:40 28.12.2019
1812 Clouds 13 1018 58 10000 3.1 220 00:20 28.12.2019
1813 Clouds 13 1018 58 10000 2.6 220 23:44 27.12.2019
1814 Clouds 13 1018 58 10000 2.6 220 23:44 27.12.2019
1815 Clouds 13 1018 58 10000 2.6 220 23:20 27.12.2019
1816 Clouds 13 1019 58 10000 2.6 240 22:58 27.12.2019
1817 Clouds 13 1019 58 10000 2.6 240 22:39 27.12.2019
1818 Clouds 13 1019 58 10000 2.6 240 22:20 27.12.2019
1819 Clouds 13 1019 54 10000 2.6 260 21:58 27.12.2019
1820 Clouds 14 1019 54 10000 2.6 260 21:37 27.12.2019
1821 Clouds 14 1019 54 10000 2.6 260 21:19 27.12.2019
1822 Clouds 14 1018 51 10000 2.6 260 20:42 27.12.2019
1823 Clouds 15 1018 51 10000 2.6 260 20:23 27.12.2019
1824 Clouds 15 1018 54 10000 1.5 280 19:54 27.12.2019
1825 Clouds 15 1018 54 10000 1.5 280 19:36 27.12.2019
1826 Clouds 15 1018 54 10000 3.6 300 19:18 27.12.2019
1827 Clouds 15 1018 48 10000 3.6 300 18:40 27.12.2019
1828 Clouds 16 1018 48 10000 3.6 300 18:22 27.12.2019
1829 Clouds 16 1017 41 10000 4.6 280 17:59 27.12.2019
1830 Clouds 16 1017 41 10000 4.6 280 17:41 27.12.2019
1831 Clouds 16 1017 41 10000 4.6 280 17:19 27.12.2019
1832 Clouds 16 1017 39 10000 5.7 290 16:59 27.12.2019
1833 Clouds 17 1017 39 10000 5.7 290 16:39 27.12.2019
1834 Clouds 17 1017 39 10000 5.7 290 16:21 27.12.2019
1835 Clouds 17 1016 39 10000 5.7 260 15:56 27.12.2019
1836 Clouds 18 1016 34 10000 7.2 260 15:37 27.12.2019
1837 Clouds 18 1016 34 10000 7.2 260 15:18 27.12.2019
1838 Clouds 18 1016 34 10000 7.2 260 14:54 27.12.2019
1839 Clouds 18 1016 42 10000 5.1 260 14:36 27.12.2019
1840 Clouds 18 1016 42 10000 5.1 260 14:18 27.12.2019
1841 Clouds 17 1016 45 10000 6.7 260 13:43 27.12.2019
1842 Clouds 17 1016 45 10000 6.7 260 13:22 27.12.2019
1843 Clouds 17 1016 45 10000 6.7 260 12:48 27.12.2019
1844 Clear 16 1017 51 10000 6.7 240 12:29 27.12.2019
1845 Clear 16 1017 51 10000 6.7 240 11:59 27.12.2019
1846 Clear 16 1016 39 0 7.94 286 11:41 27.12.2019
1847 Clear 15 1017 58 0 6.71 240 11:20 27.12.2019
1848 Clear 15 1017 58 0 6.71 240 10:46 27.12.2019
1849 Clear 15 1017 58 10000 6.7 240 10:24 27.12.2019
1850 Clear 15 1017 58 10000 6.7 240 09:55 27.12.2019
1851 Clear 15 1017 58 10000 6.7 240 09:37 27.12.2019
1852 Clear 15 1017 58 10000 6.7 240 09:19 27.12.2019
1853 Clear 15 1017 58 10000 6.7 240 09:19 27.12.2019
1854 Clear 13 1017 66 10000 4.6 240 08:43 27.12.2019
1855 Clear 13 1017 66 10000 4.6 240 08:25 27.12.2019
1856 Clouds 13 1016 62 10000 6.7 230 07:41 27.12.2019
1857 Clouds 13 1016 62 10000 6.7 230 07:22 27.12.2019
1858 Clear 12 1016 62 10000 7.2 230 06:27 27.12.2019
1859 Clear 13 1015 58 10000 6.7 250 04:40 27.12.2019
1860 Clear 14 1015 58 10000 8.7 250 02:29 27.12.2019
1861 Clear 14 1015 58 10000 8.2 240 01:48 27.12.2019
1862 Clear 14 1015 58 10000 8.2 240 01:23 27.12.2019
1863 Clear 14 1015 54 10000 7.7 250 00:51 27.12.2019
1864 Clear 15 1015 54 10000 7.7 250 00:33 27.12.2019
1865 Clear 15 1015 54 10000 7.7 250 23:56 26.12.2019
1866 Clear 15 1015 54 10000 8.2 250 23:38 26.12.2019
1867 Clear 15 1015 54 10000 8.2 250 23:20 26.12.2019
1868 Clear 15 1015 48 10000 7.2 230 22:41 26.12.2019
1869 Clear 16 1015 48 10000 7.2 230 22:19 26.12.2019
1870 Clear 16 1015 51 10000 7.2 230 21:55 26.12.2019
1871 Clear 16 1015 48 10000 6.2 240 21:37 26.12.2019
1872 Clear 16 1015 48 10000 6.2 240 21:19 26.12.2019
1873 Clear 16 1015 48 10000 5.1 270 20:44 26.12.2019
1874 Clear 16 1015 48 10000 5.1 270 20:44 26.12.2019
1875 Clear 16 1015 48 10000 5.1 270 20:22 26.12.2019
1876 Clouds 17 1015 39 10000 6.7 260 19:58 26.12.2019
1877 Clouds 17 1014 33 10000 8.2 240 19:39 26.12.2019
1878 Clouds 17 1014 33 10000 8.2 240 19:20 26.12.2019
1879 Clouds 17 1014 33 10000 8.7 240 18:57 26.12.2019
1880 Clouds 17 1014 34 10000 8.7 240 18:38 26.12.2019
1881 Clouds 18 1014 34 10000 8.7 240 18:19 26.12.2019
1882 Clouds 18 1014 34 10000 10.3 240 17:42 26.12.2019
1883 Clouds 18 1014 34 10000 10.3 240 17:22 26.12.2019
1884 Clouds 18 1013 34 10000 9.3 230 16:58 26.12.2019
1885 Clouds 18 1013 34 10000 9.8 240 16:39 26.12.2019
1886 Clouds 18 1013 34 10000 9.8 240 16:20 26.12.2019
1887 Clouds 18 1013 37 10000 9.8 250 15:41 26.12.2019
1888 Clouds 19 1013 37 10000 9.8 250 15:21 26.12.2019
1889 Clouds 19 1013 34 10000 10.8 240 14:58 26.12.2019
1890 Clouds 19 1012 32 10000 11.3 230 14:38 26.12.2019
1891 Clouds 20 1012 32 10000 11.3 230 14:20 26.12.2019
1892 Clouds 20 1012 37 10000 11.3 250 13:43 26.12.2019
1893 Clouds 19 1012 37 10000 11.3 250 13:21 26.12.2019
1894 Clouds 19 1012 37 10000 12.3 230 12:58 26.12.2019
1895 Clouds 19 1012 39 10000 12.3 250 12:37 26.12.2019
1896 Clouds 19 1012 39 10000 12.3 250 12:19 26.12.2019
1897 Clouds 19 1012 42 10000 12.3 240 11:57 26.12.2019
1898 Clouds 19 1013 42 10000 11.8 250 11:38 26.12.2019
1899 Clouds 19 1013 42 10000 11.8 250 11:19 26.12.2019
1900 Clouds 17 1014 59 10000 9.3 210 10:42 26.12.2019
1901 Clouds 17 1014 59 10000 9.3 210 10:18 26.12.2019
1902 Clouds 15 1014 62 10000 10.3 210 09:49 26.12.2019
1903 Clouds 15 1014 62 10000 10.3 210 09:31 26.12.2019
1904 Clouds 14 1014 62 10000 10.3 200 08:42 26.12.2019
1905 Clouds 14 1014 62 10000 10.3 200 08:24 26.12.2019
1906 Clouds 13 1014 62 10000 9.8 200 07:53 26.12.2019
1907 Clouds 13 1014 62 10000 9.8 200 07:27 26.12.2019
1908 Clouds 13 1013 62 6000 9.8 200 06:53 26.12.2019
1909 Clouds 13 1013 62 6000 9.8 200 06:32 26.12.2019
1910 Clouds 13 1013 58 6000 9.3 200 05:45 26.12.2019
1911 Clouds 13 1013 58 6000 9.8 200 04:57 26.12.2019
1912 Clouds 13 1013 58 6000 9.8 200 04:30 26.12.2019
1913 Clouds 14 1013 50 6000 11.3 200 02:56 26.12.2019
1914 Clouds 14 1013 50 6000 11.3 200 02:34 26.12.2019
1915 Clouds 14 1013 47 6000 11.8 200 01:50 26.12.2019
1916 Clouds 14 1014 47 6000 11.3 200 01:32 26.12.2019
1917 Clouds 14 1014 47 6000 10.3 200 00:50 26.12.2019
1918 Clouds 14 1014 47 6000 10.3 210 00:27 26.12.2019
1919 Clouds 14 1014 47 6000 10.3 210 23:59 25.12.2019
1920 Clouds 14 1014 44 6000 9.8 210 23:40 25.12.2019
1921 Clouds 15 1014 44 6000 9.8 210 23:21 25.12.2019
1922 Clouds 15 1014 41 6000 10.3 210 22:59 25.12.2019
1923 Clouds 15 1014 44 6000 10.8 210 22:39 25.12.2019
1924 Clouds 15 1014 44 6000 10.8 210 22:21 25.12.2019
1925 Clouds 15 1014 41 6000 10.3 220 21:58 25.12.2019
1926 Sand 15 1014 44 4000 9.3 210 21:39 25.12.2019
1927 Sand 15 1014 44 4000 9.3 210 21:20 25.12.2019
1928 Sand 16 1014 41 4000 10.3 210 20:56 25.12.2019
1929 Sand 16 1014 39 4000 10.3 220 20:38 25.12.2019
1930 Sand 17 1014 39 4000 10.3 220 20:18 25.12.2019
1931 Sand 17 1014 42 4000 10.8 220 19:43 25.12.2019
1932 Sand 17 1014 42 4000 10.8 220 19:25 25.12.2019
1933 Sand 17 1014 42 4000 9.3 220 18:58 25.12.2019
1934 Sand 17 1014 42 4000 9.3 230 18:37 25.12.2019
1935 Sand 17 1014 42 4000 9.3 230 18:19 25.12.2019
1936 Sand 17 1013 36 4000 9.8 230 17:42 25.12.2019
1937 Sand 18 1013 36 4000 9.8 230 17:20 25.12.2019
1938 Sand 18 1013 39 4000 10.3 230 16:58 25.12.2019
1939 Sand 18 1013 39 4000 8.7 230 16:38 25.12.2019
1940 Sand 18 1013 39 4000 8.7 230 16:19 25.12.2019
1941 Sand 18 1013 39 4000 11.3 230 15:57 25.12.2019
1942 Sand 18 1013 39 4000 11.8 240 15:39 25.12.2019
1943 Sand 18 1013 39 4000 11.8 240 15:20 25.12.2019
1944 Sand 19 1012 39 4000 9.8 230 14:58 25.12.2019
1945 Sand 19 1012 39 4000 9.8 230 14:39 25.12.2019
1946 Sand 19 1012 39 4000 9.8 230 14:39 25.12.2019
1947 Sand 19 1012 39 4000 9.8 230 14:20 25.12.2019
1948 Sand 18 1013 42 3000 10.8 240 13:45 25.12.2019
1949 Sand 18 1013 42 3000 10.8 240 13:22 25.12.2019
1950 Sand 19 1012 42 3000 10.8 250 12:58 25.12.2019
1951 Sand 18 1013 45 3000 9.8 250 12:38 25.12.2019
1952 Sand 18 1013 45 3000 9.8 250 12:20 25.12.2019
1953 Sand 17 1013 45 3000 10.8 220 11:54 25.12.2019
1954 Sand 16 1013 48 2000 9.3 200 11:36 25.12.2019
1955 Sand 16 1013 48 2000 9.3 200 11:18 25.12.2019
1956 Clear 15 1014 52 0 10.92 250 10:37 25.12.2019
1957 Sand 14 1015 54 1500 11.8 210 10:19 25.12.2019
1958 Sand 14 1015 54 1500 11.8 210 09:49 25.12.2019
1959 Sand 13 1014 54 1500 10.8 200 09:30 25.12.2019
1960 Sand 13 1014 54 1500 10.8 200 08:47 25.12.2019
1961 Sand 12 1014 58 1500 9.8 210 08:29 25.12.2019
1962 Sand 12 1014 58 1500 9.8 210 07:50 25.12.2019
1963 Sand 12 1014 58 1500 9.8 210 07:31 25.12.2019
1964 Sand 12 1014 58 1000 9.8 210 06:50 25.12.2019
1965 Sand 12 1013 54 2000 9.8 210 06:22 25.12.2019
1966 Sand 13 1013 50 4000 6.7 200 05:18 25.12.2019
1967 Sand 13 1013 50 4000 6.7 200 04:39 25.12.2019
1968 Sand 13 1013 50 4000 6.7 200 04:20 25.12.2019
1969 Sand 14 1013 47 4000 6.2 200 03:41 25.12.2019
1970 Sand 14 1013 47 4000 6.2 200 02:53 25.12.2019
1971 Sand 14 1013 47 4000 6.2 200 02:20 25.12.2019
1972 Sand 14 1013 44 4000 6.7 210 01:25 25.12.2019
1973 Sand 15 1013 44 4000 7.7 210 00:53 25.12.2019
1974 Sand 15 1013 44 4000 7.7 210 00:30 25.12.2019
1975 Sand 15 1013 41 4000 8.7 220 23:57 24.12.2019
1976 Sand 16 1013 41 4000 8.2 220 23:38 24.12.2019
1977 Sand 16 1013 41 4000 8.2 220 23:20 24.12.2019
1978 Sand 16 1013 39 4000 9.3 230 22:41 24.12.2019
1979 Sand 17 1013 39 4000 9.3 230 22:21 24.12.2019
1980 Sand 17 1013 39 4000 9.3 230 21:44 24.12.2019
1981 Sand 17 1013 39 4000 9.3 230 21:23 24.12.2019
1982 Sand 17 1013 39 3000 9.3 230 20:59 24.12.2019
1983 Sand 17 1013 39 3000 9.3 230 20:40 24.12.2019
1984 Sand 17 1013 39 3000 9.3 230 20:19 24.12.2019
1985 Sand 17 1013 39 3000 9.3 230 19:45 24.12.2019
1986 Sand 17 1013 36 3000 9.3 230 19:20 24.12.2019
1987 Sand 17 1013 36 3000 9.3 240 18:57 24.12.2019
1988 Sand 17 1012 34 3000 9.3 240 18:38 24.12.2019
1989 Sand 18 1012 34 3000 9.3 240 18:18 24.12.2019
1990 Sand 18 1012 34 3000 10.8 240 17:39 24.12.2019
1991 Sand 18 1012 34 3000 10.8 240 17:21 24.12.2019
1992 Sand 18 1011 31 3000 9.8 240 16:56 24.12.2019
1993 Clouds 18 1011 29 6000 10.8 240 16:38 24.12.2019
1994 Clouds 19 1011 29 6000 10.8 240 16:20 24.12.2019
1995 Clouds 19 1011 34 6000 9.8 240 15:56 24.12.2019
1996 Clouds 19 1011 32 6000 11.8 230 15:36 24.12.2019
1997 Clouds 20 1011 32 6000 11.8 230 15:18 24.12.2019
1998 Clouds 20 1011 32 6000 11.8 240 14:57 24.12.2019
1999 Clouds 20 1011 32 6000 11.8 210 14:38 24.12.2019
2000 Clouds 20 1011 32 6000 11.8 210 14:20 24.12.2019
2001 Clear 20 1011 32 6000 10.3 210 13:55 24.12.2019
2002 Clear 20 1011 32 6000 11.8 220 13:37 24.12.2019
2003 Clear 20 1011 32 6000 11.8 220 13:19 24.12.2019
2004 Clear 19 1011 34 6000 11.3 210 12:55 24.12.2019
2005 Clear 19 1011 34 6000 11.3 210 12:36 24.12.2019
2006 Clear 19 1011 34 6000 11.3 210 12:18 24.12.2019
2007 Clear 19 1012 37 6000 10.3 210 11:55 24.12.2019
2008 Clear 19 1012 37 6000 10.3 210 11:55 24.12.2019
2009 Clear 18 1012 39 6000 9.3 210 11:37 24.12.2019
2010 Clear 18 1012 39 6000 9.3 210 11:37 24.12.2019
2011 Clear 18 1012 39 6000 9.3 210 11:37 24.12.2019
2012 Clear 18 1012 39 6000 9.3 210 11:18 24.12.2019
2013 Clear 17 1013 39 6000 9.8 200 10:56 24.12.2019
2014 Clear 16 1013 44 6000 10.3 200 10:37 24.12.2019
2015 Clear 16 1013 44 6000 10.3 200 10:19 24.12.2019
2016 Clear 15 1014 47 6000 9.8 200 09:55 24.12.2019
2017 Clear 15 1014 47 6000 9.8 200 09:37 24.12.2019
2018 Clear 15 1014 47 6000 9.8 200 09:18 24.12.2019
2019 Clear 15 1014 44 6000 9.3 190 08:45 24.12.2019
2020 Clear 14 1014 50 6000 9.3 180 08:21 24.12.2019
2021 Clear 13 1013 54 6000 9.8 180 07:46 24.12.2019
2022 Clear 13 1013 54 6000 9.8 180 07:26 24.12.2019
2023 Clear 13 1013 54 6000 9.8 180 07:26 24.12.2019
2024 Clear 13 1013 54 6000 9.8 180 06:58 24.12.2019
2025 Clear 13 1013 54 6000 8.2 190 06:38 24.12.2019
2026 Clear 13 1013 54 6000 8.2 190 06:19 24.12.2019
2027 Clear 13 1013 54 6000 8.2 190 05:40 24.12.2019
2028 Clear 13 1013 54 6000 8.2 190 05:18 24.12.2019
2029 Clear 13 1012 58 6000 8.7 180 03:50 24.12.2019
2030 Clear 13 1013 58 6000 10.8 170 03:23 24.12.2019
2031 Clear 14 1013 54 6000 8.7 180 02:25 24.12.2019
2032 Clear 14 1013 58 6000 8.7 180 01:51 24.12.2019
2033 Clear 14 1013 58 6000 8.7 180 01:23 24.12.2019
2034 Clear 14 1013 58 6000 8.7 180 00:46 24.12.2019
2035 Clear 14 1013 54 6000 8.2 180 00:26 24.12.2019
2036 Clear 15 1013 54 6000 7.7 190 23:59 23.12.2019
2037 Clear 15 1013 54 6000 7.7 190 23:59 23.12.2019
2038 Clear 15 1013 54 6000 6.7 190 23:41 23.12.2019
2039 Clear 15 1013 54 6000 6.7 190 23:23 23.12.2019
2040 Clear 15 1013 54 6000 8.2 190 22:56 23.12.2019
2041 Clear 15 1013 54 6000 8.2 190 22:56 23.12.2019
2042 Clear 15 1013 51 6000 8.2 190 22:37 23.12.2019
2043 Clear 15 1013 51 6000 8.2 190 22:37 23.12.2019
2044 Clear 16 1013 51 6000 8.2 190 22:19 23.12.2019
2045 Clear 16 1013 51 6000 8.7 190 21:55 23.12.2019
2046 Clear 16 1013 55 6000 8.2 190 21:36 23.12.2019
2047 Clear 16 1013 55 6000 8.2 190 21:36 23.12.2019
2048 Clear 16 1013 55 6000 8.2 190 21:36 23.12.2019
2049 Clear 16 1013 55 6000 8.2 190 21:18 23.12.2019
2050 Clear 16 1013 55 6000 7.7 180 20:57 23.12.2019
2051 Clear 16 1013 55 6000 7.2 180 20:39 23.12.2019
2052 Clear 16 1013 55 6000 7.2 180 20:18 23.12.2019
2053 Clear 17 1013 51 6000 7.7 180 19:56 23.12.2019
2054 Clear 16 1014 55 6000 7.2 180 19:38 23.12.2019
2055 Clear 16 1014 55 6000 7.2 180 19:19 23.12.2019
2056 Clear 16 1014 59 6000 7.2 180 18:58 23.12.2019
2057 Clear 16 1014 59 6000 7.2 180 18:58 23.12.2019
2058 Clear 17 1013 59 6000 7.7 180 18:38 23.12.2019
2059 Clear 17 1013 59 6000 7.7 180 18:20 23.12.2019
2060 Clear 17 1013 55 6000 6.2 180 17:56 23.12.2019
2061 Clear 17 1013 51 6000 7.2 190 17:38 23.12.2019
2062 Clear 17 1013 51 6000 7.2 190 17:19 23.12.2019
2063 Clear 17 1013 51 6000 7.2 190 17:19 23.12.2019
2064 Clear 17 1013 55 6000 7.7 180 16:55 23.12.2019
2065 Clear 17 1013 55 6000 7.7 180 16:55 23.12.2019
2066 Clear 18 1013 55 6000 7.7 180 16:36 23.12.2019
2067 Clear 18 1014 52 6000 7.2 200 16:18 23.12.2019
2068 Clear 18 1014 52 6000 7.2 200 16:18 23.12.2019
2069 Clear 18 1014 52 6000 7.2 200 15:55 23.12.2019
2070 Clear 19 1014 48 6000 6.7 200 15:36 23.12.2019
2071 Clear 19 1014 48 6000 6.7 200 15:18 23.12.2019
2072 Clear 19 1014 48 6000 6.7 200 14:45 23.12.2019
2073 Clear 19 1014 52 6000 8.2 200 14:26 23.12.2019
2074 Clear 19 1014 52 6000 8.2 200 14:26 23.12.2019
2075 Sand 19 1014 52 4000 7.2 200 13:59 23.12.2019
2076 Sand 18 1014 59 2000 7.7 200 13:41 23.12.2019
2077 Sand 18 1014 59 2000 7.7 200 13:22 23.12.2019
2078 Sand 18 1014 55 2000 7.2 200 12:59 23.12.2019
2079 Sand 17 1015 59 2000 8.2 210 12:40 23.12.2019
2080 Sand 17 1015 59 2000 8.2 210 12:21 23.12.2019
2081 Sand 17 1015 59 2000 6.7 210 11:56 23.12.2019
2082 Sand 17 1016 59 2000 6.7 190 11:38 23.12.2019
2083 Sand 17 1016 59 2000 6.7 190 11:20 23.12.2019
2084 Sand 16 1016 63 2000 6.7 200 10:55 23.12.2019
2085 Sand 16 1017 63 2000 6.2 200 10:37 23.12.2019
2086 Sand 16 1017 63 2000 6.2 200 10:18 23.12.2019
2087 Sand 15 1017 62 2000 5.7 200 09:54 23.12.2019
2088 Sand 14 1017 67 2000 6.2 180 09:36 23.12.2019
2089 Sand 14 1017 67 2000 6.2 180 09:18 23.12.2019
2090 Mist 13 1017 82 2000 4.1 180 08:41 23.12.2019
2091 Mist 13 1017 82 2000 4.1 180 08:22 23.12.2019
2092 Mist 13 1017 82 2000 3.6 200 07:49 23.12.2019
2093 Mist 11 1017 93 2000 3.6 160 07:22 23.12.2019
2094 Mist 11 1017 93 2000 3.6 160 06:57 23.12.2019
2095 Mist 11 1017 93 2000 1.5 190 06:32 23.12.2019
2096 Mist 10 1017 93 4000 1.5 180 05:56 23.12.2019
2097 Mist 11 1017 93 4000 1 260 05:33 23.12.2019
2098 Mist 10 1017 81 4000 1.15 227 04:40 23.12.2019
2099 Mist 12 1017 87 4000 1.15 227 03:36 23.12.2019
2100 Mist 11 1016 81 4000 4.6 100 02:43 23.12.2019
2101 Mist 12 1016 81 4000 4.6 100 02:19 23.12.2019
2102 Mist 12 1017 81 4000 3.6 90 01:45 23.12.2019
2103 Mist 12 1017 87 4000 1.5 100 01:27 23.12.2019
2104 Clouds 12 1018 81 6000 2.1 50 00:45 23.12.2019
2105 Clouds 12 1018 81 6000 2.1 50 00:25 23.12.2019
2106 Clouds 14 1018 76 6000 2.1 350 23:56 22.12.2019
2107 Clouds 14 1018 76 6000 2.6 20 23:37 22.12.2019
2108 Clouds 14 1018 76 6000 2.6 20 23:18 22.12.2019
2109 Clouds 14 1017 76 10000 4.1 70 22:41 22.12.2019
2110 Clouds 14 1017 76 10000 4.1 70 22:22 22.12.2019
2111 Clouds 14 1017 76 10000 5.1 80 21:59 22.12.2019
2112 Clouds 14 1018 71 10000 5.1 80 21:40 22.12.2019
2113 Clouds 14 1018 71 10000 5.1 80 21:22 22.12.2019
2114 Clouds 14 1018 71 10000 5.1 80 20:59 22.12.2019
2115 Clouds 14 1019 67 10000 3.6 50 20:40 22.12.2019
2116 Clear 14 1019 67 10000 3.6 50 20:19 22.12.2019
2117 Clear 14 1019 62 10000 3.6 70 19:57 22.12.2019
2118 Clear 15 1019 63 10000 4.1 40 19:39 22.12.2019
2119 Clear 16 1019 63 10000 4.1 40 19:20 22.12.2019
2120 Clear 16 1019 59 10000 3.6 20 18:44 22.12.2019
2121 Clear 17 1019 59 10000 3.6 20 18:25 22.12.2019
2122 Clear 18 1019 55 10000 4.1 360 17:58 22.12.2019
2123 Clear 18 1019 55 10000 3.6 350 17:39 22.12.2019
2124 Clear 18 1019 55 10000 3.6 350 17:19 22.12.2019
2125 Clear 19 1018 45 10000 4.6 20 16:59 22.12.2019
2126 Clear 19 1018 45 10000 5.1 20 16:41 22.12.2019
2127 Clear 19 1018 45 10000 5.1 20 16:22 22.12.2019
2128 Clear 20 1018 45 10000 4.6 30 15:57 22.12.2019
2129 Clear 20 1018 45 10000 5.1 20 15:39 22.12.2019
2130 Clear 20 1018 45 10000 5.1 20 15:21 22.12.2019
2131 Clear 21 1018 43 10000 5.1 40 14:56 22.12.2019
2132 Clear 20 1018 42 10000 5.1 40 14:38 22.12.2019
2133 Clear 20 1018 42 10000 5.1 40 14:19 22.12.2019
2134 Clear 20 1018 42 10000 4.1 40 13:56 22.12.2019
2135 Clear 20 1018 40 10000 4.6 40 13:38 22.12.2019
2136 Clear 20 1018 40 10000 4.6 40 13:19 22.12.2019
2137 Clear 20 1019 42 10000 4.6 30 12:57 22.12.2019
2138 Clear 20 1019 42 10000 4.6 40 12:38 22.12.2019
2139 Clear 20 1019 42 10000 4.6 40 12:19 22.12.2019
2140 Clear 19 1019 48 10000 4.6 50 11:56 22.12.2019
2141 Clear 19 1019 48 10000 5.1 40 11:38 22.12.2019
2142 Clear 19 1019 48 10000 5.1 40 11:38 22.12.2019
2143 Clear 19 1019 48 10000 5.1 40 11:19 22.12.2019
2144 Clear 19 1020 52 10000 5.1 50 10:56 22.12.2019
2145 Clear 18 1020 55 10000 6.2 40 10:38 22.12.2019
2146 Clear 18 1020 55 10000 6.2 40 10:19 22.12.2019
2147 Clear 18 1020 55 10000 6.2 40 10:19 22.12.2019
2148 Clouds 18 1021 55 10000 6.2 40 09:57 22.12.2019
2149 Clouds 17 1021 59 10000 5.1 30 09:39 22.12.2019
2150 Clouds 17 1021 59 10000 5.1 30 09:20 22.12.2019
2151 Clouds 15 1021 77 10000 4.1 60 08:42 22.12.2019
2152 Clouds 15 1021 77 10000 4.1 60 08:22 22.12.2019
2153 Clouds 14 1021 82 10000 3.1 70 07:44 22.12.2019
2154 Clouds 13 1021 82 10000 2.1 60 07:21 22.12.2019
2155 Clouds 12 1022 87 10000 2.1 60 06:53 22.12.2019
2156 Clouds 12 1021 81 10000 2.1 60 06:26 22.12.2019
2157 Clear 12 1021 81 10000 1 60 05:33 22.12.2019
2158 Clear 12 1021 81 10000 1.5 70 04:55 22.12.2019
2159 Clear 11 1021 81 10000 2.1 70 04:25 22.12.2019
2160 Clear 12 1021 81 10000 4.1 60 02:46 22.12.2019
2161 Clear 12 1021 81 10000 4.6 70 02:23 22.12.2019
2162 Clear 12 1021 87 10000 4.1 70 01:31 22.12.2019
2163 Clear 13 1021 82 10000 4.1 70 00:56 22.12.2019
2164 Clear 12 1021 81 10000 3.1 70 00:36 22.12.2019
2165 Clear 12 1021 81 10000 3.1 70 00:18 22.12.2019
2166 Clear 12 1021 81 10000 3.1 60 23:41 21.12.2019
2167 Clear 12 1021 81 10000 3.1 60 23:21 21.12.2019
2168 Clear 13 1022 76 10000 3.6 60 22:57 21.12.2019
2169 Clear 13 1022 82 10000 3.6 70 22:37 21.12.2019
2170 Clear 13 1022 82 10000 3.6 70 22:18 21.12.2019
2171 Clear 13 1022 82 10000 3.6 70 22:18 21.12.2019
2172 Clear 13 1022 82 10000 3.6 70 21:55 21.12.2019
2173 Clear 13 1022 82 10000 3.6 70 21:36 21.12.2019
2174 Clear 13 1022 82 10000 3.6 70 21:18 21.12.2019
2175 Clear 14 1022 71 10000 3.6 70 20:57 21.12.2019
2176 Clear 14 1022 71 10000 3.6 50 20:37 21.12.2019
2177 Clear 14 1022 71 10000 3.6 50 20:19 21.12.2019
2178 Clear 14 1022 67 10000 4.1 50 19:55 21.12.2019
2179 Clear 16 1021 63 10000 5.1 20 19:36 21.12.2019
2180 Clear 17 1021 63 10000 5.1 20 19:18 21.12.2019
2181 Clear 17 1021 55 10000 4.1 360 18:41 21.12.2019
2182 Clear 18 1021 55 10000 4.1 360 18:23 21.12.2019
2183 Clear 18 1021 55 10000 3.6 360 17:56 21.12.2019
2184 Clear 18 1021 55 10000 4.6 350 17:38 21.12.2019
2185 Clear 18 1021 55 10000 4.6 350 17:20 21.12.2019
2186 Clear 19 1021 52 10000 5.1 360 16:57 21.12.2019
2187 Clear 19 1021 52 10000 5.1 360 16:38 21.12.2019
2188 Clear 19 1021 52 10000 5.1 360 16:18 21.12.2019
2189 Clear 19 1020 52 6000 5.7 360 15:55 21.12.2019
2190 Clear 20 1020 45 6000 5.1 350 15:37 21.12.2019
2191 Clear 20 1020 45 6000 5.1 350 15:18 21.12.2019
2192 Clear 20 1020 40 6000 5.7 10 14:42 21.12.2019
2193 Clouds 20 1020 40 6000 5.7 10 14:23 21.12.2019
2194 Clouds 20 1020 42 6000 5.1 360 13:58 21.12.2019
2195 Clouds 20 1020 42 6000 5.1 340 13:39 21.12.2019
2196 Clouds 20 1020 42 6000 5.1 340 13:19 21.12.2019
2197 Clouds 21 1020 35 6000 4.6 20 12:57 21.12.2019
2198 Clouds 20 1021 37 6000 4.6 20 12:38 21.12.2019
2199 Clouds 20 1021 37 6000 4.6 20 12:20 21.12.2019
2200 Clouds 19 1021 42 6000 4.6 30 11:55 21.12.2019
2201 Clouds 19 1022 39 6000 4.6 20 11:37 21.12.2019
2202 Clouds 19 1022 39 6000 4.6 20 11:19 21.12.2019
2203 Clouds 17 1022 59 6000 3.1 30 10:41 21.12.2019
2204 Clouds 17 1022 59 6000 3.1 30 10:23 21.12.2019
2205 Clouds 17 1022 59 6000 3.1 30 10:23 21.12.2019
2206 Clouds 16 1023 63 6000 2.1 10 09:58 21.12.2019
2207 Clouds 16 1023 63 6000 2.1 10 09:40 21.12.2019
2208 Clouds 16 1023 63 6000 2.1 10 09:20 21.12.2019
2209 Clouds 15 1023 72 6000 1.5 60 08:53 21.12.2019
2210 Clouds 15 1023 72 6000 1.5 60 08:27 21.12.2019
2211 Clouds 14 1022 71 6000 1.5 90 07:59 21.12.2019
2212 Clouds 12 1022 76 6000 1.5 90 07:41 21.12.2019
2213 Clouds 12 1022 76 6000 1.5 90 07:21 21.12.2019
2214 Clouds 12 1022 66 6000 2.49 31 06:42 21.12.2019
2215 Clouds 12 1022 66 6000 2.49 31 06:24 21.12.2019
2216 Clouds 11 1022 71 6000 0.5 340 05:43 21.12.2019
2217 Clear 11 1022 71 10000 1.5 80 04:56 21.12.2019
2218 Clear 13 1021 62 10000 2.1 80 03:56 21.12.2019
2219 Clear 12 1022 54 10000 2.52 27 02:39 21.12.2019
2220 Clear 11 1022 53 10000 2.29 50 01:53 21.12.2019
2221 Clear 11 1021 57 10000 0.5 70 01:27 21.12.2019
2222 Clear 11 1021 53 10000 1.5 80 00:50 21.12.2019
2223 Clear 11 1021 53 10000 1.5 80 00:28 21.12.2019
2224 Clear 11 1022 57 10000 1.5 70 23:55 20.12.2019
2225 Clear 11 1022 57 10000 1.5 70 23:37 20.12.2019
2226 Clear 11 1022 57 10000 1.5 70 23:18 20.12.2019
2227 Clear 12 1022 58 10000 4.1 70 22:40 20.12.2019
2228 Clear 12 1022 58 10000 4.1 70 22:21 20.12.2019
2229 Clear 13 1022 50 10000 2.6 90 21:57 20.12.2019
2230 Clear 14 1022 50 10000 3.1 80 21:39 20.12.2019
2231 Clear 14 1022 50 10000 3.1 80 21:18 20.12.2019
2232 Clear 14 1022 50 10000 3.1 70 20:39 20.12.2019
2233 Clear 14 1022 50 10000 3.1 70 20:19 20.12.2019
2234 Clear 14 1022 47 10000 3.1 70 19:58 20.12.2019
2235 Clear 14 1022 44 10000 2.6 80 19:40 20.12.2019
2236 Clear 14 1022 44 10000 2.6 80 19:40 20.12.2019
2237 Clear 15 1022 44 10000 2.6 80 19:19 20.12.2019
2238 Clear 15 1022 44 6000 2.1 80 18:54 20.12.2019
2239 Clear 15 1022 41 6000 1 50 18:36 20.12.2019
2240 Clear 16 1022 41 6000 1 50 18:18 20.12.2019
2241 Clear 18 1022 36 6000 2.6 360 17:42 20.12.2019
2242 Clear 18 1022 36 6000 2.6 360 17:21 20.12.2019
2243 Haze 19 1021 37 3000 3.6 360 16:59 20.12.2019
2244 -273 0 0 0 0 0 16:39 20.12.2019
2245 Haze 19 1021 37 3000 3.6 360 16:20 20.12.2019
2246 Haze 20 1021 34 3000 5.1 20 15:56 20.12.2019
2247 Haze 20 1021 34 3000 5.1 20 15:38 20.12.2019
2248 Haze 20 1021 34 3000 5.1 20 15:19 20.12.2019
2249 Haze 20 1021 37 3000 3.1 340 14:57 20.12.2019
2250 Haze 20 1021 37 3000 3.1 340 14:39 20.12.2019
2251 Haze 20 1021 37 3000 3.1 340 14:20 20.12.2019
2252 Haze 19 1021 52 3000 3.6 330 13:41 20.12.2019
2253 Haze 19 1021 52 3000 3.6 330 13:21 20.12.2019
2254 Haze 19 1021 55 2000 3.1 340 12:59 20.12.2019
2255 Haze 19 1021 55 2000 3.1 340 12:40 20.12.2019
2256 Haze 19 1021 55 2000 3.1 340 12:19 20.12.2019
2257 Haze 18 1022 59 1500 1.5 360 11:59 20.12.2019
2258 Haze 18 1022 59 1500 1.5 360 11:40 20.12.2019
2259 Haze 18 1022 59 1500 1.5 360 11:20 20.12.2019
2260 Haze 17 1022 67 1500 1.5 50 10:59 20.12.2019
2261 Haze 17 1022 67 1500 1.5 50 10:41 20.12.2019
2262 Mist 16 1023 77 1500 1.5 350 10:20 20.12.2019
2263 Mist 15 1023 82 1500 1.5 340 09:56 20.12.2019
2264 Mist 15 1024 77 1000 1.5 340 09:38 20.12.2019
2265 Mist 13 1024 77 1000 1.5 340 09:19 20.12.2019
2266 Haze 13 1024 76 100 1.5 10 08:43 20.12.2019
2267 Haze 13 1024 76 500 1 10 08:24 20.12.2019
2268 Haze 13 1024 76 4000 2.1 10 07:58 20.12.2019
2269 Haze 13 1024 76 4000 2.1 10 07:40 20.12.2019
2270 Haze 11 1024 71 4000 1 60 07:19 20.12.2019
2271 Haze 10 1023 76 4000 3.51 60 06:52 20.12.2019
2272 Haze 10 1023 71 4000 1.5 100 06:32 20.12.2019
2273 Clear 10 1023 71 6000 3.51 60 05:53 20.12.2019
2274 Clear 10 1023 71 10000 3.51 60 05:35 20.12.2019
2275 Clear 11 1023 66 10000 4.25 67 04:33 20.12.2019
2276 Clear 12 1023 66 10000 2.1 360 03:30 20.12.2019
2277 Clear 11 1023 66 10000 2.1 30 02:43 20.12.2019
2278 Clear 10 1023 71 10000 4.76 75 01:49 20.12.2019
2279 Clear 10 1023 71 10000 4.76 75 01:49 20.12.2019
2280 Clear 10 1023 66 10000 1.5 60 01:30 20.12.2019
2281 Clear 11 1023 66 10000 2.1 30 00:43 20.12.2019
2282 Clear 11 1023 66 10000 3.6 60 00:23 20.12.2019
2283 Clear 11 1023 66 10000 4.1 50 23:44 19.12.2019
2284 Clear 12 1024 62 10000 4.1 60 23:25 19.12.2019
2285 Clear 12 1024 62 10000 4.6 60 22:59 19.12.2019
2286 Clear 12 1024 62 10000 4.6 60 22:37 19.12.2019
2287 Clear 13 1025 62 10000 3.1 60 22:18 19.12.2019
2288 Clear 13 1025 62 10000 3.1 50 21:55 19.12.2019
2289 Clear 13 1025 62 10000 4.1 40 21:37 19.12.2019
2290 Clear 13 1025 62 10000 4.1 40 21:18 19.12.2019
2291 Clear 13 1025 62 10000 4.1 40 21:18 19.12.2019
2292 Clear 14 1025 62 10000 4.6 30 20:55 19.12.2019
2293 Clear 14 1025 54 10000 4.6 40 20:36 19.12.2019
2294 Clouds 15 1025 54 10000 4.6 40 20:18 19.12.2019
2295 Clouds 15 1025 51 10000 5.1 40 19:54 19.12.2019
2296 Clouds 15 1025 51 10000 5.1 40 19:54 19.12.2019
2297 Clouds 16 1025 41 10000 6.2 30 19:36 19.12.2019
2298 Clouds 16 1025 41 10000 6.2 30 19:18 19.12.2019
2299 Clouds 16 1025 41 10000 5.7 30 18:41 19.12.2019
2300 Clouds 17 1025 36 10000 6.7 30 18:22 19.12.2019
2301 Clouds 17 1025 36 10000 6.7 30 17:58 19.12.2019
2302 Clouds 17 1025 31 10000 7.2 40 17:39 19.12.2019
2303 Clear 18 1025 31 10000 7.2 40 17:19 19.12.2019
2304 Clear 19 1025 29 10000 7.2 40 16:58 19.12.2019
2305 Clear 19 1025 29 10000 7.2 40 16:40 19.12.2019
2306 Clear 19 1024 31 10000 8.2 30 16:22 19.12.2019
2307 Clouds 20 1024 24 10000 8.7 30 15:59 19.12.2019
2308 Clouds 20 1024 24 10000 8.7 30 15:39 19.12.2019
2309 Clouds 21 1024 31 10000 8.7 30 15:20 19.12.2019
2310 Clouds 21 1024 31 10000 8.7 30 15:20 19.12.2019
2311 Clouds 21 1024 24 10000 9.3 30 14:59 19.12.2019
2312 Clouds 22 1024 24 10000 9.3 30 14:41 19.12.2019
2313 Clouds 22 1024 24 10000 8.7 30 14:19 19.12.2019
2314 Clouds 22 1025 26 10000 7.7 30 13:57 19.12.2019
2315 Clouds 21 1026 30 10000 6.2 30 13:37 19.12.2019
2316 Clouds 21 1026 30 10000 6.2 30 13:18 19.12.2019
2317 Clouds 21 1026 30 10000 6.2 30 12:55 19.12.2019
2318 Clouds 21 1026 30 10000 6.2 30 12:55 19.12.2019
2319 Clouds 21 1026 30 10000 6.2 30 12:37 19.12.2019
2320 Clouds 21 1026 30 10000 6.2 30 12:18 19.12.2019
2321 Clouds 21 1026 30 10000 6.2 30 11:57 19.12.2019
2322 Clouds 21 1026 30 10000 6.2 30 11:57 19.12.2019
2323 Clouds 21 1026 32 10000 5.7 30 11:38 19.12.2019
2324 Clouds 21 1026 32 10000 5.7 30 11:18 19.12.2019
2325 Clouds 20 1026 40 10000 6.2 40 10:55 19.12.2019
2326 Clouds 19 1027 55 10000 5.7 40 10:36 19.12.2019
2327 Clouds 18 1027 55 10000 5.7 40 10:18 19.12.2019
2328 Clouds 18 1027 55 10000 5.7 40 10:18 19.12.2019
2329 Clouds 18 1027 55 10000 5.7 40 10:18 19.12.2019
2330 Clouds 18 1027 63 10000 5.7 40 09:38 19.12.2019
2331 Clear 19 1026 35 0 5.88 57 09:20 19.12.2019
2332 Clear 19 1026 35 0 5.88 57 09:20 19.12.2019
2333 Clear 19 1026 35 0 5.88 57 09:20 19.12.2019
2334 Clear 15 1027 93 6000 3.6 40 08:58 19.12.2019
2335 Clear 15 1027 93 6000 3.6 40 08:39 19.12.2019
2336 Clear 15 1027 93 6000 3.6 40 08:19 19.12.2019
2337 Clear 15 1027 100 6000 3.6 60 07:56 19.12.2019
2338 Clear 14 1027 100 6000 3.6 60 07:38 19.12.2019
2339 Clear 13 1027 93 6000 4.6 70 07:19 19.12.2019
2340 Clear 12 1027 100 6000 4.6 70 06:46 19.12.2019
2341 Clear 12 1026 93 6000 4.6 70 06:27 19.12.2019
2342 Clear 12 1026 93 6000 4.6 70 05:52 19.12.2019
2343 Clear 12 1026 93 6000 4.6 70 05:32 19.12.2019
2344 Clear 12 1026 93 10000 6.2 70 04:48 19.12.2019
2345 Clear 12 1026 93 10000 5.1 70 02:49 19.12.2019
2346 Clear 12 1026 93 10000 5.1 40 01:47 19.12.2019
2347 Clear 13 1026 87 10000 4.6 50 01:22 19.12.2019
2348 Clear 13 1027 87 10000 4.6 60 00:39 19.12.2019
2349 Clear 12 1027 87 10000 4.1 40 00:39 19.12.2019
2350 Clear 13 1027 87 10000 4.6 60 00:39 19.12.2019
2351 Clear 13 1027 87 10000 4.6 60 00:20 19.12.2019
2352 Clear 14 1027 82 10000 5.1 70 23:55 18.12.2019
2353 Clear 14 1027 82 10000 4.6 80 23:36 18.12.2019
2354 Clear 14 1027 82 10000 4.6 80 23:18 18.12.2019
2355 Clear 14 1027 82 10000 4.1 70 22:55 18.12.2019
2356 Clear 14 1027 82 10000 5.1 60 22:36 18.12.2019
2357 Clear 14 1027 82 10000 5.1 60 22:18 18.12.2019
2358 Clear 14 1027 72 10000 5.1 50 21:55 18.12.2019
2359 Clear 15 1027 72 10000 5.1 50 21:36 18.12.2019
2360 Clear 15 1027 72 10000 5.1 50 21:18 18.12.2019
2361 Clear 15 1027 72 10000 6.7 40 20:54 18.12.2019
2362 Clear 15 1027 72 10000 6.7 40 20:36 18.12.2019
2363 Clear 15 1027 72 10000 6.7 40 20:18 18.12.2019
2364 Clear 16 1027 67 10000 8.2 50 19:54 18.12.2019
2365 Clear 16 1027 67 10000 8.2 50 19:54 18.12.2019
2366 Clear 16 1027 63 10000 6.7 40 19:36 18.12.2019
2367 Clear 16 1027 63 10000 6.7 40 19:18 18.12.2019
2368 Clear 16 1027 63 10000 6.7 40 18:43 18.12.2019
2369 Clear 17 1027 59 10000 6.2 30 18:25 18.12.2019
2370 Clear 18 1027 55 10000 7.2 30 17:56 18.12.2019
2371 Clear 18 1027 52 10000 6.2 30 17:38 18.12.2019
2372 Clear 18 1027 52 10000 6.2 30 17:19 18.12.2019
2373 Clear 19 1026 48 10000 8.2 30 16:54 18.12.2019
2374 Clear 19 1026 48 10000 8.2 30 16:36 18.12.2019
2375 Clear 19 1026 48 10000 8.2 30 16:18 18.12.2019
2376 Clear 19 1026 48 10000 8.2 30 15:54 18.12.2019
2377 Clear 20 1026 45 10000 8.2 40 15:36 18.12.2019
2378 Clear 20 1026 45 10000 8.2 40 15:18 18.12.2019
2379 Clear 21 1026 43 10000 8.2 40 14:40 18.12.2019
2380 Clear 21 1026 43 10000 8.2 40 14:20 18.12.2019
2381 Clouds 21 1026 43 10000 8.7 40 13:57 18.12.2019
2382 Clouds 20 1026 45 10000 8.7 50 13:37 18.12.2019
2383 Clouds 20 1026 45 10000 8.7 50 13:19 18.12.2019
2384 Clouds 20 1026 43 10000 8.7 50 12:57 18.12.2019
2385 Clouds 20 1026 49 10000 8.7 40 12:38 18.12.2019
2386 Clouds 20 1026 49 10000 8.7 40 12:19 18.12.2019
2387 Clouds 20 1026 49 10000 8.7 50 11:55 18.12.2019
2388 Clouds 20 1027 52 10000 8.7 50 11:37 18.12.2019
2389 Clouds 20 1027 52 10000 8.7 50 11:18 18.12.2019
2390 Clouds 20 1027 55 10000 8.7 40 10:55 18.12.2019
2391 Clouds 19 1028 55 10000 8.7 50 10:37 18.12.2019
2392 Clouds 19 1028 55 10000 8.7 50 10:19 18.12.2019
2393 Clear 17 1028 72 10000 6.7 50 09:43 18.12.2019
2394 Clear 17 1028 72 10000 6.7 50 09:18 18.12.2019
2395 Clouds 15 1028 82 6000 4.1 50 08:40 18.12.2019
2396 Clouds 15 1028 82 6000 4.1 50 08:21 18.12.2019
2397 Clouds 13 1028 93 6000 4.1 70 07:43 18.12.2019
2398 Clouds 13 1028 93 6000 4.1 70 07:23 18.12.2019
2399 Clouds 12 1028 87 6000 3.1 70 06:55 18.12.2019
2400 Clouds 11 1028 93 6000 3.1 70 06:27 18.12.2019
2401 Clouds 11 1027 93 10000 3.1 70 05:54 18.12.2019
2402 Clouds 11 1027 87 10000 2.6 80 04:57 18.12.2019
2403 Clear 13 1026 82 10000 3.6 70 02:55 18.12.2019
2404 Clear 13 1026 82 10000 3.6 70 02:36 18.12.2019
2405 Clear 13 1026 82 10000 3.6 70 02:18 18.12.2019
2406 Clear 13 1026 82 10000 4.1 80 01:40 18.12.2019
2407 Clear 13 1026 82 10000 4.1 80 01:21 18.12.2019
2408 Clouds 13 1026 82 10000 3.6 80 00:41 18.12.2019
2409 Clouds 13 1026 82 10000 3.6 80 00:23 18.12.2019
2410 Clouds 13 1026 82 10000 3.1 70 23:56 17.12.2019
2411 Clouds 13 1027 76 10000 4.1 70 23:38 17.12.2019
2412 Clouds 14 1027 76 10000 4.1 70 23:18 17.12.2019
2413 Clouds 14 1027 76 10000 3.6 70 22:56 17.12.2019
2414 Clouds 14 1027 76 10000 3.6 70 22:37 17.12.2019
2415 Clouds 14 1027 72 10000 4.1 50 22:18 17.12.2019
2416 Clouds 15 1027 72 10000 4.1 50 21:55 17.12.2019
2417 Clouds 15 1027 72 10000 4.1 50 21:37 17.12.2019
2418 Clouds 15 1027 72 10000 4.1 50 21:19 17.12.2019
2419 Clouds 16 1027 67 10000 4.1 40 20:56 17.12.2019
2420 Clouds 16 1027 67 10000 4.1 40 20:38 17.12.2019
2421 Clouds 16 1027 67 10000 4.1 40 20:18 17.12.2019
2422 Clouds 16 1027 67 10000 4.6 40 19:55 17.12.2019
2423 Clouds 16 1027 67 10000 4.6 40 19:37 17.12.2019
2424 Clouds 16 1027 67 10000 4.6 40 19:18 17.12.2019
2425 Clouds 17 1026 55 10000 4.1 30 18:42 17.12.2019
2426 Clouds 17 1026 55 10000 4.1 30 18:42 17.12.2019
2427 Clouds 18 1026 55 10000 4.1 30 18:22 17.12.2019
2428 Clouds 18 1026 55 10000 3.6 10 17:59 17.12.2019
2429 Clouds 18 1026 55 10000 3.6 10 17:59 17.12.2019
2430 Clouds 19 1026 55 10000 3.6 10 17:41 17.12.2019
2431 Clouds 19 1025 55 10000 4.6 10 17:19 17.12.2019
2432 Clouds 19 1025 55 10000 4.6 10 16:56 17.12.2019
2433 Clouds 19 1025 49 10000 4.6 360 16:37 17.12.2019
2434 Clouds 20 1025 49 10000 4.6 360 16:37 17.12.2019
2435 Clouds 20 1025 49 10000 4.6 360 16:19 17.12.2019
2436 Clouds 20 1025 49 10000 4.6 20 15:56 17.12.2019
2437 Clouds 20 1025 49 10000 4.6 20 15:37 17.12.2019
2438 Clouds 20 1025 49 10000 4.6 20 15:37 17.12.2019
2439 Clouds 20 1025 49 10000 4.6 20 15:19 17.12.2019
2440 Clouds 20 1025 49 10000 4.6 20 15:19 17.12.2019
2441 Clouds 20 1025 49 10000 5.1 10 14:55 17.12.2019
2442 Clouds 20 1025 49 10000 5.1 40 14:36 17.12.2019
2443 Clouds 20 1025 49 10000 5.1 40 14:18 17.12.2019
2444 Clouds 20 1025 45 10000 6.7 30 13:55 17.12.2019
2445 Clouds 20 1025 49 10000 6.7 30 13:37 17.12.2019
2446 Clouds 20 1025 49 10000 6.7 30 13:18 17.12.2019
2447 Clouds 20 1025 52 10000 6.7 20 12:41 17.12.2019
2448 Clouds 20 1025 52 10000 6.7 20 12:19 17.12.2019
2449 Clouds 20 1025 52 10000 5.7 40 11:59 17.12.2019
2450 Clouds 20 1025 59 10000 5.7 50 11:37 17.12.2019
2451 Clouds 19 1025 59 10000 5.7 50 11:19 17.12.2019
2452 Clouds 19 1025 59 6000 6.7 50 10:59 17.12.2019
2453 Clouds 18 1026 68 6000 4.1 30 10:41 17.12.2019
2454 Clouds 18 1026 68 6000 4.1 30 10:41 17.12.2019
2455 Clouds 18 1026 68 6000 4.1 30 10:22 17.12.2019
2456 Mist 18 1026 68 4000 3.1 60 09:59 17.12.2019
2457 Mist 17 1026 72 4000 3.1 40 09:41 17.12.2019
2458 Mist 17 1026 72 4000 3.1 40 09:20 17.12.2019
2459 Mist 16 1026 77 4000 2.6 40 08:56 17.12.2019
2460 Mist 16 1026 77 4000 2.6 40 08:56 17.12.2019
2461 Mist 14 1026 87 4000 1.5 60 08:38 17.12.2019
2462 Mist 14 1026 87 4000 1.5 60 08:38 17.12.2019
2463 Mist 14 1026 87 4000 1.5 60 08:20 17.12.2019
2464 Mist 14 1026 87 4000 1 70 07:54 17.12.2019
2465 Mist 13 1026 87 4000 2.1 70 07:36 17.12.2019
2466 Mist 12 1026 87 4000 2.1 70 07:18 17.12.2019
2467 Mist 11 1025 87 2000 2.6 70 06:35 17.12.2019
2468 Mist 11 1025 87 4000 4.77 48 05:56 17.12.2019
2469 Mist 11 1025 87 4000 4.77 48 05:36 17.12.2019
2470 Mist 12 1024 87 4000 1.5 80 04:45 17.12.2019
2471 Clouds 12 1024 81 6000 1 70 02:47 17.12.2019
2472 Clear 13 1024 76 6000 3.01 25 01:56 17.12.2019
2473 Clear 13 1024 82 6000 3.01 25 01:20 17.12.2019
2474 Clear 13 1024 76 6000 1 90 00:38 17.12.2019
2475 Clear 13 1024 76 6000 1 90 00:20 17.12.2019
2476 Clear 13 1024 76 6000 2.1 90 23:42 16.12.2019
2477 Clear 14 1024 76 6000 2.1 90 23:19 16.12.2019
2478 Clear 13 1024 76 6000 2.6 70 22:58 16.12.2019
2479 Clear 13 1024 67 6000 3.1 60 22:38 16.12.2019
2480 Clear 14 1024 67 6000 3.1 60 22:20 16.12.2019
2481 Clear 14 1024 67 6000 2.6 70 21:56 16.12.2019
2482 Clear 14 1024 67 6000 2.6 60 21:38 16.12.2019
2483 Clear 14 1024 67 6000 2.6 60 21:38 16.12.2019
2484 Clear 14 1024 67 6000 2.6 60 21:20 16.12.2019
2485 Clear 14 1024 67 10000 2.1 60 20:58 16.12.2019
2486 Clear 14 1024 62 10000 2.6 50 20:38 16.12.2019
2487 Clear 15 1024 59 10000 3.6 30 20:19 16.12.2019
2488 Clear 16 1024 59 10000 3.6 30 19:56 16.12.2019
2489 Clear 16 1024 59 10000 3.6 30 19:56 16.12.2019
2490 Clear 16 1024 59 10000 3.6 10 19:37 16.12.2019
2491 Clear 17 1024 59 10000 3.6 10 19:19 16.12.2019
2492 Clear 17 1024 59 10000 4.1 20 18:56 16.12.2019
2493 Clear 17 1024 59 10000 4.1 20 18:56 16.12.2019
2494 Clear 17 1023 55 10000 5.1 20 18:38 16.12.2019
2495 Clear 17 1023 55 10000 5.1 20 18:38 16.12.2019
2496 Clear 17 1023 52 10000 5.1 20 18:19 16.12.2019
2497 Clear 17 1023 52 10000 5.1 20 17:57 16.12.2019
2498 Clear 18 1023 52 10000 5.7 20 17:38 16.12.2019
2499 Clear 18 1023 52 10000 5.7 20 17:20 16.12.2019
2500 Clear 18 1023 52 10000 5.7 20 17:20 16.12.2019
2501 Clouds 18 1022 48 10000 7.7 10 16:57 16.12.2019
2502 Clouds 19 1022 48 10000 7.7 10 16:38 16.12.2019
2503 Clouds 19 1022 48 10000 7.7 10 16:19 16.12.2019
2504 Clouds 19 1022 48 10000 7.7 20 15:57 16.12.2019
2505 Clouds 19 1022 45 10000 7.7 10 15:38 16.12.2019
2506 Clouds 20 1022 45 10000 7.7 10 15:20 16.12.2019
2507 Clouds 20 1022 45 10000 7.2 20 14:55 16.12.2019
2508 Clouds 20 1022 49 10000 5.7 10 14:37 16.12.2019
2509 Clouds 20 1022 49 10000 5.7 10 14:19 16.12.2019
2510 Clouds 19 1022 48 10000 6.2 10 13:56 16.12.2019
2511 Clouds 19 1022 45 10000 7.2 30 13:37 16.12.2019
2512 Clouds 19 1022 45 10000 7.2 30 13:19 16.12.2019
2513 Clouds 19 1022 48 10000 5.7 10 12:57 16.12.2019
2514 Clouds 19 1022 52 10000 6.2 350 12:39 16.12.2019
2515 Clouds 19 1022 52 10000 6.2 10 12:18 16.12.2019
2516 Clouds 19 1022 52 10000 6.2 10 11:57 16.12.2019
2517 Clouds 18 1023 55 10000 5.7 350 11:39 16.12.2019
2518 Clouds 18 1023 55 10000 5.7 350 11:19 16.12.2019
2519 Clouds 18 1023 55 10000 5.7 350 10:55 16.12.2019
2520 Clear 17 1023 59 10000 5.1 20 10:36 16.12.2019
2521 Clear 17 1023 59 10000 5.1 20 10:18 16.12.2019
2522 Clear 15 1023 67 10000 3.6 40 09:44 16.12.2019
2523 Clear 15 1023 67 10000 3.6 40 09:44 16.12.2019
2524 Clear 15 1023 67 10000 3.6 40 09:26 16.12.2019
2525 Mist 14 1023 82 4000 2.6 30 08:41 16.12.2019
2526 Mist 13 1023 82 4000 2.6 30 08:21 16.12.2019
2527 Mist 13 1023 82 4000 2.1 40 07:57 16.12.2019
2528 Mist 12 1022 87 4000 2.1 100 07:38 16.12.2019
2529 Mist 11 1022 87 4000 2.1 100 07:19 16.12.2019
2530 Mist 10 1021 87 4000 2.6 30 06:40 16.12.2019
2531 Mist 10 1021 87 4000 2.6 30 06:21 16.12.2019
2532 Mist 10 1021 87 4000 2.6 30 06:21 16.12.2019
2533 Mist 10 1021 87 4000 1 60 05:44 16.12.2019
2534 Mist 10 1021 87 4000 1 60 05:26 16.12.2019
2535 Mist 11 1020 81 2000 3.1 50 03:33 16.12.2019
2536 Haze 12 1019 71 3000 0.62 41 01:57 16.12.2019
2537 Haze 12 1019 76 3000 2.1 10 01:39 16.12.2019
2538 Clouds 12 1018 71 6000 1 60 00:41 16.12.2019
2539 Clouds 13 1018 71 6000 1 60 00:23 16.12.2019
2540 Clouds 13 1018 66 6000 0.71 151 23:58 15.12.2019
2541 Clouds 13 1018 67 6000 1 80 23:38 15.12.2019
2542 Clouds 14 1018 67 10000 1.86 193 23:19 15.12.2019
2543 Clouds 14 1018 67 10000 1.86 193 22:54 15.12.2019
2544 Clouds 15 1018 67 10000 2.1 320 22:36 15.12.2019
2545 Clouds 15 1018 67 10000 2.1 320 22:18 15.12.2019
2546 Clouds 15 1018 67 10000 2.1 340 21:55 15.12.2019
2547 Clouds 15 1018 62 10000 1.5 220 21:37 15.12.2019
2548 Clouds 15 1018 62 10000 1.5 220 21:37 15.12.2019
2549 Clouds 15 1018 62 10000 1.5 220 21:18 15.12.2019
2550 Clouds 15 1017 62 10000 1.5 190 20:54 15.12.2019
2551 Clouds 15 1017 62 10000 2.1 210 20:36 15.12.2019
2552 Clouds 15 1017 62 10000 2.1 210 20:36 15.12.2019
2553 Clouds 15 1017 62 10000 2.1 210 20:18 15.12.2019
2554 Clouds 15 1017 62 10000 0.5 230 19:54 15.12.2019
2555 Clouds 15 1017 59 10000 3.1 160 19:36 15.12.2019
2556 Clouds 16 1017 59 10000 3.1 160 19:18 15.12.2019
2557 Clouds 16 1016 63 10000 3.6 150 18:54 15.12.2019
2558 Clouds 16 1016 63 10000 3.6 150 18:36 15.12.2019
2559 Clouds 16 1016 63 10000 3.6 150 18:18 15.12.2019
2560 Clouds 16 1016 59 10000 4.1 170 17:55 15.12.2019
2561 Clouds 16 1015 59 10000 5.7 180 17:36 15.12.2019
2562 Clouds 16 1015 59 10000 5.7 180 17:18 15.12.2019
2563 Clouds 17 1014 51 6000 5.7 180 16:42 15.12.2019
2564 Clouds 17 1014 51 6000 5.7 180 16:22 15.12.2019
2565 Clouds 17 1014 51 6000 5.7 190 15:57 15.12.2019
2566 Clouds 17 1014 51 6000 6.2 190 15:39 15.12.2019
2567 Clouds 17 1014 51 6000 6.2 190 15:19 15.12.2019
2568 Clouds 17 1014 51 6000 7.2 190 14:56 15.12.2019
2569 Clouds 17 1013 48 10000 8.2 190 14:38 15.12.2019
2570 Clouds 17 1013 48 10000 8.2 190 14:19 15.12.2019
2571 Clouds 17 1013 45 10000 7.2 200 13:59 15.12.2019
2572 Clouds 17 1013 45 10000 7.2 200 13:39 15.12.2019
2573 Clouds 17 1013 45 10000 7.2 200 13:20 15.12.2019
2574 Clouds 17 1013 42 6000 9.3 200 12:57 15.12.2019
2575 Clouds 17 1013 45 6000 8.2 200 12:39 15.12.2019
2576 Clouds 17 1013 45 6000 8.2 200 12:21 15.12.2019
2577 Clouds 17 1013 48 6000 8.7 190 11:59 15.12.2019
2578 Clouds 17 1013 42 6000 7.2 200 11:38 15.12.2019
2579 Clouds 17 1013 42 6000 7.2 200 11:19 15.12.2019
2580 Clouds 17 1013 42 6000 7.2 200 11:19 15.12.2019
2581 Clouds 17 1013 42 6000 7.2 200 11:19 15.12.2019
2582 Clouds 16 1014 41 6000 6.7 200 10:55 15.12.2019
2583 Clouds 16 1014 38 6000 8.2 190 10:37 15.12.2019
2584 Clouds 16 1014 38 6000 8.2 190 10:19 15.12.2019
2585 Clouds 15 1014 41 6000 8.2 200 09:56 15.12.2019
2586 Clouds 15 1014 41 6000 7.2 200 09:37 15.12.2019
2587 Clouds 15 1014 41 6000 7.2 200 09:18 15.12.2019
2588 Clouds 14 1013 41 6000 8.2 190 08:41 15.12.2019
2589 Clouds 14 1013 41 6000 8.2 190 08:22 15.12.2019
2590 Clouds 13 1013 43 6000 8.2 170 07:57 15.12.2019
2591 Clouds 13 1013 43 6000 8.2 170 07:38 15.12.2019
2592 Clouds 12 1013 50 6000 8.2 170 06:59 15.12.2019
2593 Clouds 12 1012 54 6000 8.2 170 06:24 15.12.2019
2594 Rain 12 1012 77 6000 9.8 180 05:42 15.12.2019
2595 Rain 12 1012 33 6000 9.8 180 05:20 15.12.2019
2596 Clouds 15 1012 24 6000 8.7 180 04:19 15.12.2019
2597 Clouds 15 1012 24 6000 10.3 180 02:49 15.12.2019
2598 Clouds 15 1012 24 6000 10.8 180 02:30 15.12.2019
2599 Clear 15 1012 24 6000 10.8 180 01:40 15.12.2019
2600 Clear 15 1013 23 6000 9.3 180 01:18 15.12.2019
2601 Clear 16 1013 23 6000 9.3 180 00:47 15.12.2019
2602 Clear 16 1013 23 6000 9.3 180 00:29 15.12.2019
2603 Clear 16 1013 25 6000 8.2 170 23:41 14.12.2019
2604 Clear 16 1013 25 6000 8.2 170 23:22 14.12.2019
2605 Clear 16 1014 25 6000 8.2 180 22:59 14.12.2019
2606 Clear 16 1014 25 6000 7.7 180 22:41 14.12.2019
2607 Clear 16 1014 25 6000 7.7 180 22:22 14.12.2019
2608 Clear 16 1014 25 6000 8.2 190 21:56 14.12.2019
2609 Clear 16 1014 26 6000 7.2 190 21:38 14.12.2019
2610 Clear 16 1014 26 6000 7.2 190 21:19 14.12.2019
2611 Clear 16 1014 26 6000 7.2 190 21:19 14.12.2019
2612 Clear 16 1014 26 6000 7.2 190 20:59 14.12.2019
2613 Clear 16 1014 25 6000 7.7 180 20:40 14.12.2019
2614 Clear 17 1014 25 6000 7.7 180 20:20 14.12.2019
2615 Clear 17 1014 27 10000 8.2 180 19:57 14.12.2019
2616 Clear 17 1014 25 10000 6.7 180 19:38 14.12.2019
2617 Clear 17 1014 25 10000 6.7 180 19:20 14.12.2019
2618 Clear 17 1014 23 10000 6.7 190 18:56 14.12.2019
2619 Clear 17 1014 23 10000 6.7 190 18:38 14.12.2019
2620 Clear 17 1014 23 10000 6.7 190 18:38 14.12.2019
2621 Clear 17 1014 23 10000 6.7 190 18:19 14.12.2019
2622 Clear 17 1014 23 10000 7.2 190 17:44 14.12.2019
2623 Clear 17 1014 23 10000 7.2 190 17:24 14.12.2019
2624 Clear 18 1013 22 10000 7.7 200 16:58 14.12.2019
2625 Clear 18 1013 23 10000 7.2 200 16:39 14.12.2019
2626 Clear 18 1013 23 10000 7.2 200 16:19 14.12.2019
2627 Clear 18 1013 23 10000 7.2 200 16:19 14.12.2019
2628 Clear 18 1014 24 10000 9.8 200 15:43 14.12.2019
2629 Clear 19 1014 24 10000 9.8 200 15:24 14.12.2019
2630 Clear 18 1014 23 10000 10.8 200 14:59 14.12.2019
2631 Clear 18 1014 24 10000 8.7 200 14:39 14.12.2019
2632 Clear 19 1014 24 10000 8.7 200 14:20 14.12.2019
2633 Clear 19 1014 25 10000 9.3 200 13:57 14.12.2019
2634 Clear 18 1014 31 10000 9.3 200 13:39 14.12.2019
2635 Clear 18 1014 31 10000 9.3 200 13:19 14.12.2019
2636 Clear 18 1014 31 10000 9.3 200 13:19 14.12.2019
2637 Clear 18 1015 31 10000 9.3 200 12:55 14.12.2019
2638 Clear 18 1015 24 10000 10.8 200 12:37 14.12.2019
2639 Clear 18 1015 24 10000 10.8 200 12:18 14.12.2019
2640 Clear 18 1015 24 6000 9.3 210 11:55 14.12.2019
2641 Clear 17 1016 24 6000 9.3 190 11:37 14.12.2019
2642 Clear 16 1016 31 6000 9.3 190 11:18 14.12.2019
2643 Clear 16 1016 31 6000 9.3 190 10:55 14.12.2019
2644 Clear 16 1016 31 6000 9.3 190 10:37 14.12.2019
2645 Clear 16 1016 31 6000 9.3 190 10:18 14.12.2019
2646 Clouds 15 1017 33 6000 8.7 170 09:40 14.12.2019
2647 Clouds 15 1017 33 6000 8.7 170 09:21 14.12.2019
2648 Clouds 14 1017 30 6000 8.2 170 08:45 14.12.2019
2649 Clouds 14 1017 39 6000 8.2 170 08:20 14.12.2019
2650 Clouds 13 1017 37 10000 6.7 170 07:57 14.12.2019
2651 Clouds 12 1017 40 10000 6.7 170 07:38 14.12.2019
2652 Clouds 12 1017 40 10000 6.7 170 07:19 14.12.2019
2653 Clouds 12 1016 40 10000 6.7 170 06:41 14.12.2019
2654 Clouds 12 1016 40 10000 6.7 170 06:22 14.12.2019
2655 Clouds 11 1016 43 10000 6.7 170 05:25 14.12.2019
2656 Clouds 11 1016 38 10000 5.1 170 02:51 14.12.2019
2657 Clouds 12 1016 47 10000 5.1 170 02:23 14.12.2019
2658 Clouds 12 1016 40 10000 3.6 180 01:44 14.12.2019
2659 Clouds 13 1016 37 10000 3.1 180 00:58 14.12.2019
2660 Clouds 13 1016 48 10000 3.1 180 00:40 14.12.2019
2661 Clouds 13 1016 48 10000 3.1 180 00:19 14.12.2019
2662 Clouds 14 1016 41 10000 4.1 200 23:41 13.12.2019
2663 Clouds 14 1016 41 10000 4.1 200 23:41 13.12.2019
2664 Clouds 14 1016 41 10000 4.1 200 23:19 13.12.2019
2665 Clouds 14 1016 41 10000 4.6 210 22:56 13.12.2019
2666 Clouds 14 1016 41 10000 4.6 210 22:37 13.12.2019
2667 Clouds 14 1016 41 10000 4.6 210 22:18 13.12.2019
2668 Clouds 14 1016 41 10000 5.1 210 21:44 13.12.2019
2669 Clouds 15 1016 41 10000 5.1 210 21:22 13.12.2019
2670 Clouds 15 1016 44 10000 5.7 220 20:59 13.12.2019
2671 Clouds 15 1016 41 10000 5.7 220 20:39 13.12.2019
2672 Clouds 16 1016 41 10000 5.7 220 20:20 13.12.2019
2673 Clouds 16 1016 48 10000 5.7 220 19:56 13.12.2019
2674 Clouds 16 1016 48 10000 5.7 220 19:38 13.12.2019
2675 Clouds 16 1016 48 10000 5.7 220 19:19 13.12.2019
2676 Clouds 17 1016 45 10000 5.1 210 18:54 13.12.2019
2677 Clouds 17 1015 51 10000 3.6 220 18:36 13.12.2019
2678 Clouds 17 1015 51 10000 3.6 220 18:18 13.12.2019
2679 Clouds 17 1015 51 10000 3.6 220 18:18 13.12.2019
2680 Clouds 17 1015 48 10000 3.6 250 17:40 13.12.2019
2681 Clouds 18 1015 48 10000 3.6 250 17:19 13.12.2019
2682 Clouds 18 1015 52 10000 6.7 260 16:57 13.12.2019
2683 Clouds 18 1015 52 10000 6.7 260 16:57 13.12.2019
2684 Clouds 18 1015 52 10000 6.7 260 16:38 13.12.2019
2685 Clouds 18 1015 52 10000 6.7 260 16:20 13.12.2019
2686 Clouds 19 1014 48 10000 7.2 230 15:43 13.12.2019
2687 Clouds 19 1014 48 10000 7.2 230 15:22 13.12.2019
2688 Clouds 19 1014 48 6000 7.7 220 14:57 13.12.2019
2689 Clouds 19 1014 48 6000 7.7 220 14:39 13.12.2019
2690 Clouds 19 1014 48 6000 7.7 220 14:19 13.12.2019
2691 Clouds 19 1014 52 6000 8.7 210 13:44 13.12.2019
2692 Clouds 19 1014 52 6000 8.7 210 13:26 13.12.2019
2693 Clouds 18 1015 52 6000 10.3 210 12:59 13.12.2019
2694 Clouds 18 1015 52 6000 10.3 210 12:41 13.12.2019
2695 Clouds 18 1015 52 6000 10.3 210 12:19 13.12.2019
2696 Sand 17 1016 55 4000 7.2 200 11:45 13.12.2019
2697 Sand 17 1016 55 4000 7.2 200 11:27 13.12.2019
2698 Sand 17 1016 55 4000 6.7 200 10:58 13.12.2019
2699 Sand 17 1016 55 4000 6.7 200 10:40 13.12.2019
2700 Sand 16 1016 59 4000 6.7 200 10:21 13.12.2019
2701 Sand 15 1016 58 4000 7.2 190 09:43 13.12.2019
2702 Sand 15 1016 58 4000 7.2 190 09:22 13.12.2019
2703 Sand 14 1016 62 4000 8.2 190 08:55 13.12.2019
2704 Sand 14 1016 62 4000 8.2 190 08:37 13.12.2019
2705 Sand 14 1016 62 4000 8.2 190 08:19 13.12.2019
2706 Sand 13 1016 62 4000 7.2 180 07:43 13.12.2019
2707 Sand 13 1015 62 4000 7.2 180 07:19 13.12.2019
2708 Sand 13 1015 62 4000 7.2 180 06:46 13.12.2019
2709 Sand 12 1015 66 4000 8.2 180 06:27 13.12.2019
2710 Clouds 12 1015 62 6000 7.2 190 05:41 13.12.2019
2711 Clouds 13 1014 62 6000 8.2 190 05:20 13.12.2019
2712 Clouds 13 1014 62 6000 7.7 180 04:33 13.12.2019
2713 Clouds 14 1014 58 6000 7.2 190 03:29 13.12.2019
2714 Clouds 14 1014 54 10000 7.7 190 02:31 13.12.2019
2715 Clouds 13 1014 58 10000 6.7 190 01:40 13.12.2019
2716 Clouds 13 1014 58 10000 8.2 190 00:51 13.12.2019
2717 Clouds 13 1014 54 10000 7.7 180 00:32 13.12.2019
2718 Clouds 14 1014 54 10000 6.7 180 23:47 12.12.2019
2719 Clouds 15 1014 58 10000 7.7 180 23:27 12.12.2019
2720 Clouds 15 1014 54 10000 6.2 190 22:59 12.12.2019
2721 Clouds 15 1014 54 10000 6.2 190 22:41 12.12.2019
2722 Clouds 15 1014 54 10000 6.2 190 22:41 12.12.2019
2723 Clouds 15 1014 58 10000 6.2 200 22:22 12.12.2019
2724 Clouds 15 1014 58 10000 5.1 210 21:56 12.12.2019
2725 Clouds 15 1014 58 10000 5.1 210 21:56 12.12.2019
2726 Clouds 15 1014 58 10000 5.1 210 21:38 12.12.2019
2727 Clouds 15 1014 58 10000 3.6 210 21:20 12.12.2019
2728 Clouds 15 1014 58 6000 4.6 210 20:59 12.12.2019
2729 Clouds 15 1014 58 6000 4.6 210 20:41 12.12.2019
2730 Clouds 15 1014 58 6000 5.1 210 20:23 12.12.2019
2731 Clouds 15 1014 58 6000 4.6 230 19:59 12.12.2019
2732 Clouds 15 1014 58 6000 4.6 230 19:59 12.12.2019
2733 Clouds 15 1014 58 6000 4.6 230 19:40 12.12.2019
2734 Clouds 15 1014 58 6000 6.7 230 19:21 12.12.2019
2735 Clouds 16 1014 55 6000 7.2 240 18:57 12.12.2019
2736 Clouds 16 1014 55 6000 7.2 240 18:57 12.12.2019
2737 Clouds 16 1013 55 6000 8.7 240 18:38 12.12.2019
2738 Clouds 16 1013 55 6000 8.7 240 18:20 12.12.2019
2739 Clouds 16 1013 51 6000 8.2 240 17:57 12.12.2019
2740 Clouds 16 1013 51 6000 8.2 240 17:39 12.12.2019
2741 Clouds 16 1012 51 6000 7.7 240 17:20 12.12.2019
2742 Clouds 17 1012 48 6000 7.52 261 16:57 12.12.2019
2743 Clouds 17 1012 48 6000 7.52 261 16:38 12.12.2019
2744 Clouds 17 1012 45 6000 7.52 261 16:20 12.12.2019
2745 Clouds 17 1012 45 6000 8.7 250 15:54 12.12.2019
2746 Clouds 17 1012 42 6000 9.8 250 15:36 12.12.2019
2747 Clouds 18 1012 42 6000 9.8 250 15:18 12.12.2019
2748 Clouds 18 1011 48 6000 11.8 250 14:38 12.12.2019
2749 Clouds 18 1011 48 6000 11.8 250 14:20 12.12.2019
2750 Clouds 18 1010 45 6000 12.9 250 13:58 12.12.2019
2751 Clouds 19 1010 45 6000 12.9 250 13:39 12.12.2019
2752 Clouds 19 1010 45 10000 11.3 250 13:21 12.12.2019
2753 Clouds 19 1010 59 10000 6.7 250 12:58 12.12.2019
2754 Clouds 19 1010 59 10000 6.7 250 12:40 12.12.2019
2755 Clouds 19 1010 59 10000 8.7 220 12:21 12.12.2019
2756 Clouds 17 1011 72 10000 7.7 200 11:56 12.12.2019
2757 Clouds 17 1011 72 10000 5.7 210 11:38 12.12.2019
2758 Clouds 17 1011 72 10000 5.7 210 11:19 12.12.2019
2759 Clouds 15 1012 82 6000 4.6 230 10:55 12.12.2019
2760 Clouds 15 1012 82 6000 4.6 230 10:37 12.12.2019
2761 Clouds 15 1012 82 6000 4.6 230 10:19 12.12.2019
2762 Rain 14 1012 87 4000 5.7 240 09:42 12.12.2019
2763 Rain 14 1013 82 4000 14.9 230 09:24 12.12.2019
2764 Clouds 19 1010 52 6000 8.7 190 08:59 12.12.2019
2765 Clouds 19 1010 52 6000 8.7 190 08:40 12.12.2019
2766 Clouds 19 1010 52 10000 8.7 190 08:22 12.12.2019
2767 Clouds 18 1010 52 10000 7.2 180 07:47 12.12.2019
2768 Clouds 18 1010 52 10000 7.2 180 07:25 12.12.2019
2769 Clouds 17 1009 55 6000 7.7 150 06:55 12.12.2019
2770 Clouds 17 1009 55 6000 7.7 150 06:34 12.12.2019
2771 Clouds 17 1010 55 6000 7.2 160 05:41 12.12.2019
2772 Clouds 17 1010 51 6000 4.1 170 04:54 12.12.2019
2773 Clouds 16 1011 51 6000 3.1 170 03:50 12.12.2019
2774 Clouds 16 1011 48 6000 4.6 160 02:40 12.12.2019
2775 Clouds 16 1011 48 6000 4.6 160 02:21 12.12.2019
2776 Clouds 16 1011 48 6000 2.6 160 01:46 12.12.2019
2777 Clouds 16 1011 51 6000 4.1 150 01:28 12.12.2019
2778 Clouds 16 1011 51 6000 4.1 150 00:47 12.12.2019
2779 Clouds 16 1011 51 6000 4.1 150 00:20 12.12.2019
2780 Clouds 16 1012 48 6000 4.1 150 23:45 11.12.2019
2781 Clouds 16 1013 48 6000 4.1 160 23:21 11.12.2019
2782 Clouds 16 1013 51 6000 4.1 160 22:58 11.12.2019
2783 Clouds 16 1013 48 6000 4.6 160 22:39 11.12.2019
2784 Clouds 17 1013 48 6000 4.6 160 22:20 11.12.2019
2785 Clouds 17 1013 48 6000 4.6 160 21:59 11.12.2019
2786 Clouds 17 1013 48 6000 4.6 160 21:39 11.12.2019
2787 Clouds 17 1013 48 6000 4.6 170 21:20 11.12.2019
2788 Clouds 17 1013 48 6000 4.6 160 20:57 11.12.2019
2789 Clouds 17 1013 51 6000 4.1 160 20:39 11.12.2019
2790 Clouds 17 1013 51 6000 4.1 160 20:19 11.12.2019
2791 Clouds 17 1013 51 6000 4.1 170 19:58 11.12.2019
2792 Clouds 17 1013 51 6000 4.1 170 19:40 11.12.2019
2793 Clouds 18 1013 48 6000 3.1 170 19:20 11.12.2019
2794 Clouds 18 1013 45 6000 3.6 170 18:55 11.12.2019
2795 Clouds 18 1013 45 6000 3.6 170 18:37 11.12.2019
2796 Clouds 18 1013 45 6000 3.6 170 18:18 11.12.2019
2797 Clouds 19 1013 42 6000 2.6 140 17:55 11.12.2019
2798 Clouds 19 1013 42 6000 3.6 170 17:36 11.12.2019
2799 Clouds 19 1013 42 6000 3.6 170 17:18 11.12.2019
2800 Clouds 19 1013 42 6000 3.6 170 16:55 11.12.2019
2801 Clouds 19 1013 42 6000 3.6 170 16:36 11.12.2019
2802 Clouds 19 1013 42 6000 3.6 170 16:18 11.12.2019
2803 Clouds 19 1013 42 6000 3.6 170 15:41 11.12.2019
2804 Clouds 19 1013 39 6000 3.1 200 15:23 11.12.2019
2805 Clouds 19 1013 39 6000 3.1 200 15:23 11.12.2019
2806 Clouds 19 1013 39 6000 3.6 190 14:57 11.12.2019
2807 Clouds 19 1013 39 6000 3.6 190 14:39 11.12.2019
2808 Clouds 19 1013 39 6000 4.6 210 14:20 11.12.2019
2809 Clouds 19 1013 37 6000 4.6 210 13:58 11.12.2019
2810 Clouds 19 1013 37 6000 4.6 210 13:39 11.12.2019
2811 Clouds 19 1013 37 6000 5.7 200 13:20 11.12.2019
2812 Clouds 19 1013 37 6000 5.7 200 13:20 11.12.2019
2813 Clouds 19 1013 34 6000 6.7 210 12:57 11.12.2019
2814 Clouds 19 1013 34 6000 6.7 210 12:38 11.12.2019
2815 Clouds 18 1013 36 6000 5.7 210 12:38 11.12.2019
2816 Clouds 18 1013 36 6000 5.7 210 12:20 11.12.2019
2817 Clouds 18 1014 36 6000 6.2 210 11:58 11.12.2019
2818 Clouds 18 1014 36 6000 6.2 210 11:38 11.12.2019
2819 Clouds 18 1014 36 6000 6.2 210 11:18 11.12.2019
2820 Clouds 18 1014 39 6000 4.6 210 10:57 11.12.2019
2821 Clouds 18 1014 39 6000 4.6 210 10:38 11.12.2019
2822 Clouds 18 1015 39 6000 4.6 200 10:19 11.12.2019
2823 Clouds 17 1014 45 6000 4.1 190 09:43 11.12.2019
2824 Clouds 17 1015 42 6000 4.6 180 09:21 11.12.2019
2825 Clouds 17 1015 42 6000 4.6 180 09:21 11.12.2019
2826 Clouds 17 1015 45 6000 4.6 180 08:58 11.12.2019
2827 Clouds 16 1015 48 6000 4.6 170 08:39 11.12.2019
2828 Clouds 16 1015 48 6000 4.6 170 08:19 11.12.2019
2829 Clouds 16 1015 48 6000 4.6 170 08:19 11.12.2019
2830 Clouds 16 1014 48 6000 4.6 170 07:58 11.12.2019
2831 Clouds 16 1014 48 6000 4.6 170 07:39 11.12.2019
2832 Clouds 16 1014 48 6000 4.6 170 07:21 11.12.2019
2833 Clouds 15 1014 51 6000 4.1 160 06:44 11.12.2019
2834 Clouds 15 1014 51 6000 4.6 160 06:22 11.12.2019
2835 Clouds 15 1014 51 6000 4.6 150 05:45 11.12.2019
2836 Clouds 15 1014 51 6000 4.6 150 05:27 11.12.2019
2837 Clouds 15 1013 51 6000 4.6 170 04:41 11.12.2019
2838 Clouds 16 1013 48 6000 5.1 190 02:49 11.12.2019
2839 Clouds 17 1013 45 10000 4.6 190 01:26 11.12.2019
2840 Clouds 17 1013 45 10000 4.6 170 00:49 11.12.2019
2841 Clouds 17 1013 45 10000 3.1 190 00:23 11.12.2019
2842 Clouds 17 1013 42 10000 2.1 190 23:59 10.12.2019
2843 Clouds 18 1013 42 10000 4.6 160 23:40 10.12.2019
2844 Clear 18 1013 42 10000 4.6 160 23:21 10.12.2019
2845 Clear 18 1013 42 10000 5.7 150 22:41 10.12.2019
2846 Clear 18 1013 42 10000 5.7 150 22:22 10.12.2019
2847 Clear 18 1013 48 10000 2.6 150 21:57 10.12.2019
2848 Clear 18 1013 48 10000 2.6 150 21:39 10.12.2019
2849 Clear 18 1013 48 10000 2.6 150 21:21 10.12.2019
2850 Clear 18 1013 48 10000 3.1 120 20:57 10.12.2019
2851 Clear 18 1013 48 10000 3.1 120 20:38 10.12.2019
2852 Clear 18 1013 48 10000 3.1 120 20:19 10.12.2019
2853 Clear 18 1013 48 10000 3.1 120 20:19 10.12.2019
2854 Clear 18 1013 48 10000 3.1 120 20:19 10.12.2019
2855 Clear 19 1013 45 10000 3.1 140 19:56 10.12.2019
2856 Clear 19 1013 45 10000 3.1 140 19:37 10.12.2019
2857 Clear 19 1013 45 10000 3.1 140 19:19 10.12.2019
2858 Clear 19 1013 45 10000 2.1 160 18:55 10.12.2019
2859 Clear 19 1013 45 10000 2.1 200 18:36 10.12.2019
2860 Clear 19 1013 45 10000 2.1 200 18:18 10.12.2019
2861 Clear 20 1013 42 10000 3.6 220 17:41 10.12.2019
2862 Clear 20 1013 42 10000 3.6 220 17:22 10.12.2019
2863 Clear 21 1012 40 10000 4.1 230 16:57 10.12.2019
2864 Clear 21 1012 35 10000 4.1 190 16:39 10.12.2019
2865 Clear 22 1012 35 10000 4.1 190 16:19 10.12.2019
2866 Clear 22 1012 35 10000 4.1 190 16:19 10.12.2019
2867 Clear 22 1012 37 10000 5.1 190 15:39 10.12.2019
2868 Clear 23 1011 35 10000 5.7 170 15:18 10.12.2019
2869 Clear 22 1011 37 10000 6.2 170 14:56 10.12.2019
2870 Clear 22 1011 37 10000 6.2 170 14:38 10.12.2019
2871 Clouds 23 1012 38 10000 6.7 190 14:20 10.12.2019
2872 Clouds 22 1012 40 10000 7.7 200 13:58 10.12.2019
2873 Clouds 22 1012 40 10000 7.7 200 13:40 10.12.2019
2874 Clouds 23 1012 40 10000 6.7 190 13:20 10.12.2019
2875 Clouds 23 1012 40 10000 6.7 190 13:20 10.12.2019
2876 Clouds 24 1012 38 10000 6.2 200 12:49 10.12.2019
2877 Clouds 23 1012 40 10000 5.7 190 12:28 10.12.2019
2878 -273 0 0 0 0 0 11:59 10.12.2019
2879 Clouds 23 1013 40 10000 6.7 180 11:40 10.12.2019
2880 Clouds 23 1014 40 10000 5.7 200 11:21 10.12.2019
2881 Clouds 21 1015 43 10000 5.1 200 10:44 10.12.2019
2882 Clouds 21 1015 43 10000 6.2 190 10:25 10.12.2019
2883 Clouds 21 1015 43 10000 5.1 180 09:58 10.12.2019
2884 Clouds 21 1015 43 10000 5.1 180 09:40 10.12.2019
2885 Clouds 20 1015 45 10000 6.2 180 09:22 10.12.2019
2886 Clouds 20 1015 45 10000 6.2 180 09:22 10.12.2019
2887 Clouds 20 1015 45 10000 5.7 170 08:59 10.12.2019
2888 Clouds 20 1015 45 10000 5.7 170 08:40 10.12.2019
2889 Clouds 19 1015 48 10000 3.6 150 08:22 10.12.2019
2890 Clouds 18 1015 52 6000 4.6 150 07:57 10.12.2019
2891 Clouds 18 1015 52 6000 4.6 150 07:39 10.12.2019
2892 Clouds 17 1015 59 6000 4.1 140 07:20 10.12.2019
2893 Clouds 17 1015 59 6000 4.1 150 06:46 10.12.2019
2894 Clouds 16 1014 59 6000 4.1 150 06:19 10.12.2019
2895 Clouds 16 1014 59 6000 4.1 150 06:19 10.12.2019
2896 Clouds 16 1015 63 6000 3.6 150 05:52 10.12.2019
2897 Clouds 15 1015 62 6000 3.1 160 04:51 10.12.2019
2898 Clouds 15 1015 67 10000 3.1 160 03:32 10.12.2019
2899 Clouds 15 1015 67 10000 3.1 160 02:40 10.12.2019
2900 Clouds 16 1015 63 10000 3.1 150 01:44 10.12.2019
2901 Clouds 16 1015 63 10000 2.1 210 01:20 10.12.2019
2902 Clouds 17 1015 63 10000 1.69 162 00:41 10.12.2019
2903 Clouds 17 1014 63 10000 2.1 30 00:20 10.12.2019
2904 Clouds 17 1014 63 10000 2.1 80 23:41 09.12.2019
2905 Clouds 18 1015 63 10000 2.1 120 23:22 09.12.2019
2906 Clouds 17 1015 59 10000 1.5 100 22:58 09.12.2019
2907 Clouds 17 1015 59 10000 1.5 100 22:39 09.12.2019
2908 Clouds 18 1016 59 10000 1.5 110 22:19 09.12.2019
2909 Clouds 18 1016 59 10000 1 90 21:56 09.12.2019
2910 Clouds 18 1016 59 10000 1 90 21:38 09.12.2019
2911 Clouds 18 1016 55 10000 1.5 42 21:19 09.12.2019
2912 Clouds 19 1016 55 10000 1.5 360 20:56 09.12.2019
2913 Clouds 18 1016 55 10000 0.5 30 20:38 09.12.2019
2914 Clouds 18 1016 55 10000 0.5 30 20:20 09.12.2019
2915 Clouds 19 1016 55 10000 2.1 10 19:55 09.12.2019
2916 Clouds 19 1016 59 10000 2.1 20 19:37 09.12.2019
2917 Clouds 19 1016 59 10000 2.1 20 19:19 09.12.2019
2918 Clouds 19 1016 59 10000 2.6 360 18:56 09.12.2019
2919 Clouds 19 1016 59 10000 2.6 360 18:38 09.12.2019
2920 Clouds 20 1016 60 10000 3.1 330 18:19 09.12.2019
2921 Clouds 20 1015 56 10000 4.1 310 17:57 09.12.2019
2922 Clouds 20 1015 52 10000 4.1 290 17:39 09.12.2019
2923 Clouds 20 1015 52 10000 4.1 290 17:20 09.12.2019
2924 Clouds 21 1015 43 10000 5.1 260 16:56 09.12.2019
2925 Clouds 21 1015 43 10000 5.1 250 16:37 09.12.2019
2926 Clouds 21 1015 43 10000 5.1 250 16:19 09.12.2019
2927 Clouds 21 1015 43 10000 5.1 250 15:55 09.12.2019
2928 Clouds 21 1015 43 10000 5.1 250 15:37 09.12.2019
2929 Clouds 21 1014 43 10000 5.7 230 15:19 09.12.2019
2930 Clouds 22 1014 40 10000 5.7 250 14:55 09.12.2019
2931 Clouds 22 1014 40 10000 4.6 240 14:37 09.12.2019
2932 Clouds 22 1014 40 10000 4.6 240 14:18 09.12.2019
2933 Clouds 22 1014 40 10000 6.2 250 13:39 09.12.2019
2934 Clouds 22 1014 43 10000 6.7 320 13:20 09.12.2019
2935 Clouds 22 1014 43 10000 5.7 230 12:58 09.12.2019
2936 Clouds 22 1014 43 10000 5.7 230 12:39 09.12.2019
2937 Clouds 22 1015 53 10000 6.2 220 12:21 09.12.2019
2938 Clouds 22 1015 53 6000 7.7 240 11:59 09.12.2019
2939 Clouds 22 1015 53 6000 7.7 240 11:39 09.12.2019
2940 Clouds 22 1015 53 6000 7.7 240 11:39 09.12.2019
2941 Clouds 21 1016 56 6000 6.2 220 11:21 09.12.2019
2942 Clouds 21 1016 56 6000 5.1 220 10:56 09.12.2019
2943 Clouds 20 1016 60 6000 6.2 210 10:38 09.12.2019
2944 Clouds 20 1016 60 6000 6.2 210 10:18 09.12.2019
2945 Sand 20 1016 60 4000 5.7 210 09:41 09.12.2019
2946 Sand 19 1017 59 4000 6.2 200 09:23 09.12.2019
2947 Sand 19 1017 63 4000 5.7 200 08:55 09.12.2019
2948 Sand 18 1017 63 3000 5.7 190 08:37 09.12.2019
2949 Sand 18 1017 63 3000 5.7 190 08:19 09.12.2019
2950 Sand 17 1016 67 3000 6.2 180 07:44 09.12.2019
2951 Haze 16 1016 72 2000 4.6 180 07:25 09.12.2019
2952 Haze 16 1016 72 2000 4.6 170 06:55 09.12.2019
2953 Haze 16 1016 72 2000 4.6 170 06:28 09.12.2019
2954 Haze 16 1015 77 2000 4.6 180 05:30 09.12.2019
2955 Haze 16 1015 77 3000 4.6 180 04:54 09.12.2019
2956 Haze 17 1016 72 3000 3.6 180 04:23 09.12.2019
2957 Clouds 17 1016 77 10000 3.6 210 02:27 09.12.2019
2958 Clouds 17 1016 77 10000 2.1 220 01:45 09.12.2019
2959 Clouds 18 1016 72 10000 3.6 240 00:55 09.12.2019
2960 Clouds 18 1016 72 10000 3.6 240 00:32 09.12.2019
2961 Clouds 18 1016 68 10000 4.1 260 23:54 08.12.2019
2962 Clouds 19 1016 63 10000 5.1 260 23:36 08.12.2019
2963 Clouds 19 1016 63 10000 5.1 260 23:18 08.12.2019
2964 Clouds 19 1016 63 10000 4.6 270 22:56 08.12.2019
2965 Clouds 19 1016 63 10000 4.6 270 22:37 08.12.2019
2966 Clouds 19 1017 63 10000 5.7 260 22:18 08.12.2019
2967 Clouds 19 1017 59 10000 4.1 290 21:55 08.12.2019
2968 Clouds 20 1017 56 10000 4.1 220 21:36 08.12.2019
2969 Clouds 20 1017 56 10000 4.1 220 21:18 08.12.2019
2970 Clouds 20 1017 56 10000 4.1 240 20:54 08.12.2019
2971 Clouds 20 1017 56 10000 4.1 240 20:36 08.12.2019
2972 Clouds 20 1017 52 10000 4.1 260 20:18 08.12.2019
2973 Clouds 20 1017 49 10000 4.6 240 19:54 08.12.2019
2974 Clouds 20 1017 45 10000 4.6 230 19:36 08.12.2019
2975 Clouds 20 1017 45 10000 4.6 230 19:18 08.12.2019
2976 Clouds 21 1017 43 10000 3.6 250 18:54 08.12.2019
2977 Clouds 21 1017 40 10000 4.1 250 18:36 08.12.2019
2978 Clouds 21 1017 40 10000 4.1 250 18:18 08.12.2019
2979 Clouds 21 1017 40 10000 4.6 250 17:54 08.12.2019
2980 Clouds 21 1016 43 10000 5.1 240 17:36 08.12.2019
2981 Clouds 21 1016 43 10000 5.1 240 17:18 08.12.2019
2982 Clouds 21 1016 43 10000 5.7 260 16:42 08.12.2019
2983 Clouds 22 1016 43 10000 7.2 260 16:23 08.12.2019
2984 Clouds 22 1016 49 10000 7.2 270 15:58 08.12.2019
2985 Clouds 22 1016 53 10000 5.7 260 15:37 08.12.2019
2986 Clouds 22 1016 53 10000 5.7 260 15:18 08.12.2019
2987 Clouds 22 1015 49 10000 5.7 270 14:46 08.12.2019
2988 Clouds 22 1015 53 10000 5.1 250 14:25 08.12.2019
2989 Clouds 23 1016 49 10000 6.7 240 13:59 08.12.2019
2990 Clouds 23 1016 49 10000 6.7 240 13:41 08.12.2019
2991 Clouds 23 1016 46 10000 6.2 220 13:22 08.12.2019
2992 Clouds 22 1016 56 6000 5.7 210 12:59 08.12.2019
2993 Clouds 22 1016 53 6000 6.7 220 12:40 08.12.2019
2994 Clouds 22 1016 53 6000 6.7 220 12:19 08.12.2019
2995 Clouds 22 1016 53 6000 6.7 220 12:19 08.12.2019
2996 Clouds 22 1017 53 6000 6.7 200 11:58 08.12.2019
2997 Clouds 22 1017 53 6000 6.7 200 11:37 08.12.2019
2998 Clouds 21 1017 56 6000 6.2 210 11:19 08.12.2019
2999 Sand 20 1019 60 4000 5.7 220 10:57 08.12.2019
3000 Sand 20 1019 60 4000 5.7 220 10:38 08.12.2019
3001 Sand 20 1019 60 4000 5.7 220 10:19 08.12.2019
3002 Clouds 19 1019 59 6000 5.7 200 09:55 08.12.2019
3003 Clouds 19 1019 59 6000 5.7 200 09:36 08.12.2019
3004 Clouds 19 1019 59 6000 5.7 200 09:18 08.12.2019
3005 Clouds 19 1019 59 6000 5.1 190 08:42 08.12.2019
3006 Clouds 19 1019 59 10000 5.1 190 08:23 08.12.2019
3007 Clouds 17 1019 63 10000 3.1 200 07:57 08.12.2019
3008 Clouds 17 1019 63 10000 3.1 200 07:39 08.12.2019
3009 Clouds 17 1019 63 10000 3.1 200 07:18 08.12.2019
3010 Clouds 16 1018 67 10000 3.6 180 06:41 08.12.2019
3011 Clouds 16 1018 67 10000 3.6 180 06:21 08.12.2019
3012 Clouds 16 1018 63 10000 2.6 200 05:27 08.12.2019
3013 Clouds 17 1018 63 10000 2.6 200 04:54 08.12.2019
3014 Clouds 16 1018 67 10000 1.5 220 03:41 08.12.2019
3015 Clouds 16 1018 63 10000 2.1 180 02:52 08.12.2019
3016 Clouds 16 1018 63 10000 2.1 180 02:27 08.12.2019
3017 Clear 16 1018 63 10000 1.5 200 01:48 08.12.2019
3018 Clear 16 1019 63 10000 1.5 190 00:56 08.12.2019
3019 Clear 15 1019 67 10000 1 190 00:38 08.12.2019
3020 Clear 15 1019 67 10000 1 190 00:19 08.12.2019
3021 Clear 16 1019 63 10000 1.5 170 23:40 07.12.2019
3022 Clear 16 1019 63 10000 1.5 170 23:40 07.12.2019
3023 Clear 16 1019 63 10000 2.1 160 23:20 07.12.2019
3024 Clear 17 1020 63 10000 2.29 330 22:56 07.12.2019
3025 Clear 17 1020 63 10000 2.29 330 22:38 07.12.2019
3026 Clear 17 1020 63 10000 1.5 290 22:19 07.12.2019
3027 Clear 17 1020 63 10000 1.5 290 22:19 07.12.2019
3028 Clouds 18 1020 59 10000 1.5 310 21:56 07.12.2019
3029 Clouds 18 1020 59 10000 1.5 310 21:38 07.12.2019
3030 Clouds 18 1020 59 10000 3.1 310 21:19 07.12.2019
3031 Clouds 18 1020 59 10000 2.6 320 20:54 07.12.2019
3032 Clouds 18 1020 59 10000 3.6 310 20:36 07.12.2019
3033 Clouds 18 1020 59 10000 3.6 310 20:18 07.12.2019
3034 Clouds 18 1020 59 6000 3.6 320 19:55 07.12.2019
3035 Clouds 18 1020 59 6000 3.6 320 19:36 07.12.2019
3036 Clouds 19 1020 55 6000 4.1 320 19:18 07.12.2019
3037 Clouds 19 1020 55 6000 4.1 310 18:43 07.12.2019
3038 Clouds 20 1020 52 6000 2.6 320 18:19 07.12.2019
3039 Clouds 20 1019 49 6000 2.1 320 17:57 07.12.2019
3040 Clouds 20 1019 49 6000 2.1 320 17:39 07.12.2019
3041 Clouds 20 1019 49 10000 2.6 330 17:20 07.12.2019
3042 Clouds 20 1019 49 10000 2.1 320 16:56 07.12.2019
3043 Clouds 21 1019 43 10000 2.6 300 16:37 07.12.2019
3044 Clouds 21 1019 43 10000 2.6 300 16:19 07.12.2019
3045 Clouds 21 1019 46 10000 2.1 310 15:42 07.12.2019
3046 Clouds 21 1019 46 10000 2.6 280 15:23 07.12.2019
3047 Clouds 21 1019 46 10000 2.1 270 14:57 07.12.2019
3048 Clouds 21 1019 43 10000 3.6 310 14:39 07.12.2019
3049 Clouds 21 1019 43 10000 3.6 310 14:18 07.12.2019
3050 Clouds 22 1018 40 10000 3.6 270 13:41 07.12.2019
3051 Clouds 22 1018 40 10000 3.6 270 13:41 07.12.2019
3052 Clouds 22 1018 40 10000 3.1 320 13:21 07.12.2019
3053 Clouds 22 1018 40 10000 3.6 280 12:59 07.12.2019
3054 Clouds 22 1018 40 10000 3.6 280 12:40 07.12.2019
3055 Clouds 21 1019 43 10000 4.1 300 12:22 07.12.2019
3056 Clouds 21 1019 43 10000 2.1 360 11:58 07.12.2019
3057 Clouds 21 1019 43 10000 2.1 360 11:39 07.12.2019
3058 Clouds 20 1020 49 10000 3.6 320 11:21 07.12.2019
3059 Clouds 20 1020 45 10000 3.1 330 10:38 07.12.2019
3060 Clouds 20 1020 45 10000 3.1 330 10:19 07.12.2019
3061 Clouds 19 1021 52 10000 4.1 330 09:56 07.12.2019
3062 Clouds 19 1021 52 10000 4.1 330 09:36 07.12.2019
3063 Clouds 19 1021 52 10000 4.1 330 09:18 07.12.2019
3064 Clouds 18 1021 55 10000 2.1 280 08:40 07.12.2019
3065 Clouds 18 1021 55 10000 2.1 280 08:21 07.12.2019
3066 Clouds 17 1021 63 10000 1.5 240 07:45 07.12.2019
3067 Clouds 16 1021 67 10000 3.92 341 07:26 07.12.2019
3068 Clouds 16 1021 67 10000 2.1 210 06:50 07.12.2019
3069 Clouds 16 1020 67 10000 2.1 210 06:25 07.12.2019
3070 Clouds 15 1020 67 10000 2.1 230 05:30 07.12.2019
3071 Clouds 16 1020 72 10000 1 300 03:59 07.12.2019
3072 Clouds 16 1020 72 10000 1 300 03:40 07.12.2019
3073 Clouds 16 1020 72 10000 2.1 320 02:21 07.12.2019
3074 Clouds 16 1020 67 10000 4.1 310 01:34 07.12.2019
3075 Clouds 16 1020 67 10000 4.1 310 01:34 07.12.2019
3076 Clouds 17 1020 67 10000 2.6 320 00:53 07.12.2019
3077 Clouds 17 1020 67 10000 2.6 320 00:20 07.12.2019
3078 Clouds 17 1020 67 10000 3.6 320 23:56 06.12.2019
3079 Clouds 17 1020 67 10000 3.6 320 23:38 06.12.2019
3080 Clouds 18 1021 63 10000 4.1 300 23:18 06.12.2019
3081 Clouds 18 1021 63 10000 3.1 300 22:38 06.12.2019
3082 Clouds 18 1021 63 10000 3.1 300 22:20 06.12.2019
3083 Clouds 18 1021 68 10000 2.6 320 21:58 06.12.2019
3084 Clouds 18 1021 68 10000 2.6 320 21:39 06.12.2019
3085 Clouds 18 1021 68 10000 2.6 320 21:39 06.12.2019
3086 Clouds 18 1021 68 10000 2.6 320 21:20 06.12.2019
3087 Clouds 18 1021 68 10000 3.6 330 20:43 06.12.2019
3088 Clouds 18 1021 68 10000 3.6 330 20:25 06.12.2019
3089 Clouds 18 1021 68 10000 4.1 300 19:59 06.12.2019
3090 Clouds 18 1021 68 10000 4.1 300 19:40 06.12.2019
3091 Clouds 18 1021 68 10000 4.1 300 19:22 06.12.2019
3092 Clouds 18 1021 68 10000 4.1 300 19:22 06.12.2019
3093 Clouds 18 1021 68 10000 4.1 300 19:22 06.12.2019
3094 Clouds 18 1021 68 10000 4.6 310 18:57 06.12.2019
3095 Clouds 18 1021 68 10000 4.6 310 18:39 06.12.2019
3096 Clouds 19 1021 63 10000 4.6 310 18:19 06.12.2019
3097 Clouds 19 1021 63 10000 4.6 310 18:19 06.12.2019
3098 Clouds 19 1021 63 10000 5.1 320 17:56 06.12.2019
3099 Clouds 19 1021 63 10000 5.1 320 17:56 06.12.2019
3100 Clouds 19 1021 63 10000 5.1 320 17:38 06.12.2019
3101 Clouds 19 1021 63 10000 5.1 320 17:19 06.12.2019
3102 Clouds 19 1021 63 10000 5.1 320 17:19 06.12.2019
3103 Clouds 20 1020 60 10000 6.2 300 16:43 06.12.2019
3104 Clouds 20 1020 60 10000 6.2 300 16:25 06.12.2019
3105 Clouds 20 1020 56 10000 6.7 290 15:59 06.12.2019
3106 Clouds 20 1020 56 10000 6.7 290 15:40 06.12.2019
3107 Clouds 20 1020 56 10000 6.7 290 15:19 06.12.2019
3108 Clouds 20 1020 52 6000 5.1 300 14:57 06.12.2019
3109 Clouds 20 1020 52 6000 5.1 300 14:39 06.12.2019
3110 Clouds 20 1020 52 6000 5.7 310 14:19 06.12.2019
3111 Clouds 21 1020 52 6000 5.7 300 13:44 06.12.2019
3112 Clouds 21 1020 52 6000 5.7 300 13:26 06.12.2019
3113 Clouds 21 1020 52 6000 5.7 290 12:44 06.12.2019
3114 Clouds 21 1020 52 6000 5.7 290 12:23 06.12.2019
3115 Clouds 20 1021 60 6000 4.1 320 11:58 06.12.2019
3116 Clouds 20 1021 60 6000 4.1 320 11:40 06.12.2019
3117 Clouds 20 1021 60 6000 4.1 320 11:22 06.12.2019
3118 Clouds 20 1021 56 6000 5.1 310 10:54 06.12.2019
3119 Clouds 20 1022 60 6000 4.6 320 10:36 06.12.2019
3120 Clouds 20 1022 60 6000 4.6 320 10:18 06.12.2019
3121 Clouds 20 1022 60 6000 5.1 300 09:54 06.12.2019
3122 Clouds 19 1022 63 6000 4.6 310 09:36 06.12.2019
3123 Clouds 19 1022 63 6000 4.6 310 09:18 06.12.2019
3124 Clouds 19 1022 63 6000 4.1 320 08:40 06.12.2019
3125 Clouds 19 1022 59 6000 2.6 350 08:21 06.12.2019
3126 Clouds 19 1022 63 6000 3.6 320 07:38 06.12.2019
3127 Clouds 18 1022 72 6000 3.6 320 07:20 06.12.2019
3128 Haze 18 1021 72 4000 3.6 320 06:31 06.12.2019
3129 Haze 18 1021 72 4000 3.6 320 06:31 06.12.2019
3130 Haze 18 1021 72 4000 3.6 320 05:57 06.12.2019
3131 Haze 18 1021 72 4000 2.6 310 05:38 06.12.2019
3132 Haze 18 1020 77 4000 3.1 320 02:20 06.12.2019
3133 Haze 18 1020 77 4000 3.6 330 01:43 06.12.2019
3134 Haze 18 1021 77 4000 3.1 320 00:49 06.12.2019
3135 Haze 18 1020 82 4000 3.1 320 00:22 06.12.2019
3136 Haze 18 1020 82 4000 2.1 310 23:51 05.12.2019
3137 Haze 18 1020 82 4000 2.1 310 23:51 05.12.2019
3138 Haze 18 1021 82 4000 3.1 330 23:20 05.12.2019
3139 Haze 18 1021 82 4000 3.1 330 22:58 05.12.2019
3140 Haze 18 1021 82 4000 3.1 330 22:39 05.12.2019
3141 Haze 19 1021 77 4000 3.1 350 22:19 05.12.2019
3142 Clear 19 1021 77 6000 3.1 350 21:56 05.12.2019
3143 Clear 19 1021 77 6000 4.1 340 21:37 05.12.2019
3144 Clear 19 1021 77 6000 4.1 340 21:19 05.12.2019
3145 Clear 19 1021 77 6000 3.6 350 20:56 05.12.2019
3146 Clear 19 1021 77 6000 3.6 350 20:56 05.12.2019
3147 Clear 20 1021 72 6000 4.6 350 20:37 05.12.2019
3148 Clear 20 1021 72 6000 4.6 350 20:18 05.12.2019
3149 Clear 21 1020 64 6000 1.5 320 19:40 05.12.2019
3150 Clear 21 1020 64 6000 1.5 320 19:22 05.12.2019
3151 Clear 21 1020 60 6000 1.5 310 18:58 05.12.2019
3152 Clear 21 1020 60 6000 1.5 320 18:38 05.12.2019
3153 Clear 21 1020 60 6000 1.5 320 18:20 05.12.2019
3154 Clear 21 1020 64 10000 2.1 320 17:55 05.12.2019
3155 Clear 21 1020 64 10000 2.6 320 17:36 05.12.2019
3156 Clear 21 1020 64 10000 2.6 320 17:18 05.12.2019
3157 Clear 22 1019 56 10000 3.6 350 16:40 05.12.2019
3158 Clear 22 1019 56 10000 3.6 350 16:22 05.12.2019
3159 Clouds 22 1019 56 10000 3.6 350 15:58 05.12.2019
3160 Clouds 22 1019 56 10000 3.1 340 15:40 05.12.2019
3161 Clouds 22 1019 56 10000 3.1 340 15:20 05.12.2019
3162 Clouds 22 1019 56 10000 2.6 340 14:56 05.12.2019
3163 Clouds 23 1019 53 10000 3.6 360 14:38 05.12.2019
3164 Clouds 23 1019 53 10000 3.6 360 14:20 05.12.2019
3165 Clouds 23 1019 53 10000 4.1 340 13:58 05.12.2019
3166 Clouds 23 1019 53 10000 3.1 330 13:40 05.12.2019
3167 Clouds 23 1019 53 10000 3.1 330 13:21 05.12.2019
3168 Clouds 23 1019 53 10000 3.6 340 12:59 05.12.2019
3169 Clouds 22 1019 56 10000 3.6 350 12:40 05.12.2019
3170 Clouds 22 1019 56 10000 3.6 350 12:21 05.12.2019
3171 Clear 23 1020 53 10000 3.1 340 11:41 05.12.2019
3172 -273 0 0 0 0 0 11:23 05.12.2019
3173 Clear 21 1020 60 10000 4.1 10 10:59 05.12.2019
3174 Clear 21 1020 60 10000 4.1 10 10:41 05.12.2019
3175 Clear 21 1020 60 10000 4.1 10 10:19 05.12.2019
3176 Clear 20 1021 64 10000 2.6 60 09:57 05.12.2019
3177 Clear 20 1021 64 10000 2.6 60 09:39 05.12.2019
3178 Clear 20 1021 64 10000 2.6 60 09:20 05.12.2019
3179 Clear 18 1021 68 10000 4.35 47 08:57 05.12.2019
3180 Clear 18 1021 68 10000 4.35 47 08:37 05.12.2019
3181 Clouds 18 1021 68 10000 3.9 80 08:19 05.12.2019
3182 Clouds 18 1021 68 10000 3.9 80 08:19 05.12.2019
3183 Clouds 16 1020 72 10000 1 20 07:41 05.12.2019
3184 Clouds 16 1020 72 10000 1 20 07:23 05.12.2019
3185 Clouds 15 1020 77 10000 2.6 50 06:48 05.12.2019
3186 Clouds 15 1020 77 10000 2.6 50 06:24 05.12.2019
3187 Clouds 14 1019 82 10000 1.5 60 05:58 05.12.2019
3188 Clouds 14 1019 82 10000 1.5 60 05:38 05.12.2019
3189 Clouds 14 1019 77 10000 4.56 68 05:18 05.12.2019
3190 Clouds 15 1019 72 10000 4.56 68 03:41 05.12.2019
3191 Clouds 15 1019 72 10000 4.6 80 02:42 05.12.2019
3192 Clear 15 1019 72 10000 4.6 80 02:23 05.12.2019
3193 Clear 15 1019 72 10000 4.6 80 01:51 05.12.2019
3194 Clear 15 1019 72 10000 4.6 80 01:51 05.12.2019
3195 Clear 15 1020 72 10000 1.5 70 01:24 05.12.2019
3196 Clear 15 1019 72 10000 4.1 80 00:46 05.12.2019
3197 Clear 16 1019 67 10000 4.1 80 00:22 05.12.2019
3198 Clear 15 1019 67 10000 4.1 80 23:56 04.12.2019
3199 Clear 15 1019 67 10000 4.1 80 23:37 04.12.2019
3200 Clear 15 1019 67 10000 4.1 80 23:18 04.12.2019
3201 Clear 17 1020 63 10000 4.26 70 22:39 04.12.2019
3202 Clear 17 1020 63 10000 4.26 70 22:20 04.12.2019
3203 Clear 17 1020 63 10000 4.1 80 21:58 04.12.2019
3204 Clear 17 1019 63 10000 3.6 90 21:39 04.12.2019
3205 Clear 17 1019 63 10000 3.6 90 21:20 04.12.2019
3206 Clear 17 1020 67 10000 2.6 80 20:58 04.12.2019
3207 Clear 17 1020 63 10000 2.1 60 20:40 04.12.2019
3208 Clear 17 1020 63 10000 2.1 60 20:40 04.12.2019
3209 Clear 18 1020 63 10000 2.1 60 20:22 04.12.2019
3210 Clear 18 1019 63 10000 2.6 60 19:59 04.12.2019
3211 Clear 19 1019 56 10000 3.1 50 19:38 04.12.2019
3212 Clear 20 1019 56 10000 3.1 50 19:20 04.12.2019
3213 Clear 20 1019 56 10000 4.1 20 18:57 04.12.2019
3214 Clear 20 1019 56 10000 2.6 10 18:39 04.12.2019
3215 Clear 20 1019 56 10000 2.6 10 18:20 04.12.2019
3216 Clear 21 1018 52 10000 3.6 20 17:40 04.12.2019
3217 Clear 21 1018 52 10000 3.6 20 17:21 04.12.2019
3218 Clear 21 1018 49 10000 5.1 40 16:59 04.12.2019
3219 Clear 21 1018 49 10000 5.1 40 16:40 04.12.2019
3220 Clear 21 1018 49 10000 5.1 40 16:20 04.12.2019
3221 Clouds 22 1017 46 10000 5.7 20 15:55 04.12.2019
3222 Clouds 22 1017 46 10000 5.7 20 15:37 04.12.2019
3223 Clouds 22 1017 46 10000 5.7 20 15:19 04.12.2019
3224 Clouds 22 1017 46 10000 5.7 20 15:19 04.12.2019
3225 Clouds 22 1017 46 10000 5.7 20 14:44 04.12.2019
3226 Clouds 22 1017 46 10000 5.7 20 14:24 04.12.2019
3227 Clouds 22 1017 43 10000 6.2 20 13:59 04.12.2019
3228 Clouds 22 1018 46 10000 5.7 360 13:38 04.12.2019
3229 Clouds 22 1018 46 10000 5.7 360 13:20 04.12.2019
3230 Clouds 21 1018 46 10000 4.6 360 12:45 04.12.2019
3231 Clouds 21 1018 46 10000 4.6 360 12:25 04.12.2019
3232 Clouds 21 1019 46 10000 4.6 360 11:57 04.12.2019
3233 Clouds 21 1019 46 10000 4.6 360 11:39 04.12.2019
3234 Clouds 21 1019 46 10000 4.6 360 11:21 04.12.2019
3235 Clouds 21 1019 46 10000 4.6 360 11:21 04.12.2019
3236 Clouds 21 1020 49 6000 4.1 10 10:44 04.12.2019
3237 Clouds 21 1020 49 6000 4.1 10 10:44 04.12.2019
3238 Clouds 21 1020 49 6000 4.1 10 10:24 04.12.2019
3239 Clouds 21 1020 49 6000 4.1 10 10:24 04.12.2019
3240 Haze 21 1020 49 4000 4.1 360 09:57 04.12.2019
3241 Haze 20 1021 52 4000 4.1 360 09:39 04.12.2019
3242 Haze 20 1021 52 4000 4.1 360 09:20 04.12.2019
3243 Haze 18 1020 59 3000 4.96 29 08:42 04.12.2019
3244 Haze 18 1020 59 3000 2.85 44 08:23 04.12.2019
3245 Haze 17 1020 63 3000 1.5 70 07:51 04.12.2019
3246 Haze 15 1020 63 3000 2.85 44 07:30 04.12.2019
3247 Haze 15 1020 67 3000 2.85 44 06:51 04.12.2019
3248 Haze 15 1020 67 3000 2.85 44 06:31 04.12.2019
3249 Haze 15 1019 67 3000 2.85 44 05:43 04.12.2019
3250 Haze 15 1019 67 3000 2.85 44 05:43 04.12.2019
3251 Haze 15 1019 62 3000 2.36 36 04:33 04.12.2019
3252 Haze 16 1019 63 3000 1 360 03:25 04.12.2019
3253 Haze 17 1019 59 4000 2.53 41 01:25 04.12.2019
3254 Haze 17 1019 59 3000 1.5 350 00:40 04.12.2019
3255 Haze 17 1019 59 3000 1.5 350 00:20 04.12.2019
3256 Clouds 18 1020 55 6000 1.5 350 23:41 03.12.2019
3257 Clouds 18 1020 55 6000 1.5 350 23:20 03.12.2019
3258 Clouds 18 1020 55 6000 2.1 360 22:57 03.12.2019
3259 Clouds 18 1020 55 6000 2.1 360 22:38 03.12.2019
3260 Clouds 18 1020 55 6000 2.1 360 22:18 03.12.2019
3261 Clouds 19 1020 52 6000 3.1 360 21:56 03.12.2019
3262 Clouds 19 1020 52 10000 3.1 360 21:37 03.12.2019
3263 Clouds 19 1020 52 10000 3.1 360 21:18 03.12.2019
3264 Clouds 19 1020 52 10000 2.6 350 20:41 03.12.2019
3265 Clouds 19 1020 52 10000 2.6 350 20:20 03.12.2019
3266 Clouds 19 1020 52 10000 4.1 350 19:57 03.12.2019
3267 Clouds 20 1020 52 10000 4.1 350 19:38 03.12.2019
3268 Clouds 20 1020 52 10000 4.1 350 19:20 03.12.2019
3269 Clouds 20 1019 52 10000 3.6 360 18:59 03.12.2019
3270 Clouds 20 1019 52 10000 3.6 360 18:41 03.12.2019
3271 Clouds 20 1019 52 10000 3.6 360 18:21 03.12.2019
3272 Clouds 20 1019 52 10000 4.6 10 17:58 03.12.2019
3273 Clouds 20 1019 52 10000 4.6 10 17:58 03.12.2019
3274 Clouds 20 1019 45 10000 4.6 10 17:39 03.12.2019
3275 Clouds 20 1019 45 10000 4.6 10 17:18 03.12.2019
3276 Clouds 20 1019 45 10000 5.1 350 16:58 03.12.2019
3277 Clouds 20 1019 45 10000 4.1 360 16:39 03.12.2019
3278 Clouds 20 1019 45 10000 4.1 360 16:21 03.12.2019
3279 Clouds 21 1018 46 10000 5.1 340 15:58 03.12.2019
3280 Clouds 21 1018 46 10000 5.1 340 15:38 03.12.2019
3281 Clouds 21 1018 46 10000 5.1 340 15:19 03.12.2019
3282 Clouds 21 1018 40 10000 5.1 360 14:44 03.12.2019
3283 Clouds 22 1018 40 10000 5.1 360 14:21 03.12.2019
3284 Clouds 21 1018 43 10000 5.1 330 13:59 03.12.2019
3285 Clouds 21 1018 40 10000 3.1 340 13:38 03.12.2019
3286 Clouds 22 1018 40 10000 3.1 340 13:20 03.12.2019
3287 Clouds 21 1018 43 6000 3.6 10 12:57 03.12.2019
3288 Clouds 21 1018 43 6000 2.1 340 12:37 03.12.2019
3289 Clouds 21 1019 43 6000 3.1 340 12:18 03.12.2019
3290 Clouds 21 1019 43 6000 3.1 340 11:56 03.12.2019
3291 Clouds 21 1019 43 6000 3.1 340 11:37 03.12.2019
3292 Clouds 21 1019 43 6000 3.1 340 11:18 03.12.2019
3293 Clouds 20 1020 45 6000 3.1 350 10:54 03.12.2019
3294 Clouds 20 1021 52 6000 3.6 330 10:36 03.12.2019
3295 Clouds 20 1021 52 6000 3.6 330 10:18 03.12.2019
3296 Clouds 19 1021 55 6000 3.1 330 09:40 03.12.2019
3297 Clouds 19 1021 55 6000 3.1 330 09:22 03.12.2019
3298 Clouds 19 1021 52 6000 2.6 310 08:56 03.12.2019
3299 Clear 17 1020 63 6000 3.77 16 08:38 03.12.2019
3300 Clouds 17 1020 63 6000 1.78 43 08:19 03.12.2019
3301 Clouds 17 1020 63 6000 1.78 43 07:50 03.12.2019
3302 Clouds 15 1021 67 6000 1.78 43 07:24 03.12.2019
3303 Clouds 14 1020 71 6000 1.78 43 06:24 03.12.2019
3304 Clouds 14 1020 71 6000 1.78 43 06:24 03.12.2019
3305 Clouds 14 1020 71 6000 1.78 43 05:59 03.12.2019
3306 Clouds 14 1020 71 6000 1.35 17 04:55 03.12.2019
3307 Clouds 15 1020 67 6000 1.35 17 03:41 03.12.2019
3308 Clouds 15 1020 67 6000 1.35 17 03:20 03.12.2019
3309 Clouds 15 1020 67 6000 1.35 17 03:20 03.12.2019
3310 Clouds 15 1020 67 6000 1.35 17 02:51 03.12.2019
3311 Clouds 15 1020 67 6000 1.35 17 02:31 03.12.2019
3312 Clouds 16 1020 67 6000 2.1 340 01:56 03.12.2019
3313 Clouds 16 1020 67 6000 1.75 6 01:37 03.12.2019
3314 Clouds 16 1020 67 6000 1.5 30 00:59 03.12.2019
3315 Clouds 17 1020 59 6000 0.5 60 00:40 03.12.2019
3316 Clouds 17 1020 59 6000 0.5 60 00:40 03.12.2019
3317 Clouds 17 1020 59 6000 0.5 60 00:21 03.12.2019
3318 Clouds 17 1020 59 6000 2.6 320 23:43 02.12.2019
3319 Clouds 17 1020 59 6000 2.6 320 23:43 02.12.2019
3320 Clouds 17 1020 59 6000 2.6 320 23:21 02.12.2019
3321 Clouds 17 1021 59 6000 3.1 320 22:55 02.12.2019
3322 Clouds 17 1021 55 6000 3.1 350 22:37 02.12.2019
3323 Clouds 18 1021 55 6000 3.1 350 22:19 02.12.2019
3324 Clouds 18 1021 59 6000 3.6 320 21:39 02.12.2019
3325 Clouds 18 1021 59 6000 3.6 320 21:20 02.12.2019
3326 Clouds 18 1020 59 6000 4.6 340 20:57 02.12.2019
3327 Clouds 18 1020 59 6000 4.6 340 20:57 02.12.2019
3328 Clouds 18 1020 59 6000 4.6 340 20:57 02.12.2019
3329 Clouds 19 1020 55 6000 3.6 340 20:39 02.12.2019
3330 Clouds 19 1020 55 6000 3.6 340 20:20 02.12.2019
3331 Clouds 19 1020 52 6000 3.6 340 19:56 02.12.2019
3332 Clouds 19 1020 52 10000 3.1 340 19:38 02.12.2019
3333 Clouds 19 1020 52 10000 3.1 340 19:20 02.12.2019
3334 Clouds 20 1020 49 10000 2.6 350 18:48 02.12.2019
3335 Clouds 20 1020 49 10000 2.6 350 18:48 02.12.2019
3336 Clouds 20 1019 49 10000 2.6 330 18:24 02.12.2019
3337 Clouds 20 1019 49 10000 3.1 320 17:59 02.12.2019
3338 Clouds 20 1019 49 10000 3.1 320 17:59 02.12.2019
3339 Clouds 20 1019 49 10000 3.6 340 17:41 02.12.2019
3340 Clouds 20 1019 49 10000 3.6 340 17:20 02.12.2019
3341 Clouds 20 1019 49 10000 3.6 340 17:20 02.12.2019
3342 Clouds 21 1019 46 10000 3.1 330 16:57 02.12.2019
3343 -273 0 0 0 0 0 16:39 02.12.2019
3344 Clouds 21 1019 43 10000 4.1 330 16:18 02.12.2019
3345 Clouds 21 1019 43 10000 4.1 330 15:56 02.12.2019
3346 Clouds 21 1019 43 10000 3.1 340 15:38 02.12.2019
3347 Clouds 21 1019 43 10000 3.1 340 15:20 02.12.2019
3348 Clouds 22 1018 40 10000 5.1 330 14:55 02.12.2019
3349 Clouds 22 1018 40 10000 3.6 340 14:37 02.12.2019
3350 Clouds 22 1018 40 10000 3.6 340 14:18 02.12.2019
3351 Clouds 22 1018 40 10000 3.6 310 13:54 02.12.2019
3352 Clouds 22 1019 40 10000 5.1 320 13:36 02.12.2019
3353 Clouds 22 1019 40 10000 5.1 320 13:18 02.12.2019
3354 Clouds 22 1018 37 10000 4.1 320 12:41 02.12.2019
3355 Clouds 22 1018 37 10000 4.1 320 12:20 02.12.2019
3356 Clouds 22 1019 37 10000 4.6 320 11:56 02.12.2019
3357 Clouds 22 1019 40 10000 5.7 310 11:37 02.12.2019
3358 Clouds 22 1019 40 10000 5.7 310 11:19 02.12.2019
3359 Clouds 22 1019 40 10000 5.7 310 11:19 02.12.2019
3360 Clouds 22 1019 43 10000 3.6 320 10:56 02.12.2019
3361 Clouds 22 1020 49 10000 5.1 340 10:38 02.12.2019
3362 Clouds 22 1020 49 10000 5.1 340 10:19 02.12.2019
3363 Clouds 20 1020 64 10000 3.6 340 09:42 02.12.2019
3364 Clouds 20 1020 64 10000 3.6 340 09:42 02.12.2019
3365 Clouds 20 1020 64 10000 3.6 340 09:19 02.12.2019
3366 Clear 20 1020 68 6000 4.6 330 08:58 02.12.2019
3367 Clear 20 1020 72 6000 3.1 340 08:40 02.12.2019
3368 Clouds 19 1020 72 6000 3.1 340 08:21 02.12.2019
3369 Mist 18 1020 77 4000 2.1 340 07:45 02.12.2019
3370 Mist 18 1020 77 4000 2.1 340 07:45 02.12.2019
3371 Mist 18 1020 77 4000 2.1 340 07:25 02.12.2019
3372 Mist 17 1019 82 4000 2.1 320 06:59 02.12.2019
3373 Mist 17 1019 82 4000 2.1 320 06:39 02.12.2019
3374 Clouds 17 1019 88 6000 2.1 300 05:42 02.12.2019
3375 Clouds 17 1018 88 6000 1.5 310 04:55 02.12.2019
3376 Clouds 18 1018 82 6000 1 300 03:19 02.12.2019
3377 Clouds 18 1018 82 6000 2.6 290 02:45 02.12.2019
3378 Clouds 19 1018 77 6000 3.1 280 01:45 02.12.2019
3379 Clouds 19 1018 77 6000 3.6 290 01:18 02.12.2019
3380 Clouds 19 1018 77 6000 2.6 250 00:33 02.12.2019
3381 Clouds 20 1018 72 6000 2.6 280 23:57 01.12.2019
3382 Clouds 20 1018 72 6000 2.1 270 23:39 01.12.2019
3383 Clear 20 1018 72 6000 2.1 270 23:20 01.12.2019
3384 Clear 20 1018 68 6000 2.1 240 22:56 01.12.2019
3385 Clear 20 1018 68 6000 2.1 240 22:38 01.12.2019
3386 Clear 20 1018 68 6000 2.1 240 22:18 01.12.2019
3387 Clear 20 1018 68 6000 2.6 270 21:56 01.12.2019
3388 Clear 20 1018 68 6000 2.6 280 21:38 01.12.2019
3389 Clear 20 1018 68 6000 2.6 280 21:19 01.12.2019
3390 Clear 20 1018 68 6000 3.1 300 20:57 01.12.2019
3391 Clear 20 1018 72 6000 3.1 320 20:39 01.12.2019
3392 Clouds 20 1018 72 6000 3.1 320 20:21 01.12.2019
3393 Clouds 21 1018 68 10000 3.1 310 19:55 01.12.2019
3394 Clouds 21 1018 68 10000 4.1 310 19:37 01.12.2019
3395 Clouds 21 1018 68 10000 4.1 310 19:37 01.12.2019
3396 Clouds 21 1018 68 10000 4.1 310 19:19 01.12.2019
3397 Clouds 21 1018 68 10000 3.6 310 18:55 01.12.2019
3398 Clouds 22 1017 64 10000 3.1 320 18:37 01.12.2019
3399 Clouds 22 1017 64 10000 3.1 320 18:18 01.12.2019
3400 Clouds 22 1017 60 10000 3.6 320 17:56 01.12.2019
3401 Clouds 22 1017 64 10000 4.1 320 17:38 01.12.2019
3402 Clouds 22 1017 64 10000 4.1 320 17:19 01.12.2019
3403 Clouds 22 1016 56 10000 4.1 320 16:44 01.12.2019
3404 Clouds 23 1016 56 10000 4.1 320 16:24 01.12.2019
3405 Clouds 23 1016 53 10000 4.1 320 15:58 01.12.2019
3406 Clouds 23 1016 53 10000 4.1 320 15:58 01.12.2019
3407 Clouds 23 1016 44 10000 4.1 330 15:39 01.12.2019
3408 Clouds 23 1016 44 10000 4.1 330 15:39 01.12.2019
3409 Clouds 24 1016 44 10000 4.1 330 15:20 01.12.2019
3410 Clouds 24 1016 44 10000 4.1 300 14:38 01.12.2019
3411 Clouds 24 1016 44 10000 4.1 300 14:19 01.12.2019
3412 Clouds 24 1016 47 10000 2.1 340 13:40 01.12.2019
3413 Clouds 24 1016 47 10000 2.1 340 13:22 01.12.2019
3414 Clouds 23 1016 46 10000 3.1 310 12:58 01.12.2019
3415 Clouds 23 1016 46 0 2.68 310 12:39 01.12.2019
3416 Clouds 23 1016 46 0 2.68 310 12:38 01.12.2019
3417 Clouds 23 1016 46 0 2.68 310 12:38 01.12.2019
3418 Clouds 23 1016 46 0 2.68 310 12:38 01.12.2019
3419 Clouds 23 1016 46 0 2.68 310 12:38 01.12.2019
3420 Clouds 22 1016 53 6000 2.6 290 11:44 01.12.2019
3421 Clear 22 1016 53 6000 2.6 290 11:24 01.12.2019
3422 Clear 22 1017 56 6000 1.5 310 10:57 01.12.2019
3423 Haze 22 1017 56 4000 1.5 310 10:38 01.12.2019
3424 Haze 22 1017 56 4000 1.5 310 10:19 01.12.2019
3425 Mist 21 1017 64 2000 2.53 325 09:41 01.12.2019
3426 Mist 21 1017 64 2000 2.53 325 09:22 01.12.2019
3427 Mist 18 1018 77 2000 2.53 325 08:55 01.12.2019
3428 Mist 18 1018 77 2000 2.53 325 08:55 01.12.2019
3429 Mist 18 1018 77 2000 2.53 325 08:36 01.12.2019
3430 Mist 18 1018 77 2000 1.4 326 08:18 01.12.2019
3431 Mist 18 1017 77 2000 1.3 330 07:43 01.12.2019
3432 Mist 18 1017 77 2000 1.3 330 07:23 01.12.2019
3433 Mist 16 1017 87 2000 1.3 330 06:51 01.12.2019
3434 Mist 16 1017 87 2000 1.3 330 05:58 01.12.2019
3435 Mist 16 1016 87 2000 1.45 358 04:55 01.12.2019
3436 Mist 16 1016 87 2000 1.45 358 04:28 01.12.2019
3437 Mist 17 1016 88 3000 1.5 30 02:45 01.12.2019
3438 Mist 17 1016 88 3000 1.5 30 02:27 01.12.2019
3439 Mist 18 1017 82 3000 1.5 40 01:54 01.12.2019
3440 Mist 18 1017 82 3000 1.5 40 01:54 01.12.2019
3441 Mist 18 1017 82 3000 2.1 360 01:31 01.12.2019
3442 Clouds 18 1017 82 6000 2.28 6 00:47 01.12.2019
3443 Clouds 18 1017 82 6000 2.28 6 00:26 01.12.2019
3444 Clouds 18 1017 82 6000 1.5 10 23:57 30.11.2019
3445 Clouds 18 1017 82 6000 1.5 60 23:37 30.11.2019
3446 Clouds 18 1017 82 6000 1.5 60 23:19 30.11.2019
3447 Clouds 18 1017 77 6000 2.1 70 22:46 30.11.2019
3448 Clouds 19 1017 77 6000 2.1 70 22:28 30.11.2019
3449 Clouds 19 1017 77 6000 3.1 50 21:54 30.11.2019
3450 Clouds 19 1017 77 6000 3.1 60 21:36 30.11.2019
3451 Clouds 19 1017 77 6000 3.1 60 21:18 30.11.2019
3452 Clouds 20 1017 72 6000 3.1 30 20:54 30.11.2019
3453 Clouds 20 1017 72 6000 3.1 60 20:36 30.11.2019
3454 Clouds 20 1017 72 6000 3.1 60 20:18 30.11.2019
3455 Clouds 20 1017 72 6000 3.6 40 19:54 30.11.2019
3456 Clouds 21 1017 64 6000 4.6 40 19:36 30.11.2019
3457 Clouds 21 1017 64 6000 4.6 40 19:18 30.11.2019
3458 Haze 21 1017 64 4000 2.6 10 18:39 30.11.2019
3459 Haze 21 1017 64 4000 2.6 10 18:21 30.11.2019
3460 Haze 21 1017 64 4000 2.6 10 18:21 30.11.2019
3461 Clouds 21 1017 64 10000 4.1 360 17:59 30.11.2019
3462 Clouds 21 1017 56 10000 4.6 350 17:41 30.11.2019
3463 Clouds 22 1017 56 10000 4.6 350 17:23 30.11.2019
3464 Clouds 22 1017 56 6000 5.1 350 16:59 30.11.2019
3465 Clouds 22 1017 56 6000 5.1 350 16:59 30.11.2019
3466 Clouds 22 1017 56 10000 5.7 360 16:40 30.11.2019
3467 Clouds 22 1017 56 10000 5.7 360 16:22 30.11.2019
3468 Clouds 22 1017 56 10000 5.7 360 15:54 30.11.2019
3469 Clouds 23 1017 56 10000 5.1 350 15:36 30.11.2019
3470 Clouds 23 1017 56 10000 5.1 350 15:18 30.11.2019
3471 Clouds 23 1017 53 10000 4.6 350 14:55 30.11.2019
3472 Clouds 23 1017 56 10000 5.1 360 14:36 30.11.2019
3473 Clouds 23 1017 56 10000 5.1 360 14:18 30.11.2019
3474 Clouds 23 1017 53 10000 5.7 350 13:42 30.11.2019
3475 Clouds 23 1017 53 10000 5.7 350 13:24 30.11.2019
3476 Clouds 23 1017 53 10000 4.6 10 12:57 30.11.2019
3477 Clouds 23 1018 46 10000 4.1 360 12:39 30.11.2019
3478 Clouds 23 1018 46 10000 4.1 360 12:21 30.11.2019
3479 Clouds 22 1018 56 10000 6.2 30 11:42 30.11.2019
3480 Clouds 22 1018 56 10000 6.2 30 11:19 30.11.2019
3481 Clouds 22 1018 56 10000 6.2 30 11:19 30.11.2019
3482 Clouds 22 1019 60 10000 5.7 40 10:55 30.11.2019
3483 Clouds 22 1019 60 10000 5.7 40 10:55 30.11.2019
3484 Clouds 21 1019 64 10000 5.7 40 10:37 30.11.2019
3485 Clouds 21 1019 64 10000 5.7 40 10:18 30.11.2019
3486 Clouds 21 1020 68 10000 4.1 40 09:46 30.11.2019
3487 Clear 21 1020 68 6000 4.1 40 09:23 30.11.2019
3488 Clear 20 1020 72 6000 2.6 40 08:44 30.11.2019
3489 Clouds 19 1020 72 6000 2.6 40 08:21 30.11.2019
3490 Clouds 17 1020 82 6000 1.5 10 07:58 30.11.2019
3491 Clouds 17 1020 82 6000 1.5 10 07:39 30.11.2019
3492 Clouds 15 1019 87 6000 2.1 80 06:56 30.11.2019
3493 Clouds 15 1019 87 6000 2.1 80 06:29 30.11.2019
3494 Clouds 15 1019 87 6000 2.1 80 05:49 30.11.2019
3495 Clouds 16 1019 82 6000 2.1 80 03:48 30.11.2019
3496 Clouds 16 1019 82 6000 2.6 80 02:40 30.11.2019
3497 Clouds 16 1019 82 6000 2.6 80 02:22 30.11.2019
3498 Clouds 17 1020 82 10000 2.1 70 01:25 30.11.2019
3499 Clouds 17 1020 82 10000 2.1 70 01:25 30.11.2019
3500 Clouds 17 1020 82 10000 2.1 70 01:25 30.11.2019
3501 Clouds 17 1020 82 10000 2.1 70 01:25 30.11.2019
3502 Clouds 17 1020 77 10000 3.1 70 00:50 30.11.2019
3503 Clouds 17 1020 77 10000 3.1 70 00:31 30.11.2019
3504 Clouds 17 1020 77 10000 4.1 70 23:59 29.11.2019
3505 Clouds 17 1020 77 10000 4.1 70 23:59 29.11.2019
3506 Clouds 18 1020 77 10000 4.1 70 23:40 29.11.2019
3507 Clouds 18 1020 77 10000 4.1 70 23:22 29.11.2019
3508 Clouds 18 1020 72 10000 3.1 70 22:45 29.11.2019
3509 Clouds 18 1020 72 10000 3.1 70 22:26 29.11.2019
3510 Clouds 19 1020 68 10000 1.5 50 21:44 29.11.2019
3511 Clouds 19 1020 68 10000 1.5 50 21:25 29.11.2019
3512 Clouds 20 1020 64 10000 2.6 50 20:58 29.11.2019
3513 Clouds 20 1020 64 10000 4.1 40 20:38 29.11.2019
3514 Clouds 20 1020 64 10000 4.1 40 20:19 29.11.2019
3515 Clouds 20 1020 64 10000 4.1 40 19:58 29.11.2019
3516 Clouds 20 1020 60 10000 2.6 20 19:39 29.11.2019
3517 Clouds 20 1020 60 10000 2.6 20 19:20 29.11.2019
3518 Clouds 21 1020 56 10000 3.6 10 18:57 29.11.2019
3519 Clouds 21 1020 60 10000 3.6 10 18:38 29.11.2019
3520 Clouds 21 1020 60 10000 3.6 10 18:19 29.11.2019
3521 Clouds 22 1019 56 10000 3.6 360 17:43 29.11.2019
3522 Clouds 22 1019 56 10000 3.6 360 17:24 29.11.2019
3523 Clouds 23 1019 53 10000 3.6 360 16:57 29.11.2019
3524 Clouds 23 1019 53 10000 3.6 360 16:57 29.11.2019
3525 Clouds 23 1019 53 10000 3.6 360 16:39 29.11.2019
3526 Clouds 23 1019 53 10000 3.6 360 16:19 29.11.2019
3527 Clouds 23 1019 49 10000 3.6 360 15:41 29.11.2019
3528 Clouds 23 1019 49 10000 3.6 360 15:41 29.11.2019
3529 Clouds 23 1019 49 10000 3.6 360 15:23 29.11.2019
3530 Clouds 23 1019 43 10000 6.2 350 14:56 29.11.2019
3531 Clouds 23 1019 43 10000 6.2 350 14:38 29.11.2019
3532 Clouds 23 1019 43 10000 6.2 350 14:19 29.11.2019
3533 Clouds 24 1019 50 10000 3.1 330 13:41 29.11.2019
3534 Clouds 24 1019 50 10000 3.1 330 13:21 29.11.2019
3535 Clouds 24 1019 50 10000 3.1 330 13:21 29.11.2019
3536 Clouds 22 1019 53 10000 5.1 340 12:57 29.11.2019
3537 Clouds 22 1019 53 10000 5.1 340 12:39 29.11.2019
3538 Clouds 22 1019 53 10000 5.1 340 12:21 29.11.2019
3539 Clouds 22 1020 60 10000 2.1 50 11:55 29.11.2019
3540 Clouds 22 1020 60 10000 2.1 50 11:55 29.11.2019
3541 Clouds 22 1020 60 10000 2.1 50 11:36 29.11.2019
3542 Clouds 22 1020 60 10000 2.1 50 11:18 29.11.2019
3543 Clouds 22 1020 60 10000 2.1 50 10:56 29.11.2019
3544 Clouds 21 1021 64 10000 4.6 20 10:37 29.11.2019
3545 Clouds 21 1021 64 10000 4.6 20 10:18 29.11.2019
3546 Clouds 21 1021 64 10000 4.6 20 09:55 29.11.2019
3547 Clouds 21 1021 64 10000 2.1 20 09:37 29.11.2019
3548 Clouds 21 1021 64 10000 2.1 20 09:18 29.11.2019
3549 Clouds 20 1021 72 10000 2.1 20 08:40 29.11.2019
3550 Clouds 19 1021 72 10000 2.1 20 08:22 29.11.2019
3551 Clouds 18 1021 77 10000 1.5 70 07:58 29.11.2019
3552 Clouds 18 1021 77 10000 1.5 70 07:58 29.11.2019
3553 Clouds 17 1020 82 10000 2.99 55 07:40 29.11.2019
3554 Clouds 17 1020 82 10000 2.99 55 07:21 29.11.2019
3555 Clouds 16 1020 87 10000 2.99 55 06:43 29.11.2019
3556 Clouds 16 1020 87 10000 1 40 05:48 29.11.2019
3557 Clouds 16 1020 87 10000 2.99 55 05:25 29.11.2019
3558 Clouds 16 1020 87 10000 1.5 100 04:35 29.11.2019
3559 Clear 17 1020 82 10000 2.1 90 03:22 29.11.2019
3560 Clear 17 1020 82 10000 1.5 60 02:32 29.11.2019
3561 Clear 17 1020 82 10000 1.5 60 01:57 29.11.2019
3562 Clear 17 1020 82 10000 1 70 01:26 29.11.2019
3563 Clear 18 1020 77 10000 1 80 00:45 29.11.2019
3564 Clear 18 1020 77 10000 1.5 70 00:21 29.11.2019
3565 Clear 19 1020 72 10000 1.5 70 23:57 28.11.2019
3566 Clear 19 1020 72 10000 2.1 40 23:38 28.11.2019
3567 Clear 19 1020 72 10000 2.1 40 23:20 28.11.2019
3568 Clear 19 1020 72 10000 1 40 22:54 28.11.2019
3569 Clear 20 1020 68 10000 2.6 40 22:36 28.11.2019
3570 Clear 20 1020 68 10000 2.6 40 22:18 28.11.2019
3571 Clear 20 1020 68 10000 2.6 40 21:42 28.11.2019
3572 Clear 20 1020 68 10000 2.6 40 21:21 28.11.2019
3573 Clear 20 1020 68 10000 3.1 30 20:58 28.11.2019
3574 Clear 20 1019 68 10000 4.1 50 20:40 28.11.2019
3575 Clouds 20 1019 68 10000 4.1 50 20:21 28.11.2019
3576 Clouds 20 1019 68 10000 4.1 50 20:21 28.11.2019
3577 Clouds 21 1019 64 10000 4.1 40 19:57 28.11.2019
3578 Clouds 21 1019 60 10000 4.1 10 19:37 28.11.2019
3579 Clouds 21 1019 60 10000 4.1 10 19:19 28.11.2019
3580 Clouds 22 1019 56 10000 4.1 350 18:57 28.11.2019
3581 Clouds 22 1019 56 10000 2.6 10 18:38 28.11.2019
3582 Clouds 22 1019 56 10000 2.6 10 18:18 28.11.2019
3583 Clouds 22 1018 53 10000 3.1 350 17:43 28.11.2019
3584 Clouds 22 1018 53 10000 3.1 350 17:25 28.11.2019
3585 Clouds 22 1018 53 10000 3.1 350 17:25 28.11.2019
3586 Clouds 23 1018 49 10000 3.1 340 16:59 28.11.2019
3587 Clouds 23 1018 49 10000 2.6 330 16:40 28.11.2019
3588 Clouds 23 1018 49 10000 2.6 330 16:19 28.11.2019
3589 Clouds 23 1018 49 10000 3.1 300 15:57 28.11.2019
3590 Clouds 23 1018 49 10000 3.1 300 15:57 28.11.2019
3591 Clouds 23 1018 49 10000 2.6 330 15:38 28.11.2019
3592 Clouds 23 1018 49 10000 2.6 330 15:38 28.11.2019
3593 Clouds 23 1018 49 10000 2.6 330 15:19 28.11.2019
3594 Clouds 24 1018 47 10000 4.1 330 14:57 28.11.2019
3595 Clouds 23 1018 53 10000 4.1 310 14:38 28.11.2019
3596 Clouds 23 1018 53 10000 4.1 310 14:19 28.11.2019
3597 Clear 24 1018 50 6000 3.1 300 13:42 28.11.2019
3598 Clear 24 1018 50 6000 3.1 300 13:23 28.11.2019
3599 Clear 24 1018 47 6000 3.6 260 12:55 28.11.2019
3600 Clear 24 1018 47 6000 3.6 260 12:55 28.11.2019
3601 Clear 23 1018 53 6000 3.1 280 12:36 28.11.2019
3602 Clear 23 1018 53 6000 3.1 280 12:18 28.11.2019
3603 Haze 23 1018 53 4000 3.1 270 11:54 28.11.2019
3604 Haze 23 1018 49 4000 3.6 260 11:36 28.11.2019
3605 Haze 23 1018 49 4000 3.6 260 11:18 28.11.2019
3606 Haze 23 1019 46 4000 3.1 250 10:41 28.11.2019
3607 Haze 23 1019 46 4000 3.1 250 10:21 28.11.2019
3608 Haze 22 1019 46 3000 3.1 220 09:55 28.11.2019
3609 Haze 22 1019 46 3000 3.1 220 09:37 28.11.2019
3610 Haze 22 1019 46 3000 3.1 220 09:18 28.11.2019
3611 Haze 20 1019 52 3000 4.1 190 08:40 28.11.2019
3612 Haze 20 1019 52 3000 4.1 190 08:21 28.11.2019
3613 Haze 18 1019 52 3000 3.6 180 07:43 28.11.2019
3614 Haze 18 1019 52 3000 3.6 180 07:25 28.11.2019
3615 Haze 17 1018 55 3000 3.6 180 06:58 28.11.2019
3616 Haze 17 1018 55 3000 3.6 180 06:37 28.11.2019
3617 Haze 17 1018 51 3000 3.6 170 05:53 28.11.2019
3618 Haze 17 1017 51 3000 3.6 170 05:33 28.11.2019
3619 Haze 17 1017 48 4000 3.1 180 03:49 28.11.2019
3620 Clear 18 1017 48 10000 4.1 180 02:30 28.11.2019
3621 Clear 19 1017 45 10000 4.1 180 01:21 28.11.2019
3622 Clear 19 1016 45 10000 2.6 210 00:37 28.11.2019
3623 Clear 19 1016 45 10000 2.6 210 00:18 28.11.2019
3624 Clear 19 1017 45 10000 2.6 210 23:38 27.11.2019
3625 Clear 19 1017 45 10000 2.6 210 23:20 27.11.2019
3626 Clear 19 1017 45 10000 2.6 210 22:55 27.11.2019
3627 Clear 19 1017 45 10000 2.6 210 22:36 27.11.2019
3628 Clear 19 1017 45 10000 2.6 240 22:18 27.11.2019
3629 Clear 19 1017 45 10000 2.6 240 21:55 27.11.2019
3630 Clear 19 1017 42 10000 2.6 240 21:36 27.11.2019
3631 Clear 20 1017 42 10000 2.6 240 21:18 27.11.2019
3632 Clear 20 1017 42 10000 2.6 240 21:18 27.11.2019
3633 Clear 20 1017 40 10000 3.6 240 20:55 27.11.2019
3634 Clear 20 1017 40 10000 3.6 240 20:55 27.11.2019
3635 Clear 20 1016 40 10000 3.6 240 20:36 27.11.2019
3636 Clear 20 1016 40 10000 3.6 240 20:18 27.11.2019
3637 Clear 21 1016 32 10000 4.1 240 19:54 27.11.2019
3638 Clear 21 1016 32 10000 4.1 240 19:36 27.11.2019
3639 Clear 21 1016 30 10000 3.6 250 19:18 27.11.2019
3640 Clear 21 1016 30 10000 3.6 250 18:38 27.11.2019
3641 Clear 21 1016 30 10000 3.6 250 18:20 27.11.2019
3642 Clear 21 1015 26 10000 4.6 250 17:59 27.11.2019
3643 Clear 21 1015 26 10000 4.6 250 17:41 27.11.2019
3644 Clear 21 1015 26 10000 4.6 250 17:23 27.11.2019
3645 Clear 22 1015 19 10000 5.7 250 16:58 27.11.2019
3646 Clear 22 1015 19 10000 5.7 250 16:39 27.11.2019
3647 Clear 22 1015 19 10000 5.7 250 16:21 27.11.2019
3648 Clear 23 1014 18 10000 6.7 240 15:58 27.11.2019
3649 Clear 23 1014 18 10000 6.7 240 15:58 27.11.2019
3650 Clear 23 1014 18 10000 6.7 240 15:40 27.11.2019
3651 Clear 23 1014 18 10000 6.7 240 15:21 27.11.2019
3652 Clear 23 1014 16 10000 7.2 250 14:58 27.11.2019
3653 Clear 24 1014 16 10000 7.2 250 14:39 27.11.2019
3654 Clear 24 1014 16 10000 7.2 250 14:21 27.11.2019
3655 Clear 24 1014 17 10000 7.7 240 13:58 27.11.2019
3656 Clear 24 1014 17 10000 7.7 240 13:39 27.11.2019
3657 Clear 24 1014 17 10000 7.7 240 13:19 27.11.2019
3658 Clear 24 1014 17 10000 7.7 240 13:19 27.11.2019
3659 Clear 23 1014 20 10000 7.7 230 12:57 27.11.2019
3660 Clear 23 1014 20 10000 7.7 230 12:39 27.11.2019
3661 Clear 23 1015 20 10000 7.2 230 12:19 27.11.2019
3662 Clear 23 1015 20 10000 7.2 230 11:38 27.11.2019
3663 Clear 23 1015 20 10000 7.2 230 11:19 27.11.2019
3664 Clear 23 1016 22 10000 6.2 230 10:59 27.11.2019
3665 Clear 23 1016 22 10000 6.2 230 10:41 27.11.2019
3666 Clear 23 1016 22 10000 6.2 230 10:23 27.11.2019
3667 Clear 21 1016 22 10000 5.1 220 09:45 27.11.2019
3668 Clear 21 1016 22 10000 5.1 220 09:26 27.11.2019
3669 Clear 20 1016 22 10000 5.1 200 08:59 27.11.2019
3670 Clear 20 1016 22 10000 5.1 200 08:41 27.11.2019
3671 Clear 20 1016 31 10000 5.1 200 08:22 27.11.2019
3672 Clear 18 1016 31 10000 4.6 210 07:47 27.11.2019
3673 Clear 18 1015 31 10000 4.6 210 07:28 27.11.2019
3674 Clear 17 1015 31 10000 4.1 210 06:48 27.11.2019
3675 Clear 17 1015 31 10000 4.1 210 06:29 27.11.2019
3676 Clear 15 1015 31 0 5.07 224 05:43 27.11.2019
3677 Clear 14 1014 35 0 3.3 227 05:19 27.11.2019
3678 Clear 14 1014 35 0 3.3 227 04:43 27.11.2019
3679 Clear 14 1014 35 0 3.3 227 03:55 27.11.2019
3680 Clear 14 1014 35 0 3.3 227 03:24 27.11.2019
3681 Clear 14 1014 35 0 3.3 227 02:55 27.11.2019
3682 Clear 16 1014 34 0 2.53 238 01:41 27.11.2019
3683 Clear 16 1014 31 0 2.61 236 00:46 27.11.2019
3684 Clear 16 1014 31 0 2.61 236 00:26 27.11.2019
3685 Clear 20 1014 31 10000 4.1 250 23:50 26.11.2019
3686 Clear 20 1014 31 10000 2.1 250 23:28 26.11.2019
3687 Clear 20 1014 33 10000 3.1 240 22:59 26.11.2019
3688 Clear 20 1014 33 10000 2.6 240 22:39 26.11.2019
3689 Clear 20 1014 33 10000 2.6 240 22:19 26.11.2019
3690 Clear 20 1015 28 10000 2.6 240 21:58 26.11.2019
3691 Clear 22 1014 28 10000 3.1 240 21:38 26.11.2019
3692 Clear 22 1014 28 10000 3.1 240 21:19 26.11.2019
3693 Clear 22 1014 28 10000 3.1 240 20:55 26.11.2019
3694 Clear 22 1014 33 10000 3.6 220 20:37 26.11.2019
3695 Clear 22 1014 33 10000 3.6 220 20:19 26.11.2019
3696 Clear 23 1014 31 10000 4.6 260 19:55 26.11.2019
3697 Clear 23 1014 31 10000 4.6 260 19:55 26.11.2019
3698 Clear 23 1014 31 10000 4.6 260 19:55 26.11.2019
3699 Clear 23 1014 33 10000 4.1 230 19:37 26.11.2019
3700 Clear 23 1014 33 10000 4.1 230 19:18 26.11.2019
3701 Clear 23 1014 33 10000 4.1 230 18:56 26.11.2019
3702 Clear 24 1013 33 10000 5.7 260 18:38 26.11.2019
3703 Clear 24 1013 33 10000 5.1 260 18:20 26.11.2019
3704 Clear 24 1013 33 10000 5.1 260 17:55 26.11.2019
3705 Clear 25 1013 33 10000 4.6 240 17:37 26.11.2019
3706 Clear 25 1012 33 10000 4.1 210 17:18 26.11.2019
3707 Clear 25 1012 33 10000 4.1 210 16:55 26.11.2019
3708 Clear 25 1012 31 10000 4.1 250 16:37 26.11.2019
3709 Clear 26 1012 31 10000 4.1 250 16:18 26.11.2019
3710 Clear 26 1012 29 10000 5.7 250 15:57 26.11.2019
3711 Clear 27 1012 28 10000 7.2 250 15:37 26.11.2019
3712 Clear 27 1012 28 10000 7.2 250 15:18 26.11.2019
3713 Clear 28 1011 28 6000 7.2 240 14:45 26.11.2019
3714 Clear 28 1011 28 6000 7.2 240 14:24 26.11.2019
3715 Clear 27 1012 26 6000 6.2 230 13:45 26.11.2019
3716 Clear 28 1012 26 6000 6.2 230 13:25 26.11.2019
3717 Clear 28 1012 24 6000 5.7 210 12:58 26.11.2019
3718 Clear 27 1012 24 6000 6.2 220 12:37 26.11.2019
3719 Clear 26 1012 24 6000 6.2 220 12:19 26.11.2019
3720 Clear 26 1012 24 6000 6.7 210 11:56 26.11.2019
3721 Clear 26 1012 27 6000 6.2 210 11:38 26.11.2019
3722 Clear 26 1013 27 6000 6.2 210 11:19 26.11.2019
3723 Clear 26 1013 27 6000 6.2 210 10:56 26.11.2019
3724 Clear 26 1013 24 6000 6.2 210 10:38 26.11.2019
3725 Clear 26 1013 24 6000 6.2 210 10:20 26.11.2019
3726 Clear 25 1013 23 10000 6.7 200 09:43 26.11.2019
3727 Clear 25 1013 23 10000 6.7 200 09:24 26.11.2019
3728 Clear 24 1013 23 10000 7.2 190 08:58 26.11.2019
3729 Clear 24 1013 25 10000 6.2 180 08:38 26.11.2019
3730 Clear 24 1013 25 10000 6.2 180 08:18 26.11.2019
3731 Clear 23 1012 27 10000 6.7 170 07:43 26.11.2019
3732 Clear 23 1012 27 10000 6.7 170 07:24 26.11.2019
3733 Clear 22 1012 26 10000 6.2 180 06:53 26.11.2019
3734 Clear 22 1011 26 10000 6.2 180 05:59 26.11.2019
3735 Clear 22 1011 25 10000 7.2 170 05:36 26.11.2019
3736 Clear 22 1010 26 10000 6.2 190 03:22 26.11.2019
3737 Clear 22 1010 26 10000 6.2 190 03:22 26.11.2019
3738 Clear 21 1010 24 0 7.67 188 01:42 26.11.2019
3739 Clear 21 1010 24 0 7.67 188 01:42 26.11.2019
3740 Clear 25 1010 22 10000 7.2 190 01:23 26.11.2019
3741 Clear 25 1010 22 10000 7.2 190 00:47 26.11.2019
3742 Clear 25 1010 22 10000 7.2 190 00:21 26.11.2019
3743 Clear 25 1010 22 10000 7.7 180 23:39 25.11.2019
3744 Clear 26 1010 21 10000 7.7 170 23:19 25.11.2019
3745 Clear 26 1010 21 10000 7.7 170 23:19 25.11.2019
3746 Clear 26 1010 21 10000 7.7 170 22:55 25.11.2019
3747 Clear 26 1010 22 10000 7.2 160 22:37 25.11.2019
3748 Clear 26 1010 21 10000 7.2 170 22:18 25.11.2019
3749 Clear 26 1010 21 10000 7.2 170 21:56 25.11.2019
3750 Clear 26 1010 21 0 7.15 170 21:38 25.11.2019
3751 Clear 26 1011 22 10000 5.1 160 21:18 25.11.2019
3752 Clear 26 1011 22 10000 5.1 160 20:54 25.11.2019
3753 Clear 26 1011 22 10000 5.1 160 20:54 25.11.2019
3754 Clear 26 1011 22 10000 5.1 160 20:36 25.11.2019
3755 Clear 26 1011 24 6000 5.7 160 20:18 25.11.2019
3756 Clear 26 1011 24 6000 5.7 160 20:18 25.11.2019
3757 Clear 26 1011 24 6000 5.7 160 20:18 25.11.2019
3758 Clear 26 1011 24 6000 5.7 160 19:54 25.11.2019
3759 Clear 26 1011 24 6000 5.1 160 19:36 25.11.2019
3760 Clear 26 1011 24 6000 5.1 160 19:18 25.11.2019
3761 Clear 26 1011 22 6000 5.1 170 18:55 25.11.2019
3762 Clear 26 1011 24 6000 6.2 170 18:37 25.11.2019
3763 Clear 26 1011 24 6000 5.1 180 18:18 25.11.2019
3764 Clear 27 1011 24 6000 5.1 180 17:55 25.11.2019
3765 Clear 27 1011 24 6000 5.1 180 17:36 25.11.2019
3766 Clear 27 1011 26 6000 6.2 180 17:18 25.11.2019
3767 Clear 27 1010 26 6000 5.1 190 16:42 25.11.2019
3768 Clear 27 1010 26 6000 5.1 190 16:23 25.11.2019
3769 Clear 27 1010 26 6000 5.7 180 15:58 25.11.2019
3770 Clear 27 1010 26 6000 5.7 180 15:58 25.11.2019
3771 Clear 28 1010 24 6000 7.7 180 15:39 25.11.2019
3772 Clear 28 1010 24 6000 7.7 180 15:20 25.11.2019
3773 Clear 28 1010 20 6000 8.2 190 14:56 25.11.2019
3774 Clear 29 1010 20 6000 8.7 190 14:38 25.11.2019
3775 Clouds 29 1010 20 6000 8.7 190 14:20 25.11.2019
3776 Clouds 29 1010 20 6000 9.3 190 13:40 25.11.2019
3777 Clouds 29 1010 20 6000 9.3 190 13:21 25.11.2019
3778 Clouds 29 1010 20 6000 10.3 190 12:59 25.11.2019
3779 Clouds 28 1011 21 6000 11.8 190 12:40 25.11.2019
3780 Clouds 28 1011 21 6000 11.8 190 12:21 25.11.2019
3781 Clouds 28 1011 21 6000 9.8 190 11:57 25.11.2019
3782 Clouds 28 1011 21 6000 10.8 190 11:38 25.11.2019
3783 Clouds 28 1011 21 6000 10.8 190 11:19 25.11.2019
3784 Clouds 28 1012 18 6000 7.7 190 10:45 25.11.2019
3785 Clouds 28 1012 18 6000 7.7 190 10:27 25.11.2019
3786 Clouds 28 1013 18 10000 6.2 190 09:58 25.11.2019
3787 Clouds 27 1013 22 10000 7.2 180 09:40 25.11.2019
3788 Clouds 27 1013 22 10000 7.2 180 09:22 25.11.2019
3789 Clouds 23 1013 46 10000 3.6 180 08:41 25.11.2019
3790 Clouds 21 1013 46 10000 3.6 180 08:22 25.11.2019
3791 Clouds 19 1014 59 10000 2.6 60 07:44 25.11.2019
3792 Clouds 18 1014 59 10000 2.6 60 07:24 25.11.2019
3793 Clouds 17 1014 63 10000 1 40 06:51 25.11.2019
3794 Clouds 17 1014 63 10000 1 40 06:22 25.11.2019
3795 Clouds 17 1013 63 10000 5.24 165 06:22 25.11.2019
3796 Clouds 17 1013 63 10000 5.24 165 05:49 25.11.2019
3797 Clouds 17 1013 63 10000 5.24 165 05:28 25.11.2019
3798 Clouds 17 1013 67 10000 1 20 03:26 25.11.2019
3799 Clouds 17 1014 67 10000 5.49 147 02:32 25.11.2019
3800 Clear 17 1014 67 10000 2.6 70 01:42 25.11.2019
3801 Clear 17 1014 67 10000 2.6 70 01:23 25.11.2019
3802 Clear 18 1014 68 10000 5.1 80 00:37 25.11.2019
3803 Clear 18 1014 68 10000 5.1 80 00:18 25.11.2019
3804 Clear 18 1015 68 10000 5.1 80 23:43 24.11.2019
3805 Clear 18 1016 68 10000 4.6 90 23:20 24.11.2019
3806 Clear 18 1016 68 10000 4.6 90 22:56 24.11.2019
3807 Clear 18 1016 63 10000 3.6 90 22:37 24.11.2019
3808 Clear 19 1016 63 10000 3.6 90 22:19 24.11.2019
3809 Clear 19 1016 59 10000 4.1 90 21:56 24.11.2019
3810 Clear 19 1016 55 10000 3.1 80 21:36 24.11.2019
3811 Clear 19 1016 55 10000 3.1 80 21:18 24.11.2019
3812 Clear 19 1016 55 10000 2.6 70 20:55 24.11.2019
3813 Clear 19 1017 52 10000 3.1 90 20:37 24.11.2019
3814 Clear 19 1017 52 10000 3.1 90 20:18 24.11.2019
3815 Clear 20 1017 52 10000 3.1 80 19:55 24.11.2019
3816 Clear 21 1017 49 10000 2.1 70 19:37 24.11.2019
3817 Clear 21 1017 49 10000 1.5 60 19:19 24.11.2019
3818 Clear 21 1017 49 10000 1.5 60 19:19 24.11.2019
3819 Clear 21 1017 49 10000 1.5 60 18:56 24.11.2019
3820 Clear 22 1016 49 10000 3.1 60 18:36 24.11.2019
3821 Clear 22 1016 49 10000 3.1 50 18:18 24.11.2019
3822 Clear 22 1016 49 10000 3.1 50 18:18 24.11.2019
3823 Clear 22 1016 49 10000 3.1 50 17:55 24.11.2019
3824 Clear 23 1016 43 10000 2.6 50 17:36 24.11.2019
3825 Clear 23 1016 43 10000 2.6 50 17:36 24.11.2019
3826 Clear 23 1016 36 10000 3.1 50 17:18 24.11.2019
3827 Clear 24 1016 36 10000 3.1 50 16:54 24.11.2019
3828 Clear 24 1016 36 10000 3.1 50 16:36 24.11.2019
3829 Clear 24 1016 36 10000 3.1 50 16:18 24.11.2019
3830 Clear 24 1015 36 10000 3.6 50 15:42 24.11.2019
3831 Clear 24 1016 36 10000 2.1 70 15:24 24.11.2019
3832 Clear 24 1016 36 10000 2.1 70 14:56 24.11.2019
3833 Clear 24 1016 36 10000 2.1 70 14:38 24.11.2019
3834 Clouds 24 1016 36 10000 2.6 60 14:18 24.11.2019
3835 Clouds 25 1016 36 10000 2.6 60 13:39 24.11.2019
3836 Clouds 25 1016 36 10000 2.6 60 13:21 24.11.2019
3837 Clouds 24 1016 38 10000 2.1 100 12:58 24.11.2019
3838 Clouds 24 1016 38 10000 2.1 100 12:39 24.11.2019
3839 Clouds 23 1018 40 10000 2.1 80 12:18 24.11.2019
3840 Clouds 23 1018 40 10000 2.1 80 11:56 24.11.2019
3841 Clouds 23 1018 40 10000 2.1 80 11:36 24.11.2019
3842 Clouds 23 1018 40 10000 2.1 80 11:18 24.11.2019
3843 Clouds 23 1018 43 10000 2.1 80 10:46 24.11.2019
3844 Clouds 23 1018 43 10000 2.1 80 10:28 24.11.2019
3845 Clouds 22 1018 49 10000 3.1 50 09:55 24.11.2019
3846 Clouds 22 1019 49 10000 2.1 70 09:37 24.11.2019
3847 Clouds 21 1019 49 10000 3.1 70 09:18 24.11.2019
3848 Clouds 21 1018 52 6000 3.1 80 08:44 24.11.2019
3849 Clouds 21 1018 52 6000 3.1 80 08:22 24.11.2019
3850 Clouds 20 1018 59 6000 3.43 90 07:57 24.11.2019
3851 Clouds 19 1018 59 6000 3.43 90 07:57 24.11.2019
3852 Clouds 17 1018 72 10000 2.1 60 07:37 24.11.2019
3853 Clouds 16 1018 72 10000 2.1 60 07:18 24.11.2019
3854 Clouds 15 1017 77 10000 1.5 60 06:19 24.11.2019
3855 Clouds 15 1017 77 10000 1.5 60 06:19 24.11.2019
3856 Clouds 16 1017 77 10000 2.1 70 04:48 24.11.2019
3857 Clouds 16 1017 77 10000 1.5 50 03:33 24.11.2019
3858 Clouds 16 1017 77 10000 1.5 50 03:33 24.11.2019
3859 Clear 17 1017 72 10000 2.1 80 01:59 24.11.2019
3860 Clear 17 1017 72 10000 3.1 90 01:40 24.11.2019
3861 Clear 18 1017 72 10000 3.1 90 01:21 24.11.2019
3862 Clear 17 1018 68 10000 2.6 80 00:47 24.11.2019
3863 Clear 18 1018 68 10000 2.6 80 00:23 24.11.2019
3864 Clear 18 1018 68 10000 2.6 80 00:23 24.11.2019
3865 Clear 18 1018 68 10000 3.6 100 23:45 23.11.2019
3866 Clear 18 1018 68 10000 3.6 100 23:23 23.11.2019
3867 Clear 18 1017 68 10000 3.1 100 22:59 23.11.2019
3868 Clear 18 1018 63 10000 2.6 90 22:40 23.11.2019
3869 Clear 18 1018 63 10000 2.6 90 22:22 23.11.2019
3870 Clear 18 1018 59 6000 3.1 80 21:59 23.11.2019
3871 Clear 19 1018 59 6000 3.1 80 21:41 23.11.2019
3872 Clear 19 1018 59 6000 3.1 80 21:22 23.11.2019
3873 Clear 19 1018 59 6000 2.6 80 20:57 23.11.2019
3874 Clear 19 1018 59 6000 2.6 80 20:36 23.11.2019
3875 Clear 20 1018 60 6000 1 70 20:18 23.11.2019
3876 Clear 20 1018 60 6000 1 70 19:55 23.11.2019
3877 Clear 20 1018 60 6000 1 70 19:36 23.11.2019
3878 Clear 20 1018 60 6000 1 70 19:18 23.11.2019
3879 Clear 21 1017 52 6000 2.1 20 18:40 23.11.2019
3880 Clear 21 1017 52 6000 2.1 20 18:21 23.11.2019
3881 Clear 22 1017 49 6000 3.1 10 17:55 23.11.2019
3882 Clear 22 1017 49 6000 3.1 10 17:37 23.11.2019
3883 Clear 22 1017 43 10000 3.6 360 17:19 23.11.2019
3884 Clear 22 1017 43 10000 3.6 360 17:19 23.11.2019
3885 Clear 22 1017 43 10000 3.6 360 17:19 23.11.2019
3886 Clear 23 1017 43 10000 3.6 360 16:56 23.11.2019
3887 Clear 23 1017 43 10000 3.6 360 16:56 23.11.2019
3888 Clear 23 1017 43 10000 3.6 360 16:37 23.11.2019
3889 Clear 23 1017 43 10000 3.6 360 16:19 23.11.2019
3890 Clear 23 1017 43 10000 3.6 360 15:56 23.11.2019
3891 Clear 24 1017 41 10000 4.1 10 15:38 23.11.2019
3892 Clear 24 1017 41 10000 4.1 10 15:18 23.11.2019
3893 Clear 24 1017 41 10000 3.6 40 14:43 23.11.2019
3894 Clear 24 1017 41 10000 3.6 40 14:23 23.11.2019
3895 Clear 24 1017 41 10000 3.6 40 13:59 23.11.2019
3896 Clear 24 1017 41 10000 3.1 10 13:41 23.11.2019
3897 Clear 24 1017 41 10000 1 20 13:19 23.11.2019
3898 Clear 24 1017 41 10000 1 20 12:55 23.11.2019
3899 Clear 23 1017 46 10000 2.1 340 12:37 23.11.2019
3900 Clear 23 1018 41 10000 2.1 40 12:18 23.11.2019
3901 Clear 23 1018 43 10000 2.1 60 11:41 23.11.2019
3902 Clear 23 1018 43 10000 2.1 60 11:19 23.11.2019
3903 Clear 22 1019 53 10000 1.5 50 10:43 23.11.2019
3904 Clear 22 1019 53 10000 1.5 50 10:21 23.11.2019
3905 Clear 21 1019 52 10000 2.1 70 09:41 23.11.2019
3906 Clear 21 1019 52 10000 2.1 70 09:20 23.11.2019
3907 Clear 20 1019 56 10000 1.5 80 09:20 23.11.2019
3908 Clear 20 1019 59 6000 3.29 53 08:43 23.11.2019
3909 Clear 19 1019 59 6000 2.55 68 08:20 23.11.2019
3910 Clear 18 1019 63 6000 2.55 68 07:54 23.11.2019
3911 Clear 17 1019 67 6000 2.55 68 07:35 23.11.2019
3912 Clear 15 1019 77 10000 2.55 68 06:46 23.11.2019
3913 Clear 15 1018 77 10000 2.55 68 06:21 23.11.2019
3914 Clear 15 1018 77 10000 2.55 68 05:51 23.11.2019
3915 Clear 15 1018 77 10000 2.55 68 05:29 23.11.2019
3916 Clear 15 1018 77 10000 2.38 58 04:49 23.11.2019
3917 Clear 15 1018 77 10000 2.38 58 04:27 23.11.2019
3918 Clear 16 1018 72 10000 2.1 90 02:48 23.11.2019
3919 Clear 16 1018 72 10000 2.1 90 02:22 23.11.2019
3920 Clear 16 1018 67 10000 2.1 80 01:38 23.11.2019
3921 Clear 17 1018 67 10000 2.1 90 00:43 23.11.2019
3922 Clear 17 1018 67 10000 2.1 90 00:18 23.11.2019
3923 Clear 17 1018 67 10000 2.1 90 00:18 23.11.2019
3924 Clear 17 1018 67 10000 2.1 90 23:42 22.11.2019
3925 Clear 17 1018 67 10000 2.1 90 23:20 22.11.2019
3926 Clear 18 1018 63 10000 2.1 90 22:58 22.11.2019
3927 Clear 18 1019 68 10000 1.5 90 22:38 22.11.2019
3928 Clear 18 1019 68 10000 1.5 90 22:38 22.11.2019
3929 Clear 18 1019 68 10000 1.5 90 22:38 22.11.2019
3930 Clear 18 1019 68 10000 1.5 90 22:20 22.11.2019
3931 Clear 19 1019 63 6000 2.1 80 21:59 22.11.2019
3932 Clear 19 1018 63 6000 2.1 80 21:39 22.11.2019
3933 Clear 19 1018 63 6000 2.1 80 21:20 22.11.2019
3934 Clear 19 1018 60 6000 1.5 50 20:43 22.11.2019
3935 Clear 20 1018 60 6000 1.5 50 20:22 22.11.2019
3936 Clear 20 1018 60 6000 3.1 30 19:58 22.11.2019
3937 Clear 20 1017 56 6000 3.1 30 19:38 22.11.2019
3938 Clear 21 1017 56 6000 3.1 30 19:19 22.11.2019
3939 Clear 21 1017 56 6000 2.6 10 18:58 22.11.2019
3940 Clear 21 1017 56 6000 2.6 10 18:36 22.11.2019
3941 Clouds 21 1017 49 6000 2.1 350 18:18 22.11.2019
3942 Clouds 22 1016 49 6000 2.1 350 17:40 22.11.2019
3943 Clouds 22 1016 49 6000 2.1 350 17:22 22.11.2019
3944 Clouds 23 1016 46 6000 2.6 350 16:48 22.11.2019
3945 Clouds 23 1016 46 6000 2.6 350 16:29 22.11.2019
3946 Clouds 23 1016 46 6000 4.1 360 15:54 22.11.2019
3947 Clouds 23 1016 46 6000 4.1 360 15:36 22.11.2019
3948 Clouds 23 1016 46 6000 4.1 360 15:18 22.11.2019
3949 Clouds 24 1015 41 6000 3.1 340 14:54 22.11.2019
3950 Clouds 24 1016 36 6000 2.6 20 14:36 22.11.2019
3951 Clouds 24 1016 36 6000 2.6 20 14:18 22.11.2019
3952 Clouds 24 1016 36 6000 2.6 20 13:37 22.11.2019
3953 Clouds 24 1016 36 6000 2.6 20 13:19 22.11.2019
3954 Clouds 23 1016 35 6000 2.1 300 12:58 22.11.2019
3955 Clouds 23 1016 35 6000 2.1 300 12:40 22.11.2019
3956 Clouds 23 1016 35 6000 2.1 300 12:19 22.11.2019
3957 Clear 22 1016 37 6000 3.3 302 11:56 22.11.2019
3958 Clear 22 1016 37 6000 3.3 302 11:36 22.11.2019
3959 Clear 22 1016 37 6000 2.2 304 11:18 22.11.2019
3960 Clear 21 1017 43 6000 1 0 10:42 22.11.2019
3961 Clear 21 1017 43 6000 1 0 10:23 22.11.2019
3962 Clear 21 1017 40 6000 1 330 09:59 22.11.2019
3963 Clear 21 1017 40 6000 2.2 304 09:40 22.11.2019
3964 Clear 21 1017 40 6000 2.2 304 09:21 22.11.2019
3965 Clear 21 1017 35 6000 2.2 304 08:57 22.11.2019
3966 Clear 21 1017 35 6000 2.2 304 08:57 22.11.2019
3967 Clear 19 1017 37 6000 2.2 304 08:38 22.11.2019
3968 Clouds 19 1017 37 6000 1.72 76 08:20 22.11.2019
3969 Clouds 18 1017 36 6000 1.72 76 07:41 22.11.2019
3970 Clouds 17 1017 36 6000 1.72 76 07:19 22.11.2019
3971 Clouds 15 1016 38 6000 2.1 120 06:42 22.11.2019
3972 Clouds 15 1016 38 6000 2.1 120 06:21 22.11.2019
3973 Clouds 16 1015 41 6000 1.5 50 05:33 22.11.2019
3974 Clouds 17 1015 33 6000 2.6 130 03:26 22.11.2019
3975 Clouds 17 1015 33 6000 0.58 360 02:43 22.11.2019
3976 Clouds 17 1015 33 6000 1.64 55 02:23 22.11.2019
3977 Clouds 17 1015 33 6000 1 130 01:43 22.11.2019
3978 Clouds 17 1015 33 6000 1 130 01:18 22.11.2019
3979 Clouds 17 1015 33 6000 1.5 100 00:43 22.11.2019
3980 Clouds 17 1015 33 6000 1.5 100 00:22 22.11.2019
3981 Clouds 16 1015 36 6000 0.5 70 23:43 21.11.2019
3982 Clouds 16 1015 36 6000 0.5 70 23:24 21.11.2019
3983 Clouds 16 1015 36 6000 2.33 90 22:57 21.11.2019
3984 Clouds 18 1016 34 6000 1.5 80 22:38 21.11.2019
3985 Clouds 18 1016 34 6000 1.5 80 22:20 21.11.2019
3986 Haze 18 1016 36 3000 1 50 21:55 21.11.2019
3987 Haze 18 1016 36 3000 1 50 21:37 21.11.2019
3988 Haze 18 1016 36 3000 1 50 21:18 21.11.2019
3989 Haze 19 1016 34 3000 1 50 20:57 21.11.2019
3990 Haze 19 1016 34 3000 2.33 90 20:37 21.11.2019
3991 Haze 19 1016 34 3000 3.16 85 20:18 21.11.2019
3992 Haze 20 1016 32 3000 1 80 19:57 21.11.2019
3993 Haze 20 1016 32 3000 1 70 19:38 21.11.2019
3994 Haze 20 1016 32 3000 1 70 19:19 21.11.2019
3995 Haze 20 1015 37 3000 3.16 85 18:55 21.11.2019
3996 Haze 20 1015 35 3000 1.5 10 18:37 21.11.2019
3997 Haze 21 1015 35 3000 1.5 10 18:18 21.11.2019
3998 Clouds 21 1015 30 6000 1.5 350 17:41 21.11.2019
3999 Clouds 21 1015 30 6000 1.5 350 17:22 21.11.2019
4000 Clouds 21 1015 30 6000 1.5 350 17:22 21.11.2019
4001 Clouds 21 1015 28 10000 2.1 360 16:59 21.11.2019
4002 Clouds 22 1014 17 10000 1.5 60 16:40 21.11.2019
4003 Clouds 23 1014 17 10000 1.5 60 16:21 21.11.2019
4004 Clouds 23 1014 17 10000 2.1 30 15:56 21.11.2019
4005 Clouds 23 1014 17 10000 2.6 30 15:37 21.11.2019
4006 Clouds 24 1014 17 10000 2.6 40 15:19 21.11.2019
4007 Clouds 24 1014 19 10000 1.5 70 14:39 21.11.2019
4008 Clouds 24 1014 19 10000 1.5 70 14:21 21.11.2019
4009 Clouds 23 1014 20 10000 2.1 50 13:59 21.11.2019
4010 Clouds 23 1015 23 10000 2.6 60 13:38 21.11.2019
4011 Clouds 23 1015 23 10000 2.6 60 13:19 21.11.2019
4012 Clouds 23 1015 28 6000 2.1 50 12:56 21.11.2019
4013 Clouds 23 1015 33 6000 3.1 40 12:37 21.11.2019
4014 Clouds 22 1015 33 6000 3.6 30 12:19 21.11.2019
4015 Clouds 21 1016 43 6000 2.6 20 11:41 21.11.2019
4016 Clouds 21 1016 43 6000 2.6 20 11:21 21.11.2019
4017 Clouds 21 1017 37 6000 3.89 52 10:57 21.11.2019
4018 Clouds 21 1017 37 6000 3.89 52 10:39 21.11.2019
4019 Clouds 21 1017 37 6000 3.89 52 10:20 21.11.2019
4020 Clouds 19 1017 45 6000 3.89 52 09:43 21.11.2019
4021 Clouds 19 1017 45 6000 3.89 52 09:24 21.11.2019
4022 Clouds 18 1018 45 6000 3.89 52 08:59 21.11.2019
4023 Clouds 18 1018 45 6000 3.89 52 08:40 21.11.2019
4024 Clouds 18 1018 45 6000 3.01 40 08:19 21.11.2019
4025 Clouds 16 1017 48 6000 2.1 10 07:40 21.11.2019
4026 Clouds 15 1017 54 10000 3.01 40 07:18 21.11.2019
4027 Clouds 14 1017 54 10000 3.01 40 06:57 21.11.2019
4028 Clouds 14 1017 54 10000 3.01 40 06:33 21.11.2019
4029 Clouds 14 1017 54 10000 3.01 40 05:32 21.11.2019
4030 Clouds 14 1017 54 10000 2.1 80 03:32 21.11.2019
4031 Clouds 14 1017 54 10000 2.1 70 02:40 21.11.2019
4032 Clouds 14 1017 50 10000 5.51 65 01:54 21.11.2019
4033 Clouds 14 1017 50 10000 5.51 65 01:54 21.11.2019
4034 Clouds 14 1017 50 10000 5.21 68 01:36 21.11.2019
4035 Clouds 15 1017 47 10000 2.1 90 00:54 21.11.2019
4036 Clouds 15 1017 44 10000 5.21 68 00:21 21.11.2019
4037 Clouds 15 1017 44 10000 1.5 90 23:57 20.11.2019
4038 Clouds 15 1017 44 10000 1.5 90 23:39 20.11.2019
4039 Clear 15 1017 44 10000 1.5 90 23:20 20.11.2019
4040 Clear 16 1018 44 10000 2.1 100 22:55 20.11.2019
4041 Clear 16 1018 44 10000 2.1 100 22:37 20.11.2019
4042 Clear 16 1018 44 10000 2.1 100 22:18 20.11.2019
4043 Clear 16 1018 44 10000 2.1 100 22:18 20.11.2019
4044 Clear 17 1018 45 10000 2.1 50 21:55 20.11.2019
4045 Clear 17 1018 45 10000 2.1 50 21:37 20.11.2019
4046 Clear 17 1018 45 10000 2.1 70 21:18 20.11.2019
4047 Clear 17 1018 45 10000 2.1 70 20:54 20.11.2019
4048 Clear 17 1018 42 10000 2.6 50 20:36 20.11.2019
4049 Clear 18 1018 42 10000 2.6 50 20:18 20.11.2019
4050 Clear 18 1018 39 10000 2.6 50 19:54 20.11.2019
4051 Clear 18 1018 37 10000 4.6 40 19:36 20.11.2019
4052 Clear 19 1018 37 10000 4.6 40 19:18 20.11.2019
4053 Clear 19 1018 37 10000 5.1 40 18:57 20.11.2019
4054 Clear 19 1017 34 10000 5.1 40 18:37 20.11.2019
4055 Clear 20 1017 34 10000 5.1 40 18:19 20.11.2019
4056 Clear 22 1017 19 10000 3.6 30 17:55 20.11.2019
4057 Clear 22 1017 19 10000 3.6 30 17:36 20.11.2019
4058 Clear 22 1017 19 10000 3.6 30 17:18 20.11.2019
4059 Clear 23 1017 16 10000 4.6 40 16:41 20.11.2019
4060 Clear 23 1017 16 10000 4.6 40 16:20 20.11.2019
4061 Clear 24 1017 15 10000 5.1 40 15:58 20.11.2019
4062 Clear 24 1017 15 10000 5.1 40 15:39 20.11.2019
4063 Clear 24 1017 15 10000 5.1 40 15:20 20.11.2019
4064 Clear 25 1016 14 10000 4.6 50 14:56 20.11.2019
4065 Clear 25 1016 14 10000 4.6 50 14:38 20.11.2019
4066 Clear 25 1016 14 10000 4.6 50 14:19 20.11.2019
4067 Clear 25 1016 15 10000 5.1 50 13:55 20.11.2019
4068 Clear 25 1016 16 10000 6.2 30 13:36 20.11.2019
4069 Clear 25 1016 16 10000 6.2 30 13:18 20.11.2019
4070 Clear 24 1017 17 10000 5.7 40 12:40 20.11.2019
4071 Clear 24 1017 17 10000 5.7 40 12:22 20.11.2019
4072 Clear 23 1017 20 10000 5.7 40 11:55 20.11.2019
4073 Clear 23 1017 20 10000 5.7 40 11:37 20.11.2019
4074 Clear 22 1018 16 10000 4.1 30 11:18 20.11.2019
4075 Clear 22 1018 16 10000 4.1 30 10:54 20.11.2019
4076 Clear 22 1018 16 10000 4.1 30 10:36 20.11.2019
4077 Clear 22 1018 16 10000 4.1 30 10:18 20.11.2019
4078 Clouds 20 1019 30 6000 3.6 30 09:42 20.11.2019
4079 Clouds 20 1019 30 6000 3.6 30 09:20 20.11.2019
4080 Clouds 17 1019 42 6000 2.6 20 08:47 20.11.2019
4081 Clouds 17 1019 42 6000 2.6 20 08:28 20.11.2019
4082 Clouds 16 1018 48 6000 4.49 54 07:59 20.11.2019
4083 Clouds 15 1018 47 10000 4.49 54 07:38 20.11.2019
4084 Clouds 14 1018 47 10000 4.49 54 07:20 20.11.2019
4085 Clouds 13 1018 50 10000 4.49 54 06:45 20.11.2019
4086 Clouds 13 1018 50 10000 4.49 54 06:45 20.11.2019
4087 Clear 13 1018 54 10000 1.5 90 06:19 20.11.2019
4088 Clear 14 1017 50 10000 1.5 30 04:51 20.11.2019
4089 Clear 14 1017 50 10000 1.5 80 02:47 20.11.2019
4090 Clear 14 1017 47 10000 1.5 90 01:39 20.11.2019
4091 Clear 15 1017 47 10000 1.5 90 01:20 20.11.2019
4092 Clear 15 1017 47 10000 2.1 80 00:35 20.11.2019
4093 Clear 16 1017 44 10000 1.5 50 23:43 19.11.2019
4094 Clear 16 1017 44 10000 1.5 50 23:25 19.11.2019
4095 Clear 16 1018 44 6000 1.5 50 22:57 19.11.2019
4096 Clear 16 1018 42 6000 1.5 50 22:38 19.11.2019
4097 Clear 17 1018 39 10000 1.5 50 22:19 19.11.2019
4098 Clear 17 1018 39 10000 1.5 50 21:55 19.11.2019
4099 Clear 17 1018 39 10000 1.5 50 21:55 19.11.2019
4100 Clear 17 1018 39 10000 1.5 50 21:37 19.11.2019
4101 Clear 17 1018 39 10000 1.5 50 21:37 19.11.2019
4102 Clear 17 1018 39 10000 1.5 50 21:19 19.11.2019
4103 Clear 17 1018 39 10000 1.5 50 21:19 19.11.2019
4104 Clear 17 1018 39 10000 1.5 50 21:19 19.11.2019
4105 Clear 18 1018 36 10000 3.1 60 20:55 19.11.2019
4106 Clear 18 1018 36 10000 3.1 60 20:36 19.11.2019
4107 Clear 18 1018 36 10000 3.1 60 20:18 19.11.2019
4108 Clear 18 1018 36 10000 3.1 60 19:55 19.11.2019
4109 Clear 19 1018 34 10000 5.1 50 19:37 19.11.2019
4110 Clear 19 1018 34 10000 5.1 50 19:18 19.11.2019
4111 Clear 20 1018 32 10000 5.1 40 18:54 19.11.2019
4112 Clear 20 1018 28 10000 5.1 40 18:36 19.11.2019
4113 Clear 20 1018 28 10000 5.1 40 18:18 19.11.2019
4114 Clear 21 1017 22 10000 5.1 40 17:54 19.11.2019
4115 Clear 22 1017 18 10000 5.1 40 17:36 19.11.2019
4116 Clear 22 1017 18 10000 5.1 40 17:18 19.11.2019
4117 Clear 23 1017 17 10000 4.6 30 16:41 19.11.2019
4118 Clear 23 1017 17 10000 4.6 30 16:22 19.11.2019
4119 Clear 24 1016 16 10000 5.7 20 15:54 19.11.2019
4120 Clear 24 1016 14 10000 6.2 30 15:36 19.11.2019
4121 Clear 25 1016 14 10000 6.2 30 15:18 19.11.2019
4122 Clear 25 1016 14 10000 5.1 40 14:54 19.11.2019
4123 Clear 25 1016 14 10000 5.1 40 14:36 19.11.2019
4124 Clear 25 1016 15 10000 5.7 30 14:18 19.11.2019
4125 Clear 25 1016 16 10000 5.7 30 13:39 19.11.2019
4126 Clear 25 1016 16 10000 5.7 30 13:19 19.11.2019
4127 Clear 25 1016 17 10000 4.6 10 12:40 19.11.2019
4128 Clear 25 1016 17 10000 4.6 10 12:21 19.11.2019
4129 Clear 24 1017 19 10000 4.6 10 11:57 19.11.2019
4130 Clear 24 1017 16 10000 3.1 10 11:38 19.11.2019
4131 Clear 24 1017 16 10000 3.1 10 11:19 19.11.2019
4132 Clear 24 1017 16 10000 3.1 10 11:19 19.11.2019
4133 Clear 24 1017 16 10000 3.1 10 11:19 19.11.2019
4134 Clear 24 1017 16 10000 3.1 10 11:19 19.11.2019
4135 Clear 24 1018 15 10000 3.1 10 10:47 19.11.2019
4136 Clear 23 1018 16 10000 3.1 10 10:22 19.11.2019
4137 Clear 21 1018 18 10000 3.6 30 09:58 19.11.2019
4138 Clear 20 1019 19 10000 3.6 30 09:40 19.11.2019
4139 Clear 20 1019 19 10000 3.1 40 09:18 19.11.2019
4140 Clear 18 1019 22 10000 3.1 50 08:41 19.11.2019
4141 Clear 18 1019 22 10000 3.1 50 08:23 19.11.2019
4142 Clear 17 1019 23 10000 2.1 50 07:57 19.11.2019
4143 Clear 15 1018 28 10000 1 80 07:38 19.11.2019
4144 Clear 15 1018 28 10000 1 80 07:20 19.11.2019
4145 Clear 15 1018 28 10000 1.5 80 06:50 19.11.2019
4146 Clear 14 1018 30 10000 1.5 70 06:30 19.11.2019
4147 Clear 14 1018 28 10000 1.5 60 05:28 19.11.2019
4148 Clear 15 1017 26 10000 1 50 03:50 19.11.2019
4149 Clear 16 1017 25 10000 4.56 73 03:31 19.11.2019
4150 Clear 16 1017 25 10000 4.56 73 02:55 19.11.2019
4151 Clear 17 1017 42 10000 4.92 73 02:22 19.11.2019
4152 Clear 17 1017 23 10000 1.5 50 01:27 19.11.2019
4153 Clear 17 1017 21 10000 1.5 70 00:21 19.11.2019
4154 Clear 17 1017 20 10000 2.6 50 23:57 18.11.2019
4155 Clear 18 1017 20 10000 1 0 23:37 18.11.2019
4156 Clear 18 1017 20 10000 1.5 60 23:18 18.11.2019
4157 Clear 18 1017 19 10000 2.1 40 22:42 18.11.2019
4158 Clear 19 1017 19 10000 2.1 40 22:23 18.11.2019
4159 Clear 19 1017 20 10000 2.6 40 21:56 18.11.2019
4160 Clear 20 1017 19 10000 2.6 60 21:37 18.11.2019
4161 Clear 20 1017 19 10000 2.6 60 21:19 18.11.2019
4162 Clear 20 1017 20 10000 3.1 50 20:56 18.11.2019
4163 Clear 20 1017 21 10000 2.1 50 20:38 18.11.2019
4164 Clear 20 1017 22 10000 2.1 50 20:18 18.11.2019
4165 Clear 20 1017 22 10000 3.6 50 19:55 18.11.2019
4166 Clear 20 1017 22 10000 4.1 50 19:36 18.11.2019
4167 Clear 21 1017 22 10000 4.1 50 19:18 18.11.2019
4168 Clear 21 1016 22 10000 4.6 50 18:54 18.11.2019
4169 -273 0 0 0 0 0 18:54 18.11.2019
4170 Clear 22 1016 22 10000 5.1 40 18:36 18.11.2019
4171 Clear 22 1016 22 10000 5.1 40 18:18 18.11.2019
4172 Clear 23 1016 22 10000 5.7 40 17:39 18.11.2019
4173 Clear 24 1016 23 10000 5.7 40 17:20 18.11.2019
4174 Clear 24 1015 23 6000 4.6 30 16:55 18.11.2019
4175 Clear 24 1015 23 6000 4.6 30 16:55 18.11.2019
4176 Clear 24 1015 20 6000 4.6 20 16:37 18.11.2019
4177 Clear 25 1015 20 6000 4.6 20 16:19 18.11.2019
4178 Clear 26 1015 22 6000 6.2 30 15:56 18.11.2019
4179 Clear 26 1015 22 6000 6.2 30 15:56 18.11.2019
4180 Clear 26 1015 22 6000 6.2 30 15:37 18.11.2019
4181 Clear 26 1015 22 6000 6.2 30 15:18 18.11.2019
4182 Clear 27 1014 22 6000 5.7 60 14:42 18.11.2019
4183 Clouds 27 1014 22 6000 5.7 60 14:23 18.11.2019
4184 Clouds 27 1014 24 6000 4.6 50 13:56 18.11.2019
4185 Clouds 27 1014 24 6000 4.6 40 13:37 18.11.2019
4186 Clear 27 1014 24 6000 4.6 40 13:18 18.11.2019
4187 Clear 27 1014 30 6000 4.6 30 12:39 18.11.2019
4188 Clear 27 1014 30 6000 4.6 30 12:19 18.11.2019
4189 Clear 26 1015 36 6000 3.6 30 11:45 18.11.2019
4190 Clear 26 1015 36 6000 3.6 30 11:27 18.11.2019
4191 Clear 26 1015 36 6000 3.6 30 10:59 18.11.2019
4192 Clear 25 1015 38 6000 3.6 30 10:40 18.11.2019
4193 Clear 25 1015 38 6000 3.6 30 10:22 18.11.2019
4194 Clear 25 1015 36 6000 3.1 30 09:56 18.11.2019
4195 Clear 25 1015 41 6000 3.1 30 09:37 18.11.2019
4196 Clear 23 1016 43 6000 2.6 40 09:18 18.11.2019
4197 Clear 22 1015 46 6000 3.6 50 08:44 18.11.2019
4198 Clouds 21 1015 46 6000 3.6 50 08:22 18.11.2019
4199 Clouds 20 1015 49 6000 2.1 50 07:48 18.11.2019
4200 Clouds 19 1015 52 6000 4.12 92 07:29 18.11.2019
4201 Clouds 18 1015 55 10000 4.12 92 06:56 18.11.2019
4202 Clouds 18 1015 55 10000 1.5 40 06:37 18.11.2019
4203 Clouds 18 1015 55 10000 1.5 40 06:19 18.11.2019
4204 Clouds 18 1014 55 10000 1 50 05:25 18.11.2019
4205 Clouds 19 1013 55 10000 2.1 40 02:59 18.11.2019
4206 Clouds 20 1013 56 10000 2.6 60 01:31 18.11.2019
4207 Clouds 20 1013 56 10000 4.34 83 00:40 18.11.2019
4208 Clouds 20 1013 60 10000 1 60 23:56 17.11.2019
4209 Clouds 20 1014 56 10000 2.6 50 23:38 17.11.2019
4210 Clouds 21 1014 56 10000 2.6 50 23:18 17.11.2019
4211 Clouds 21 1014 56 10000 2.1 40 22:54 17.11.2019
4212 Clouds 21 1014 56 10000 1 50 22:36 17.11.2019
4213 Clouds 21 1014 56 10000 1 50 22:18 17.11.2019
4214 Clouds 21 1014 60 10000 4.32 53 21:42 17.11.2019
4215 Clouds 21 1014 60 10000 4.32 53 21:20 17.11.2019
4216 Clouds 21 1014 60 10000 2.6 30 20:58 17.11.2019
4217 Clouds 21 1015 60 10000 2.6 60 20:39 17.11.2019
4218 Clouds 21 1015 60 10000 2.6 60 20:20 17.11.2019
4219 Clouds 21 1015 60 10000 2.6 60 19:56 17.11.2019
4220 Clouds 22 1015 56 10000 3.1 40 19:38 17.11.2019
4221 Clouds 22 1015 56 10000 3.1 40 19:20 17.11.2019
4222 Clouds 22 1014 56 10000 4.1 40 18:56 17.11.2019
4223 Clouds 22 1014 56 10000 4.1 40 18:56 17.11.2019
4224 Clouds 22 1014 56 10000 4.1 40 18:56 17.11.2019
4225 Clouds 23 1014 49 10000 4.1 30 18:38 17.11.2019
4226 Clouds 23 1014 46 10000 5.7 30 18:19 17.11.2019
4227 Clouds 23 1014 46 10000 5.7 30 17:58 17.11.2019
4228 Clouds 23 1014 49 10000 4.1 30 17:39 17.11.2019
4229 Clouds 23 1014 49 10000 4.1 30 17:20 17.11.2019
4230 Clouds 24 1014 47 10000 4.6 30 16:59 17.11.2019
4231 Clouds 24 1013 47 10000 4.6 30 16:41 17.11.2019
4232 Clouds 24 1013 47 10000 4.6 30 16:21 17.11.2019
4233 Clouds 25 1013 41 10000 5.1 30 15:56 17.11.2019
4234 Clouds 25 1013 41 10000 6.2 30 15:38 17.11.2019
4235 Clouds 25 1013 36 10000 6.2 40 15:18 17.11.2019
4236 Clouds 26 1013 36 10000 6.2 40 14:57 17.11.2019
4237 Clouds 26 1013 36 10000 6.2 40 14:38 17.11.2019
4238 Clouds 26 1013 36 10000 6.2 40 14:20 17.11.2019
4239 Clouds 26 1013 44 10000 5.7 40 13:58 17.11.2019
4240 Clouds 26 1013 44 10000 5.7 40 13:39 17.11.2019
4241 Clouds 26 1013 44 10000 5.7 40 13:19 17.11.2019
4242 Clouds 26 1013 41 10000 6.2 30 12:45 17.11.2019
4243 Clouds 26 1013 41 10000 6.2 30 12:23 17.11.2019
4244 Clouds 26 1013 41 10000 5.7 20 11:58 17.11.2019
4245 Clouds 25 1014 47 10000 5.1 30 11:39 17.11.2019
4246 Clouds 25 1014 47 10000 5.1 30 11:20 17.11.2019
4247 Clouds 24 1015 57 10000 4.6 40 10:45 17.11.2019
4248 Clouds 24 1015 57 10000 4.6 40 10:24 17.11.2019
4249 Clouds 23 1015 64 6000 3.6 200 09:58 17.11.2019
4250 Clouds 23 1015 64 6000 3.6 200 09:40 17.11.2019
4251 Clouds 23 1015 64 6000 3.6 200 09:22 17.11.2019
4252 Mist 21 1015 73 4000 2.6 50 08:42 17.11.2019
4253 Mist 21 1015 73 4000 2.6 50 08:23 17.11.2019
4254 Mist 20 1015 77 3000 2.1 60 07:56 17.11.2019
4255 Mist 19 1015 88 1500 1.5 70 07:38 17.11.2019
4256 Mist 18 1015 88 1500 1.5 70 07:19 17.11.2019
4257 Mist 18 1015 88 1500 1 110 06:47 17.11.2019
4258 Mist 18 1015 88 1500 1 110 06:27 17.11.2019
4259 Mist 18 1014 88 1500 1 140 04:50 17.11.2019
4260 Mist 18 1014 88 2000 1.5 10 03:58 17.11.2019
4261 Mist 18 1014 88 2000 1.5 10 03:58 17.11.2019
4262 Mist 18 1014 88 2000 1.5 10 03:33 17.11.2019
4263 Mist 19 1014 82 2000 1.5 10 02:40 17.11.2019
4264 Mist 19 1014 82 4000 1.5 10 01:45 17.11.2019
4265 Clouds 19 1014 82 6000 3.1 360 00:57 17.11.2019
4266 Clouds 20 1014 77 6000 2.6 330 00:23 17.11.2019
4267 Clouds 20 1014 77 6000 2.6 330 23:54 16.11.2019
4268 Clouds 20 1014 77 6000 2.6 310 23:36 16.11.2019
4269 Clouds 20 1014 77 6000 2.6 310 23:18 16.11.2019
4270 Clouds 21 1014 73 6000 2.6 310 22:42 16.11.2019
4271 Clouds 21 1014 73 6000 2.6 310 22:20 16.11.2019
4272 Haze 21 1014 73 4000 2.1 350 21:58 16.11.2019
4273 Haze 21 1015 73 4000 2.1 350 21:39 16.11.2019
4274 Haze 21 1015 73 4000 2.1 350 21:21 16.11.2019
4275 Clouds 21 1015 73 6000 3.1 350 20:57 16.11.2019
4276 Clouds 21 1015 68 6000 2.1 350 20:38 16.11.2019
4277 Clouds 21 1015 68 6000 2.1 350 20:18 16.11.2019
4278 Clouds 21 1015 64 6000 3.1 350 19:41 16.11.2019
4279 Clouds 22 1015 64 6000 3.1 350 19:22 16.11.2019
4280 Clouds 22 1015 64 6000 3.1 340 18:58 16.11.2019
4281 Clouds 22 1014 60 6000 4.1 360 18:39 16.11.2019
4282 Clouds 22 1014 60 6000 4.1 360 18:20 16.11.2019
4283 Clouds 23 1014 56 10000 4.1 360 17:55 16.11.2019
4284 Clouds 23 1014 53 10000 3.1 350 17:36 16.11.2019
4285 Clouds 23 1014 53 10000 3.6 350 17:18 16.11.2019
4286 Clouds 23 1014 50 10000 4.6 360 16:43 16.11.2019
4287 Clouds 24 1014 50 10000 4.6 360 16:25 16.11.2019
4288 Clouds 24 1014 50 10000 5.1 10 15:54 16.11.2019
4289 Clouds 24 1014 50 10000 5.1 360 15:36 16.11.2019
4290 Clouds 24 1014 50 10000 5.1 360 15:18 16.11.2019
4291 Clouds 25 1014 47 10000 5.7 350 14:40 16.11.2019
4292 Clouds 25 1014 47 10000 5.7 350 14:40 16.11.2019
4293 Clouds 25 1014 47 10000 5.7 350 14:21 16.11.2019
4294 Clouds 25 1014 41 10000 3.6 350 13:56 16.11.2019
4295 Clouds 25 1014 41 10000 3.6 350 13:38 16.11.2019
4296 Clouds 25 1014 41 10000 3.6 350 13:19 16.11.2019
4297 Clouds 25 1014 41 10000 4.6 320 12:58 16.11.2019
4298 Clouds 25 1015 41 10000 5.7 340 12:40 16.11.2019
4299 Clouds 25 1015 41 10000 5.7 340 12:20 16.11.2019
4300 Clouds 25 1016 41 10000 4.6 350 11:45 16.11.2019
4301 Clouds 25 1016 41 10000 4.6 350 11:26 16.11.2019
4302 Clouds 25 1016 44 8000 4.6 340 10:57 16.11.2019
4303 Clouds 25 1016 53 8000 4.6 340 10:39 16.11.2019
4304 Clouds 24 1016 53 8000 4.6 340 10:21 16.11.2019
4305 Clouds 23 1017 60 6000 3.6 350 09:44 16.11.2019
4306 Clouds 23 1017 60 6000 3.6 350 09:21 16.11.2019
4307 Haze 22 1017 64 3000 3.1 350 08:59 16.11.2019
4308 Haze 21 1017 73 3000 1.5 280 08:39 16.11.2019
4309 Haze 21 1017 73 3000 1.5 280 08:19 16.11.2019
4310 Haze 20 1017 72 4000 2.1 300 07:43 16.11.2019
4311 Haze 20 1017 72 4000 2.1 300 07:21 16.11.2019
4312 Clear 19 1017 77 6000 1 310 06:54 16.11.2019
4313 Clear 19 1017 77 6000 1 310 06:33 16.11.2019
4314 Clear 18 1017 77 6000 1 310 05:40 16.11.2019
4315 Clear 19 1017 77 6000 2.1 300 03:50 16.11.2019
4316 Clear 19 1017 77 6000 2.1 300 03:25 16.11.2019
4317 Clear 20 1017 72 6000 1.5 360 01:55 16.11.2019
4318 Clear 20 1018 72 6000 1.5 360 01:21 16.11.2019
4319 Clear 20 1018 72 6000 1.5 10 00:46 16.11.2019
4320 Clear 20 1018 72 6000 1.5 10 00:27 16.11.2019
4321 Clear 21 1018 68 6000 1.5 360 23:40 15.11.2019
4322 Clear 21 1018 68 6000 1.5 360 23:21 15.11.2019
4323 Clear 21 1018 68 6000 1.5 350 22:58 15.11.2019
4324 Clear 21 1018 68 6000 1.5 20 22:38 15.11.2019
4325 Clear 21 1018 68 6000 1.5 20 22:18 15.11.2019
4326 Clear 21 1018 68 6000 1.5 360 21:54 15.11.2019
4327 Clear 21 1018 68 6000 2.6 350 21:36 15.11.2019
4328 Clear 21 1018 60 10000 3.6 360 21:18 15.11.2019
4329 Clear 22 1018 60 10000 3.6 360 20:54 15.11.2019
4330 Clear 22 1018 60 10000 3.6 360 20:36 15.11.2019
4331 Clouds 22 1018 60 10000 3.6 360 20:18 15.11.2019
4332 Clouds 22 1018 60 10000 4.1 360 19:56 15.11.2019
4333 Clouds 22 1018 60 10000 4.1 360 19:36 15.11.2019
4334 Clouds 22 1018 53 10000 3.6 360 19:18 15.11.2019
4335 Clouds 23 1018 53 10000 4.6 360 18:42 15.11.2019
4336 Clouds 23 1018 53 10000 4.6 360 18:23 15.11.2019
4337 Clouds 23 1017 53 10000 4.6 360 17:57 15.11.2019
4338 Clouds 23 1017 47 10000 3.6 360 17:39 15.11.2019
4339 Clouds 24 1017 47 10000 3.6 360 17:20 15.11.2019
4340 Clouds 25 1017 41 10000 4.6 350 16:40 15.11.2019
4341 Clouds 25 1017 41 10000 4.6 350 16:22 15.11.2019
4342 Clouds 26 1017 39 10000 4.6 300 16:00 15.11.2019
4343 Clouds 26 1017 39 10000 4.6 300 15:37 15.11.2019
4344 Clouds 26 1017 39 10000 4.6 300 15:19 15.11.2019
4345 Clouds 26 1017 39 10000 4.6 300 14:56 15.11.2019
4346 Clear 26 1017 39 0 4.47 300 14:37 15.11.2019
4347 Clouds 26 1017 39 10000 4.6 300 14:18 15.11.2019
4348 Clouds 26 1017 39 10000 4.6 300 13:56 15.11.2019
4349 Clouds 26 1017 39 10000 4.6 300 13:38 15.11.2019
4350 Clouds 26 1017 39 10000 4.6 300 13:19 15.11.2019
4351 Clouds 26 1017 41 10000 3.6 330 12:56 15.11.2019
4352 Clouds 26 1017 41 10000 3.6 330 12:37 15.11.2019
4353 Clouds 26 1017 41 10000 3.6 330 12:18 15.11.2019
4354 Clouds 25 1017 47 10000 2.6 310 11:55 15.11.2019
4355 Clouds 25 1017 47 10000 2.6 310 11:37 15.11.2019
4356 Clouds 25 1017 47 10000 2.6 310 11:18 15.11.2019
4357 Clouds 25 1018 57 10000 3.6 340 10:39 15.11.2019
4358 Clouds 24 1018 57 10000 3.6 340 10:21 15.11.2019
4359 Clouds 24 1018 57 10000 3.1 320 09:56 15.11.2019
4360 Clouds 24 1018 57 10000 3.1 320 09:56 15.11.2019
4361 Clouds 23 1018 64 10000 3.1 320 09:38 15.11.2019
4362 Clouds 23 1018 64 10000 2.6 310 09:18 15.11.2019
4363 Clouds 22 1018 68 10000 1.5 300 08:42 15.11.2019
4364 Clouds 22 1018 68 10000 1.5 300 08:21 15.11.2019
4365 Clouds 22 1018 68 10000 2.1 290 07:45 15.11.2019
4366 Clouds 21 1018 73 10000 2.1 310 07:26 15.11.2019
4367 Clouds 21 1017 77 6000 1.5 300 06:36 15.11.2019
4368 Clouds 20 1016 82 6000 1.5 270 05:57 15.11.2019
4369 Clouds 20 1016 82 6000 1.5 270 05:39 15.11.2019
4370 Clouds 20 1016 82 10000 1.5 270 04:58 15.11.2019
4371 Clouds 21 1016 77 10000 0.5 260 03:46 15.11.2019
4372 Clear 21 1016 83 10000 2.1 300 02:44 15.11.2019
4373 Clear 21 1015 83 10000 3.1 310 02:18 15.11.2019
4374 Clear 21 1015 83 10000 3.1 310 01:32 15.11.2019
4375 Clear 22 1015 78 10000 2.6 300 00:48 15.11.2019
4376 Clear 22 1015 78 10000 2.6 300 00:29 15.11.2019
4377 Clear 22 1015 83 10000 3.1 300 23:49 14.11.2019
4378 Clear 22 1015 83 10000 3.1 300 23:27 14.11.2019
4379 Clear 23 1015 73 10000 3.1 300 22:57 14.11.2019
4380 Clear 23 1015 73 10000 3.1 300 22:39 14.11.2019
4381 Clear 23 1015 73 10000 3.1 300 22:20 14.11.2019
4382 Clear 23 1014 73 10000 3.6 300 21:54 14.11.2019
4383 Clear 23 1014 69 10000 3.6 300 21:36 14.11.2019
4384 Clear 23 1014 60 10000 4.6 280 21:18 14.11.2019
4385 Clear 25 1014 47 10000 3.6 290 20:41 14.11.2019
4386 Clear 25 1014 47 10000 3.6 290 20:22 14.11.2019
4387 Clear 25 1014 47 10000 4.6 290 19:58 14.11.2019
4388 Clear 25 1013 39 10000 4.1 240 19:40 14.11.2019
4389 Clear 26 1013 39 10000 3.1 240 19:18 14.11.2019
4390 Clear 26 1013 39 10000 3.1 240 18:54 14.11.2019
4391 Clear 27 1013 36 10000 4.1 250 18:36 14.11.2019
4392 Clear 27 1012 34 10000 4.1 250 18:18 14.11.2019
4393 Clear 27 1012 32 10000 4.6 270 17:39 14.11.2019
4394 Clear 28 1011 32 10000 4.1 270 17:20 14.11.2019
4395 Clear 28 1011 32 10000 4.1 270 17:20 14.11.2019
4396 Clear 28 1011 32 10000 4.1 270 16:58 14.11.2019
4397 Clear 28 1011 32 10000 5.1 280 16:39 14.11.2019
4398 Clear 29 1011 32 10000 5.1 280 16:21 14.11.2019
4399 Clear 29 1011 32 10000 6.2 280 15:59 14.11.2019
4400 Clear 29 1011 28 10000 7.2 260 15:41 14.11.2019
4401 Clear 30 1011 28 10000 7.2 260 15:22 14.11.2019
4402 Clear 31 1010 23 10000 5.7 210 14:58 14.11.2019
4403 Clear 31 1010 23 10000 5.7 210 14:58 14.11.2019
4404 Clear 31 1010 22 10000 6.2 210 14:40 14.11.2019
4405 Clear 32 1010 22 10000 6.2 210 14:22 14.11.2019
4406 Clear 32 1010 22 10000 6.7 200 13:55 14.11.2019
4407 Clear 32 1010 24 10000 6.2 200 13:37 14.11.2019
4408 Clear 31 1010 25 6000 6.2 200 13:18 14.11.2019
4409 Clear 31 1010 25 6000 6.2 200 12:45 14.11.2019
4410 Clear 32 1010 24 6000 6.2 210 12:26 14.11.2019
4411 Clear 31 1010 23 6000 6.7 200 11:58 14.11.2019
4412 Clear 31 1010 22 6000 7.2 220 11:38 14.11.2019
4413 Clear 32 1010 22 6000 7.2 220 11:19 14.11.2019
4414 Clear 31 1011 22 10000 5.7 200 10:57 14.11.2019
4415 Clear 31 1011 22 10000 5.7 200 10:38 14.11.2019
4416 Clear 31 1011 22 10000 5.7 200 10:19 14.11.2019
4417 Clear 31 1011 22 10000 4.1 200 09:56 14.11.2019
4418 Clear 31 1011 22 6000 4.1 200 09:37 14.11.2019
4419 Clear 27 1011 34 6000 6.8 203 09:18 14.11.2019
4420 Clear 27 1011 34 6000 6.8 203 08:46 14.11.2019
4421 Clear 27 1011 34 6000 6.8 203 08:24 14.11.2019
4422 Clear 23 1010 43 6000 5.03 166 07:43 14.11.2019
4423 Clear 23 1010 43 6000 5.03 166 07:24 14.11.2019
4424 Clear 22 1010 43 6000 5.03 166 06:55 14.11.2019
4425 Clear 22 1010 43 6000 5.03 166 06:36 14.11.2019
4426 Clear 22 1010 43 6000 5.03 166 06:18 14.11.2019
4427 Clear 25 1009 31 6000 1.5 40 04:39 14.11.2019
4428 Clear 25 1010 31 6000 4.6 120 03:50 14.11.2019
4429 Clear 25 1010 31 6000 4.6 120 02:41 14.11.2019
4430 Clear 24 1010 41 6000 3.1 90 01:41 14.11.2019
4431 Clear 23 1010 46 6000 2.6 100 01:20 14.11.2019
4432 Clear 23 1011 46 6000 1.5 60 00:43 14.11.2019
4433 Clear 23 1011 46 6000 1.5 60 00:25 14.11.2019
4434 Clear 25 1011 41 6000 4.1 100 23:40 13.11.2019
4435 Clear 25 1011 41 6000 4.1 100 23:20 13.11.2019
4436 Clear 25 1011 38 6000 4.6 100 22:55 13.11.2019
4437 Clear 25 1011 38 6000 4.6 110 22:37 13.11.2019
4438 Clear 25 1011 38 6000 4.6 110 22:37 13.11.2019
4439 Clear 25 1011 38 6000 4.6 110 22:19 13.11.2019
4440 Clear 25 1011 38 6000 4.6 110 21:55 13.11.2019
4441 Clear 26 1011 34 6000 4.6 110 21:37 13.11.2019
4442 Clear 26 1011 34 6000 4.6 110 21:18 13.11.2019
4443 Clear 26 1011 34 6000 4.6 110 20:55 13.11.2019
4444 Clear 26 1011 34 6000 3.1 100 20:37 13.11.2019
4445 Clear 26 1011 34 6000 3.1 100 20:18 13.11.2019
4446 Haze 26 1011 31 3000 3.6 100 19:43 13.11.2019
4447 Haze 26 1011 31 3000 3.6 100 19:20 13.11.2019
4448 Haze 27 1011 32 3000 2.1 90 18:57 13.11.2019
4449 Haze 27 1010 34 3000 1 40 18:39 13.11.2019
4450 Haze 27 1010 34 3000 1 40 18:21 13.11.2019
4451 Haze 28 1010 30 3000 2.1 10 17:58 13.11.2019
4452 Haze 28 1010 30 3000 2.1 10 17:39 13.11.2019
4453 Haze 28 1010 30 3000 2.1 10 17:21 13.11.2019
4454 Clouds 28 1010 26 6000 2.1 360 16:58 13.11.2019
4455 Clouds 29 1010 25 6000 2.1 350 16:39 13.11.2019
4456 Clouds 30 1010 25 6000 2.1 350 16:39 13.11.2019
4457 Clouds 30 1010 25 6000 2.1 350 16:21 13.11.2019
4458 Clouds 30 1009 23 6000 2.6 340 15:58 13.11.2019
4459 Clouds 30 1009 22 6000 3.1 340 15:39 13.11.2019
4460 Clouds 31 1009 22 6000 3.1 340 15:20 13.11.2019
4461 Haze 32 1009 22 3000 3.1 320 14:43 13.11.2019
4462 Haze 32 1009 22 3000 3.1 320 14:22 13.11.2019
4463 Haze 32 1009 22 3000 3.1 320 13:58 13.11.2019
4464 Haze 32 1010 25 3000 2.6 320 13:36 13.11.2019
4465 Haze 31 1009 35 2000 2.1 290 13:18 13.11.2019
4466 Haze 31 1009 35 2000 2.1 290 12:55 13.11.2019
4467 Haze 30 1010 42 2000 2.6 310 12:37 13.11.2019
4468 Haze 29 1010 42 2000 2.6 310 12:19 13.11.2019
4469 Clear 29 1009 23 0 3.37 280 11:40 13.11.2019
4470 Haze 28 1011 45 2000 1 0 11:20 13.11.2019
4471 Haze 28 1011 45 2000 1 0 10:58 13.11.2019
4472 Haze 28 1011 45 2000 1 0 10:40 13.11.2019
4473 Haze 28 1011 45 2000 1 0 10:20 13.11.2019
4474 Haze 27 1011 47 2000 1.5 300 09:56 13.11.2019
4475 Haze 27 1011 47 2000 3.07 242 09:37 13.11.2019
4476 Haze 27 1011 47 2000 3.07 242 09:19 13.11.2019
4477 Haze 25 1011 53 3000 3.07 242 08:39 13.11.2019
4478 Haze 25 1011 53 3000 1.99 182 08:20 13.11.2019
4479 Clouds 22 1011 64 6000 1.99 182 07:42 13.11.2019
4480 Clouds 21 1011 64 6000 1.99 182 07:21 13.11.2019
4481 Clouds 20 1011 68 6000 1.99 182 06:46 13.11.2019
4482 Clouds 19 1011 68 6000 1.99 182 06:19 13.11.2019
4483 Clouds 19 1011 68 6000 1.99 182 06:19 13.11.2019
4484 Clouds 19 1011 68 6000 1.99 182 06:19 13.11.2019
4485 Clouds 19 1010 72 6000 1.99 182 05:54 13.11.2019
4486 Clouds 19 1010 72 6000 1.99 182 05:34 13.11.2019
4487 Clouds 19 1010 77 6000 1.5 80 04:44 13.11.2019
4488 Clouds 21 1010 64 10000 2.1 40 02:19 13.11.2019
4489 Clouds 21 1011 64 10000 1.5 40 01:45 13.11.2019
4490 Clouds 21 1011 64 10000 1.5 30 00:52 13.11.2019
4491 Clouds 21 1011 64 10000 2.1 60 00:34 13.11.2019
4492 Clouds 22 1012 64 10000 2.1 60 23:42 12.11.2019
4493 Clouds 22 1012 64 10000 2.1 60 23:22 12.11.2019
4494 Clouds 23 1012 60 10000 3.6 40 22:58 12.11.2019
4495 Clouds 23 1012 60 10000 3.6 40 22:40 12.11.2019
4496 Clouds 23 1012 60 10000 3.6 40 22:18 12.11.2019
4497 Clouds 23 1012 53 10000 4.1 60 21:44 12.11.2019
4498 Clouds 24 1012 53 10000 4.1 60 21:25 12.11.2019
4499 Clouds 24 1012 53 10000 4.1 60 20:58 12.11.2019
4500 Clouds 24 1012 47 10000 4.1 60 20:38 12.11.2019
4501 Clouds 24 1012 47 10000 4.1 60 20:19 12.11.2019
4502 Clouds 24 1012 47 10000 4.6 50 19:58 12.11.2019
4503 Clouds 24 1012 41 10000 4.6 50 19:39 12.11.2019
4504 Clouds 25 1012 41 10000 4.6 50 19:19 12.11.2019
4505 Clouds 25 1012 38 10000 4.6 40 18:59 12.11.2019
4506 Clouds 25 1012 34 10000 4.6 40 18:40 12.11.2019
4507 Clouds 26 1012 34 10000 4.6 40 18:22 12.11.2019
4508 Clouds 27 1012 28 10000 4.6 50 17:58 12.11.2019
4509 Clouds 27 1011 26 10000 5.1 30 17:40 12.11.2019
4510 Clouds 27 1011 26 10000 5.1 30 17:21 12.11.2019
4511 Clouds 28 1011 21 10000 5.1 40 16:59 12.11.2019
4512 Clouds 29 1011 19 10000 5.7 30 16:39 12.11.2019
4513 Clouds 30 1011 19 10000 5.7 30 16:21 12.11.2019
4514 Clouds 31 1011 16 10000 5.1 40 15:42 12.11.2019
4515 Clouds 31 1011 16 10000 5.1 40 15:42 12.11.2019
4516 Clouds 31 1011 16 10000 5.1 40 15:23 12.11.2019
4517 Clouds 31 1011 16 10000 7.2 60 14:57 12.11.2019
4518 Clouds 32 1011 15 10000 6.7 50 14:39 12.11.2019
4519 Clouds 32 1011 15 10000 6.7 50 14:19 12.11.2019
4520 Clouds 32 1011 15 10000 6.7 50 13:57 12.11.2019
4521 Clouds 32 1011 15 10000 6.7 50 13:57 12.11.2019
4522 Clouds 32 1011 15 10000 6.2 60 13:38 12.11.2019
4523 Clouds 32 1011 15 10000 6.2 60 13:19 12.11.2019
4524 Clouds 32 1011 17 10000 5.7 60 12:43 12.11.2019
4525 Clouds 32 1011 17 10000 5.7 60 12:20 12.11.2019
4526 Clouds 32 1011 17 10000 5.7 60 12:20 12.11.2019
4527 Clouds 32 1012 17 10000 7.2 60 11:59 12.11.2019
4528 Clouds 32 1012 18 10000 6.2 60 11:41 12.11.2019
4529 Clouds 32 1012 18 10000 6.2 60 11:22 12.11.2019
4530 Clouds 31 1013 27 10000 5.1 50 10:57 12.11.2019
4531 Clouds 30 1013 27 10000 5.1 50 10:39 12.11.2019
4532 Clouds 30 1013 27 10000 5.1 50 10:39 12.11.2019
4533 Clouds 30 1013 27 10000 5.1 50 10:39 12.11.2019
4534 Clouds 30 1013 27 10000 5.1 50 10:21 12.11.2019
4535 Clouds 28 1013 30 6000 4.6 50 09:56 12.11.2019
4536 Clouds 28 1013 30 6000 4.6 50 09:38 12.11.2019
4537 Clouds 27 1013 38 6000 4.6 60 09:18 12.11.2019
4538 Clouds 25 1013 38 6000 4.6 60 08:46 12.11.2019
4539 Clouds 25 1013 38 6000 4.6 60 08:27 12.11.2019
4540 Clear 23 1013 49 6000 3.6 50 07:42 12.11.2019
4541 Clear 23 1013 49 6000 3.6 50 07:23 12.11.2019
4542 Clear 22 1013 53 10000 2.6 60 06:48 12.11.2019
4543 Clear 21 1012 56 10000 2.6 60 06:24 12.11.2019
4544 Clear 21 1012 56 10000 3.1 60 05:52 12.11.2019
4545 Clear 20 1012 64 10000 2.1 60 04:51 12.11.2019
4546 Clear 21 1012 68 10000 1.5 50 03:53 12.11.2019
4547 -273 0 0 0 0 0 03:53 12.11.2019
4548 Clear 21 1012 73 10000 1 0 01:50 12.11.2019
4549 Clear 22 1012 68 10000 1.5 50 01:23 12.11.2019
4550 Clear 22 1012 68 6000 2.6 50 00:52 12.11.2019
4551 Clear 23 1012 64 6000 3.1 40 00:32 12.11.2019
4552 Clear 23 1011 64 6000 3.6 50 23:49 11.11.2019
4553 Clear 23 1012 64 6000 3.6 50 23:26 11.11.2019
4554 Clear 23 1012 64 6000 2.1 60 22:59 11.11.2019
4555 Clear 24 1012 60 6000 4.1 50 22:38 11.11.2019
4556 Clear 24 1012 60 6000 4.1 50 22:19 11.11.2019
4557 Clear 24 1012 64 6000 4.1 50 21:58 11.11.2019
4558 Clear 24 1012 64 6000 3.6 60 21:39 11.11.2019
4559 Clear 24 1012 64 6000 3.6 60 21:20 11.11.2019
4560 Clear 24 1012 64 6000 3.6 60 21:20 11.11.2019
4561 Clear 24 1012 69 6000 3.1 50 20:55 11.11.2019
4562 Clear 24 1012 69 6000 4.1 60 20:37 11.11.2019
4563 Clear 24 1012 69 6000 4.1 60 20:19 11.11.2019
4564 Clear 24 1012 65 6000 4.1 50 19:42 11.11.2019
4565 Clear 25 1012 65 6000 4.1 50 19:19 11.11.2019
4566 Clear 25 1012 69 6000 4.6 40 18:58 11.11.2019
4567 Clear 25 1012 65 6000 4.1 50 18:40 11.11.2019
4568 Clear 26 1012 65 6000 4.1 50 18:20 11.11.2019
4569 Clear 27 1012 57 6000 4.1 40 17:45 11.11.2019
4570 Clear 27 1011 57 6000 4.1 30 17:27 11.11.2019
4571 Clear 28 1011 58 6000 3.6 10 16:56 11.11.2019
4572 Clear 28 1011 54 6000 4.1 10 16:38 11.11.2019
4573 Clear 28 1011 54 6000 4.1 10 16:20 11.11.2019
4574 Clear 29 1012 51 0 4.02 360 15:41 11.11.2019
4575 Clear 29 1012 48 6000 4.6 20 15:20 11.11.2019
4576 Clear 29 1012 48 6000 4.6 20 14:55 11.11.2019
4577 Clear 28 1012 54 0 4.47 20 14:37 11.11.2019
4578 Clear 28 1012 54 6000 4.6 20 14:19 11.11.2019
4579 Clear 28 1012 54 6000 4.6 20 13:54 11.11.2019
4580 Clouds 28 1012 54 6000 4.1 30 13:36 11.11.2019
4581 Clouds 28 1012 54 6000 4.1 30 13:18 11.11.2019
4582 Clouds 28 1012 54 6000 4.1 30 12:54 11.11.2019
4583 Clouds 27 1013 61 6000 4.6 10 12:36 11.11.2019
4584 Clouds 27 1013 61 6000 4.6 10 12:18 11.11.2019
4585 Clouds 26 1014 69 6000 4.6 360 11:41 11.11.2019
4586 Clouds 26 1014 69 6000 4.6 360 11:21 11.11.2019
4587 Mist 25 1014 69 4000 2.6 10 10:44 11.11.2019
4588 Mist 25 1014 69 4000 2.6 10 10:19 11.11.2019
4589 Mist 24 1015 78 4000 3.1 360 09:59 11.11.2019
4590 Mist 23 1015 83 2000 3.6 10 09:40 11.11.2019
4591 Mist 23 1015 83 2000 3.6 10 09:20 11.11.2019
4592 Mist 22 1015 88 1000 2.1 360 08:42 11.11.2019
4593 Mist 22 1015 88 1000 2.1 360 08:23 11.11.2019
4594 Fog 21 1015 94 600 2.6 10 07:57 11.11.2019
4595 Fog 21 1015 94 600 3.1 350 07:38 11.11.2019
4596 Fog 21 1015 94 600 3.1 350 07:19 11.11.2019
4597 Mist 21 1015 94 1000 2.6 360 06:55 11.11.2019
4598 Mist 21 1015 94 1000 1 340 06:37 11.11.2019
4599 Mist 21 1015 94 1000 1 340 06:18 11.11.2019
4600 Mist 21 1015 94 1000 4.22 35 05:42 11.11.2019
4601 Mist 21 1015 94 1000 3.48 44 03:26 11.11.2019
4602 Mist 21 1015 94 1000 3.48 44 02:30 11.11.2019
4603 Mist 21 1015 88 1000 2.1 20 01:58 11.11.2019
4604 Mist 21 1015 88 1000 2.1 20 01:36 11.11.2019
4605 Mist 21 1015 88 2000 2.6 350 00:54 11.11.2019
4606 Mist 21 1015 83 2000 2.6 350 00:33 11.11.2019
4607 Mist 22 1015 83 3000 3.1 340 23:58 10.11.2019
4608 Mist 22 1015 83 4000 2.1 10 23:37 10.11.2019
4609 Mist 22 1015 83 4000 2.1 10 23:19 10.11.2019
4610 Mist 22 1015 83 4000 2.1 10 22:55 10.11.2019
4611 Clear 22 1015 83 6000 2.6 20 22:37 10.11.2019
4612 Clear 22 1015 83 6000 2.6 20 22:37 10.11.2019
4613 Clear 22 1015 83 6000 2.6 20 22:18 10.11.2019
4614 Clear 22 1015 83 6000 1.5 10 21:55 10.11.2019
4615 Clear 23 1015 78 6000 2.6 20 21:36 10.11.2019
4616 Clear 23 1015 78 6000 3.1 360 21:18 10.11.2019
4617 Clear 23 1015 78 6000 4.1 10 20:41 10.11.2019
4618 Clouds 23 1015 78 6000 4.1 10 20:22 10.11.2019
4619 Clouds 23 1015 78 6000 4.1 10 20:22 10.11.2019
4620 Clouds 24 1015 69 6000 3.6 360 19:56 10.11.2019
4621 Clouds 24 1015 69 6000 4.6 20 19:37 10.11.2019
4622 Clouds 24 1015 69 6000 4.6 20 19:18 10.11.2019
4623 Clouds 24 1015 65 6000 6.2 20 18:58 10.11.2019
4624 Clouds 24 1015 65 6000 6.2 20 18:58 10.11.2019
4625 Clouds 25 1015 61 6000 3.6 360 18:39 10.11.2019
4626 Clouds 25 1015 61 6000 3.6 360 18:19 10.11.2019
4627 Clouds 25 1015 61 6000 3.6 360 18:19 10.11.2019
4628 Clouds 26 1014 57 10000 3.1 10 17:56 10.11.2019
4629 Clouds 26 1014 57 10000 3.6 10 17:38 10.11.2019
4630 Clouds 26 1014 57 10000 3.6 10 17:38 10.11.2019
4631 Clouds 26 1014 57 10000 3.6 10 17:20 10.11.2019
4632 Clouds 27 1014 54 10000 3.6 350 16:58 10.11.2019
4633 Clouds 27 1014 54 10000 3.6 350 16:39 10.11.2019
4634 Clouds 27 1014 54 10000 3.6 350 16:20 10.11.2019
4635 Clouds 28 1014 45 10000 4.6 340 15:55 10.11.2019
4636 Clouds 28 1013 48 10000 4.1 20 15:36 10.11.2019
4637 Clouds 28 1013 48 10000 4.1 20 15:18 10.11.2019
4638 Clouds 28 1013 48 10000 4.1 20 14:55 10.11.2019
4639 Clouds 28 1013 48 10000 4.1 20 14:36 10.11.2019
4640 Clouds 28 1013 48 10000 4.1 20 14:18 10.11.2019
4641 Clouds 29 1013 39 10000 4.6 20 13:41 10.11.2019
4642 Clouds 29 1013 39 10000 4.6 20 13:20 10.11.2019
4643 Clouds 28 1014 45 6000 4.6 40 12:54 10.11.2019
4644 Clouds 28 1014 45 6000 4.6 40 12:36 10.11.2019
4645 Clouds 27 1015 61 6000 3.6 50 12:18 10.11.2019
4646 Clouds 26 1015 61 6000 3.6 50 11:54 10.11.2019
4647 Clouds 26 1015 61 6000 3.6 50 11:36 10.11.2019
4648 Mist 25 1015 73 4000 3.1 20 11:18 10.11.2019
4649 Mist 25 1015 73 4000 3.1 20 10:41 10.11.2019
4650 Mist 25 1015 73 4000 3.1 20 10:20 10.11.2019
4651 Mist 23 1016 83 1500 2.6 20 09:45 10.11.2019
4652 Mist 23 1016 83 1500 2.6 20 09:27 10.11.2019
4653 Mist 22 1016 88 1500 2.1 350 08:59 10.11.2019
4654 Mist 20 1016 88 1500 2.1 350 08:38 10.11.2019
4655 Mist 20 1016 88 1500 2.1 350 08:19 10.11.2019
4656 Fog 20 1016 100 500 2.1 350 07:43 10.11.2019
4657 Fog 20 1016 100 500 2.1 350 07:25 10.11.2019
4658 Fog 20 1016 100 500 2.1 350 06:33 10.11.2019
4659 Fog 20 1016 100 500 2.1 350 06:33 10.11.2019
4660 Fog 20 1015 100 500 2.1 20 05:43 10.11.2019
4661 Fog 20 1015 100 500 2.1 360 03:22 10.11.2019
4662 Mist 21 1015 94 2000 2.6 350 01:55 10.11.2019
4663 Mist 21 1015 94 2000 1.5 360 01:19 10.11.2019
4664 Mist 21 1015 94 2000 2.6 360 00:42 10.11.2019
4665 Mist 21 1015 94 3000 2.1 350 23:58 09.11.2019
4666 Clouds 21 1015 88 6000 2.6 360 23:38 09.11.2019
4667 Clouds 22 1015 88 6000 2.6 360 23:18 09.11.2019
4668 Clouds 22 1016 88 6000 2.1 10 22:41 09.11.2019
4669 Clouds 22 1016 88 6000 2.1 10 22:21 09.11.2019
4670 Clouds 22 1016 83 6000 3.6 20 21:58 09.11.2019
4671 Clouds 22 1016 78 6000 4.1 20 21:38 09.11.2019
4672 Clouds 23 1016 78 6000 4.1 20 21:20 09.11.2019
4673 Clear 23 1016 78 6000 3.6 20 20:44 09.11.2019
4674 Clear 23 1016 78 6000 4.1 20 20:24 09.11.2019
4675 Clear 23 1016 78 6000 4.6 20 19:58 09.11.2019
4676 Clear 23 1016 69 6000 4.1 10 19:40 09.11.2019
4677 Clear 24 1016 69 6000 4.1 10 19:22 09.11.2019
4678 Clear 24 1016 69 6000 4.1 10 19:22 09.11.2019
4679 Clear 24 1014 57 6000 3.6 20 18:57 09.11.2019
4680 Clear 25 1015 41 6000 3.1 10 18:38 09.11.2019
4681 Clear 25 1015 41 6000 3.1 10 18:18 09.11.2019
4682 Clear 26 1015 36 10000 3.1 350 17:41 09.11.2019
4683 Clear 26 1015 36 10000 3.1 350 17:22 09.11.2019
4684 Clear 27 1015 32 10000 4.1 360 16:57 09.11.2019
4685 Clear 27 1014 28 10000 4.6 350 16:38 09.11.2019
4686 Clear 28 1014 28 10000 4.6 350 16:18 09.11.2019
4687 Clear 28 1014 30 10000 5.1 10 15:42 09.11.2019
4688 Clear 28 1014 30 10000 5.1 10 15:23 09.11.2019
4689 Clear 29 1014 30 10000 5.7 360 14:46 09.11.2019
4690 Clear 29 1015 30 10000 5.7 20 14:23 09.11.2019
4691 Clear 29 1015 30 10000 6.2 10 13:58 09.11.2019
4692 Clear 29 1015 32 10000 5.1 20 13:40 09.11.2019
4693 Clear 29 1015 32 10000 5.1 20 13:21 09.11.2019
4694 Clear 29 1015 32 10000 6.2 10 12:59 09.11.2019
4695 Clear 28 1015 34 10000 5.7 10 12:40 09.11.2019
4696 Clear 28 1015 34 10000 5.7 10 12:22 09.11.2019
4697 Clear 28 1015 45 10000 4.6 20 11:54 09.11.2019
4698 Clear 27 1016 51 10000 4.1 20 11:36 09.11.2019
4699 Clear 26 1016 61 10000 4.1 20 11:18 09.11.2019
4700 Clear 26 1017 61 10000 4.1 20 10:39 09.11.2019
4701 Clear 26 1017 61 10000 4.1 20 10:19 09.11.2019
4702 Clouds 24 1018 73 6000 4.1 360 09:47 09.11.2019
4703 Clouds 24 1018 73 6000 4.1 360 09:28 09.11.2019
4704 Mist 23 1018 83 2000 3.1 30 08:59 09.11.2019
4705 Mist 23 1018 83 2000 3.1 30 08:40 09.11.2019
4706 Mist 23 1018 83 2000 3.1 30 08:21 09.11.2019
4707 Mist 22 1018 94 1000 3.1 20 07:46 09.11.2019
4708 Mist 21 1018 94 1000 3.1 20 07:24 09.11.2019
4709 Mist 21 1018 100 1000 2.1 350 06:50 09.11.2019
4710 Mist 21 1017 100 1000 2.1 350 06:32 09.11.2019
4711 Mist 21 1017 100 2000 3.1 10 05:47 09.11.2019
4712 Mist 21 1017 100 2000 3.1 10 05:23 09.11.2019
4713 Mist 21 1016 100 2000 3.1 20 03:57 09.11.2019
4714 Mist 22 1016 94 2000 2.6 10 02:45 09.11.2019
4715 Mist 22 1016 94 2000 2.6 10 01:57 09.11.2019
4716 Mist 22 1016 94 3000 1 90 00:54 09.11.2019
4717 Mist 22 1016 88 3000 1 90 00:36 09.11.2019
4718 Mist 22 1016 88 3000 2.8 16 23:58 08.11.2019
4719 Mist 22 1016 88 3000 2.8 16 23:40 08.11.2019
4720 Mist 22 1016 88 3000 3.06 40 23:20 08.11.2019
4721 Clear 22 1016 88 6000 1.5 70 22:48 08.11.2019
4722 Clear 23 1016 88 6000 1.5 30 22:22 08.11.2019
4723 Clear 23 1016 83 6000 2.6 30 21:57 08.11.2019
4724 Clear 23 1016 83 6000 2.6 30 21:39 08.11.2019
4725 Clear 23 1016 78 6000 2.6 10 21:19 08.11.2019
4726 Clear 24 1016 78 6000 2.6 10 20:54 08.11.2019
4727 Haze 24 1016 73 4000 2.6 10 20:36 08.11.2019
4728 Haze 24 1016 73 4000 2.6 10 20:36 08.11.2019
4729 Haze 24 1015 69 4000 2.6 10 20:18 08.11.2019
4730 Haze 25 1015 69 4000 2.6 10 19:39 08.11.2019
4731 Haze 25 1015 69 4000 2.6 10 19:19 08.11.2019
4732 Haze 25 1015 69 4000 2.6 10 19:19 08.11.2019
4733 Haze 25 1015 69 3000 3.1 360 18:56 08.11.2019
4734 Haze 25 1015 69 3000 3.1 360 18:56 08.11.2019
4735 Haze 25 1015 69 3000 1.5 310 18:38 08.11.2019
4736 Haze 26 1015 69 3000 1.5 310 18:20 08.11.2019
4737 Haze 26 1014 65 3000 1.5 300 17:56 08.11.2019
4738 Haze 26 1014 65 3000 1.5 300 17:38 08.11.2019
4739 Haze 26 1014 65 3000 1.5 300 17:20 08.11.2019
4740 Haze 27 1014 61 2000 2.6 320 16:58 08.11.2019
4741 Haze 27 1014 61 2000 2.6 320 16:39 08.11.2019
4742 Haze 27 1014 61 2000 2.6 320 16:39 08.11.2019
4743 Haze 27 1014 61 2000 2.6 320 16:39 08.11.2019
4744 Haze 27 1014 61 2000 2.6 320 16:20 08.11.2019
4745 Haze 27 1014 61 2000 2.6 320 16:20 08.11.2019
4746 Haze 27 1014 61 2000 3.1 330 15:59 08.11.2019
4747 Haze 27 1014 61 2000 3.1 330 15:40 08.11.2019
4748 Haze 27 1014 61 2000 3.1 330 15:22 08.11.2019
4749 Haze 27 1014 61 3000 3.1 350 14:56 08.11.2019
4750 Haze 27 1014 61 3000 3.1 350 14:37 08.11.2019
4751 Clouds 27 1014 57 4000 2.1 320 14:19 08.11.2019
4752 Clouds 27 1014 57 4000 2.1 320 13:57 08.11.2019
4753 Clouds 27 1014 57 4000 2.1 320 13:38 08.11.2019
4754 Clouds 27 1014 57 4000 2.1 320 13:19 08.11.2019
4755 Haze 27 1014 57 4000 2.6 320 12:44 08.11.2019
4756 Haze 27 1014 57 4000 2.6 320 12:26 08.11.2019
4757 Haze 25 1014 69 2000 1.5 330 11:57 08.11.2019
4758 Mist 24 1014 73 2000 0.5 340 11:39 08.11.2019
4759 Mist 24 1014 73 2000 0.5 340 11:20 08.11.2019
4760 Mist 24 1014 73 2000 0.5 340 10:57 08.11.2019
4761 Mist 23 1015 88 2000 1 350 10:39 08.11.2019
4762 Mist 22 1015 88 2000 1 350 10:21 08.11.2019
4763 Mist 22 1015 83 1000 2.31 335 09:55 08.11.2019
4764 Mist 21 1015 94 1000 1.5 330 09:36 08.11.2019
4765 Fog 21 1015 100 500 2.6 300 09:18 08.11.2019
4766 Fog 20 1015 100 500 1.5 300 08:38 08.11.2019
4767 Fog 20 1015 100 500 1.5 300 08:19 08.11.2019
4768 Fog 20 1014 100 500 2.1 300 07:41 08.11.2019
4769 Fog 20 1014 100 500 2.1 300 07:23 08.11.2019
4770 Fog 20 1014 100 100 1.54 330 06:43 08.11.2019
4771 Fog 20 1014 100 100 1.54 330 06:25 08.11.2019
4772 Fog 20 1013 100 600 1.5 340 05:57 08.11.2019
4773 Mist 21 1013 94 2000 2.1 310 05:25 08.11.2019
4774 Mist 21 1012 94 2000 1.06 341 04:18 08.11.2019
4775 Mist 21 1012 88 4000 1.5 0 03:41 08.11.2019
4776 Mist 22 1012 83 4000 1 10 02:55 08.11.2019
4777 Clear 22 1012 83 6000 1.41 36 01:50 08.11.2019
4778 Clear 22 1012 83 6000 1.41 36 01:32 08.11.2019
4779 Clear 22 1012 83 6000 1.67 53 00:38 08.11.2019
4780 Clear 23 1012 83 6000 1.67 53 00:20 08.11.2019
4781 Clear 23 1012 78 6000 0.5 60 23:44 07.11.2019
4782 Clear 23 1012 78 6000 0.5 60 23:25 07.11.2019
4783 Clear 23 1012 78 6000 1 70 22:55 07.11.2019
4784 Clear 23 1013 78 6000 1 70 22:37 07.11.2019
4785 Clear 23 1013 78 6000 1 70 22:19 07.11.2019
4786 Clear 24 1013 73 6000 2.1 70 21:39 07.11.2019
4787 Clear 24 1013 73 6000 2.1 70 21:20 07.11.2019
4788 Clear 24 1013 73 6000 1.5 70 20:58 07.11.2019
4789 Clear 25 1012 69 6000 2.6 50 20:40 07.11.2019
4790 Clear 25 1012 69 6000 2.6 50 20:21 07.11.2019
4791 Clear 25 1012 69 6000 2.6 50 20:21 07.11.2019
4792 Clear 25 1012 65 6000 1.5 40 19:58 07.11.2019
4793 Clear 26 1012 61 6000 2.1 10 19:39 07.11.2019
4794 Clear 26 1012 61 6000 2.1 10 19:20 07.11.2019
4795 Clear 26 1012 61 6000 2.1 10 19:20 07.11.2019
4796 Haze 26 1012 61 4000 2.6 20 18:57 07.11.2019
4797 Haze 26 1012 61 4000 3.1 10 18:38 07.11.2019
4798 Haze 26 1012 61 4000 3.1 10 18:19 07.11.2019
4799 Haze 27 1011 57 4000 3.6 10 17:56 07.11.2019
4800 Haze 27 1011 61 4000 2.1 340 17:37 07.11.2019
4801 Haze 27 1011 61 4000 2.1 340 17:19 07.11.2019
4802 Haze 27 1011 61 4000 2.6 340 16:55 07.11.2019
4803 Haze 28 1011 58 4000 2.6 340 16:37 07.11.2019
4804 Haze 28 1011 58 4000 2.6 340 16:18 07.11.2019
4805 Haze 28 1011 58 4000 2.6 340 15:40 07.11.2019
4806 Haze 28 1011 58 4000 2.6 330 15:20 07.11.2019
4807 Haze 28 1011 58 4000 3.1 340 14:58 07.11.2019
4808 Haze 28 1011 58 4000 3.1 340 14:38 07.11.2019
4809 Haze 28 1011 58 4000 3.1 340 14:20 07.11.2019
4810 Haze 28 1011 58 4000 2.6 360 13:55 07.11.2019
4811 Haze 28 1011 54 4000 2.6 10 13:37 07.11.2019
4812 Haze 28 1011 54 4000 2.6 10 13:18 07.11.2019
4813 Haze 28 1011 54 4000 2.6 10 12:56 07.11.2019
4814 Haze 28 1011 54 4000 2.6 10 12:38 07.11.2019
4815 Haze 28 1011 58 4000 3.1 350 12:18 07.11.2019
4816 Haze 27 1012 61 4000 1.5 350 11:42 07.11.2019
4817 Haze 27 1012 61 4000 2.6 350 11:23 07.11.2019
4818 Haze 27 1012 61 4000 2.6 350 11:23 07.11.2019
4819 Haze 25 1013 73 4000 2.1 20 10:43 07.11.2019
4820 Clouds 25 1013 73 4000 2.1 20 10:20 07.11.2019
4821 Clouds 23 1014 83 4000 2.1 70 09:58 07.11.2019
4822 Clouds 23 1014 83 4000 2.1 70 09:40 07.11.2019
4823 -273 0 0 0 0 0 09:40 07.11.2019
4824 Clouds 23 1014 83 4000 2.1 70 09:20 07.11.2019
4825 Mist 22 1014 83 3000 2.6 10 08:47 07.11.2019
4826 -273 0 0 0 0 0 08:25 07.11.2019
4827 -273 0 0 0 0 0 08:24 07.11.2019
4828 Mist 21 1014 94 2000 2.6 10 08:23 07.11.2019
4829 Mist 21 1014 94 2000 2.6 10 07:57 07.11.2019
4830 Mist 21 1014 94 2000 2.6 10 07:39 07.11.2019
4831 -273 0 0 0 0 0 07:38 07.11.2019
4832 Mist 21 1014 94 1500 2.6 10 07:38 07.11.2019
4833 Mist 21 1014 94 1500 2.6 10 07:20 07.11.2019
4834 Mist 21 1013 94 1000 1 360 06:45 07.11.2019
4835 Mist 21 1013 94 1000 2.6 360 06:24 07.11.2019
4836 Mist 21 1013 94 1000 2.6 360 05:49 07.11.2019
4837 Mist 21 1013 94 1000 2.6 360 05:30 07.11.2019
4838 Mist 21 1013 94 1000 2.6 360 04:51 07.11.2019
4839 Mist 21 1013 94 1000 2.6 360 04:29 07.11.2019
4840 Mist 21 1013 94 1000 2.6 360 04:29 07.11.2019
4841 Mist 22 1013 88 1000 2.6 340 01:28 07.11.2019
4842 Mist 22 1013 88 2000 3.1 360 00:32 07.11.2019
4843 Mist 22 1013 88 2000 2.6 350 23:58 06.11.2019
4844 Mist 22 1013 88 2000 2.6 350 23:40 06.11.2019
4845 Mist 22 1014 88 2000 1.5 350 23:20 06.11.2019
4846 Mist 22 1014 83 3000 1.5 10 22:40 06.11.2019
4847 Mist 23 1014 83 3000 1.5 10 22:21 06.11.2019
4848 Mist 23 1014 78 4000 2.6 10 21:58 06.11.2019
4849 Mist 23 1014 78 4000 2.6 10 21:39 06.11.2019
4850 Haze 23 1014 78 4000 3.6 10 21:20 06.11.2019
4851 Haze 23 1014 78 4000 3.6 10 20:57 06.11.2019
4852 Haze 23 1014 78 4000 3.6 10 20:39 06.11.2019
4853 Haze 23 1014 78 4000 3.6 10 20:20 06.11.2019
4854 Clouds 24 1014 78 6000 4.6 360 19:58 06.11.2019
4855 Clouds 24 1014 73 6000 3.6 10 19:37 06.11.2019
4856 Clouds 24 1014 73 6000 3.6 10 19:19 06.11.2019
4857 Clouds 24 1014 69 6000 3.6 10 18:56 06.11.2019
4858 Clouds 24 1014 69 6000 3.6 10 18:38 06.11.2019
4859 Clouds 24 1014 69 6000 3.6 10 18:18 06.11.2019
4860 Clouds 25 1013 61 6000 4.6 360 17:42 06.11.2019
4861 Clouds 25 1013 61 6000 4.6 360 17:24 06.11.2019
4862 Clouds 26 1013 54 6000 4.6 10 16:58 06.11.2019
4863 Clouds 27 1013 54 6000 4.6 10 16:39 06.11.2019
4864 Clouds 27 1013 54 6000 4.6 10 16:21 06.11.2019
4865 Clouds 27 1013 54 6000 4.6 10 16:21 06.11.2019
4866 Clouds 27 1012 51 6000 5.7 10 15:59 06.11.2019
4867 Clouds 27 1012 51 6000 5.7 10 15:38 06.11.2019
4868 Clouds 27 1012 51 6000 5.7 10 15:19 06.11.2019
4869 Clouds 27 1012 51 6000 5.1 20 14:59 06.11.2019
4870 Clouds 27 1012 48 6000 5.1 10 14:41 06.11.2019
4871 Clouds 28 1012 48 6000 5.1 10 14:23 06.11.2019
4872 Clouds 28 1012 45 6000 4.1 10 13:59 06.11.2019
4873 Clouds 28 1013 48 6000 4.6 10 13:38 06.11.2019
4874 Clouds 28 1013 48 6000 4.6 10 13:38 06.11.2019
4875 Clouds 28 1013 48 6000 4.6 10 13:19 06.11.2019
4876 Clouds 27 1013 51 6000 4.1 10 12:55 06.11.2019
4877 Clouds 27 1013 51 6000 4.1 10 12:37 06.11.2019
4878 Clouds 27 1014 51 6000 4.1 360 12:19 06.11.2019
4879 Clouds 27 1014 51 6000 4.1 360 11:57 06.11.2019
4880 Clouds 26 1014 54 6000 4.1 10 11:36 06.11.2019
4881 Clouds 26 1014 54 6000 4.1 10 11:18 06.11.2019
4882 Clouds 26 1014 57 6000 3.6 10 10:56 06.11.2019
4883 Clouds 25 1015 65 6000 3.6 360 10:37 06.11.2019
4884 Clouds 25 1015 65 6000 3.6 360 10:19 06.11.2019
4885 Clouds 25 1015 65 6000 3.6 360 10:19 06.11.2019
4886 Clouds 25 1016 64 6000 4.1 10 09:42 06.11.2019
4887 Clouds 24 1016 64 6000 4.1 10 09:21 06.11.2019
4888 Mist 24 1016 60 3000 3.6 360 08:57 06.11.2019
4889 Mist 23 1016 73 3000 3.1 10 08:38 06.11.2019
4890 Mist 23 1016 73 3000 3.1 10 08:19 06.11.2019
4891 Mist 22 1016 78 1000 2.6 10 07:55 06.11.2019
4892 Mist 21 1016 83 1000 2.6 10 07:36 06.11.2019
4893 Mist 21 1016 83 1000 2.6 10 07:18 06.11.2019
4894 Mist 20 1015 88 1000 2.1 360 06:40 06.11.2019
4895 Mist 20 1015 88 1000 2.1 360 06:22 06.11.2019
4896 Mist 20 1015 88 1000 2.1 350 03:52 06.11.2019
4897 Mist 20 1015 88 1000 2.1 350 02:19 06.11.2019
4898 Mist 21 1015 83 1000 2.1 360 01:31 06.11.2019
4899 Mist 21 1015 83 1200 2.6 350 00:35 06.11.2019
4900 Mist 21 1015 83 2000 1.5 10 23:57 05.11.2019
4901 Mist 21 1015 83 3000 2.6 20 23:37 05.11.2019
4902 Mist 21 1015 83 3000 2.6 20 23:19 05.11.2019
4903 Clear 21 1016 78 6000 2.6 20 22:43 05.11.2019
4904 Clear 21 1016 78 6000 2.6 20 22:43 05.11.2019
4905 Clear 22 1016 78 10000 4.1 10 22:19 05.11.2019
4906 Clear 22 1016 78 10000 4.1 10 21:58 05.11.2019
4907 Clear 22 1016 78 10000 4.1 10 21:40 05.11.2019
4908 Clear 22 1016 78 10000 4.1 10 21:20 05.11.2019
4909 Clear 22 1016 78 10000 4.1 10 20:57 05.11.2019
4910 Clear 22 1016 73 10000 4.1 10 20:38 05.11.2019
4911 Clear 22 1016 73 10000 4.1 10 20:38 05.11.2019
4912 Clear 23 1016 73 10000 4.1 10 20:20 05.11.2019
4913 Clear 23 1016 69 10000 4.1 10 19:55 05.11.2019
4914 Clear 23 1016 69 10000 4.1 10 19:37 05.11.2019
4915 Clear 23 1016 69 10000 4.1 10 19:18 05.11.2019
4916 Clear 24 1016 60 10000 5.7 360 18:56 05.11.2019
4917 Clear 24 1016 60 10000 5.7 360 18:38 05.11.2019
4918 Clear 24 1016 57 10000 5.7 360 18:19 05.11.2019
4919 Clear 24 1016 57 10000 5.7 360 18:19 05.11.2019
4920 Clear 24 1016 57 10000 5.7 360 18:19 05.11.2019
4921 Clear 25 1016 57 10000 5.7 360 17:55 05.11.2019
4922 Clear 25 1015 53 10000 5.7 360 17:37 05.11.2019
4923 Clear 25 1015 47 10000 5.1 360 17:18 05.11.2019
4924 Clear 26 1015 42 10000 4.6 350 16:41 05.11.2019
4925 Clear 27 1015 42 10000 4.6 350 16:20 05.11.2019
4926 Clear 28 1014 37 10000 4.1 360 15:57 05.11.2019
4927 Clear 28 1014 37 10000 5.1 10 15:36 05.11.2019
4928 Clouds 28 1014 37 10000 5.1 360 15:18 05.11.2019
4929 Clouds 28 1014 37 10000 5.1 360 14:54 05.11.2019
4930 Clouds 28 1014 37 10000 4.1 360 14:36 05.11.2019
4931 Clouds 28 1014 37 10000 4.1 360 14:18 05.11.2019
4932 Clouds 28 1014 37 10000 5.1 360 13:43 05.11.2019
4933 Clouds 28 1014 37 10000 5.1 360 13:24 05.11.2019
4934 Clouds 28 1015 45 6000 4.1 360 12:42 05.11.2019
4935 Clouds 28 1015 45 6000 4.1 360 12:23 05.11.2019
4936 Clouds 27 1015 51 6000 3.1 330 11:58 05.11.2019
4937 Clouds 26 1016 54 6000 3.6 10 11:39 05.11.2019
4938 Clouds 26 1016 54 6000 3.6 10 11:21 05.11.2019
4939 Clouds 26 1016 57 6000 3.6 10 10:58 05.11.2019
4940 Clouds 25 1017 69 6000 3.1 10 10:40 05.11.2019
4941 Clouds 24 1017 69 6000 3.1 10 10:22 05.11.2019
4942 Clouds 24 1017 69 6000 3.6 20 09:55 05.11.2019
4943 Clouds 24 1017 73 6000 4.1 40 09:37 05.11.2019
4944 Clouds 24 1017 73 6000 4.1 40 09:18 05.11.2019
4945 Mist 23 1017 78 4000 3.1 40 08:39 05.11.2019
4946 Mist 23 1017 78 4000 3.1 40 08:20 05.11.2019
4947 Mist 22 1017 78 4000 3.1 50 07:57 05.11.2019
4948 Mist 20 1017 82 4000 3.95 55 07:39 05.11.2019
4949 Mist 20 1017 82 4000 3.95 55 07:39 05.11.2019
4950 Mist 20 1017 82 4000 3.95 55 07:39 05.11.2019
4951 Mist 20 1017 82 4000 3.95 55 07:20 05.11.2019
4952 Clouds 20 1017 82 6000 1.5 80 06:49 05.11.2019
4953 Clouds 19 1017 88 6000 1.5 90 05:51 05.11.2019
4954 Clear 19 1017 88 10000 1.5 80 05:23 05.11.2019
4955 Clear 19 1017 88 10000 1.5 80 05:23 05.11.2019
4956 Clear 19 1016 88 10000 3.95 71 04:31 05.11.2019
4957 Clear 19 1016 88 10000 3.95 71 03:55 05.11.2019
4958 Clear 19 1016 88 10000 1.5 100 02:48 05.11.2019
4959 Clear 20 1016 82 10000 1.5 90 02:22 05.11.2019
4960 Clear 21 1017 83 10000 2.1 50 01:25 05.11.2019
4961 Clear 21 1017 77 10000 3.1 50 00:37 05.11.2019
4962 Clear 21 1017 77 10000 2.1 50 23:57 04.11.2019
4963 Clear 21 1017 73 10000 2.6 50 23:37 04.11.2019
4964 Clear 22 1017 73 10000 2.6 50 23:18 04.11.2019
4965 Clear 22 1017 73 10000 2.6 60 22:42 04.11.2019
4966 Clear 22 1017 73 10000 2.6 60 22:23 04.11.2019
4967 Clear 22 1017 73 10000 3.6 50 21:56 04.11.2019
4968 Clear 22 1017 69 10000 3.1 60 21:38 04.11.2019
4969 Clear 23 1017 69 10000 3.1 60 21:19 04.11.2019
4970 Clear 23 1017 69 10000 3.6 50 20:59 04.11.2019
4971 Clear 23 1017 69 10000 4.1 50 20:40 04.11.2019
4972 Clear 23 1017 69 10000 4.1 50 20:21 04.11.2019
4973 Clear 23 1017 69 10000 4.1 50 20:21 04.11.2019
4974 Clear 24 1017 60 10000 4.1 50 19:59 04.11.2019
4975 Clear 25 1017 53 10000 4.6 50 19:41 04.11.2019
4976 Clear 25 1017 53 10000 4.6 50 19:21 04.11.2019
4977 Clear 25 1017 53 10000 4.6 50 18:57 04.11.2019
4978 Clear 25 1017 53 10000 4.6 40 18:39 04.11.2019
4979 Clear 25 1017 53 10000 4.6 40 18:19 04.11.2019
4980 Clear 26 1016 39 10000 3.6 30 17:41 04.11.2019
4981 Clear 27 1016 34 10000 3.6 20 17:22 04.11.2019
4982 Clear 28 1016 34 10000 3.6 20 16:59 04.11.2019
4983 Clear 28 1016 32 10000 4.6 20 16:41 04.11.2019
4984 Clear 28 1016 32 10000 4.6 20 16:23 04.11.2019
4985 Clear 29 1015 28 10000 4.6 20 15:57 04.11.2019
4986 Clear 29 1015 28 10000 4.1 30 15:39 04.11.2019
4987 Clear 29 1015 28 10000 4.1 30 15:19 04.11.2019
4988 Clear 30 1015 25 10000 4.6 30 14:57 04.11.2019
4989 Clear 30 1016 20 10000 3.6 60 14:39 04.11.2019
4990 Clear 30 1016 20 10000 3.6 60 14:19 04.11.2019
4991 Clear 30 1016 17 10000 4.6 20 13:55 04.11.2019
4992 Clear 30 1016 17 10000 3.6 50 13:37 04.11.2019
4993 Clear 30 1016 17 10000 3.6 50 13:19 04.11.2019
4994 Clear 30 1017 20 10000 4.6 40 12:44 04.11.2019
4995 Clear 30 1017 20 10000 4.6 40 12:24 04.11.2019
4996 Clear 30 1017 20 10000 3.6 60 11:57 04.11.2019
4997 Clear 30 1018 21 10000 3.1 60 11:39 04.11.2019
4998 Clear 29 1018 21 10000 3.1 60 11:21 04.11.2019
4999 Clear 29 1018 21 10000 4.6 40 10:45 04.11.2019
5000 Clear 28 1018 24 10000 4.1 60 10:26 04.11.2019
5001 Clear 28 1018 26 10000 4.1 70 09:56 04.11.2019
5002 Clear 27 1019 36 10000 3.1 50 09:38 04.11.2019
5003 Clear 26 1019 36 10000 3.1 50 09:19 04.11.2019
5004 Clear 26 1019 36 10000 3.1 50 09:19 04.11.2019
5005 Clear 24 1019 53 10000 3.1 60 08:42 04.11.2019
5006 Clear 23 1019 53 10000 3.1 60 08:21 04.11.2019
5007 Clear 22 1019 60 10000 2.6 90 07:49 04.11.2019
5008 Clear 21 1019 60 10000 2.6 90 07:25 04.11.2019
5009 Clear 20 1018 68 6000 2.6 50 06:59 04.11.2019
5010 Clear 20 1018 72 6000 2.6 50 06:38 04.11.2019
5011 Clear 19 1018 72 6000 2.1 60 06:18 04.11.2019
5012 Clear 19 1018 77 6000 1.5 50 05:30 04.11.2019
5013 Clear 19 1018 77 10000 1.5 50 04:26 04.11.2019
5014 Clear 20 1017 72 10000 1 50 03:29 04.11.2019
5015 Clear 21 1018 77 10000 2.1 60 01:24 04.11.2019
5016 Clear 21 1018 77 10000 2.1 60 00:59 04.11.2019
5017 Clear 21 1018 77 10000 3.6 60 00:22 04.11.2019
5018 Clear 21 1018 77 10000 3.1 50 23:58 03.11.2019
5019 Clear 22 1018 73 10000 2.6 50 23:37 03.11.2019
5020 Clear 22 1018 73 10000 2.6 50 23:18 03.11.2019
5021 Clear 22 1018 73 10000 2.6 50 22:56 03.11.2019
5022 Clear 22 1018 73 10000 2.6 70 22:38 03.11.2019
5023 Clear 22 1018 73 10000 2.6 70 22:19 03.11.2019
5024 Clear 22 1018 64 10000 1.5 60 21:43 03.11.2019
5025 Clear 23 1018 64 10000 1.5 60 21:21 03.11.2019
5026 Clear 23 1018 64 10000 3.1 60 20:58 03.11.2019
5027 Clear 23 1018 60 10000 3.6 60 20:38 03.11.2019
5028 Clear 23 1018 60 10000 3.6 60 20:38 03.11.2019
5029 Clear 24 1018 60 10000 3.6 60 20:19 03.11.2019
5030 Clear 24 1018 57 10000 3.1 50 19:57 03.11.2019
5031 Clear 24 1018 57 10000 5.1 90 19:39 03.11.2019
5032 Clear 24 1018 57 10000 5.1 90 19:20 03.11.2019
5033 Clear 24 1017 57 10000 4.6 50 18:57 03.11.2019
5034 Clear 25 1017 57 10000 5.7 40 18:37 03.11.2019
5035 Clear 25 1017 57 10000 5.7 40 18:18 03.11.2019
5036 Clear 27 1016 34 10000 4.1 30 17:42 03.11.2019
5037 Clear 28 1016 34 10000 4.1 30 17:22 03.11.2019
5038 Clear 29 1016 32 10000 3.6 10 16:59 03.11.2019
5039 Clear 29 1016 32 10000 3.6 10 16:41 03.11.2019
5040 Clear 29 1016 32 10000 3.6 10 16:22 03.11.2019
5041 Clear 30 1015 23 10000 4.1 20 15:58 03.11.2019
5042 Clear 30 1015 23 10000 4.1 20 15:40 03.11.2019
5043 Clear 30 1015 23 10000 4.1 20 15:22 03.11.2019
5044 Clear 30 1015 25 10000 3.1 10 14:54 03.11.2019
5045 Clear 30 1015 25 10000 3.1 10 14:36 03.11.2019
5046 Clear 30 1015 25 10000 3.1 10 14:18 03.11.2019
5047 Clear 30 1015 25 10000 2.6 20 13:41 03.11.2019
5048 Clear 30 1015 25 10000 2.6 20 13:19 03.11.2019
5049 Clear 30 1015 25 10000 2.6 20 13:19 03.11.2019
5050 Clear 30 1015 28 10000 2.1 360 12:57 03.11.2019
5051 Clear 30 1015 28 10000 2.1 360 12:36 03.11.2019
5052 Clear 30 1015 28 10000 2.1 360 12:18 03.11.2019
5053 Clear 29 1015 30 10000 1.5 10 11:42 03.11.2019
5054 Clear 29 1015 30 10000 1.5 10 11:22 03.11.2019
5055 Clear 28 1016 30 10000 2.1 40 10:56 03.11.2019
5056 Clear 28 1016 30 10000 2.1 40 10:56 03.11.2019
5057 Clear 28 1016 30 10000 2.1 40 10:37 03.11.2019
5058 Clear 28 1016 30 10000 2.1 40 10:19 03.11.2019
5059 Clear 27 1016 32 6000 2.1 120 09:44 03.11.2019
5060 Clear 27 1016 32 6000 2.1 120 09:25 03.11.2019
5061 Clear 26 1016 39 6000 2.1 90 08:57 03.11.2019
5062 Clear 25 1016 41 6000 2.1 130 08:38 03.11.2019
5063 Clear 25 1016 41 6000 2.1 130 08:20 03.11.2019
5064 Clear 23 1016 49 10000 1.64 157 07:45 03.11.2019
5065 Clear 22 1016 49 10000 1.64 157 07:22 03.11.2019
5066 Clear 21 1016 52 10000 1.64 157 06:46 03.11.2019
5067 Clear 20 1015 56 10000 0.5 0 06:28 03.11.2019
5068 Clear 20 1015 56 10000 1 100 05:38 03.11.2019
5069 Clear 20 1014 56 10000 1.5 70 04:56 03.11.2019
5070 Clear 20 1014 60 10000 2.6 70 04:28 03.11.2019
5071 Clear 21 1014 60 10000 2.6 60 03:30 03.11.2019
5072 Clear 21 1014 60 10000 3.6 60 02:30 03.11.2019
5073 Clear 21 1014 64 10000 4.6 60 01:59 03.11.2019
5074 Clear 21 1014 64 10000 4.1 80 01:38 03.11.2019
5075 Clear 21 1014 64 10000 4.1 80 01:19 03.11.2019
5076 Clear 22 1014 64 10000 4.6 80 00:42 03.11.2019
5077 Clear 22 1014 64 10000 4.6 80 00:23 03.11.2019
5078 Clear 22 1014 64 10000 5.1 80 23:57 02.11.2019
5079 Clear 22 1015 68 10000 3.6 80 23:38 02.11.2019
5080 Clear 22 1015 68 10000 3.6 80 23:18 02.11.2019
5081 Clear 22 1015 68 10000 3.1 80 22:55 02.11.2019
5082 Clear 22 1015 64 10000 2.1 90 22:37 02.11.2019
5083 Clear 22 1015 64 10000 2.1 90 22:37 02.11.2019
5084 Clear 22 1015 64 10000 2.1 90 22:37 02.11.2019
5085 Clear 22 1015 64 10000 2.1 90 22:18 02.11.2019
5086 Clear 23 1016 64 10000 2.6 70 21:56 02.11.2019
5087 Clear 23 1016 60 10000 4.1 70 21:37 02.11.2019
5088 Clear 23 1016 60 10000 4.1 70 21:37 02.11.2019
5089 Clear 23 1016 60 10000 4.1 70 21:18 02.11.2019
5090 Clear 23 1015 60 10000 3.6 70 20:58 02.11.2019
5091 Clear 23 1015 57 10000 3.6 70 20:39 02.11.2019
5092 Clear 23 1015 57 10000 3.6 70 20:39 02.11.2019
5093 Clear 23 1015 57 10000 3.6 70 20:39 02.11.2019
5094 Clear 23 1015 57 10000 3.6 70 20:19 02.11.2019
5095 Clear 24 1015 44 10000 3.6 70 19:41 02.11.2019
5096 Clear 24 1015 44 10000 3.6 70 19:23 02.11.2019
5097 Clear 26 1015 36 10000 3.1 70 18:56 02.11.2019
5098 Clear 26 1014 36 10000 4.1 70 18:38 02.11.2019
5099 Clear 26 1014 36 10000 4.1 70 18:38 02.11.2019
5100 Clear 26 1014 36 10000 4.1 70 18:20 02.11.2019
5101 Clear 26 1014 36 10000 4.1 70 18:20 02.11.2019
5102 Clear 27 1014 32 10000 3.6 50 17:57 02.11.2019
5103 Clear 27 1014 30 10000 3.1 60 17:38 02.11.2019
5104 Clear 27 1014 30 10000 3.1 60 17:20 02.11.2019
5105 Clear 28 1014 28 10000 3.6 60 16:57 02.11.2019
5106 Clear 28 1014 28 10000 5.1 40 16:36 02.11.2019
5107 Clear 28 1014 28 10000 5.1 40 16:18 02.11.2019
5108 Clear 28 1014 28 10000 5.1 40 16:18 02.11.2019
5109 Clear 29 1013 25 10000 4.6 40 15:41 02.11.2019
5110 Clear 29 1013 25 10000 4.6 40 15:41 02.11.2019
5111 Clear 29 1013 25 10000 4.6 40 15:20 02.11.2019
5112 Clear 29 1013 23 10000 4.1 50 14:43 02.11.2019
5113 Clouds 29 1013 23 10000 4.1 50 14:24 02.11.2019
5114 Clouds 30 1013 23 10000 3.1 60 13:58 02.11.2019
5115 Clouds 30 1013 22 10000 3.6 70 13:39 02.11.2019
5116 Clouds 30 1013 22 10000 3.6 70 13:19 02.11.2019
5117 Clouds 29 1013 26 10000 4.1 50 12:41 02.11.2019
5118 Clouds 29 1013 26 10000 4.1 50 12:41 02.11.2019
5119 Clouds 29 1013 26 10000 4.1 50 12:23 02.11.2019
5120 Clouds 29 1014 25 10000 4.1 50 11:58 02.11.2019
5121 Clouds 28 1014 26 10000 3.6 90 11:39 02.11.2019
5122 Clouds 28 1014 26 10000 3.6 90 11:39 02.11.2019
5123 Clouds 27 1015 30 10000 4.1 80 11:21 02.11.2019
5124 Clouds 27 1015 30 10000 4.1 80 10:50 02.11.2019
5125 Clouds 27 1015 30 10000 4.1 80 10:29 02.11.2019
5126 Clouds 27 1015 32 10000 4.1 90 09:59 02.11.2019
5127 Clouds 26 1015 36 10000 4.1 90 09:40 02.11.2019
5128 Clouds 26 1015 36 10000 4.1 90 09:20 02.11.2019
5129 Clouds 25 1015 44 10000 5.7 90 08:47 02.11.2019
5130 Clouds 24 1015 44 10000 5.7 90 08:22 02.11.2019
5131 Clouds 23 1015 53 10000 4.1 80 07:51 02.11.2019
5132 Clouds 22 1015 56 10000 4.1 80 07:33 02.11.2019
5133 Clouds 21 1015 60 10000 2.6 70 06:58 02.11.2019
5134 Clouds 20 1015 60 10000 2.6 70 06:39 02.11.2019
5135 Clouds 20 1015 60 10000 2.6 70 06:18 02.11.2019
5136 Clouds 19 1015 68 10000 1.5 60 05:29 02.11.2019
5137 Clouds 19 1014 72 10000 2.1 40 04:23 02.11.2019
5138 Clouds 20 1015 68 10000 1.5 50 03:50 02.11.2019
5139 Clouds 20 1015 64 10000 1.5 70 02:49 02.11.2019
5140 Clouds 20 1015 64 10000 1.5 70 02:49 02.11.2019
5141 Clouds 20 1015 64 10000 1 50 01:57 02.11.2019
5142 Clouds 20 1015 64 10000 1 50 01:25 02.11.2019
5143 Clouds 20 1015 64 6000 1.5 50 00:54 02.11.2019
5144 Clouds 20 1015 64 6000 1.5 50 00:27 02.11.2019
5145 Clouds 21 1016 60 6000 1.5 80 23:49 01.11.2019
5146 Clouds 21 1016 60 6000 1.5 80 23:23 01.11.2019
5147 Clouds 21 1016 64 6000 2.6 80 22:59 01.11.2019
5148 Clouds 21 1016 60 6000 2.6 80 22:41 01.11.2019
5149 Clouds 22 1016 60 6000 2.6 80 22:20 01.11.2019
5150 Clouds 22 1016 60 6000 2.1 70 21:42 01.11.2019
5151 Clouds 22 1016 60 6000 2.1 70 21:24 01.11.2019
5152 Clouds 23 1016 56 6000 2.1 90 20:59 01.11.2019
5153 Clouds 23 1016 60 6000 1.5 80 20:41 01.11.2019
5154 Clouds 23 1016 60 6000 1.5 80 20:21 01.11.2019
5155 Clouds 24 1016 53 6000 2.1 30 19:58 01.11.2019
5156 Clouds 24 1016 53 6000 2.1 30 19:40 01.11.2019
5157 Clouds 24 1016 53 10000 2.1 20 19:21 01.11.2019
5158 Clouds 24 1016 53 10000 3.1 20 18:41 01.11.2019
5159 Clouds 24 1016 53 10000 3.1 20 18:21 01.11.2019
5160 Clouds 25 1015 50 10000 3.1 10 17:57 01.11.2019
5161 Clouds 25 1015 50 10000 3.1 10 17:39 01.11.2019
5162 Clouds 25 1015 50 10000 3.1 10 17:39 01.11.2019
5163 Clear 25 1015 50 10000 3.1 10 17:20 01.11.2019
5164 Clear 25 1015 47 10000 3.1 10 16:40 01.11.2019
5165 Clear 25 1015 47 10000 3.1 10 16:20 01.11.2019
5166 Clear 26 1014 44 10000 3.6 10 15:56 01.11.2019
5167 Clear 26 1014 44 10000 3.6 10 15:38 01.11.2019
5168 Clear 26 1014 44 10000 3.6 10 15:20 01.11.2019
5169 Clear 26 1014 44 10000 4.1 360 14:43 01.11.2019
5170 Clear 26 1014 44 10000 4.1 360 14:24 01.11.2019
5171 Clear 26 1015 44 10000 4.6 10 13:58 01.11.2019
5172 Clear 26 1015 44 10000 4.6 10 13:39 01.11.2019
5173 Clouds 26 1015 44 10000 4.6 10 13:21 01.11.2019
5174 Clouds 25 1016 47 10000 3.6 20 12:44 01.11.2019
5175 Clouds 25 1016 47 10000 3.6 20 12:26 01.11.2019
5176 Clouds 25 1016 47 10000 3.6 20 11:59 01.11.2019
5177 Clouds 25 1016 47 10000 3.6 20 11:41 01.11.2019
5178 Clear 25 1016 47 10000 3.6 20 11:23 01.11.2019
5179 Clear 23 1017 56 0 3.58 20 10:43 01.11.2019
5180 Clear 23 1017 56 10000 3.6 20 10:25 01.11.2019
5181 Clear 23 1017 56 0 3.58 20 09:58 01.11.2019
5182 Clear 22 1016 45 0 5.08 27 09:40 01.11.2019
5183 Clear 22 1017 56 10000 2.6 50 09:20 01.11.2019
5184 Clear 22 1017 56 0 2.24 50 08:46 01.11.2019
5185 Clouds 20 1016 64 10000 1.5 80 08:22 01.11.2019
5186 Clouds 20 1016 64 10000 1.5 80 07:57 01.11.2019
5187 Clouds 20 1016 64 10000 1.5 80 07:57 01.11.2019
5188 Clouds 20 1016 64 10000 1.5 80 07:39 01.11.2019
5189 Clouds 20 1016 64 10000 1.5 80 07:20 01.11.2019
5190 Clouds 19 1016 68 10000 2.6 80 06:49 01.11.2019
5191 Clouds 18 1016 72 10000 2.6 80 06:22 01.11.2019
5192 Clouds 18 1016 72 10000 1.5 80 05:44 01.11.2019
5193 Clear 18 1016 77 10000 1 90 04:29 01.11.2019
5194 Clear 18 1016 77 10000 1.5 100 03:26 01.11.2019
5195 Clear 19 1016 72 10000 1.5 90 01:43 01.11.2019
5196 Clear 19 1017 68 10000 1.5 90 00:43 01.11.2019
5197 Clear 20 1017 68 10000 1.5 90 00:19 01.11.2019
5198 Clear 21 1017 64 10000 2.65 36 23:44 31.10.2019
5199 Clear 21 1017 64 10000 2.65 36 23:44 31.10.2019
5200 Clear 21 1017 64 10000 3.7 22 23:23 31.10.2019
5201 Clear 21 1017 64 10000 3.7 22 22:57 31.10.2019
5202 Clear 21 1018 68 10000 1 60 22:39 31.10.2019
5203 Clear 21 1018 68 10000 1 60 22:21 31.10.2019
5204 Clear 22 1017 60 10000 2.6 10 21:44 31.10.2019
5205 Clear 22 1017 60 10000 2.6 10 21:22 31.10.2019
5206 Clear 22 1017 60 10000 3.1 10 20:58 31.10.2019
5207 Clear 22 1017 60 10000 3.6 10 20:39 31.10.2019
5208 Clear 22 1017 60 10000 3.6 10 20:21 31.10.2019
5209 Clouds 22 1017 56 10000 4.6 360 19:43 31.10.2019
5210 Clouds 23 1017 56 10000 4.6 360 19:23 31.10.2019
5211 Clouds 23 1017 53 10000 4.6 360 18:58 31.10.2019
5212 Clouds 24 1017 57 10000 3.1 340 18:39 31.10.2019
5213 Clouds 24 1017 57 10000 3.1 340 18:20 31.10.2019
5214 Clouds 24 1016 50 10000 3.1 360 17:43 31.10.2019
5215 Clouds 25 1016 50 10000 3.1 360 17:24 31.10.2019
5216 Clouds 25 1016 50 10000 3.1 360 16:59 31.10.2019
5217 Clouds 25 1016 47 10000 3.6 350 16:40 31.10.2019
5218 Clouds 25 1016 47 10000 3.6 350 16:20 31.10.2019
5219 Clouds 25 1016 50 10000 4.1 350 15:58 31.10.2019
5220 Clouds 25 1016 47 10000 4.6 350 15:39 31.10.2019
5221 Clouds 26 1016 47 10000 4.6 350 15:20 31.10.2019
5222 Clouds 26 1016 47 10000 4.1 360 14:56 31.10.2019
5223 Clouds 26 1016 47 10000 3.1 330 14:38 31.10.2019
5224 Clouds 26 1016 47 10000 3.1 330 14:20 31.10.2019
5225 Clouds 26 1016 47 10000 4.1 20 13:57 31.10.2019
5226 Clouds 26 1016 47 10000 4.1 20 13:38 31.10.2019
5227 Clouds 26 1016 47 10000 4.1 20 13:19 31.10.2019
5228 Clouds 25 1016 50 10000 4.6 340 12:54 31.10.2019
5229 Clouds 26 1016 47 10000 4.6 10 12:36 31.10.2019
5230 Clouds 26 1016 47 10000 4.6 10 12:18 31.10.2019
5231 Clouds 25 1018 57 10000 3.1 360 11:43 31.10.2019
5232 Clouds 24 1018 57 10000 3.1 360 11:19 31.10.2019
5233 Clouds 24 1018 57 10000 3.1 360 10:57 31.10.2019
5234 Clouds 24 1018 57 10000 3.1 360 10:57 31.10.2019
5235 Clouds 24 1018 57 10000 3.1 360 10:38 31.10.2019
5236 Clouds 24 1018 57 10000 3.1 360 10:20 31.10.2019
5237 Clouds 24 1018 57 6000 3.6 10 09:44 31.10.2019
5238 Clouds 23 1018 57 6000 3.6 10 09:19 31.10.2019
5239 Clouds 23 1018 60 6000 3.6 10 08:56 31.10.2019
5240 Clouds 23 1018 60 6000 3.6 10 08:38 31.10.2019
5241 Clouds 23 1018 60 6000 3.6 10 08:19 31.10.2019
5242 Haze 21 1018 68 4000 1.5 20 07:43 31.10.2019
5243 Haze 21 1018 68 4000 1.5 20 07:24 31.10.2019
5244 Mist 20 1018 72 3000 2.1 40 06:50 31.10.2019
5245 Mist 20 1018 72 3000 2.1 40 06:30 31.10.2019
5246 Mist 20 1018 77 4000 2.6 350 05:18 31.10.2019
5247 Clear 21 1017 77 6000 3.27 18 02:47 31.10.2019
5248 Clear 21 1017 77 6000 3.2 16 02:22 31.10.2019
5249 Clear 21 1018 77 6000 2.6 20 00:48 31.10.2019
5250 Clear 21 1018 77 6000 2.6 20 00:25 31.10.2019
5251 Clear 21 1018 77 10000 3.6 10 23:41 30.10.2019
5252 Clear 21 1018 77 10000 3.6 10 23:22 30.10.2019
5253 Clear 22 1018 73 10000 4.1 360 22:41 30.10.2019
5254 Clear 22 1018 73 10000 4.1 360 22:19 30.10.2019
5255 Clear 22 1018 73 10000 4.1 360 21:55 30.10.2019
5256 Clear 22 1018 73 10000 4.1 10 21:37 30.10.2019
5257 Clear 22 1018 73 10000 4.1 10 21:37 30.10.2019
5258 Clear 22 1018 73 10000 4.1 10 21:18 30.10.2019
5259 Clouds 23 1018 69 10000 4.6 20 20:58 30.10.2019
5260 Clouds 23 1018 69 10000 5.1 10 20:37 30.10.2019
5261 Clouds 23 1018 69 10000 5.1 10 20:37 30.10.2019
5262 Clouds 23 1018 69 10000 5.7 10 20:19 30.10.2019
5263 Clouds 23 1018 60 10000 4.6 20 19:43 30.10.2019
5264 Clouds 24 1018 60 10000 4.6 20 19:25 30.10.2019
5265 Clouds 24 1018 60 6000 4.6 10 19:00 30.10.2019
5266 Clouds 24 1017 60 6000 4.6 350 18:38 30.10.2019
5267 Clouds 24 1017 60 6000 4.6 350 18:19 30.10.2019
5268 Clouds 25 1017 53 6000 3.1 350 17:56 30.10.2019
5269 Clouds 25 1017 53 6000 3.6 350 17:37 30.10.2019
5270 Clouds 25 1017 53 6000 4.1 350 17:18 30.10.2019
5271 Clouds 25 1017 53 6000 4.1 350 16:54 30.10.2019
5272 Clouds 26 1016 47 6000 4.6 360 16:36 30.10.2019
5273 Clouds 26 1016 47 6000 4.6 360 16:18 30.10.2019
5274 Clouds 26 1016 54 6000 4.6 360 15:41 30.10.2019
5275 Clouds 26 1016 54 6000 4.6 360 15:21 30.10.2019
5276 Clouds 26 1016 50 6000 4.1 350 14:59 30.10.2019
5277 Clouds 26 1016 50 6000 4.1 360 14:41 30.10.2019
5278 Clouds 26 1016 50 6000 4.1 360 14:22 30.10.2019
5279 Clouds 26 1016 50 6000 4.1 10 13:57 30.10.2019
5280 Clouds 26 1016 50 6000 3.6 10 13:39 30.10.2019
5281 Clouds 26 1016 50 6000 3.6 10 13:19 30.10.2019
5282 Clouds 27 1016 44 6000 2.6 30 12:54 30.10.2019
5283 Clouds 26 1017 36 6000 4.1 20 12:36 30.10.2019
5284 Clouds 26 1017 36 6000 4.1 20 12:36 30.10.2019
5285 Clouds 26 1017 47 6000 4.1 20 12:18 30.10.2019
5286 Clouds 26 1017 50 6000 3.6 360 11:41 30.10.2019
5287 Clouds 26 1017 50 6000 3.6 360 11:21 30.10.2019
5288 Clouds 25 1018 60 6000 1.5 0 10:44 30.10.2019
5289 Clouds 24 1018 60 6000 1.5 0 10:23 30.10.2019
5290 Clouds 24 1018 60 6000 3.1 10 09:57 30.10.2019
5291 Clear 24 1019 60 6000 3.1 10 09:38 30.10.2019
5292 Haze 23 1019 69 4000 2.6 340 09:19 30.10.2019
5293 Haze 22 1018 68 4000 2.1 330 08:40 30.10.2019
5294 Haze 22 1018 68 4000 2.1 330 08:22 30.10.2019
5295 Haze 21 1018 73 4000 2.42 33 07:51 30.10.2019
5296 Haze 21 1018 73 4000 2.42 33 07:32 30.10.2019
5297 Haze 20 1017 77 4000 1 130 06:43 30.10.2019
5298 Haze 20 1017 77 4000 1 130 06:23 30.10.2019
5299 Haze 20 1017 77 3000 2.1 120 05:50 30.10.2019
5300 Haze 20 1017 77 3000 2.1 120 05:32 30.10.2019
5301 Haze 20 1017 77 3000 2.5 42 03:47 30.10.2019
5302 Haze 20 1017 77 3000 2.5 42 03:20 30.10.2019
5303 Clear 20 1017 73 6000 2.5 42 02:32 30.10.2019
5304 Clear 21 1017 73 10000 2.1 90 01:41 30.10.2019
5305 Clear 21 1017 73 10000 2.1 90 00:32 30.10.2019
5306 Clear 22 1017 68 10000 1.5 60 23:49 29.10.2019
5307 Clear 22 1017 68 10000 1.5 60 23:30 29.10.2019
5308 Clear 22 1017 68 10000 1.5 60 22:57 29.10.2019
5309 Clear 22 1017 68 10000 1.5 60 22:39 29.10.2019
5310 Clear 22 1017 68 10000 1.5 60 22:19 29.10.2019
5311 Clouds 22 1017 68 10000 3.1 50 21:55 29.10.2019
5312 Clouds 22 1017 64 10000 3.1 50 21:36 29.10.2019
5313 Clouds 23 1017 64 10000 3.1 50 21:18 29.10.2019
5314 Clouds 23 1017 64 10000 4.6 40 20:41 29.10.2019
5315 Clouds 23 1017 64 10000 4.6 40 20:22 29.10.2019
5316 Clouds 23 1017 60 6000 6.2 40 19:58 29.10.2019
5317 Clouds 24 1017 57 6000 3.6 360 19:39 29.10.2019
5318 Clouds 25 1017 57 6000 3.6 360 19:20 29.10.2019
5319 Clouds 25 1016 53 6000 3.1 360 18:58 29.10.2019
5320 Clouds 25 1016 53 10000 3.1 360 18:38 29.10.2019
5321 Clouds 25 1016 53 10000 3.1 360 18:20 29.10.2019
5322 Clouds 25 1015 53 10000 3.6 350 17:56 29.10.2019
5323 Clouds 25 1015 47 10000 3.6 350 17:37 29.10.2019
5324 Clouds 26 1015 47 10000 3.6 350 17:19 29.10.2019
5325 Clouds 26 1015 47 10000 3.6 320 16:41 29.10.2019
5326 Clouds 26 1015 47 10000 3.6 320 16:22 29.10.2019
5327 Clouds 26 1014 44 10000 3.6 360 15:59 29.10.2019
5328 Clouds 27 1014 44 10000 3.1 330 15:41 29.10.2019
5329 Clouds 27 1014 44 10000 3.1 330 15:20 29.10.2019
5330 Clouds 27 1014 44 10000 3.1 330 14:57 29.10.2019
5331 Clouds 27 1014 44 10000 3.1 330 14:39 29.10.2019
5332 Clouds 27 1014 44 10000 3.1 330 14:20 29.10.2019
5333 Clouds 27 1015 47 10000 3.6 360 13:41 29.10.2019
5334 Clouds 27 1015 47 10000 3.6 360 13:23 29.10.2019
5335 Clouds 27 1014 44 10000 4.1 350 12:59 29.10.2019
5336 Clouds 27 1014 42 10000 3.1 320 12:41 29.10.2019
5337 Clouds 27 1014 42 10000 3.1 320 12:23 29.10.2019
5338 Clouds 26 1015 50 6000 3.6 350 11:43 29.10.2019
5339 Clouds 26 1015 50 6000 3.6 350 11:23 29.10.2019
5340 Clouds 25 1015 57 6000 2.6 320 10:59 29.10.2019
5341 Clouds 25 1015 57 6000 2.6 320 10:41 29.10.2019
5342 Clouds 25 1015 57 6000 2.6 320 10:21 29.10.2019
5343 Clouds 24 1015 60 6000 2.1 290 09:59 29.10.2019
5344 Clouds 24 1015 60 6000 2.6 270 09:41 29.10.2019
5345 Clouds 24 1015 60 6000 2.6 270 09:22 29.10.2019
5346 Clouds 23 1015 64 6000 3.1 270 08:55 29.10.2019
5347 Clouds 23 1015 64 6000 4.6 280 08:36 29.10.2019
5348 Clouds 23 1015 64 6000 4.6 280 08:18 29.10.2019
5349 Clouds 23 1015 56 10000 3.6 220 07:47 29.10.2019
5350 Clouds 22 1015 60 10000 3.1 220 07:19 29.10.2019
5351 Clouds 21 1014 64 10000 2.6 200 06:47 29.10.2019
5352 Clouds 21 1014 64 10000 2.6 200 06:28 29.10.2019
5353 Clouds 20 1014 68 10000 2.6 190 05:52 29.10.2019
5354 Clouds 20 1014 68 10000 2.6 200 05:34 29.10.2019
5355 Clouds 20 1014 68 10000 2.1 220 04:33 29.10.2019
5356 Clouds 20 1013 64 10000 1.94 299 02:34 29.10.2019
5357 Clouds 20 1013 64 10000 1 140 01:54 29.10.2019
5358 Clouds 22 1014 60 10000 1.93 320 01:23 29.10.2019
5359 Clouds 22 1014 60 10000 1 320 00:50 29.10.2019
5360 Clouds 22 1014 56 10000 1.93 320 23:58 28.10.2019
5361 Clouds 22 1014 56 10000 1.93 320 23:36 28.10.2019
5362 Clouds 22 1014 56 10000 2.79 339 23:18 28.10.2019
5363 Clouds 22 1015 60 10000 1.5 300 22:39 28.10.2019
5364 Clouds 22 1015 60 10000 1.5 300 22:19 28.10.2019
5365 Clouds 22 1014 60 10000 1.5 310 21:56 28.10.2019
5366 Clouds 22 1014 60 10000 0.5 320 21:38 28.10.2019
5367 Clouds 22 1014 60 10000 0.5 320 21:20 28.10.2019
5368 Clouds 23 1014 56 10000 2.1 350 20:57 28.10.2019
5369 Clouds 23 1014 60 10000 2.6 330 20:39 28.10.2019
5370 Clouds 23 1014 60 10000 2.6 330 20:20 28.10.2019
5371 Clouds 23 1014 60 10000 3.1 360 19:54 28.10.2019
5372 Clouds 23 1014 64 10000 4.1 350 19:36 28.10.2019
5373 Clouds 23 1014 60 10000 4.6 330 19:18 28.10.2019
5374 Clouds 24 1014 60 10000 4.6 330 18:55 28.10.2019
5375 Clouds 24 1013 60 10000 4.1 330 18:36 28.10.2019
5376 Clouds 24 1013 60 10000 4.1 330 18:18 28.10.2019
5377 Clouds 25 1013 57 10000 4.1 320 17:54 28.10.2019
5378 Clouds 25 1012 50 10000 3.6 310 17:36 28.10.2019
5379 Clouds 25 1012 50 10000 3.6 310 17:18 28.10.2019
5380 Clouds 25 1012 47 10000 4.1 320 16:44 28.10.2019
5381 Clouds 26 1012 47 10000 4.1 320 16:24 28.10.2019
5382 Clouds 26 1012 44 10000 3.6 320 15:59 28.10.2019
5383 Clouds 26 1012 42 10000 4.6 260 15:40 28.10.2019
5384 Clouds 27 1012 42 10000 4.6 260 15:22 28.10.2019
5385 Clouds 27 1012 42 10000 4.1 270 14:59 28.10.2019
5386 Clouds 27 1012 39 10000 3.6 250 14:40 28.10.2019
5387 Clouds 27 1012 39 10000 3.6 250 14:19 28.10.2019
5388 Clouds 27 1012 42 10000 2.6 310 13:59 28.10.2019
5389 Clouds 26 1012 44 10000 3.6 300 13:41 28.10.2019
5390 Clouds 26 1012 44 10000 2.6 290 13:18 28.10.2019
5391 Clouds 26 1013 47 10000 3.6 260 12:43 28.10.2019
5392 Clouds 26 1013 47 10000 3.6 260 12:22 28.10.2019
5393 Clouds 26 1013 47 10000 5.1 260 11:59 28.10.2019
5394 Clouds 25 1013 50 10000 3.1 310 11:38 28.10.2019
5395 Clouds 25 1013 50 10000 3.1 310 11:19 28.10.2019
5396 Clouds 25 1013 47 10000 2.6 320 10:42 28.10.2019
5397 Clouds 25 1013 47 10000 2.6 320 10:24 28.10.2019
5398 Clouds 25 1014 50 10000 3.1 280 09:58 28.10.2019
5399 Clouds 25 1014 57 10000 3.1 280 09:39 28.10.2019
5400 Clouds 24 1014 57 10000 3.1 280 09:20 28.10.2019
5401 Clouds 24 1014 60 10000 2.6 300 08:57 28.10.2019
5402 Clouds 24 1013 60 6000 3.38 289 08:39 28.10.2019
5403 Clouds 24 1013 60 6000 2.44 287 08:19 28.10.2019
5404 Clouds 24 1013 60 6000 2.44 287 07:57 28.10.2019
5405 Clouds 23 1013 69 6000 2.44 287 07:38 28.10.2019
5406 Clouds 23 1013 69 6000 2.44 287 07:19 28.10.2019
5407 Mist 21 1013 77 4000 1.5 130 06:40 28.10.2019
5408 Mist 20 1012 77 4000 1.5 130 05:53 28.10.2019
5409 Clear 21 1013 77 6000 1.36 314 03:56 28.10.2019
5410 Clear 21 1013 77 6000 1.36 314 03:38 28.10.2019
5411 Clear 21 1013 77 6000 1.36 314 02:40 28.10.2019
5412 Clear 21 1013 77 6000 0.38 78 01:19 28.10.2019
5413 Clear 22 1013 73 6000 1 130 00:42 28.10.2019
5414 Clear 22 1013 73 6000 1 130 00:20 28.10.2019
5415 Clear 22 1013 73 6000 1.5 120 23:42 27.10.2019
5416 Clear 22 1013 73 6000 1.5 120 23:19 27.10.2019
5417 Clear 22 1014 73 6000 1.5 130 22:43 27.10.2019
5418 Clear 22 1014 73 6000 1.5 130 22:23 27.10.2019
5419 Clear 22 1014 69 10000 2.27 65 21:59 27.10.2019
5420 Clear 23 1014 69 10000 1 30 21:39 27.10.2019
5421 Clear 23 1014 69 10000 1 30 21:21 27.10.2019
5422 Clouds 23 1014 69 10000 2.6 360 20:58 27.10.2019
5423 Clouds 23 1014 69 10000 2.6 360 20:58 27.10.2019
5424 Clouds 23 1014 69 10000 3.1 360 20:40 27.10.2019
5425 Clouds 23 1014 69 10000 3.1 360 20:22 27.10.2019
5426 Clouds 24 1014 60 10000 3.6 320 19:56 27.10.2019
5427 Clouds 24 1014 60 10000 3.6 320 19:56 27.10.2019
5428 Clouds 25 1014 57 10000 2.6 320 19:37 27.10.2019
5429 Clouds 25 1013 61 10000 3.1 330 19:19 27.10.2019
5430 Clouds 25 1013 61 10000 3.1 330 18:55 27.10.2019
5431 Clouds 25 1013 57 10000 3.1 320 18:37 27.10.2019
5432 Clouds 25 1013 50 10000 2.6 330 18:19 27.10.2019
5433 Clouds 26 1013 50 10000 2.1 350 17:41 27.10.2019
5434 Clouds 26 1013 50 10000 2.1 350 17:21 27.10.2019
5435 Clouds 26 1013 50 10000 2.1 350 17:21 27.10.2019
5436 Clouds 26 1013 50 10000 2.1 350 16:59 27.10.2019
5437 Clouds 26 1013 50 10000 2.6 350 16:40 27.10.2019
5438 Clouds 26 1013 50 10000 2.6 350 16:22 27.10.2019
5439 Clouds 27 1013 47 10000 4.6 330 15:58 27.10.2019
5440 Clouds 27 1013 47 10000 4.6 330 15:39 27.10.2019
5441 Clouds 27 1013 47 10000 4.6 330 15:20 27.10.2019
5442 Clouds 27 1013 47 10000 4.1 270 14:59 27.10.2019
5443 Clouds 27 1013 47 10000 4.1 270 14:40 27.10.2019
5444 Clouds 27 1013 47 10000 4.1 270 14:18 27.10.2019
5445 Clouds 27 1013 47 10000 3.6 310 13:54 27.10.2019
5446 Clouds 27 1013 47 10000 3.1 280 13:36 27.10.2019
5447 Clouds 27 1013 47 6000 4.1 320 13:18 27.10.2019
5448 Clouds 27 1013 51 6000 2.6 290 12:42 27.10.2019
5449 Clouds 27 1013 51 6000 2.6 290 12:23 27.10.2019
5450 Clouds 26 1014 57 6000 2.6 290 11:43 27.10.2019
5451 Clouds 26 1014 57 6000 2.6 290 11:25 27.10.2019
5452 Clouds 26 1014 57 6000 2.6 290 11:25 27.10.2019
5453 Clouds 26 1014 57 6000 2.6 290 11:25 27.10.2019
5454 Clouds 25 1015 65 6000 2.1 310 10:59 27.10.2019
5455 Clouds 25 1015 65 6000 2.1 310 10:41 27.10.2019
5456 Clouds 25 1015 65 6000 2.1 310 10:22 27.10.2019
5457 Mist 24 1015 73 3000 2.6 330 09:43 27.10.2019
5458 Mist 24 1015 73 3000 2.6 330 09:19 27.10.2019
5459 Mist 23 1015 78 3000 2.1 360 08:57 27.10.2019
5460 Mist 23 1015 78 2000 2.6 310 08:38 27.10.2019
5461 Mist 23 1015 78 2000 2.6 310 08:19 27.10.2019
5462 Mist 22 1015 83 2000 2.1 310 07:48 27.10.2019
5463 Mist 22 1015 83 2000 2.6 290 07:28 27.10.2019
5464 Mist 21 1015 88 2000 2.1 320 06:55 27.10.2019
5465 Mist 21 1015 83 4000 2.76 298 06:29 27.10.2019
5466 Mist 20 1014 82 4000 2.76 298 05:58 27.10.2019
5467 Mist 20 1014 82 4000 2.76 298 05:36 27.10.2019
5468 Clear 20 1014 82 6000 0.97 8 04:25 27.10.2019
5469 Clear 21 1015 77 6000 2.1 290 02:41 27.10.2019
5470 Clear 21 1015 77 6000 2.1 280 01:28 27.10.2019
5471 Clear 21 1015 77 6000 2.25 23 00:56 27.10.2019
5472 Clear 21 1015 77 6000 2.25 23 00:37 27.10.2019
5473 Clear 21 1015 77 6000 3.64 37 23:58 26.10.2019
5474 Clear 21 1015 77 6000 3.64 37 23:40 26.10.2019
5475 Clear 21 1015 77 6000 3.64 37 23:21 26.10.2019
5476 Clear 21 1015 77 6000 2.1 360 22:58 26.10.2019
5477 Clear 21 1015 77 6000 2.1 360 22:39 26.10.2019
5478 Clouds 21 1015 73 10000 2.6 360 22:19 26.10.2019
5479 Clouds 21 1015 73 10000 2.6 360 21:58 26.10.2019
5480 Clouds 22 1015 73 10000 2.6 360 21:40 26.10.2019
5481 Clouds 22 1015 73 10000 2.6 360 21:19 26.10.2019
5482 Clouds 22 1015 73 10000 5.1 10 20:45 26.10.2019
5483 Clouds 22 1015 73 10000 5.1 10 20:45 26.10.2019
5484 Clouds 22 1015 73 10000 5.1 10 20:20 26.10.2019
5485 Clouds 22 1014 73 10000 4.6 340 19:56 26.10.2019
5486 Clouds 22 1014 73 10000 4.6 340 19:56 26.10.2019
5487 Clouds 22 1014 69 10000 4.6 340 19:38 26.10.2019
5488 Clouds 23 1014 69 10000 4.6 340 19:19 26.10.2019
5489 Clouds 23 1014 69 10000 4.6 340 19:19 26.10.2019
5490 -273 0 0 0 0 0 18:55 26.10.2019
5491 Clouds 23 1014 64 10000 4.6 340 18:37 26.10.2019
5492 Clouds 24 1013 60 10000 5.1 340 18:18 26.10.2019
5493 Clouds 24 1013 57 10000 7.2 340 17:39 26.10.2019
5494 Clouds 25 1013 57 10000 7.2 340 17:21 26.10.2019
5495 Clouds 25 1013 57 10000 6.7 330 16:58 26.10.2019
5496 Clouds 26 1012 54 10000 6.2 330 16:40 26.10.2019
5497 Clouds 26 1012 54 10000 6.2 330 16:21 26.10.2019
5498 Clouds 26 1012 54 10000 6.2 330 15:41 26.10.2019
5499 Clouds 26 1012 54 10000 6.2 330 15:19 26.10.2019
5500 Clouds 26 1012 50 10000 7.2 320 14:41 26.10.2019
5501 Clouds 26 1012 50 10000 7.2 320 14:22 26.10.2019
5502 Clouds 26 1012 54 10000 7.7 320 13:59 26.10.2019
5503 Clouds 24 1011 49 0 11.39 337 13:40 26.10.2019
5504 Clouds 24 1011 49 0 11.39 337 13:21 26.10.2019
5505 Clouds 25 1012 54 10000 7.2 320 12:46 26.10.2019
5506 Clouds 24 1012 64 10000 7.7 320 12:24 26.10.2019
5507 Clouds 24 1012 64 10000 7.7 320 11:50 26.10.2019
5508 Clouds 24 1012 64 10000 7.7 320 11:29 26.10.2019
5509 Clouds 24 1012 64 10000 7.7 320 11:29 26.10.2019
5510 Clouds 24 1012 64 10000 7.7 320 11:29 26.10.2019
5511 Clouds 24 1012 69 10000 6.2 310 10:55 26.10.2019
5512 Clouds 24 1012 69 10000 6.2 310 10:36 26.10.2019
5513 Clouds 24 1012 69 10000 6.2 310 10:18 26.10.2019
5514 Clouds 23 1012 78 6000 5.7 280 09:43 26.10.2019
5515 Clouds 23 1012 78 6000 5.7 280 09:25 26.10.2019
5516 Clouds 22 1011 78 6000 6.7 260 08:43 26.10.2019
5517 Clouds 22 1011 78 6000 6.7 260 08:25 26.10.2019
5518 Clouds 22 1011 83 10000 6.2 240 07:54 26.10.2019
5519 Clouds 22 1011 83 10000 6.2 240 07:29 26.10.2019
5520 Clouds 22 1011 83 10000 5.1 250 06:45 26.10.2019
5521 Clouds 22 1011 83 10000 5.1 250 06:26 26.10.2019
5522 Clouds 22 1010 83 10000 5.1 240 05:21 26.10.2019
5523 Clouds 22 1010 83 10000 6.2 240 04:30 26.10.2019
5524 Clouds 22 1010 83 10000 6.7 240 02:49 26.10.2019
5525 Clouds 22 1011 78 10000 7.2 230 01:56 26.10.2019
5526 Clouds 22 1011 78 10000 7.2 230 01:29 26.10.2019
5527 Clouds 22 1011 78 10000 6.2 240 00:26 26.10.2019
5528 Clouds 22 1011 78 10000 7.2 220 23:46 25.10.2019
5529 Clouds 22 1011 78 10000 7.2 220 23:21 25.10.2019
5530 Clouds 22 1011 78 10000 6.7 230 22:43 25.10.2019
5531 Clouds 22 1011 78 10000 6.7 230 22:25 25.10.2019
5532 Clouds 22 1011 78 10000 6.7 240 21:58 25.10.2019
5533 Clouds 22 1011 78 10000 6.7 240 21:58 25.10.2019
5534 Clouds 22 1011 78 10000 6.7 240 21:40 25.10.2019
5535 Clouds 22 1011 78 10000 6.7 240 21:21 25.10.2019
5536 Clouds 22 1011 73 10000 8.7 230 20:57 25.10.2019
5537 Clouds 22 1011 73 10000 8.7 230 20:39 25.10.2019
5538 Clouds 22 1011 73 10000 8.7 230 20:19 25.10.2019
5539 Clouds 23 1010 69 10000 7.2 240 19:45 25.10.2019
5540 Clouds 23 1010 69 10000 7.2 240 19:26 25.10.2019
5541 Clouds 24 1010 60 10000 6.7 240 18:46 25.10.2019
5542 Clouds 24 1010 60 10000 6.7 240 18:24 25.10.2019
5543 Clouds 24 1010 60 10000 6.7 250 17:42 25.10.2019
5544 Clouds 24 1010 60 10000 6.7 250 17:22 25.10.2019
5545 Clouds 24 1010 57 10000 6.2 240 16:59 25.10.2019
5546 Clouds 24 1010 57 10000 6.2 240 16:59 25.10.2019
5547 Clouds 25 1010 57 10000 6.2 240 16:41 25.10.2019
5548 Clouds 25 1010 57 10000 6.2 240 16:19 25.10.2019
5549 Clouds 24 1010 64 10000 5.7 260 15:41 25.10.2019
5550 Clouds 24 1010 64 10000 5.7 260 15:23 25.10.2019
5551 Clouds 26 1010 50 6000 10.3 230 14:59 25.10.2019
5552 Clouds 26 1010 50 6000 10.3 230 14:41 25.10.2019
5553 Clouds 26 1010 50 6000 10.3 230 14:22 25.10.2019
5554 Clouds 26 1010 54 6000 10.8 240 13:44 25.10.2019
5555 Clouds 26 1010 54 6000 10.8 240 13:25 25.10.2019
5556 Clouds 26 1011 54 6000 9.3 230 12:59 25.10.2019
5557 Clouds 26 1011 54 6000 9.3 230 12:40 25.10.2019
5558 Clouds 26 1011 54 6000 9.3 230 12:20 25.10.2019
5559 Clouds 25 1011 57 6000 10.8 220 11:56 25.10.2019
5560 Clouds 25 1011 57 6000 9.3 220 11:37 25.10.2019
5561 Clouds 25 1011 60 6000 6.7 220 11:18 25.10.2019
5562 Clouds 24 1012 60 6000 7.7 210 10:40 25.10.2019
5563 Clouds 24 1012 60 6000 7.7 210 10:21 25.10.2019
5564 Clouds 23 1012 64 6000 8.2 210 09:57 25.10.2019
5565 Clouds 22 1012 64 6000 8.2 210 09:38 25.10.2019
5566 Clouds 22 1012 64 6000 8.2 210 09:19 25.10.2019
5567 Sand 21 1012 68 4000 5.7 190 08:45 25.10.2019
5568 Sand 21 1012 68 4000 5.7 190 08:27 25.10.2019
5569 Sand 20 1011 72 2000 6.2 200 07:53 25.10.2019
5570 Sand 20 1011 72 1200 5.7 200 07:34 25.10.2019
5571 Sand 20 1011 72 3000 6.2 200 06:42 25.10.2019
5572 Clouds 20 1010 68 6000 4.1 200 05:51 25.10.2019
5573 Clouds 20 1011 68 6000 4.6 200 05:33 25.10.2019
5574 Clouds 20 1011 68 6000 4.6 200 04:52 25.10.2019
5575 Clouds 21 1011 68 6000 4.1 200 03:36 25.10.2019
5576 Clouds 21 1011 68 6000 3.6 210 01:54 25.10.2019
5577 Clouds 21 1011 68 6000 3.6 210 01:54 25.10.2019
5578 Clouds 21 1011 68 6000 3.6 220 00:57 25.10.2019
5579 Clouds 21 1012 73 6000 3.6 270 00:20 25.10.2019
5580 Clouds 22 1012 68 6000 4.6 240 23:40 24.10.2019
5581 Clouds 22 1012 68 6000 4.6 240 23:22 24.10.2019
5582 Clouds 22 1012 68 6000 4.1 230 22:55 24.10.2019
5583 Clouds 22 1012 68 6000 4.1 230 22:55 24.10.2019
5584 Clouds 22 1012 64 6000 4.6 240 22:37 24.10.2019
5585 Clouds 24 1012 64 6000 4.6 240 22:18 24.10.2019
5586 Clouds 24 1012 64 6000 3.6 240 21:56 24.10.2019
5587 Clouds 24 1012 60 6000 4.1 270 21:37 24.10.2019
5588 Clouds 24 1012 60 6000 4.1 270 21:19 24.10.2019
5589 Clouds 24 1012 57 6000 3.6 260 20:56 24.10.2019
5590 Clouds 24 1012 57 6000 4.6 240 20:38 24.10.2019
5591 Clouds 24 1012 57 6000 2.6 230 20:19 24.10.2019
5592 Clouds 24 1012 57 6000 2.1 260 19:44 24.10.2019
5593 Clouds 24 1012 57 6000 2.1 260 19:23 24.10.2019
5594 Clouds 24 1012 53 6000 2.1 290 18:59 24.10.2019
5595 Clouds 24 1011 57 6000 3.1 300 18:40 24.10.2019
5596 Clouds 24 1011 57 6000 3.1 300 18:21 24.10.2019
5597 Clouds 25 1011 50 6000 3.6 290 17:57 24.10.2019
5598 Clouds 25 1011 53 6000 4.6 290 17:39 24.10.2019
5599 Clouds 25 1011 53 6000 4.6 290 17:19 24.10.2019
5600 Clouds 25 1011 53 6000 4.6 300 16:54 24.10.2019
5601 Clouds 26 1011 47 6000 5.1 260 16:36 24.10.2019
5602 Clouds 26 1011 47 6000 5.1 260 16:18 24.10.2019
5603 Clouds 26 1011 50 6000 5.1 280 15:54 24.10.2019
5604 Clouds 26 1011 50 6000 6.2 240 15:36 24.10.2019
5605 Clouds 26 1011 50 6000 6.2 240 15:18 24.10.2019
5606 Clouds 27 1011 51 10000 5.7 230 14:44 24.10.2019
5607 Clouds 27 1011 51 10000 5.7 230 14:26 24.10.2019
5608 Clouds 27 1011 51 10000 5.7 230 13:59 24.10.2019
5609 Clouds 27 1011 51 10000 6.7 250 13:37 24.10.2019
5610 Clouds 27 1011 51 10000 6.7 250 13:19 24.10.2019
5611 Clouds 27 1012 47 10000 5.7 250 12:56 24.10.2019
5612 Rain 24 1012 73 6000 8.2 250 12:37 24.10.2019
5613 Clouds 26 1013 57 6000 6.2 220 12:18 24.10.2019
5614 Clouds 25 1013 57 6000 6.2 220 11:55 24.10.2019
5615 Clear 25 1013 57 6000 6.2 220 11:36 24.10.2019
5616 Clear 25 1013 57 6000 6.2 220 11:36 24.10.2019
5617 Clear 25 1013 57 6000 6.2 220 11:18 24.10.2019
5618 Haze 25 1013 57 4000 4.6 220 10:42 24.10.2019
5619 Haze 25 1013 57 4000 4.6 220 10:23 24.10.2019
5620 Haze 23 1013 64 4000 4.1 230 09:55 24.10.2019
5621 Haze 23 1013 64 4000 4.1 230 09:36 24.10.2019
5622 Haze 22 1013 64 4000 4.1 230 09:18 24.10.2019
5623 Haze 22 1013 60 4000 4.6 210 08:42 24.10.2019
5624 Haze 22 1013 60 4000 4.6 210 08:20 24.10.2019
5625 Clear 21 1012 64 6000 3.1 210 07:48 24.10.2019
5626 Clear 21 1012 64 6000 3.1 210 07:23 24.10.2019
5627 Clear 21 1011 64 6000 3.1 200 06:57 24.10.2019
5628 Clear 21 1011 64 6000 3.1 200 06:36 24.10.2019
5629 Clear 21 1012 64 6000 3.1 220 05:56 24.10.2019
5630 Haze 21 1012 64 4000 2.6 210 05:35 24.10.2019
5631 Clear 21 1012 64 6000 2.6 210 04:34 24.10.2019
5632 Clear 21 1012 64 6000 2.31 245 03:36 24.10.2019
5633 Clear 21 1012 64 6000 1.5 180 02:44 24.10.2019
5634 Clear 21 1012 64 6000 1.5 180 02:20 24.10.2019
5635 Clear 21 1012 64 6000 1 220 01:32 24.10.2019
5636 Clear 21 1013 68 6000 0.74 266 00:57 24.10.2019
5637 Clear 21 1013 68 6000 0.74 266 00:30 24.10.2019
5638 Clear 21 1013 68 6000 1.5 280 23:59 23.10.2019
5639 Clear 22 1013 60 6000 2.1 300 23:41 23.10.2019
5640 Clear 22 1013 60 6000 2.1 300 23:21 23.10.2019
5641 Clear 22 1013 60 6000 1.5 300 22:57 23.10.2019
5642 Clear 22 1013 60 6000 1.5 300 22:57 23.10.2019
5643 Clouds 23 1013 60 6000 1 10 22:37 23.10.2019
5644 Clouds 23 1013 60 6000 1 10 22:18 23.10.2019
5645 Clouds 23 1013 60 6000 1 10 22:18 23.10.2019
5646 Clouds 23 1013 60 6000 1 10 21:57 23.10.2019
5647 Clear 23 1013 60 0 0.89 10 21:37 23.10.2019
5648 Clouds 23 1012 60 6000 2.6 360 21:19 23.10.2019
5649 Clouds 23 1012 60 6000 2.6 360 20:55 23.10.2019
5650 Clouds 23 1012 60 6000 2.6 360 20:36 23.10.2019
5651 Clouds 23 1012 60 6000 2.6 360 20:18 23.10.2019
5652 Clouds 23 1012 64 6000 2.1 10 19:44 23.10.2019
5653 Clouds 23 1012 64 6000 2.1 10 19:44 23.10.2019
5654 Clouds 23 1012 64 6000 2.1 10 19:20 23.10.2019
5655 Clouds 23 1012 56 6000 1 30 18:59 23.10.2019
5656 Clouds 24 1012 53 6000 2.1 10 18:39 23.10.2019
5657 Clouds 24 1011 50 6000 3.1 340 18:19 23.10.2019
5658 Clouds 24 1011 50 6000 3.1 340 17:57 23.10.2019
5659 Clouds 24 1011 50 6000 3.1 340 17:39 23.10.2019
5660 Clouds 24 1011 50 6000 3.1 340 17:18 23.10.2019
5661 Clouds 25 1011 53 6000 2.1 340 16:41 23.10.2019
5662 Clouds 25 1011 53 6000 2.1 340 16:21 23.10.2019
5663 Clouds 25 1011 53 6000 3.6 350 15:58 23.10.2019
5664 Clouds 25 1011 53 6000 3.6 350 15:40 23.10.2019
5665 Clouds 25 1011 53 6000 3.6 350 15:21 23.10.2019
5666 Clouds 25 1012 53 6000 4.6 360 14:56 23.10.2019
5667 Clouds 25 1012 53 6000 4.6 360 14:38 23.10.2019
5668 Clouds 25 1012 54 6000 3.6 340 14:19 23.10.2019
5669 Clouds 26 1012 54 6000 3.6 340 13:54 23.10.2019
5670 Clouds 26 1012 54 6000 3.6 340 13:36 23.10.2019
5671 Clouds 25 1012 57 6000 1 240 13:18 23.10.2019
5672 Clouds 24 1012 57 6000 1 240 12:41 23.10.2019
5673 Clouds 24 1012 57 6000 1 240 12:20 23.10.2019
5674 Clouds 24 1012 60 6000 2.1 260 11:58 23.10.2019
5675 Clouds 24 1012 60 6000 2.1 260 11:58 23.10.2019
5676 Clouds 23 1013 60 6000 1.5 20 11:40 23.10.2019
5677 Clouds 23 1013 60 6000 1.5 20 11:21 23.10.2019
5678 Clouds 22 1013 64 6000 2.1 40 10:59 23.10.2019
5679 Clouds 21 1013 73 6000 2.1 10 10:41 23.10.2019
5680 Clouds 21 1013 73 6000 2.1 10 10:22 23.10.2019
5681 Mist 20 1013 77 3000 4.6 360 09:41 23.10.2019
5682 Mist 21 1013 77 3000 4.6 360 09:23 23.10.2019
5683 Mist 21 1013 83 3000 4.6 350 08:57 23.10.2019
5684 -273 0 0 0 0 0 08:39 23.10.2019
5685 Haze 22 1013 78 3000 4.6 360 08:18 23.10.2019
5686 Clouds 22 1012 73 10000 1.5 50 07:45 23.10.2019
5687 Clouds 22 1012 73 10000 1.5 50 07:21 23.10.2019
5688 Clouds 21 1011 83 10000 1.5 270 06:45 23.10.2019
5689 Clouds 21 1011 73 10000 1.56 356 06:20 23.10.2019
5690 Clouds 21 1011 73 10000 1 50 05:20 23.10.2019
5691 Clouds 21 1011 73 10000 1.5 130 04:34 23.10.2019
5692 Clouds 22 1011 78 6000 2.6 100 02:45 23.10.2019
5693 Clouds 22 1011 78 6000 2.6 100 02:25 23.10.2019
5694 Mist 23 1011 83 3000 2.6 20 01:26 23.10.2019
5695 Mist 23 1011 83 4000 2.94 359 00:38 23.10.2019
5696 Mist 23 1011 83 4000 2.94 359 00:38 23.10.2019
5697 Mist 23 1011 83 4000 3.81 38 00:19 23.10.2019
5698 Mist 23 1012 83 4000 1 320 23:39 22.10.2019
5699 Mist 23 1012 83 4000 1 320 23:18 22.10.2019
5700 Mist 23 1012 83 4000 2.1 310 22:56 22.10.2019
5701 Mist 23 1012 83 4000 2.1 310 22:37 22.10.2019
5702 Mist 23 1012 83 4000 2.1 310 22:19 22.10.2019
5703 Clouds 23 1012 78 6000 1.5 50 21:56 22.10.2019
5704 Clouds 23 1012 78 6000 1.5 50 21:36 22.10.2019
5705 Clouds 23 1012 78 6000 1.5 50 21:18 22.10.2019
5706 Clouds 23 1012 73 6000 1.5 50 20:55 22.10.2019
5707 Clouds 23 1012 73 6000 1.5 50 20:37 22.10.2019
5708 Clouds 23 1012 73 6000 1.5 50 20:37 22.10.2019
5709 Clouds 23 1012 73 6000 1.5 50 20:18 22.10.2019
5710 Clouds 23 1011 73 6000 1 50 19:43 22.10.2019
5711 Clouds 23 1011 73 6000 1 50 19:24 22.10.2019
5712 Clouds 24 1011 57 6000 3.6 50 18:57 22.10.2019
5713 Clouds 22 1011 78 6000 4.1 30 18:39 22.10.2019
5714 Clouds 22 1011 78 6000 4.1 30 18:21 22.10.2019
5715 Rain 21 1011 83 6000 2.1 10 17:56 22.10.2019
5716 Rain 20 1011 82 6000 3.6 360 17:38 22.10.2019
5717 Rain 20 1011 82 6000 3.6 360 17:19 22.10.2019
5718 Clouds 22 1010 73 10000 8.7 30 16:57 22.10.2019
5719 Clouds 22 1010 73 10000 8.7 30 16:37 22.10.2019
5720 Clouds 22 1010 73 10000 8.7 30 16:18 22.10.2019
5721 Thunderstorm 27 1010 73 2000 7.2 350 15:44 22.10.2019
5722 Thunderstorm 26 1010 73 2000 7.2 350 15:21 22.10.2019
5723 Thunderstorm 27 1010 78 4000 4.6 340 14:58 22.10.2019
5724 Clouds 28 1010 54 6000 4.6 360 14:39 22.10.2019
5725 Clouds 28 1010 54 6000 4.6 360 14:19 22.10.2019
5726 Clouds 28 1010 58 6000 4.1 350 13:42 22.10.2019
5727 Clouds 28 1010 58 6000 4.1 350 13:42 22.10.2019
5728 Clouds 28 1010 58 6000 4.1 350 13:21 22.10.2019
5729 Clouds 28 1010 58 6000 5.1 20 12:58 22.10.2019
5730 Clouds 27 1011 61 6000 4.6 360 12:39 22.10.2019
5731 Clouds 27 1011 61 6000 4.6 360 12:20 22.10.2019
5732 Clouds 27 1011 61 6000 4.6 360 12:20 22.10.2019
5733 Clouds 27 1011 61 6000 5.1 10 11:42 22.10.2019
5734 Clouds 27 1011 61 6000 5.1 10 11:23 22.10.2019
5735 Clouds 26 1011 65 6000 5.1 30 10:59 22.10.2019
5736 Clouds 26 1011 69 6000 4.6 20 10:38 22.10.2019
5737 Clouds 26 1011 69 6000 4.6 20 10:20 22.10.2019
5738 Clouds 25 1011 73 6000 5.1 10 10:00 22.10.2019
5739 Clouds 25 1011 73 6000 5.1 10 09:59 22.10.2019
5740 Clouds 25 1011 73 6000 5.1 10 09:59 22.10.2019
5741 Clouds 24 1012 78 6000 3.6 10 09:41 22.10.2019
5742 Clouds 24 1012 78 6000 3.6 10 09:22 22.10.2019
5743 Clouds 24 1012 78 6000 3.6 10 08:59 22.10.2019
5744 Clouds 24 1012 78 6000 4.1 10 08:40 22.10.2019
5745 Clouds 24 1012 78 6000 4.1 10 08:19 22.10.2019
5746 Mist 23 1011 83 4000 3.6 350 07:44 22.10.2019
5747 Mist 23 1011 83 4000 3.6 350 07:25 22.10.2019
5748 Mist 23 1011 83 4000 3.6 350 06:45 22.10.2019
5749 Clouds 23 1011 83 10000 3.1 340 06:27 22.10.2019
5750 Clouds 24 1011 78 10000 3.1 10 05:48 22.10.2019
5751 Clouds 24 1011 78 6000 4.1 40 04:50 22.10.2019
5752 Clouds 24 1011 78 6000 4.1 40 02:31 22.10.2019
5753 Clouds 24 1011 78 6000 3.1 40 01:39 22.10.2019
5754 Clouds 24 1011 78 6000 3.1 40 01:19 22.10.2019
5755 Rain 24 1012 78 10000 4.1 50 00:43 22.10.2019
5756 Rain 24 1012 78 10000 4.1 50 00:24 22.10.2019
5757 Clear 24 1012 73 10000 4.1 60 23:59 21.10.2019
5758 Clear 25 1012 73 10000 3.6 50 23:38 21.10.2019
5759 Clear 25 1012 73 10000 3.6 50 23:19 21.10.2019
5760 Clear 25 1012 73 10000 3.1 50 22:59 21.10.2019
5761 Clear 25 1013 69 10000 4.1 40 22:39 21.10.2019
5762 Clear 25 1013 69 10000 4.1 40 22:20 21.10.2019
5763 Clear 25 1012 69 10000 4.6 50 21:58 21.10.2019
5764 Clear 25 1013 61 10000 5.7 50 21:38 21.10.2019
5765 Clouds 26 1013 61 10000 5.7 50 21:20 21.10.2019
5766 Clouds 26 1013 61 10000 5.1 50 20:58 21.10.2019
5767 Clouds 26 1012 57 10000 6.2 40 20:39 21.10.2019
5768 Clouds 26 1012 57 10000 6.2 40 20:20 21.10.2019
5769 Clouds 27 1012 54 10000 6.2 40 19:57 21.10.2019
5770 Clouds 27 1012 48 10000 5.7 40 19:38 21.10.2019
5771 Clouds 28 1012 48 10000 5.7 40 19:20 21.10.2019
5772 Clouds 28 1012 48 10000 6.2 40 18:55 21.10.2019
5773 Clouds 29 1012 42 10000 7.7 30 18:36 21.10.2019
5774 Clouds 29 1012 42 10000 7.7 30 18:18 21.10.2019
5775 Clouds 31 1011 33 10000 6.2 30 17:55 21.10.2019
5776 Clouds 31 1011 33 10000 6.2 30 17:37 21.10.2019
5777 Clouds 31 1011 33 10000 6.2 30 17:18 21.10.2019
5778 Clouds 32 1011 27 10000 6.2 30 16:54 21.10.2019
5779 Clouds 32 1012 22 10000 5.7 50 16:36 21.10.2019
5780 Clouds 32 1012 22 10000 5.7 50 16:18 21.10.2019
5781 Clouds 33 1012 22 10000 5.7 30 15:42 21.10.2019
5782 Clouds 33 1012 22 10000 5.7 30 15:22 21.10.2019
5783 Clouds 33 1012 19 10000 4.1 20 14:56 21.10.2019
5784 Clouds 33 1012 19 10000 3.1 20 14:37 21.10.2019
5785 Clouds 33 1012 19 10000 3.1 20 14:18 21.10.2019
5786 Clouds 33 1013 19 10000 2.6 10 13:55 21.10.2019
5787 Clouds 33 1013 19 10000 2.6 10 13:37 21.10.2019
5788 Clouds 33 1013 19 10000 2.6 10 13:18 21.10.2019
5789 Clouds 33 1013 19 10000 2.6 10 13:18 21.10.2019
5790 Clouds 32 1014 21 10000 3.1 60 12:41 21.10.2019
5791 Clear 32 1014 21 10000 3.1 60 12:22 21.10.2019
5792 Clear 32 1015 24 10000 2.6 30 11:55 21.10.2019
5793 Clear 32 1015 24 10000 2.6 30 11:37 21.10.2019
5794 Clear 32 1015 24 10000 2.6 30 11:19 21.10.2019
5795 Clouds 31 1015 25 6000 2.6 30 10:55 21.10.2019
5796 Clouds 30 1015 28 6000 2.1 20 10:37 21.10.2019
5797 Clouds 30 1015 28 6000 2.1 20 10:18 21.10.2019
5798 Clear 28 1015 34 10000 1.27 178.917 09:44 21.10.2019
5799 Clear 28 1015 34 10000 1.27 178.917 09:25 21.10.2019
5800 Clear 27 1015 39 10000 1.35 97.992 08:43 21.10.2019
5801 Clear 26 1015 39 10000 1.35 97.992 08:24 21.10.2019
5802 Clear 25 1015 41 10000 1 0 07:59 21.10.2019
5803 Clear 25 1015 41 10000 1.5 60 07:37 21.10.2019
5804 Clear 25 1015 41 10000 1.5 60 07:37 21.10.2019
5805 Clear 24 1015 41 10000 1.5 60 07:19 21.10.2019
5806 Clear 23 1014 43 10000 1.35 97.992 06:53 21.10.2019
5807 Clear 23 1014 43 10000 1.35 97.992 06:33 21.10.2019
5808 Clear 24 1014 41 10000 2.1 60 05:50 21.10.2019
5809 Clear 24 1014 36 10000 1.5 60 04:44 21.10.2019
5810 Clear 26 1014 36 10000 4.6 80 02:50 21.10.2019
5811 Clear 25 1014 38 10000 4.6 80 02:23 21.10.2019
5812 Clear 26 1014 39 10000 3.1 70 01:57 21.10.2019
5813 Clear 26 1014 39 10000 3.1 60 01:23 21.10.2019
5814 Clear 26 1015 39 10000 3.6 70 00:46 21.10.2019
5815 Clear 26 1015 39 10000 5.1 80 00:25 21.10.2019
5816 Clear 26 1016 44 10000 4.6 70 23:42 20.10.2019
5817 Clear 26 1016 44 10000 4.6 70 23:22 20.10.2019
5818 Clear 27 1016 44 10000 4.6 80 22:56 20.10.2019
5819 Clear 27 1016 44 10000 4.6 80 22:37 20.10.2019
5820 Clear 27 1016 44 10000 4.6 80 22:18 20.10.2019
5821 Clear 27 1016 42 10000 4.6 90 21:57 20.10.2019
5822 Clear 27 1016 44 10000 5.1 70 21:38 20.10.2019
5823 Clear 27 1016 44 10000 5.1 70 21:20 20.10.2019
5824 Clear 28 1016 48 10000 5.7 60 20:41 20.10.2019
5825 Clear 28 1016 48 10000 5.7 60 20:19 20.10.2019
5826 Clear 28 1016 45 10000 6.2 60 19:57 20.10.2019
5827 Clear 28 1016 42 10000 5.7 60 19:39 20.10.2019
5828 Clear 29 1016 42 10000 5.7 60 19:20 20.10.2019
5829 Clear 29 1016 42 10000 5.7 60 19:20 20.10.2019
5830 Clear 30 1016 37 10000 6.7 50 18:56 20.10.2019
5831 Clear 31 1015 27 10000 4.6 40 18:38 20.10.2019
5832 Clear 31 1015 27 10000 4.6 40 18:19 20.10.2019
5833 Clear 31 1015 27 10000 4.6 40 17:54 20.10.2019
5834 Clear 32 1015 25 10000 5.1 30 17:36 20.10.2019
5835 Clear 32 1015 25 10000 5.1 30 17:18 20.10.2019
5836 Clear 33 1015 21 10000 5.1 30 16:41 20.10.2019
5837 Clear 34 1015 21 10000 5.1 30 16:23 20.10.2019
5838 Clear 34 1015 20 10000 4.6 40 15:58 20.10.2019
5839 Clear 34 1015 18 10000 3.6 30 15:38 20.10.2019
5840 Clear 34 1015 18 10000 3.6 30 15:20 20.10.2019
5841 Clear 34 1015 18 10000 3.6 30 15:20 20.10.2019
5842 Clear 34 1015 18 10000 3.6 30 14:57 20.10.2019
5843 Clear 34 1015 20 10000 4.1 20 14:37 20.10.2019
5844 Clear 34 1015 20 10000 4.1 20 14:19 20.10.2019
5845 Clear 34 1016 20 10000 1.5 70 13:55 20.10.2019
5846 Clear 34 1016 18 10000 3.1 70 13:36 20.10.2019
5847 Clear 34 1016 18 10000 3.1 70 13:18 20.10.2019
5848 Clear 34 1016 18 10000 3.1 60 12:56 20.10.2019
5849 Clear 34 1016 18 10000 2.6 60 12:37 20.10.2019
5850 Clear 34 1016 18 10000 2.6 60 12:19 20.10.2019
5851 Clear 34 1016 18 10000 2.6 60 12:19 20.10.2019
5852 Clear 32 1017 21 10000 2.6 60 11:54 20.10.2019
5853 Clear 32 1017 21 10000 2.6 60 11:36 20.10.2019
5854 Clear 32 1017 21 10000 2.6 60 11:18 20.10.2019
5855 Clear 31 1017 25 10000 3.1 60 10:40 20.10.2019
5856 Clear 31 1017 25 10000 3.1 60 10:22 20.10.2019
5857 Clear 28 1017 37 10000 2.6 40 09:57 20.10.2019
5858 Clear 28 1017 37 10000 2.6 40 09:39 20.10.2019
5859 Clear 28 1017 37 10000 2.6 40 09:20 20.10.2019
5860 Clear 24 1017 60 10000 2.1 50 08:45 20.10.2019
5861 Clear 24 1017 60 10000 2.1 50 08:22 20.10.2019
5862 Clear 23 1017 73 10000 2.1 70 07:50 20.10.2019
5863 Clear 23 1017 73 10000 2.1 70 07:30 20.10.2019
5864 Clear 23 1017 73 10000 2.1 70 07:30 20.10.2019
5865 Clear 22 1017 78 10000 2.1 50 06:34 20.10.2019
5866 Clear 22 1017 78 10000 1.5 70 05:59 20.10.2019
5867 Clear 23 1016 73 10000 2.1 40 04:27 20.10.2019
5868 Clear 23 1017 78 10000 2.1 70 03:43 20.10.2019
5869 Clear 23 1017 78 10000 2.1 70 03:20 20.10.2019
5870 Clear 23 1017 73 10000 2.6 40 02:38 20.10.2019
5871 Clear 24 1017 73 10000 2.6 30 01:58 20.10.2019
5872 Clear 24 1017 73 10000 3.6 50 01:23 20.10.2019
5873 Clear 24 1017 73 10000 3.6 60 00:55 20.10.2019
5874 Clear 24 1017 73 10000 2.1 70 00:22 20.10.2019
5875 Clear 24 1018 73 10000 3.6 60 23:59 19.10.2019
5876 Clear 24 1018 69 10000 4.1 60 23:41 19.10.2019
5877 Clear 25 1018 69 10000 4.1 60 23:22 19.10.2019
5878 Clear 25 1018 69 10000 5.1 60 22:56 19.10.2019
5879 Clear 25 1018 65 10000 3.6 50 22:37 19.10.2019
5880 Clear 25 1018 65 10000 3.6 50 22:19 19.10.2019
5881 Clear 26 1018 61 10000 5.1 50 21:45 19.10.2019
5882 Clear 26 1018 61 10000 5.1 50 21:23 19.10.2019
5883 Clear 26 1017 61 10000 5.7 50 20:45 19.10.2019
5884 Clear 27 1017 57 10000 6.2 40 20:23 19.10.2019
5885 Clear 27 1017 57 10000 6.2 40 20:23 19.10.2019
5886 Clear 27 1017 57 10000 6.7 40 19:59 19.10.2019
5887 Clear 27 1017 54 10000 5.7 40 19:40 19.10.2019
5888 Clear 28 1017 54 10000 5.7 40 19:22 19.10.2019
5889 Clear 30 1016 40 10000 4.1 40 18:43 19.10.2019
5890 Clear 30 1016 40 10000 4.1 40 18:24 19.10.2019
5891 Clear 30 1016 40 10000 4.1 40 18:24 19.10.2019
5892 Clear 31 1016 35 10000 5.1 30 17:57 19.10.2019
5893 Clear 31 1016 38 10000 5.1 40 17:37 19.10.2019
5894 Clear 31 1016 38 10000 5.1 40 17:19 19.10.2019
5895 Clear 32 1016 29 10000 5.1 50 16:39 19.10.2019
5896 Clear 32 1016 29 10000 5.1 50 16:20 19.10.2019
5897 Clear 32 1016 31 10000 5.7 40 15:56 19.10.2019
5898 Clear 32 1015 29 10000 5.7 50 15:38 19.10.2019
5899 Clear 33 1015 29 10000 5.7 50 15:19 19.10.2019
5900 Clear 33 1015 29 10000 5.7 50 15:19 19.10.2019
5901 Clear 33 1016 29 10000 5.1 30 14:38 19.10.2019
5902 Clear 33 1016 29 10000 5.1 30 14:20 19.10.2019
5903 Clear 32 1016 31 10000 5.1 40 13:56 19.10.2019
5904 Clear 32 1016 33 10000 5.1 30 13:37 19.10.2019
5905 Clear 32 1016 33 10000 5.1 30 13:37 19.10.2019
5906 Clear 32 1016 33 10000 5.1 30 13:18 19.10.2019
5907 Clear 31 1016 35 10000 5.1 40 12:40 19.10.2019
5908 Clear 31 1016 35 10000 5.1 40 12:22 19.10.2019
5909 Clear 31 1017 35 10000 4.6 50 11:59 19.10.2019
5910 Clear 30 1017 45 10000 4.6 70 11:40 19.10.2019
5911 Clear 29 1017 45 10000 4.6 70 11:22 19.10.2019
5912 Clear 28 1017 48 10000 5.1 50 10:42 19.10.2019
5913 Clear 28 1017 48 10000 5.1 50 10:23 19.10.2019
5914 Clear 28 1017 48 10000 5.1 50 09:59 19.10.2019
5915 Clear 26 1017 65 10000 5.1 70 09:41 19.10.2019
5916 Clear 26 1017 65 10000 5.1 70 09:41 19.10.2019
5917 Clear 26 1017 65 10000 5.1 70 09:22 19.10.2019
5918 Clear 25 1017 65 10000 5.1 70 08:57 19.10.2019
5919 Clear 25 1017 73 10000 4.1 70 08:39 19.10.2019
5920 Clear 25 1017 73 10000 4.1 70 08:39 19.10.2019
5921 Clear 24 1017 73 6000 3.1 70 08:19 19.10.2019
5922 Clear 24 1017 73 6000 3.1 70 07:42 19.10.2019
5923 Clear 23 1017 78 6000 2.1 70 07:23 19.10.2019
5924 Clear 23 1017 78 6000 2.1 70 07:23 19.10.2019
5925 Clear 22 1017 83 6000 2.1 50 06:39 19.10.2019
5926 Clear 22 1016 83 6000 2.6 60 05:54 19.10.2019
5927 Clear 22 1016 83 6000 2.6 60 05:26 19.10.2019
5928 Clear 23 1016 78 6000 4.6 30 03:22 19.10.2019
5929 Clear 23 1016 83 6000 4.1 60 02:35 19.10.2019
5930 Clear 23 1017 83 10000 3.6 50 01:50 19.10.2019
5931 Clear 24 1017 78 10000 3.6 50 00:59 19.10.2019
5932 Clear 24 1017 78 10000 4.6 40 00:41 19.10.2019
5933 Clear 24 1017 78 10000 4.6 40 00:21 19.10.2019
5934 Clear 24 1017 78 10000 4.1 30 23:40 18.10.2019
5935 Clear 24 1017 78 10000 4.1 30 23:21 18.10.2019
5936 Clear 25 1017 73 10000 4.6 30 22:55 18.10.2019
5937 Clear 25 1018 73 10000 5.1 30 22:37 18.10.2019
5938 Clear 25 1018 73 10000 5.1 30 22:19 18.10.2019
5939 Clear 24 1018 78 10000 4.6 30 21:56 18.10.2019
5940 Clear 25 1018 73 10000 5.7 30 21:37 18.10.2019
5941 Clear 25 1018 73 10000 5.7 30 21:37 18.10.2019
5942 Clear 25 1018 73 10000 5.7 30 21:18 18.10.2019
5943 Clear 25 1017 65 10000 6.2 30 20:43 18.10.2019
5944 Clear 26 1017 65 10000 6.2 30 20:24 18.10.2019
5945 Clear 25 1017 65 10000 6.2 30 19:59 18.10.2019
5946 Clear 27 1016 54 10000 6.2 40 19:41 18.10.2019
5947 Clear 27 1016 54 10000 6.2 40 19:41 18.10.2019
5948 Clear 27 1016 54 10000 6.2 40 19:22 18.10.2019
5949 Clear 27 1016 47 10000 6.7 40 18:59 18.10.2019
5950 Clear 28 1016 37 10000 5.7 10 18:41 18.10.2019
5951 Clear 29 1016 37 10000 5.7 10 18:23 18.10.2019
5952 Clear 30 1015 37 6000 6.7 10 17:57 18.10.2019
5953 Clear 30 1015 37 6000 6.7 10 17:37 18.10.2019
5954 Clear 30 1015 37 6000 6.7 10 17:19 18.10.2019
5955 Clear 30 1015 37 10000 5.7 10 16:44 18.10.2019
5956 Clear 30 1015 37 10000 5.7 10 16:22 18.10.2019
5957 Clear 30 1015 35 10000 5.1 10 15:59 18.10.2019
5958 Clear 31 1015 35 10000 5.1 10 15:39 18.10.2019
5959 Clear 31 1015 35 10000 5.1 10 15:20 18.10.2019
5960 Clear 31 1016 35 10000 5.1 20 14:58 18.10.2019
5961 Clear 31 1016 35 10000 5.1 20 14:39 18.10.2019
5962 Clear 31 1016 35 10000 5.1 20 14:21 18.10.2019
5963 Clear 30 1016 40 10000 5.1 10 13:58 18.10.2019
5964 Clear 30 1016 40 10000 5.1 10 13:39 18.10.2019
5965 Clear 30 1016 40 10000 5.1 10 13:21 18.10.2019
5966 Clear 30 1016 37 10000 5.1 50 12:56 18.10.2019
5967 Clouds 29 1017 42 10000 4.1 40 12:38 18.10.2019
5968 Clouds 29 1017 42 10000 4.1 40 12:20 18.10.2019
5969 Clouds 29 1017 42 10000 4.1 30 11:54 18.10.2019
5970 Clouds 27 1018 54 10000 4.6 40 11:36 18.10.2019
5971 Clouds 27 1018 54 10000 4.6 40 11:18 18.10.2019
5972 Clouds 27 1018 54 10000 4.6 40 11:18 18.10.2019
5973 Clouds 26 1018 61 10000 4.6 50 10:42 18.10.2019
5974 Clouds 26 1018 61 10000 4.6 50 10:22 18.10.2019
5975 Clouds 25 1018 65 10000 4.6 50 09:58 18.10.2019
5976 Clouds 25 1018 65 10000 5.1 40 09:40 18.10.2019
5977 Clouds 25 1018 65 10000 5.1 40 09:20 18.10.2019
5978 Clouds 25 1018 65 10000 5.1 40 08:57 18.10.2019
5979 Clouds 25 1018 69 10000 4.1 40 08:39 18.10.2019
5980 Clouds 24 1018 69 10000 4.1 40 08:20 18.10.2019
5981 Clouds 22 1017 78 6000 2.6 50 07:42 18.10.2019
5982 Clouds 22 1017 78 6000 2.6 50 07:20 18.10.2019
5983 Clouds 22 1017 83 6000 2.1 50 06:39 18.10.2019
5984 Clouds 22 1017 83 6000 2.1 50 06:20 18.10.2019
5985 Clouds 22 1017 78 6000 3.1 50 05:55 18.10.2019
5986 Clouds 23 1017 78 6000 3.1 50 05:22 18.10.2019
5987 Clouds 23 1017 78 6000 2.6 40 03:56 18.10.2019
5988 Clouds 23 1017 78 6000 2.6 40 03:24 18.10.2019
5989 Clouds 23 1017 78 6000 2.6 60 02:33 18.10.2019
5990 Clouds 23 1017 78 6000 2.6 60 01:44 18.10.2019
5991 Clouds 23 1017 78 6000 2.6 60 01:26 18.10.2019
5992 Clouds 24 1018 73 6000 4.1 50 00:44 18.10.2019
5993 Clouds 24 1018 73 6000 4.1 50 00:21 18.10.2019
5994 Clouds 24 1018 73 6000 4.1 50 00:21 18.10.2019
5995 Clouds 24 1018 73 6000 4.1 40 23:55 17.10.2019
5996 Clouds 24 1018 69 6000 3.1 40 23:36 17.10.2019
5997 Clouds 25 1018 69 6000 3.1 40 23:18 17.10.2019
5998 Clouds 25 1018 69 6000 3.6 40 22:54 17.10.2019
5999 Clouds 25 1018 73 6000 3.6 40 22:36 17.10.2019
6000 Clouds 25 1018 73 6000 3.6 40 22:18 17.10.2019
6001 Clouds 25 1018 73 6000 4.6 30 21:55 17.10.2019
6002 Clouds 25 1018 73 6000 4.6 30 21:55 17.10.2019
6003 Clouds 26 1018 69 6000 4.1 30 21:37 17.10.2019
6004 Clear 26 1018 69 6000 4.1 30 21:19 17.10.2019
6005 Clear 27 1018 61 6000 4.6 30 20:56 17.10.2019
6006 Clear 28 1018 48 6000 3.6 360 20:37 17.10.2019
6007 Clear 28 1018 48 6000 3.6 360 20:18 17.10.2019
6008 Clear 29 1017 45 6000 2.6 10 19:42 17.10.2019
6009 Clear 29 1017 45 6000 2.6 10 19:20 17.10.2019
6010 Clear 29 1017 45 6000 2.1 10 18:59 17.10.2019
6011 Clear 29 1016 45 6000 3.1 360 18:38 17.10.2019
6012 Clear 29 1016 45 6000 3.1 360 18:20 17.10.2019
6013 Clear 29 1016 40 6000 3.6 320 17:43 17.10.2019
6014 Clear 30 1016 40 6000 3.6 320 17:25 17.10.2019
6015 Clear 30 1016 40 6000 3.6 310 16:59 17.10.2019
6016 Clear 30 1016 38 6000 3.6 340 16:40 17.10.2019
6017 Clear 31 1016 38 6000 3.6 340 16:19 17.10.2019
6018 Clear 31 1016 35 6000 3.6 330 15:57 17.10.2019
6019 Clear 31 1016 33 6000 2.6 350 15:38 17.10.2019
6020 Clear 31 1016 33 6000 2.6 350 15:38 17.10.2019
6021 Clear 31 1016 33 6000 2.6 350 15:20 17.10.2019
6022 Clear 31 1016 33 6000 3.6 320 14:56 17.10.2019
6023 Clear 31 1016 35 6000 2.6 330 14:38 17.10.2019
6024 Clear 31 1016 35 6000 2.6 330 14:20 17.10.2019
6025 Clear 30 1017 40 6000 2.1 360 13:40 17.10.2019
6026 Clear 30 1017 40 6000 2.1 360 13:20 17.10.2019
6027 Clear 30 1017 45 6000 2.6 340 12:58 17.10.2019
6028 Clear 30 1017 48 6000 2.1 10 12:38 17.10.2019
6029 Clear 29 1017 48 6000 2.1 10 12:19 17.10.2019
6030 Clear 28 1018 51 6000 2.6 350 11:55 17.10.2019
6031 Clear 28 1018 51 6000 2.6 350 11:37 17.10.2019
6032 Clear 28 1018 51 6000 2.6 350 11:18 17.10.2019
6033 Clouds 26 1018 61 10000 2.6 20 10:41 17.10.2019
6034 Clouds 26 1018 61 10000 2.6 20 10:19 17.10.2019
6035 Clouds 24 1018 73 6000 3.1 70 09:57 17.10.2019
6036 Clouds 24 1018 73 6000 3.1 70 09:38 17.10.2019
6037 Clouds 24 1018 73 6000 3.1 70 09:19 17.10.2019
6038 -273 0 0 0 0 0 08:56 17.10.2019
6039 Clouds 23 1018 78 6000 3.1 60 08:37 17.10.2019
6040 Clouds 23 1018 78 6000 3.1 60 08:18 17.10.2019
6041 Clear 22 1017 88 6000 2.6 80 07:41 17.10.2019
6042 Clear 22 1017 88 6000 2.6 80 07:21 17.10.2019
6043 Clear 22 1017 83 6000 2.1 20 06:55 17.10.2019
6044 Clear 22 1016 83 6000 2.1 90 06:37 17.10.2019
6045 Clear 22 1016 83 6000 2.1 90 06:18 17.10.2019
6046 Clear 22 1016 83 6000 2.1 90 05:41 17.10.2019
6047 Clear 22 1016 83 6000 2.1 90 05:20 17.10.2019
6048 Clear 22 1016 78 6000 2.1 80 04:48 17.10.2019
6049 Clear 23 1016 73 10000 3.114 58 03:49 17.10.2019
6050 Clear 23 1016 78 10000 1.5 90 02:32 17.10.2019
6051 Clear 24 1017 73 10000 2.6 10 00:43 17.10.2019
6052 Clear 24 1017 73 10000 2.6 10 00:21 17.10.2019
6053 Clear 25 1017 69 10000 2.1 30 23:59 16.10.2019
6054 Clear 25 1017 69 10000 2.6 60 23:41 16.10.2019
6055 Clear 25 1017 69 10000 2.6 60 23:19 16.10.2019
6056 Clear 25 1017 69 10000 2.1 80 22:54 16.10.2019
6057 Clear 26 1017 65 10000 2.1 360 22:36 16.10.2019
6058 Clear 26 1017 65 10000 2.1 360 22:18 16.10.2019
6059 Clear 26 1017 65 10000 3.1 10 21:55 16.10.2019
6060 Clear 26 1017 65 10000 3.1 10 21:54 16.10.2019
6061 Clear 26 1017 65 10000 3.1 10 21:54 16.10.2019
6062 Clear 26 1017 65 10000 3.1 10 21:54 16.10.2019
6063 Clear 26 1017 65 10000 3.1 10 21:36 16.10.2019
6064 Clear 26 1017 65 10000 3.1 10 21:18 16.10.2019
6065 Clear 29 1015 45 10000 4.1 350 20:55 16.10.2019
6066 Clear 29 1015 45 10000 4.1 350 20:37 16.10.2019
6067 Clear 29 1015 45 10000 4.1 350 20:19 16.10.2019
6068 Clear 22 1015 52 0 5.186 23 19:40 16.10.2019
6069 Clear 22 1015 52 0 5.186 23 19:40 16.10.2019
6070 Clear 29 1015 45 10000 4.1 350 19:21 16.10.2019
6071 Clear 29 1015 45 10000 4.1 350 19:21 16.10.2019
6072 Clear 29 1015 45 10000 4.1 350 18:58 16.10.2019
6073 Clear 29 1015 45 10000 4.1 350 18:38 16.10.2019
6074 Clear 29 1015 45 10000 4.1 350 18:18 16.10.2019
6075 Clear 29 1015 45 10000 4.1 350 18:18 16.10.2019
6076 Clear 29 1015 45 10000 4.1 350 18:18 16.10.2019
6077 Clear 31 1014 38 10000 4.6 340 17:56 16.10.2019
6078 Clear 31 1014 38 10000 4.6 340 17:37 16.10.2019
6079 Clear 31 1014 38 10000 4.6 340 17:37 16.10.2019
6080 Clear 31 1014 38 10000 4.6 340 17:19 16.10.2019
6081 Clear 31 1014 40 10000 5.1 340 16:56 16.10.2019
6082 Clear 31 1014 38 10000 3.6 340 16:38 16.10.2019
6083 Clear 32 1014 38 10000 3.6 340 16:19 16.10.2019
6084 Clear 32 1014 40 10000 4.1 310 15:41 16.10.2019
6085 Clouds 32 1014 40 10000 4.1 310 15:19 16.10.2019
6086 Clouds 31 1014 43 6000 4.6 310 14:59 16.10.2019
6087 Clouds 31 1014 43 6000 4.6 310 14:40 16.10.2019
6088 Clouds 31 1014 43 6000 4.6 310 14:21 16.10.2019
6089 Clouds 31 1014 45 6000 4.1 320 13:58 16.10.2019
6090 Clouds 31 1014 45 6000 4.1 320 13:40 16.10.2019
6091 Clouds 31 1014 45 6000 4.1 320 13:22 16.10.2019
6092 Clouds 29 1015 54 6000 3.1 360 12:44 16.10.2019
6093 Clouds 29 1015 54 6000 3.1 360 12:20 16.10.2019
6094 Clouds 28 1016 61 6000 2.1 350 11:58 16.10.2019
6095 Clouds 28 1016 61 6000 2.1 350 11:40 16.10.2019
6096 Clouds 28 1016 61 6000 2.1 350 11:18 16.10.2019
6097 Clouds 27 1016 65 6000 2.1 330 10:37 16.10.2019
6098 Clouds 27 1016 65 6000 2.1 330 10:19 16.10.2019
6099 Clouds 26 1016 74 6000 3.1 10 09:41 16.10.2019
6100 Clouds 26 1016 74 6000 2.1 360 09:22 16.10.2019
6101 Mist 25 1016 78 3000 2.6 360 08:58 16.10.2019
6102 Mist 25 1016 78 3000 2.6 360 08:40 16.10.2019
6103 Mist 24 1016 83 3000 2.6 350 08:21 16.10.2019
6104 Mist 24 1016 83 3000 2.1 360 07:45 16.10.2019
6105 -273 0 0 0 0 0 07:24 16.10.2019
6106 Mist 24 1015 83 3000 2.1 360 06:56 16.10.2019
6107 Mist 24 1015 83 3000 2.1 360 06:56 16.10.2019
6108 Mist 24 1015 83 3000 1.5 10 06:35 16.10.2019
6109 Mist 23 1015 88 3000 2.1 340 05:39 16.10.2019
6110 Clear 24 1015 88 6000 2.6 310 02:57 16.10.2019
6111 Clear 24 1015 88 6000 2.6 310 02:37 16.10.2019
6112 Clear 24 1015 83 6000 2.6 340 01:18 16.10.2019
6113 Clear 25 1015 78 6000 1.5 340 00:46 16.10.2019
6114 Clear 25 1015 78 6000 1.5 360 00:25 16.10.2019
6115 Clear 25 1015 78 6000 3.6 330 23:39 15.10.2019
6116 Clear 25 1015 78 6000 3.6 330 23:21 15.10.2019
6117 Clear 25 1015 78 10000 3.1 330 22:56 15.10.2019
6118 Clear 25 1015 78 10000 3.1 330 22:38 15.10.2019
6119 Clear 26 1015 74 10000 2.6 360 22:19 15.10.2019
6120 Clear 26 1015 74 10000 4.1 340 21:56 15.10.2019
6121 Clear 26 1015 74 10000 4.1 340 21:38 15.10.2019
6122 Clear 26 1015 74 10000 4.1 340 21:19 15.10.2019
6123 Clear 27 1015 65 10000 5.1 330 20:57 15.10.2019
6124 Clear 27 1015 65 10000 5.1 330 20:57 15.10.2019
6125 Clear 27 1015 65 10000 5.1 330 20:39 15.10.2019
6126 Clear 28 1015 61 10000 5.1 330 20:20 15.10.2019
6127 Clear 28 1015 61 10000 5.1 330 20:20 15.10.2019
6128 Clear 28 1014 61 10000 4.6 320 19:57 15.10.2019
6129 Clear 28 1014 61 10000 4.6 320 19:39 15.10.2019
6130 Clear 29 1014 58 10000 4.6 320 19:19 15.10.2019
6131 Clear 30 1013 55 10000 3.6 310 18:47 15.10.2019
6132 Clear 30 1013 55 10000 3.6 310 18:28 15.10.2019
6133 Clear 30 1013 55 10000 3.6 300 17:59 15.10.2019
6134 Clear 30 1013 55 10000 3.6 300 17:40 15.10.2019
6135 Clear 30 1013 55 10000 3.6 300 17:40 15.10.2019
6136 Clear 31 1012 52 10000 3.6 300 17:20 15.10.2019
6137 Clear 31 1012 52 10000 3.6 300 16:56 15.10.2019
6138 Clear 31 1012 52 10000 3.6 300 16:37 15.10.2019
6139 Clear 31 1012 52 10000 4.1 310 16:19 15.10.2019
6140 Clear 31 1012 48 10000 3.6 290 15:42 15.10.2019
6141 Clear 31 1012 52 10000 5.1 320 15:21 15.10.2019
6142 Clear 31 1012 49 10000 4.6 310 14:58 15.10.2019
6143 Clear 31 1013 55 10000 3.1 320 14:38 15.10.2019
6144 Clear 31 1013 55 10000 3.1 320 14:20 15.10.2019
6145 Clear 31 1013 52 10000 2.6 300 13:56 15.10.2019
6146 Clear 31 1013 52 10000 2.6 300 13:37 15.10.2019
6147 Clear 31 1014 55 10000 3.1 300 13:19 15.10.2019
6148 Clear 31 1014 52 10000 2.6 260 12:43 15.10.2019
6149 Clear 31 1015 55 10000 2.1 280 12:21 15.10.2019
6150 Clear 30 1015 55 10000 1 330 11:57 15.10.2019
6151 Clear 30 1015 55 10000 1 330 11:38 15.10.2019
6152 Clear 28 1015 65 10000 2.1 330 11:19 15.10.2019
6153 Clear 27 1015 69 10000 1.5 320 10:45 15.10.2019
6154 Clear 27 1015 69 10000 2.1 310 10:22 15.10.2019
6155 Clear 27 1015 69 10000 1.5 280 09:58 15.10.2019
6156 Clear 27 1015 69 10000 1.5 280 09:38 15.10.2019
6157 Clear 25 1015 83 6000 1.5 300 09:20 15.10.2019
6158 Clear 25 1015 83 6000 1.5 310 08:56 15.10.2019
6159 Clear 25 1015 88 6000 2.6 320 08:36 15.10.2019
6160 Clear 24 1015 88 6000 2.6 320 08:18 15.10.2019
6161 Clear 24 1014 88 6000 2.6 310 07:41 15.10.2019
6162 Clear 24 1014 88 6000 1.5 330 07:21 15.10.2019
6163 Clear 24 1014 83 10000 1.5 290 06:47 15.10.2019
6164 Clear 24 1014 83 10000 1.5 290 06:29 15.10.2019
6165 Clear 24 1014 83 10000 2.1 300 05:48 15.10.2019
6166 Clouds 24 1014 83 10000 2.6 290 05:29 15.10.2019
6167 Clouds 24 1014 83 6000 1.5 360 04:39 15.10.2019
6168 Clouds 24 1014 88 6000 2.6 320 03:57 15.10.2019
6169 Clouds 25 1014 83 6000 3.1 300 03:27 15.10.2019
6170 Clouds 25 1014 78 6000 2.1 290 01:51 15.10.2019
6171 Clouds 25 1014 78 6000 1.5 20 01:23 15.10.2019
6172 Clouds 25 1015 78 6000 1.5 20 00:52 15.10.2019
6173 Clouds 25 1015 78 6000 2.1 20 00:23 15.10.2019
6174 Clouds 25 1015 73 6000 2.1 30 23:46 14.10.2019
6175 Clouds 26 1015 69 6000 2.6 30 23:21 14.10.2019
6176 Clouds 26 1015 65 6000 2.6 10 22:59 14.10.2019
6177 Clouds 26 1015 65 6000 2.6 10 22:39 14.10.2019
6178 Clouds 27 1015 61 6000 1.5 10 22:19 14.10.2019
6179 Clouds 27 1015 61 6000 1.5 10 22:19 14.10.2019
6180 Clouds 27 1015 61 6000 1.5 10 22:19 14.10.2019
6181 Clouds 27 1015 61 6000 2.1 360 21:56 14.10.2019
6182 Clouds 27 1015 61 6000 2.1 360 21:38 14.10.2019
6183 Clouds 28 1015 54 6000 3.1 350 21:20 14.10.2019
6184 Clouds 28 1015 54 6000 3.6 350 20:55 14.10.2019
6185 Clouds 29 1015 54 6000 3.6 350 20:37 14.10.2019
6186 Clouds 29 1014 51 6000 4.1 340 20:18 14.10.2019
6187 Clear 29 1014 51 6000 4.1 350 19:43 14.10.2019
6188 -273 0 0 0 0 0 19:24 14.10.2019
6189 Clear 30 1014 45 6000 3.1 340 19:24 14.10.2019
6190 Clouds 31 1013 40 6000 3.1 340 18:59 14.10.2019
6191 Clouds 31 1013 40 6000 3.1 340 18:39 14.10.2019
6192 Clear 32 1013 35 10000 2.6 350 18:20 14.10.2019
6193 Clear 32 1013 35 10000 2.6 350 18:20 14.10.2019
6194 Clear 32 1013 35 10000 2.6 350 18:20 14.10.2019
6195 Clear 32 1013 33 10000 3.1 350 17:58 14.10.2019
6196 -273 0 0 0 0 0 17:40 14.10.2019
6197 Clouds 33 1013 33 10000 3.6 340 17:21 14.10.2019
6198 Clouds 33 1013 33 10000 3.6 340 17:21 14.10.2019
6199 Clouds 33 1013 33 10000 3.1 340 16:44 14.10.2019
6200 Clouds 33 1013 33 10000 3.1 340 16:22 14.10.2019
6201 Clouds 33 1013 33 10000 3.1 340 15:57 14.10.2019
6202 Clouds 33 1013 36 10000 4.1 340 15:38 14.10.2019
6203 Clouds 33 1013 36 10000 4.1 340 15:20 14.10.2019
6204 Clouds 32 1014 35 10000 3.1 330 14:43 14.10.2019
6205 Clouds 32 1014 35 10000 3.1 330 14:24 14.10.2019
6206 Clouds 32 1013 38 10000 2.6 350 13:56 14.10.2019
6207 Clouds 32 1014 38 10000 4.6 10 13:37 14.10.2019
6208 Clouds 32 1014 38 10000 4.6 10 13:18 14.10.2019
6209 Clear 30 1015 48 6000 2.1 330 12:40 14.10.2019
6210 Clear 30 1015 48 6000 2.1 330 12:19 14.10.2019
6211 Clear 28 1016 58 6000 2.6 20 11:46 14.10.2019
6212 Clear 28 1016 58 6000 2.6 20 11:27 14.10.2019
6213 Haze 28 1016 61 4000 1.5 40 10:58 14.10.2019
6214 Haze 27 1016 65 4000 1.5 40 10:39 14.10.2019
6215 Haze 27 1016 65 4000 1.5 40 10:20 14.10.2019
6216 Haze 27 1016 65 4000 3.1 350 09:56 14.10.2019
6217 Haze 27 1016 65 4000 3.1 350 09:55 14.10.2019
6218 Haze 26 1016 69 4000 3.1 30 09:36 14.10.2019
6219 Mist 25 1016 83 2000 2.6 350 09:18 14.10.2019
6220 Mist 25 1016 88 2000 2.6 10 08:44 14.10.2019
6221 Mist 24 1016 88 2000 2.6 10 08:22 14.10.2019
6222 Mist 24 1015 88 2000 2.6 10 07:42 14.10.2019
6223 Mist 24 1015 88 2000 2.6 10 07:19 14.10.2019
6224 Mist 24 1015 88 2000 2.6 10 06:53 14.10.2019
6225 Mist 23 1015 94 2000 2.1 360 06:26 14.10.2019
6226 Mist 24 1015 88 2000 1.5 360 05:49 14.10.2019
6227 Mist 24 1015 83 2000 2.6 350 04:48 14.10.2019
6228 Mist 24 1015 88 2000 2.1 340 03:28 14.10.2019
6229 Mist 24 1015 83 2000 2.1 350 02:49 14.10.2019
6230 Clear 24 1016 88 6000 2.1 10 01:24 14.10.2019
6231 Clear 25 1016 83 10000 2.1 10 00:59 14.10.2019
6232 Clear 25 1016 78 10000 1.5 50 00:21 14.10.2019
6233 Clear 25 1016 78 10000 1.5 50 00:21 14.10.2019
6234 Clear 25 1016 78 10000 3.6 20 23:45 13.10.2019
6235 Clear 25 1016 78 10000 3.6 20 23:21 13.10.2019
6236 Clear 25 1016 74 10000 3.6 10 22:59 13.10.2019
6237 Clear 26 1016 69 10000 4.6 10 22:41 13.10.2019
6238 Clear 26 1016 69 10000 4.6 10 22:21 13.10.2019
6239 Clear 27 1016 57 10000 5.1 20 21:58 13.10.2019
6240 Clear 28 1016 48 10000 3.1 30 21:38 13.10.2019
6241 Clear 28 1016 48 10000 3.1 30 21:19 13.10.2019
6242 Clear 28 1016 45 10000 4.1 20 20:58 13.10.2019
6243 Clear 28 1016 45 10000 4.1 20 20:58 13.10.2019
6244 Clear 28 1016 42 10000 4.1 30 20:39 13.10.2019
6245 Clear 29 1016 42 10000 4.1 30 20:39 13.10.2019
6246 Clear 29 1016 42 10000 4.1 30 20:21 13.10.2019
6247 Clear 29 1015 42 10000 4.1 30 19:59 13.10.2019
6248 Clear 30 1015 40 10000 4.6 20 19:39 13.10.2019
6249 Clear 30 1015 40 10000 4.6 20 19:39 13.10.2019
6250 Clear 30 1015 40 10000 4.6 20 19:21 13.10.2019
6251 Clear 30 1015 42 10000 5.1 10 18:58 13.10.2019
6252 Clear 31 1014 40 10000 5.1 10 18:37 13.10.2019
6253 Clear 31 1014 38 10000 5.1 360 18:19 13.10.2019
6254 Clear 31 1014 38 10000 5.1 360 18:19 13.10.2019
6255 Clear 32 1014 38 10000 5.1 360 17:58 13.10.2019
6256 Clear 32 1014 38 10000 5.1 360 17:39 13.10.2019
6257 Clear 32 1014 38 10000 5.1 360 17:21 13.10.2019
6258 Clouds 33 1014 33 10000 5.1 10 16:43 13.10.2019
6259 Clouds 33 1014 33 10000 5.1 10 16:19 13.10.2019
6260 Clouds 33 1013 38 10000 6.2 350 15:57 13.10.2019
6261 Clouds 33 1013 38 10000 6.2 350 15:57 13.10.2019
6262 Clouds 33 1013 38 10000 6.2 350 15:57 13.10.2019
6263 Clouds 33 1013 38 10000 6.2 350 15:38 13.10.2019
6264 Clouds 33 1013 38 10000 6.2 350 15:19 13.10.2019
6265 Clouds 33 1014 43 10000 5.1 350 14:57 13.10.2019
6266 Clouds 33 1014 43 10000 5.1 350 14:38 13.10.2019
6267 Clouds 32 1014 43 6000 4.6 20 14:19 13.10.2019
6268 Clouds 32 1014 43 6000 4.6 20 13:42 13.10.2019
6269 Clouds 32 1014 43 6000 4.6 20 13:23 13.10.2019
6270 Clouds 30 1015 51 6000 4.6 10 12:59 13.10.2019
6271 Clouds 30 1015 51 6000 4.6 10 12:39 13.10.2019
6272 Clouds 30 1015 51 6000 4.6 10 12:21 13.10.2019
6273 Clouds 30 1015 62 6000 4.1 360 11:59 13.10.2019
6274 Clouds 28 1015 65 6000 4.1 350 11:39 13.10.2019
6275 Clouds 28 1015 65 6000 4.1 350 11:21 13.10.2019
6276 Clouds 28 1015 65 6000 4.1 350 10:59 13.10.2019
6277 Clouds 28 1016 65 6000 3.6 350 10:40 13.10.2019
6278 Clouds 28 1016 65 6000 3.6 350 10:22 13.10.2019
6279 Mist 26 1016 74 4000 3.6 20 09:39 13.10.2019
6280 Mist 26 1016 74 4000 3.6 20 09:21 13.10.2019
6281 Mist 26 1016 74 4000 4.6 40 08:55 13.10.2019
6282 Mist 25 1015 78 4000 4.6 30 08:27 13.10.2019
6283 Mist 24 1015 88 2000 3.6 40 07:56 13.10.2019
6284 Mist 23 1015 94 2000 3.1 30 07:38 13.10.2019
6285 Mist 23 1015 94 2000 3.1 30 06:54 13.10.2019
6286 Mist 24 1015 88 2000 3.6 40 06:26 13.10.2019
6287 Mist 24 1015 88 2000 3.6 30 05:29 13.10.2019
6288 Mist 24 1014 88 3000 2.6 40 04:38 13.10.2019
6289 Mist 24 1014 88 4000 2.6 20 03:37 13.10.2019
6290 Clear 24 1015 88 6000 3.1 40 02:32 13.10.2019
6291 Clear 24 1015 88 10000 2.6 40 01:47 13.10.2019
6292 Clear 25 1015 83 10000 2.1 60 01:21 13.10.2019
6293 Clear 25 1015 83 10000 2.1 60 01:21 13.10.2019
6294 Clear 25 1015 78 10000 2.1 30 00:43 13.10.2019
6295 Clear 25 1015 78 10000 2.1 30 00:20 13.10.2019
6296 Clear 25 1015 78 10000 3.6 40 23:54 12.10.2019
6297 Clear 25 1015 78 10000 3.6 40 23:54 12.10.2019
6298 Clear 25 1015 78 10000 3.6 40 23:36 12.10.2019
6299 Clear 25 1015 78 10000 3.6 40 23:36 12.10.2019
6300 Clear 25 1015 78 10000 3.6 40 23:18 12.10.2019
6301 Clear 26 1015 74 10000 4.6 40 22:54 12.10.2019
6302 Clear 26 1015 74 10000 4.6 50 22:36 12.10.2019
6303 Clear 26 1015 74 10000 4.6 50 22:18 12.10.2019
6304 Clear 27 1015 65 10000 4.1 40 21:41 12.10.2019
6305 Clear 27 1015 65 10000 4.1 40 21:23 12.10.2019
6306 Clear 28 1015 61 10000 5.1 40 20:56 12.10.2019
6307 Clear 28 1015 61 10000 5.1 40 20:38 12.10.2019
6308 Clear 28 1015 61 10000 5.1 40 20:38 12.10.2019
6309 Clear 28 1015 61 10000 5.1 40 20:20 12.10.2019
6310 Clear 31 1014 40 10000 4.6 20 19:37 12.10.2019
6311 Clear 32 1014 40 10000 4.6 20 19:19 12.10.2019
6312 Clear 32 1014 35 10000 5.1 20 18:46 12.10.2019
6313 Clear 32 1014 35 10000 5.1 20 18:27 12.10.2019
6314 Clear 32 1014 35 10000 5.1 20 17:58 12.10.2019
6315 Clear 33 1014 31 10000 6.2 20 17:40 12.10.2019
6316 Clear 33 1013 31 10000 6.7 10 17:18 12.10.2019
6317 Clear 33 1014 33 10000 5.1 20 16:41 12.10.2019
6318 Clear 33 1014 33 10000 5.1 20 16:41 12.10.2019
6319 Clear 33 1014 33 10000 5.1 20 16:21 12.10.2019
6320 Clear 33 1013 33 10000 5.7 20 15:59 12.10.2019
6321 Clear 33 1014 33 10000 5.7 10 15:39 12.10.2019
6322 Clear 33 1014 33 10000 5.7 10 15:21 12.10.2019
6323 Clear 33 1014 33 10000 5.7 10 15:21 12.10.2019
6324 Clear 33 1014 36 10000 5.1 20 14:41 12.10.2019
6325 Clear 33 1014 36 10000 5.1 20 14:21 12.10.2019
6326 Clear 33 1014 36 10000 5.1 20 14:21 12.10.2019
6327 Clear 33 1014 31 10000 5.1 10 13:53 12.10.2019
6328 Clear 33 1014 31 10000 5.1 10 13:53 12.10.2019
6329 Clear 33 1014 33 10000 5.1 360 13:33 12.10.2019
6330 Clear 32 1014 35 10000 4.6 360 12:59 12.10.2019
6331 Clear 32 1014 35 10000 4.6 360 12:59 12.10.2019
6332 Clear 31 1015 38 10000 4.6 20 12:38 12.10.2019
6333 Clear 31 1015 38 10000 4.6 20 12:20 12.10.2019
6334 Clear 30 1015 42 10000 3.6 30 11:56 12.10.2019
6335 Clear 30 1015 42 10000 3.6 30 11:38 12.10.2019
6336 Clear 30 1015 42 10000 3.6 30 11:38 12.10.2019
6337 Clear 30 1016 45 6000 4.1 40 11:18 12.10.2019
6338 Clear 28 1016 54 6000 3.6 60 10:41 12.10.2019
6339 Clear 28 1016 54 6000 3.6 60 10:23 12.10.2019
6340 Clear 27 1016 65 6000 3.6 70 09:57 12.10.2019
6341 Clear 27 1016 65 6000 3.6 70 09:57 12.10.2019
6342 Clear 25 1016 73 6000 4.6 70 09:39 12.10.2019
6343 Clear 25 1016 73 6000 4.6 70 09:20 12.10.2019
6344 -273 0 0 0 0 0 08:56 12.10.2019
6345 Clear 24 1015 83 6000 4.1 70 08:55 12.10.2019
6346 Mist 23 1015 88 4000 4.1 70 08:36 12.10.2019
6347 Mist 23 1015 88 4000 4.1 70 08:18 12.10.2019
6348 Mist 22 1015 88 4000 2.6 60 07:33 12.10.2019
6349 Mist 22 1015 88 4000 2.6 60 06:50 12.10.2019
6350 Mist 22 1015 88 4000 2.1 70 05:46 12.10.2019
6351 Clouds 22 1015 88 6000 2.1 70 04:52 12.10.2019
6352 Clouds 23 1015 83 6000 2.6 50 03:58 12.10.2019
6353 Clouds 23 1015 83 10000 3.1 30 02:57 12.10.2019
6354 Clouds 24 1015 78 10000 3.6 20 01:36 12.10.2019
6355 Clouds 24 1015 78 10000 3.6 20 01:36 12.10.2019
6356 Clouds 24 1015 78 10000 5.7 30 00:59 12.10.2019
6357 Clouds 24 1015 78 10000 5.7 30 00:39 12.10.2019
6358 Clouds 24 1015 78 10000 4.6 30 23:57 11.10.2019
6359 Clouds 24 1016 78 10000 5.1 40 23:39 11.10.2019
6360 Clouds 24 1016 78 10000 5.1 40 23:20 11.10.2019
6361 Clouds 24 1016 78 10000 5.1 40 23:20 11.10.2019
6362 Clear 24 1016 78 10000 5.1 30 22:40 11.10.2019
6363 Clear 24 1016 78 10000 5.1 30 22:21 11.10.2019
6364 Clear 25 1015 73 10000 5.1 30 21:56 11.10.2019
6365 Clear 25 1015 73 10000 6.2 40 21:38 11.10.2019
6366 Clear 25 1015 73 10000 6.2 40 21:20 11.10.2019
6367 Clear 26 1015 65 10000 6.7 40 20:44 11.10.2019
6368 Clear 26 1015 65 10000 6.7 40 20:26 11.10.2019
6369 Clear 27 1015 57 10000 6.2 40 19:57 11.10.2019
6370 Clear 28 1014 51 10000 6.2 30 19:38 11.10.2019
6371 Clear 28 1014 45 10000 6.7 30 19:18 11.10.2019
6372 Clear 29 1014 45 10000 6.7 30 18:58 11.10.2019
6373 Clear 29 1014 45 10000 6.7 30 18:58 11.10.2019
6374 Clear 31 1013 38 10000 5.7 10 18:38 11.10.2019
6375 Clear 31 1013 38 10000 5.7 10 18:19 11.10.2019
6376 Clear 31 1013 38 10000 5.7 10 17:58 11.10.2019
6377 Clear 31 1013 38 0 5.36 10 17:37 11.10.2019
6378 Clouds 32 1013 35 10000 5.1 20 17:19 11.10.2019
6379 Clouds 32 1013 35 10000 5.1 20 16:56 11.10.2019
6380 Clouds 32 1013 35 10000 5.1 20 16:37 11.10.2019
6381 Clouds 32 1013 33 10000 5.7 360 16:18 11.10.2019
6382 Clouds 32 1013 35 10000 5.1 20 16:18 11.10.2019
6383 Clouds 32 1013 33 10000 5.7 360 15:41 11.10.2019
6384 Clouds 32 1013 33 10000 5.7 360 15:20 11.10.2019
6385 Clouds 32 1014 33 10000 4.1 350 14:58 11.10.2019
6386 Clouds 32 1014 33 10000 4.1 350 14:37 11.10.2019
6387 Clouds 32 1014 33 10000 4.1 350 14:19 11.10.2019
6388 Clouds 32 1014 35 10000 4.1 20 13:43 11.10.2019
6389 Clouds 32 1014 35 10000 4.1 20 13:24 11.10.2019
6390 Clouds 30 1015 42 10000 2.6 40 12:56 11.10.2019
6391 Clouds 30 1015 42 10000 2.6 40 12:38 11.10.2019
6392 Clouds 30 1015 42 10000 2.6 40 12:20 11.10.2019
6393 Clouds 30 1015 42 10000 2.6 40 11:55 11.10.2019
6394 Clouds 30 1015 42 10000 2.6 40 11:55 11.10.2019
6395 Clouds 30 1015 42 10000 2.6 40 11:55 11.10.2019
6396 Clouds 29 1015 45 10000 3.6 20 11:36 11.10.2019
6397 Clouds 29 1015 45 10000 3.6 20 11:18 11.10.2019
6398 Clouds 28 1016 54 10000 3.6 30 10:41 11.10.2019
6399 Clouds 28 1016 54 10000 3.6 30 10:23 11.10.2019
6400 Clouds 27 1016 57 10000 3.6 40 09:59 11.10.2019
6401 Clouds 26 1016 65 10000 5.1 50 09:40 11.10.2019
6402 Clouds 25 1016 69 10000 4.6 40 09:20 11.10.2019
6403 Clouds 25 1016 69 10000 4.6 40 08:56 11.10.2019
6404 Clouds 25 1016 78 10000 3.6 50 08:37 11.10.2019
6405 Clouds 24 1016 78 10000 3.6 50 08:19 11.10.2019
6406 Clouds 21 1015 88 6000 3.1 60 07:45 11.10.2019
6407 Clouds 21 1015 88 6000 3.1 60 07:27 11.10.2019
6408 Clouds 21 1015 88 6000 2.1 50 06:49 11.10.2019
6409 Clouds 21 1015 88 6000 2.6 80 06:24 11.10.2019
6410 Clouds 21 1015 83 6000 2.1 40 05:41 11.10.2019
6411 Clouds 22 1015 83 6000 2.1 40 05:23 11.10.2019
6412 Clouds 22 1015 83 6000 1.5 70 04:38 11.10.2019
6413 Clear 22 1016 78 10000 3.6 360 02:47 11.10.2019
6414 Clear 24 1016 73 10000 4.1 20 00:52 11.10.2019
6415 Clear 24 1016 73 10000 5.1 40 00:30 11.10.2019
6416 Clear 24 1016 73 10000 4.1 30 23:50 10.10.2019
6417 Clear 24 1016 73 10000 6.2 40 23:24 10.10.2019
6418 Clear 24 1016 73 10000 5.1 30 22:59 10.10.2019
6419 Clear 25 1016 69 10000 5.7 20 22:40 10.10.2019
6420 Clear 25 1016 69 10000 5.7 20 22:21 10.10.2019
6421 Clear 25 1016 69 10000 5.7 20 22:21 10.10.2019
6422 Clear 25 1016 65 10000 5.1 20 21:59 10.10.2019
6423 Clear 25 1016 69 10000 5.1 20 21:40 10.10.2019
6424 Clear 25 1016 69 10000 5.1 20 21:22 10.10.2019
6425 Clear 25 1016 65 10000 5.7 20 20:57 10.10.2019
6426 Clear 25 1016 61 10000 5.7 20 20:39 10.10.2019
6427 Clear 26 1016 61 10000 6.2 30 20:19 10.10.2019
6428 Clear 26 1016 61 10000 5.7 20 20:19 10.10.2019
6429 Clear 26 1016 61 10000 6.2 30 19:55 10.10.2019
6430 Clear 27 1016 54 10000 5.1 360 19:37 10.10.2019
6431 Clear 27 1016 54 10000 5.1 360 19:19 10.10.2019
6432 Clear 27 1015 48 10000 5.7 20 18:42 10.10.2019
6433 Clear 28 1015 48 10000 5.7 20 18:20 10.10.2019
6434 Clear 29 1014 45 10000 6.7 30 17:57 10.10.2019
6435 Clear 29 1014 42 10000 5.7 30 17:37 10.10.2019
6436 Clear 30 1014 42 10000 5.7 30 17:18 10.10.2019
6437 Clear 30 1014 42 10000 5.7 30 17:18 10.10.2019
6438 Clear 30 1014 40 10000 6.2 30 16:55 10.10.2019
6439 Clear 30 1014 40 10000 6.7 20 16:37 10.10.2019
6440 Clear 30 1014 40 10000 6.7 20 16:18 10.10.2019
6441 Clear 31 1014 40 10000 6.2 40 15:39 10.10.2019
6442 Clear 31 1014 40 10000 6.2 40 15:21 10.10.2019
6443 Clear 31 1014 35 10000 5.7 30 14:56 10.10.2019
6444 Clear 31 1014 33 10000 5.1 10 14:37 10.10.2019
6445 Clear 32 1014 33 10000 5.1 10 14:19 10.10.2019
6446 Clear 31 1014 38 10000 5.1 30 13:55 10.10.2019
6447 Clear 31 1015 38 10000 5.7 20 13:37 10.10.2019
6448 Clear 31 1015 38 10000 5.7 20 13:18 10.10.2019
6449 Clear 31 1015 43 10000 5.7 30 12:42 10.10.2019
6450 Clear 31 1015 43 10000 5.7 30 12:20 10.10.2019
6451 Clear 29 1016 48 10000 6.2 40 11:58 10.10.2019
6452 Clear 29 1016 48 10000 6.2 40 11:39 10.10.2019
6453 Clear 29 1016 48 10000 6.2 40 11:19 10.10.2019
6454 Clear 28 1017 54 10000 6.2 30 10:46 10.10.2019
6455 Clear 28 1017 54 10000 6.2 30 10:27 10.10.2019
6456 Clear 26 1017 65 10000 5.1 60 09:59 10.10.2019
6457 Clear 26 1017 65 10000 5.1 60 09:41 10.10.2019
6458 Clear 26 1017 65 10000 5.1 60 09:23 10.10.2019
6459 Clear 24 1017 73 10000 3.6 50 08:59 10.10.2019
6460 Clear 24 1017 73 10000 3.6 50 08:39 10.10.2019
6461 Clear 24 1017 73 10000 3.6 50 08:19 10.10.2019
6462 Clouds 23 1016 78 10000 4.6 40 07:47 10.10.2019
6463 Clouds 23 1016 78 10000 4.6 40 07:25 10.10.2019
6464 Clouds 22 1016 83 10000 3.1 40 06:55 10.10.2019
6465 Clouds 22 1016 83 10000 3.1 40 06:36 10.10.2019
6466 Clouds 22 1016 83 10000 2.6 60 05:39 10.10.2019
6467 Clouds 22 1016 83 10000 2.6 60 05:18 10.10.2019
6468 Clear 23 1016 78 10000 2.6 50 04:34 10.10.2019
6469 Clear 23 1016 78 10000 2.6 50 02:29 10.10.2019
6470 Clear 24 1017 73 10000 3.6 50 01:37 10.10.2019
6471 Clear 24 1017 73 10000 3.6 50 01:37 10.10.2019
6472 Clear 24 1017 73 10000 3.6 50 01:18 10.10.2019
6473 Clear 24 1017 73 10000 4.1 40 00:33 10.10.2019
6474 Clear 24 1018 69 10000 4.6 30 23:42 09.10.2019
6475 Clear 25 1018 69 10000 4.6 30 23:24 09.10.2019
6476 Clear 25 1018 69 10000 4.6 30 23:24 09.10.2019
6477 Clear 25 1018 69 10000 4.6 40 22:59 09.10.2019
6478 Clear 25 1018 69 10000 5.7 30 22:41 09.10.2019
6479 Clear 25 1018 69 10000 5.7 30 22:22 09.10.2019
6480 Clear 25 1018 69 10000 5.1 30 21:57 09.10.2019
6481 Clear 25 1018 69 10000 5.1 30 21:38 09.10.2019
6482 Clear 25 1018 69 10000 5.1 30 21:19 09.10.2019
6483 Clear 26 1018 61 10000 5.1 40 20:55 09.10.2019
6484 Clear 26 1018 61 10000 5.1 40 20:37 09.10.2019
6485 Clear 26 1018 61 10000 6.2 40 20:18 09.10.2019
6486 Clear 26 1018 61 10000 5.1 40 20:18 09.10.2019
6487 Clear 26 1017 54 10000 6.7 40 19:44 09.10.2019
6488 Clear 27 1017 54 10000 6.7 40 19:23 09.10.2019
6489 Clear 28 1017 51 10000 6.7 20 18:56 09.10.2019
6490 Clear 30 1016 45 10000 6.2 20 18:37 09.10.2019
6491 Clear 30 1016 38 10000 4.6 30 18:18 09.10.2019
6492 Clear 31 1016 38 10000 4.6 30 17:54 09.10.2019
6493 Clear 31 1016 35 10000 5.1 360 17:36 09.10.2019
6494 Clear 31 1016 31 10000 5.1 10 17:18 09.10.2019
6495 Clear 32 1016 33 10000 5.1 10 16:40 09.10.2019
6496 Clear 32 1016 33 10000 5.1 10 16:21 09.10.2019
6497 Clear 32 1016 33 10000 5.1 10 16:21 09.10.2019
6498 Clear 33 1016 29 10000 6.7 350 15:57 09.10.2019
6499 Clear 33 1016 29 10000 6.7 350 15:57 09.10.2019
6500 Clear 33 1016 29 10000 4.6 10 15:39 09.10.2019
6501 Clear 33 1016 29 10000 4.6 10 15:19 09.10.2019
6502 Clear 33 1016 29 10000 4.6 10 14:56 09.10.2019
6503 Clear 33 1016 29 10000 5.1 20 14:37 09.10.2019
6504 Clear 33 1016 29 10000 5.1 20 14:18 09.10.2019
6505 Clear 33 1016 33 10000 6.19 7.803 13:39 09.10.2019
6506 Clear 33 1016 33 10000 6.19 7.803 13:39 09.10.2019
6507 Clear 33 1016 33 10000 6.04 11.146 13:20 09.10.2019
6508 Clear 31 1017 38 10000 4.6 40 12:57 09.10.2019
6509 Clear 31 1017 38 10000 4.6 40 12:38 09.10.2019
6510 Clear 31 1017 38 10000 4.6 40 12:20 09.10.2019
6511 Clear 31 1017 40 10000 4.1 50 11:55 09.10.2019
6512 Clear 31 1017 40 10000 4.1 50 11:55 09.10.2019
6513 Clear 30 1017 42 10000 5.1 40 11:36 09.10.2019
6514 Clear 30 1017 42 10000 5.1 40 11:18 09.10.2019
6515 Clear 28 1018 54 10000 5.1 60 10:43 09.10.2019
6516 Clear 28 1018 54 10000 5.1 60 10:21 09.10.2019
6517 Clear 28 1018 54 10000 5.7 50 09:57 09.10.2019
6518 Clear 27 1018 57 10000 6.7 50 09:38 09.10.2019
6519 Clear 26 1018 61 10000 6.2 60 09:18 09.10.2019
6520 Clear 24 1018 73 10000 6.2 70 08:40 09.10.2019
6521 Clear 24 1018 73 10000 6.2 70 08:21 09.10.2019
6522 Clear 24 1018 73 10000 4.6 70 07:54 09.10.2019
6523 Clear 23 1017 78 10000 4.6 70 07:36 09.10.2019
6524 Clear 23 1017 78 10000 4.6 70 07:18 09.10.2019
6525 Clear 23 1017 83 10000 4.1 60 06:47 09.10.2019
6526 Clear 23 1016 78 10000 3.6 70 05:55 09.10.2019
6527 Clear 23 1016 78 10000 3.6 70 05:19 09.10.2019
6528 Clear 24 1016 73 10000 3.1 70 03:54 09.10.2019
6529 Clear 24 1016 73 10000 4.1 60 02:45 09.10.2019
6530 Clear 24 1016 69 10000 4.6 70 01:42 09.10.2019
6531 Clear 25 1016 69 10000 4.6 70 01:19 09.10.2019
6532 Clear 25 1017 69 10000 5.1 70 00:56 09.10.2019
6533 Clear 25 1017 69 10000 5.1 70 00:38 09.10.2019
6534 Clear 25 1017 69 10000 5.1 70 00:38 09.10.2019
6535 Clear 25 1017 69 10000 5.1 70 00:19 09.10.2019
6536 Clear 26 1017 65 10000 5.7 40 23:39 08.10.2019
6537 Clear 26 1017 65 10000 5.7 40 23:18 08.10.2019
6538 Clear 26 1017 65 10000 5.7 40 22:56 08.10.2019
6539 Clear 26 1017 65 10000 5.7 40 22:38 08.10.2019
6540 Clear 26 1017 61 10000 5.7 40 22:19 08.10.2019
6541 Clear 27 1017 61 10000 5.7 40 21:57 08.10.2019
6542 Clear 27 1017 61 10000 5.7 40 21:38 08.10.2019
6543 Clear 27 1017 61 10000 5.7 40 21:18 08.10.2019
6544 Clear 28 1016 54 10000 5.7 40 20:56 08.10.2019
6545 Clear 28 1016 54 10000 5.7 40 20:37 08.10.2019
6546 Clear 28 1016 54 10000 5.7 40 20:37 08.10.2019
6547 Clear 28 1016 54 10000 5.7 40 20:19 08.10.2019
6548 Clear 32 1014 29 10000 4.6 350 19:56 08.10.2019
6549 Clear 32 1014 29 10000 4.6 350 19:37 08.10.2019
6550 Clear 32 1014 29 10000 4.6 350 19:18 08.10.2019
6551 Clouds 24 1015 59 0 7.18 34.805 18:46 08.10.2019
6552 Clear 32 1014 29 10000 4.6 350 18:25 08.10.2019
6553 Clear 32 1014 29 10000 4.6 350 17:58 08.10.2019
6554 Clear 32 1014 29 10000 4.6 350 17:39 08.10.2019
6555 Clear 32 1014 29 10000 4.6 350 17:20 08.10.2019
6556 Clear 33 1013 29 10000 4.1 330 16:56 08.10.2019
6557 Clear 33 1013 29 10000 4.1 330 16:56 08.10.2019
6558 Clear 33 1013 29 10000 4.1 330 16:37 08.10.2019
6559 Clear 33 1013 29 10000 2.1 350 16:19 08.10.2019
6560 Clear 33 1013 29 10000 2.1 350 15:40 08.10.2019
6561 Clear 33 1013 29 10000 2.1 350 15:21 08.10.2019
6562 Clear 33 1013 29 10000 3.1 310 14:57 08.10.2019
6563 Clear 33 1013 29 10000 3.1 310 14:38 08.10.2019
6564 Clear 33 1013 29 10000 3.1 310 14:20 08.10.2019
6565 Clear 33 1013 26 10000 3.6 10 13:55 08.10.2019
6566 Clear 33 1013 26 10000 3.6 10 13:37 08.10.2019
6567 Clear 33 1013 26 10000 3.6 10 13:18 08.10.2019
6568 Clear 33 1013 27 10000 1.5 340 12:42 08.10.2019
6569 Clear 33 1013 27 10000 1.5 340 12:21 08.10.2019
6570 Clear 32 1014 29 10000 1.5 340 11:59 08.10.2019
6571 Clear 32 1014 27 10000 2.6 10 11:40 08.10.2019
6572 Clear 32 1014 27 10000 2.6 10 11:21 08.10.2019
6573 Clear 31 1014 29 10000 1.5 30 10:55 08.10.2019
6574 Clear 30 1014 30 10000 2.6 30 10:36 08.10.2019
6575 Clear 30 1014 30 10000 2.6 60 10:18 08.10.2019
6576 Clear 30 1014 37 10000 2.1 50 09:41 08.10.2019
6577 Clear 29 1014 37 10000 2.1 50 09:41 08.10.2019
6578 Clear 29 1014 37 10000 2.1 50 09:23 08.10.2019
6579 Clear 27 1014 51 10000 2.1 60 08:57 08.10.2019
6580 Clear 26 1014 57 10000 2.1 60 08:39 08.10.2019
6581 Clear 25 1014 57 10000 2.1 60 08:21 08.10.2019
6582 Clear 24 1013 60 10000 1.5 60 07:41 08.10.2019
6583 Clear 24 1013 60 10000 1.5 60 07:20 08.10.2019
6584 Clear 24 1013 60 10000 1.5 60 07:20 08.10.2019
6585 Clouds 24 1013 60 10000 1.5 50 06:47 08.10.2019
6586 Clouds 23 1013 69 10000 1.5 60 06:26 08.10.2019
6587 Clear 23 1012 73 10000 2.1 60 05:45 08.10.2019
6588 Clear 23 1012 73 10000 2.1 60 05:24 08.10.2019
6589 Clouds 24 1012 73 6000 2.1 80 03:32 08.10.2019
6590 Clouds 24 1012 73 6000 4.1 80 02:48 08.10.2019
6591 Clouds 24 1012 73 6000 4.6 90 02:29 08.10.2019
6592 Clouds 24 1012 73 6000 4.6 80 01:43 08.10.2019
6593 Clouds 24 1012 73 6000 4.6 80 01:25 08.10.2019
6594 Clouds 25 1013 69 6000 3.1 80 00:45 08.10.2019
6595 Clouds 25 1013 69 6000 3.1 80 00:20 08.10.2019
6596 Clouds 25 1013 65 6000 4.1 70 23:39 07.10.2019
6597 Clouds 25 1013 65 6000 4.1 70 23:19 07.10.2019
6598 Clouds 26 1013 61 6000 4.1 60 22:56 07.10.2019
6599 Clouds 26 1013 61 6000 4.6 60 22:37 07.10.2019
6600 Haze 26 1013 57 4000 4.1 60 22:19 07.10.2019
6601 Haze 26 1013 57 4000 4.1 60 21:55 07.10.2019
6602 Haze 28 1013 42 4000 1.5 10 21:37 07.10.2019
6603 Clear 28 1012 42 6000 1 10 21:18 07.10.2019
6604 Clouds 28 1012 42 6000 1 10 20:57 07.10.2019
6605 Clouds 28 1012 39 6000 1.5 350 20:38 07.10.2019
6606 Clouds 28 1012 39 6000 1.5 350 20:19 07.10.2019
6607 Clouds 29 1012 39 6000 2.1 340 19:56 07.10.2019
6608 Clouds 29 1012 37 6000 2.1 330 19:38 07.10.2019
6609 Clouds 29 1012 37 6000 2.1 330 19:38 07.10.2019
6610 Clouds 29 1012 37 6000 2.1 330 19:18 07.10.2019
6611 Clear 29 1012 35 10000 2.6 310 18:55 07.10.2019
6612 Clear 29 1011 37 10000 2.1 310 18:37 07.10.2019
6613 Clear 29 1011 35 10000 3.1 300 18:18 07.10.2019
6614 Clear 30 1011 33 10000 2.6 290 17:41 07.10.2019
6615 Clear 30 1011 33 10000 2.6 290 17:19 07.10.2019
6616 Clear 30 1011 35 10000 2.6 270 16:55 07.10.2019
6617 Clear 30 1011 33 10000 2.1 270 16:37 07.10.2019
6618 Clear 30 1011 33 10000 2.1 270 16:19 07.10.2019
6619 Clear 31 1011 33 10000 3.6 320 15:42 07.10.2019
6620 Clear 31 1011 33 10000 3.6 320 15:24 07.10.2019
6621 Clouds 30 1011 35 10000 2.6 340 14:42 07.10.2019
6622 Clouds 30 1011 35 10000 2.6 340 14:23 07.10.2019
6623 Clouds 30 1011 33 10000 1.5 300 13:59 07.10.2019
6624 Clouds 30 1011 35 10000 3.1 320 13:40 07.10.2019
6625 Clouds 30 1011 35 10000 3.1 320 13:18 07.10.2019
6626 Clouds 30 1012 35 10000 2.1 240 12:55 07.10.2019
6627 Clouds 30 1012 35 10000 2.1 240 12:55 07.10.2019
6628 Clouds 30 1012 35 10000 2.6 240 12:36 07.10.2019
6629 Clouds 30 1012 35 10000 2.1 250 12:18 07.10.2019
6630 Clouds 30 1012 35 10000 2.1 250 11:56 07.10.2019
6631 Clouds 28 1012 42 10000 2.1 250 11:36 07.10.2019
6632 Clouds 28 1013 48 10000 0.5 0 11:18 07.10.2019
6633 Clouds 27 1013 54 10000 0.5 0 10:40 07.10.2019
6634 Clear 26 1013 57 10000 1.5 320 10:20 07.10.2019
6635 Clear 25 1013 65 10000 1 30 09:42 07.10.2019
6636 Clear 25 1013 65 10000 1 30 09:23 07.10.2019
6637 Clear 25 1013 65 10000 2.1 10 08:56 07.10.2019
6638 Clear 24 1012 69 10000 2.1 30 08:37 07.10.2019
6639 Clear 24 1012 69 10000 2.6 30 08:18 07.10.2019
6640 Clear 23 1012 73 10000 1.5 80 07:41 07.10.2019
6641 Clear 23 1012 73 10000 1.5 80 07:21 07.10.2019
6642 Clear 23 1012 73 10000 1.5 80 07:21 07.10.2019
6643 Clear 22 1012 73 10000 1.5 90 06:48 07.10.2019
6644 Clear 22 1012 73 10000 1.5 80 06:27 07.10.2019
6645 Clear 23 1012 73 10000 1.5 70 05:47 07.10.2019
6646 Clear 23 1012 73 10000 1.5 70 05:21 07.10.2019
6647 Clear 23 1012 73 10000 1.5 80 04:24 07.10.2019
6648 Clear 23 1012 73 10000 1 70 03:44 07.10.2019
6649 Clear 23 1012 73 10000 1 70 03:44 07.10.2019
6650 Clear 23 1012 73 10000 1 70 03:44 07.10.2019
6651 Clear 23 1012 73 10000 1 70 03:20 07.10.2019
6652 Clear 23 1012 73 10000 1 70 03:20 07.10.2019
6653 Clear 24 1012 69 10000 2.1 50 02:21 07.10.2019
6654 Clear 24 1012 69 10000 2.1 50 02:21 07.10.2019
6655 Clear 24 1012 69 10000 3.1 50 01:50 07.10.2019
6656 Clear 24 1012 69 10000 3.1 50 01:21 07.10.2019
6657 Clear 25 1013 65 10000 3.1 60 00:39 07.10.2019
6658 Clear 25 1013 65 10000 3.1 60 00:20 07.10.2019
6659 Clear 25 1013 65 10000 4.1 360 23:42 06.10.2019
6660 Clear 25 1013 65 10000 4.1 360 23:42 06.10.2019
6661 Clear 25 1013 65 10000 4.1 360 23:21 06.10.2019
6662 Clear 25 1013 65 10000 4.1 10 22:59 06.10.2019
6663 Clear 25 1013 65 10000 3.6 360 22:41 06.10.2019
6664 Clear 25 1013 65 10000 3.6 360 22:22 06.10.2019
6665 Clear 26 1013 61 10000 3.6 360 21:58 06.10.2019
6666 Clear 26 1013 61 10000 4.1 350 21:38 06.10.2019
6667 Clear 26 1013 61 10000 4.1 350 21:38 06.10.2019
6668 Clear 26 1013 57 10000 5.1 360 21:19 06.10.2019
6669 Clear 26 1013 57 10000 5.1 360 20:58 06.10.2019
6670 Clear 26 1013 54 10000 5.1 10 20:40 06.10.2019
6671 Clear 27 1013 54 10000 5.1 10 20:20 06.10.2019
6672 Clear 27 1013 54 10000 5.1 10 20:20 06.10.2019
6673 Clear 28 1012 51 10000 5.1 10 19:57 06.10.2019
6674 Clear 29 1012 48 10000 5.1 360 19:37 06.10.2019
6675 Clear 29 1012 48 10000 5.1 360 19:19 06.10.2019
6676 Clear 29 1011 48 10000 4.6 350 18:57 06.10.2019
6677 Clear 30 1011 45 10000 5.1 360 18:38 06.10.2019
6678 Clear 30 1011 45 10000 5.1 360 18:19 06.10.2019
6679 Clear 31 1011 43 10000 5.1 350 17:57 06.10.2019
6680 Clear 31 1011 45 10000 3.6 340 17:38 06.10.2019
6681 Clear 31 1011 43 10000 3.1 350 17:19 06.10.2019
6682 Clear 32 1011 43 10000 3.1 350 16:42 06.10.2019
6683 Clear 32 1011 43 10000 3.1 350 16:23 06.10.2019
6684 Clear 32 1011 43 10000 3.6 340 15:56 06.10.2019
6685 Clear 32 1011 43 10000 3.6 340 15:38 06.10.2019
6686 Clear 32 1011 43 10000 3.6 340 15:18 06.10.2019
6687 Clear 32 1012 40 10000 3.1 360 14:42 06.10.2019
6688 -273 0 0 0 0 0 14:24 06.10.2019
6689 Clear 32 1012 40 10000 3.6 20 13:58 06.10.2019
6690 Clear 31 1012 43 10000 3.6 340 13:39 06.10.2019
6691 Clear 31 1012 45 10000 3.6 10 13:20 06.10.2019
6692 Clear 31 1012 45 10000 3.6 10 12:57 06.10.2019
6693 Clear 31 1012 45 10000 3.6 10 12:57 06.10.2019
6694 Clear 31 1012 45 10000 3.6 10 12:57 06.10.2019
6695 Clear 31 1013 43 10000 4.1 10 12:38 06.10.2019
6696 Clear 31 1013 43 10000 4.1 10 12:20 06.10.2019
6697